<?xml version="1.0" encoding="UTF-8" standalone="no" ?>
<gpx xmlns="http://www.topografix.com/GPX/1/1" xmlns:xsi="http://www.w3.org/2001/XMLSchema-instance" xsi:schemaLocation="http://www.topografix.com/GPX/1/1 http://www.topografix.com/GPX/1/1/gpx.xsd" version="1.1" creator="VisuGPX - https://www.visugpx.com">
  <metadata>
    <name>Coupe Du Chasseron 2017</name>
    <desc><![CDATA[Garmin Bike Cup Coupe Du Chasseron 2017]]></desc>
  </metadata>
  <trk>
    <name><![CDATA[Coupe du Chasseron 2017 34.2 km Hommes]]></name>
    <trkseg>
      <trkpt lat="46.82914" lon="6.53778">
        <ele>1200.5999755859</ele>
        <time>2017-04-24T06:16:20.000Z</time>
      </trkpt>
      <trkpt lat="46.82914" lon="6.53778">
        <ele>1205.1999511719</ele>
        <time>2017-04-24T06:16:21.000Z</time>
      </trkpt>
      <trkpt lat="46.82914" lon="6.5378">
        <ele>1207</ele>
        <time>2017-04-24T06:16:22.000Z</time>
      </trkpt>
      <trkpt lat="46.82914" lon="6.53785">
        <ele>1208.1999511719</ele>
        <time>2017-04-24T06:16:24.000Z</time>
      </trkpt>
      <trkpt lat="46.82917" lon="6.53798">
        <ele>1208.5999755859</ele>
        <time>2017-04-24T06:16:27.000Z</time>
      </trkpt>
      <trkpt lat="46.82919" lon="6.53809">
        <ele>1208.8000488281</ele>
        <time>2017-04-24T06:16:29.000Z</time>
      </trkpt>
      <trkpt lat="46.8293" lon="6.5385">
        <ele>1208.5999755859</ele>
        <time>2017-04-24T06:16:35.000Z</time>
      </trkpt>
      <trkpt lat="46.82935" lon="6.53864">
        <ele>1208.5999755859</ele>
        <time>2017-04-24T06:16:37.000Z</time>
      </trkpt>
      <trkpt lat="46.82943" lon="6.53893">
        <ele>1209.4000244141</ele>
        <time>2017-04-24T06:16:41.000Z</time>
      </trkpt>
      <trkpt lat="46.82956" lon="6.53908">
        <ele>1209.1999511719</ele>
        <time>2017-04-24T06:16:44.000Z</time>
      </trkpt>
      <trkpt lat="46.8296" lon="6.53913">
        <ele>1208.8000488281</ele>
        <time>2017-04-24T06:16:45.000Z</time>
      </trkpt>
      <trkpt lat="46.82967" lon="6.53927">
        <ele>1208.5999755859</ele>
        <time>2017-04-24T06:16:47.000Z</time>
      </trkpt>
      <trkpt lat="46.82971" lon="6.53942">
        <ele>1208.5999755859</ele>
        <time>2017-04-24T06:16:49.000Z</time>
      </trkpt>
      <trkpt lat="46.82976" lon="6.53966">
        <ele>1208.8000488281</ele>
        <time>2017-04-24T06:16:52.000Z</time>
      </trkpt>
      <trkpt lat="46.8298" lon="6.5399">
        <ele>1208.8000488281</ele>
        <time>2017-04-24T06:16:55.000Z</time>
      </trkpt>
      <trkpt lat="46.82982" lon="6.54007">
        <ele>1208.5999755859</ele>
        <time>2017-04-24T06:16:57.000Z</time>
      </trkpt>
      <trkpt lat="46.82983" lon="6.54015">
        <ele>1208.5999755859</ele>
        <time>2017-04-24T06:16:58.000Z</time>
      </trkpt>
      <trkpt lat="46.82997" lon="6.54065">
        <ele>1209</ele>
        <time>2017-04-24T06:17:05.000Z</time>
      </trkpt>
      <trkpt lat="46.83003" lon="6.54084">
        <ele>1210</ele>
        <time>2017-04-24T06:17:08.000Z</time>
      </trkpt>
      <trkpt lat="46.83009" lon="6.54102">
        <ele>1211.1999511719</ele>
        <time>2017-04-24T06:17:11.000Z</time>
      </trkpt>
      <trkpt lat="46.83011" lon="6.54108">
        <ele>1211.5999755859</ele>
        <time>2017-04-24T06:17:12.000Z</time>
      </trkpt>
      <trkpt lat="46.8302" lon="6.54139">
        <ele>1212.4000244141</ele>
        <time>2017-04-24T06:17:17.000Z</time>
      </trkpt>
      <trkpt lat="46.83022" lon="6.54145">
        <ele>1212.5999755859</ele>
        <time>2017-04-24T06:17:18.000Z</time>
      </trkpt>
      <trkpt lat="46.83035" lon="6.54175">
        <ele>1213.5999755859</ele>
        <time>2017-04-24T06:17:23.000Z</time>
      </trkpt>
      <trkpt lat="46.83038" lon="6.54181">
        <ele>1213.8000488281</ele>
        <time>2017-04-24T06:17:24.000Z</time>
      </trkpt>
      <trkpt lat="46.83051" lon="6.54209">
        <ele>1215</ele>
        <time>2017-04-24T06:17:29.000Z</time>
      </trkpt>
      <trkpt lat="46.83054" lon="6.54215">
        <ele>1215</ele>
        <time>2017-04-24T06:17:30.000Z</time>
      </trkpt>
      <trkpt lat="46.83084" lon="6.5426">
        <ele>1219.1999511719</ele>
        <time>2017-04-24T06:19:52.000Z</time>
      </trkpt>
      <trkpt lat="46.83087" lon="6.54261">
        <ele>1219.4000244141</ele>
        <time>2017-04-24T06:19:53.000Z</time>
      </trkpt>
      <trkpt lat="46.83095" lon="6.5427">
        <ele>1220</ele>
        <time>2017-04-24T06:19:56.000Z</time>
      </trkpt>
      <trkpt lat="46.83099" lon="6.54274">
        <ele>1220.4000244141</ele>
        <time>2017-04-24T06:19:57.000Z</time>
      </trkpt>
      <trkpt lat="46.83119" lon="6.54296">
        <ele>1221.8000488281</ele>
        <time>2017-04-24T06:20:02.000Z</time>
      </trkpt>
      <trkpt lat="46.83132" lon="6.54307">
        <ele>1223</ele>
        <time>2017-04-24T06:20:05.000Z</time>
      </trkpt>
      <trkpt lat="46.83145" lon="6.54317">
        <ele>1224.4000244141</ele>
        <time>2017-04-24T06:20:08.000Z</time>
      </trkpt>
      <trkpt lat="46.83149" lon="6.54319">
        <ele>1224.8000488281</ele>
        <time>2017-04-24T06:20:09.000Z</time>
      </trkpt>
      <trkpt lat="46.83153" lon="6.54322">
        <ele>1225.4000244141</ele>
        <time>2017-04-24T06:20:10.000Z</time>
      </trkpt>
      <trkpt lat="46.83165" lon="6.54328">
        <ele>1227.1999511719</ele>
        <time>2017-04-24T06:20:13.000Z</time>
      </trkpt>
      <trkpt lat="46.83177" lon="6.54335">
        <ele>1228.5999755859</ele>
        <time>2017-04-24T06:20:16.000Z</time>
      </trkpt>
      <trkpt lat="46.83181" lon="6.54337">
        <ele>1229.1999511719</ele>
        <time>2017-04-24T06:20:17.000Z</time>
      </trkpt>
      <trkpt lat="46.83189" lon="6.5434">
        <ele>1229.5999755859</ele>
        <time>2017-04-24T06:20:19.000Z</time>
      </trkpt>
      <trkpt lat="46.83196" lon="6.54344">
        <ele>1230.8000488281</ele>
        <time>2017-04-24T06:20:21.000Z</time>
      </trkpt>
      <trkpt lat="46.83207" lon="6.5435">
        <ele>1232.1999511719</ele>
        <time>2017-04-24T06:20:24.000Z</time>
      </trkpt>
      <trkpt lat="46.83215" lon="6.54354">
        <ele>1232.8000488281</ele>
        <time>2017-04-24T06:20:26.000Z</time>
      </trkpt>
      <trkpt lat="46.83222" lon="6.54358">
        <ele>1233.5999755859</ele>
        <time>2017-04-24T06:20:28.000Z</time>
      </trkpt>
      <trkpt lat="46.83233" lon="6.54363">
        <ele>1234.8000488281</ele>
        <time>2017-04-24T06:20:31.000Z</time>
      </trkpt>
      <trkpt lat="46.83244" lon="6.54369">
        <ele>1235.8000488281</ele>
        <time>2017-04-24T06:20:34.000Z</time>
      </trkpt>
      <trkpt lat="46.83248" lon="6.54371">
        <ele>1236.5999755859</ele>
        <time>2017-04-24T06:20:35.000Z</time>
      </trkpt>
      <trkpt lat="46.83255" lon="6.54376">
        <ele>1237.1999511719</ele>
        <time>2017-04-24T06:20:37.000Z</time>
      </trkpt>
      <trkpt lat="46.8327" lon="6.54386">
        <ele>1238.4000244141</ele>
        <time>2017-04-24T06:20:41.000Z</time>
      </trkpt>
      <trkpt lat="46.83276" lon="6.54393">
        <ele>1239</ele>
        <time>2017-04-24T06:20:43.000Z</time>
      </trkpt>
      <trkpt lat="46.83282" lon="6.544">
        <ele>1239.5999755859</ele>
        <time>2017-04-24T06:20:45.000Z</time>
      </trkpt>
      <trkpt lat="46.83295" lon="6.54412">
        <ele>1240.8000488281</ele>
        <time>2017-04-24T06:20:49.000Z</time>
      </trkpt>
      <trkpt lat="46.83298" lon="6.54412">
        <ele>1241.5999755859</ele>
        <time>2017-04-24T06:20:50.000Z</time>
      </trkpt>
      <trkpt lat="46.83302" lon="6.54408">
        <ele>1242.1999511719</ele>
        <time>2017-04-24T06:20:52.000Z</time>
      </trkpt>
      <trkpt lat="46.83304" lon="6.54402">
        <ele>1243.8000488281</ele>
        <time>2017-04-24T06:20:54.000Z</time>
      </trkpt>
      <trkpt lat="46.83303" lon="6.54395">
        <ele>1244.5999755859</ele>
        <time>2017-04-24T06:20:56.000Z</time>
      </trkpt>
      <trkpt lat="46.83302" lon="6.54391">
        <ele>1244.8000488281</ele>
        <time>2017-04-24T06:20:57.000Z</time>
      </trkpt>
      <trkpt lat="46.833" lon="6.54378">
        <ele>1246</ele>
        <time>2017-04-24T06:21:00.000Z</time>
      </trkpt>
      <trkpt lat="46.83299" lon="6.54369">
        <ele>1246.8000488281</ele>
        <time>2017-04-24T06:21:02.000Z</time>
      </trkpt>
      <trkpt lat="46.83299" lon="6.54364">
        <ele>1247</ele>
        <time>2017-04-24T06:21:03.000Z</time>
      </trkpt>
      <trkpt lat="46.83296" lon="6.54344">
        <ele>1247.5999755859</ele>
        <time>2017-04-24T06:21:07.000Z</time>
      </trkpt>
      <trkpt lat="46.83296" lon="6.54329">
        <ele>1248.4000244141</ele>
        <time>2017-04-24T06:21:10.000Z</time>
      </trkpt>
      <trkpt lat="46.83295" lon="6.54309">
        <ele>1249.4000244141</ele>
        <time>2017-04-24T06:21:14.000Z</time>
      </trkpt>
      <trkpt lat="46.83296" lon="6.54304">
        <ele>1249.5999755859</ele>
        <time>2017-04-24T06:21:15.000Z</time>
      </trkpt>
      <trkpt lat="46.83296" lon="6.54292">
        <ele>1250.8000488281</ele>
        <time>2017-04-24T06:21:18.000Z</time>
      </trkpt>
      <trkpt lat="46.83296" lon="6.54283">
        <ele>1251.8000488281</ele>
        <time>2017-04-24T06:21:20.000Z</time>
      </trkpt>
      <trkpt lat="46.83296" lon="6.54275">
        <ele>1252.5999755859</ele>
        <time>2017-04-24T06:21:22.000Z</time>
      </trkpt>
      <trkpt lat="46.83296" lon="6.54267">
        <ele>1253.1999511719</ele>
        <time>2017-04-24T06:21:24.000Z</time>
      </trkpt>
      <trkpt lat="46.83297" lon="6.54255">
        <ele>1254.1999511719</ele>
        <time>2017-04-24T06:21:27.000Z</time>
      </trkpt>
      <trkpt lat="46.83298" lon="6.54248">
        <ele>1254.5999755859</ele>
        <time>2017-04-24T06:21:29.000Z</time>
      </trkpt>
      <trkpt lat="46.83302" lon="6.54243">
        <ele>1255.5999755859</ele>
        <time>2017-04-24T06:21:31.000Z</time>
      </trkpt>
      <trkpt lat="46.83304" lon="6.54242">
        <ele>1256</ele>
        <time>2017-04-24T06:21:32.000Z</time>
      </trkpt>
      <trkpt lat="46.83306" lon="6.54243">
        <ele>1256.5999755859</ele>
        <time>2017-04-24T06:21:33.000Z</time>
      </trkpt>
      <trkpt lat="46.83308" lon="6.54245">
        <ele>1256.8000488281</ele>
        <time>2017-04-24T06:21:34.000Z</time>
      </trkpt>
      <trkpt lat="46.83313" lon="6.54253">
        <ele>1258.1999511719</ele>
        <time>2017-04-24T06:21:37.000Z</time>
      </trkpt>
      <trkpt lat="46.83314" lon="6.54256">
        <ele>1258.4000244141</ele>
        <time>2017-04-24T06:21:38.000Z</time>
      </trkpt>
      <trkpt lat="46.83317" lon="6.54262">
        <ele>1258.8000488281</ele>
        <time>2017-04-24T06:21:40.000Z</time>
      </trkpt>
      <trkpt lat="46.83323" lon="6.54273">
        <ele>1259.1999511719</ele>
        <time>2017-04-24T06:21:43.000Z</time>
      </trkpt>
      <trkpt lat="46.83325" lon="6.54276">
        <ele>1259.4000244141</ele>
        <time>2017-04-24T06:21:44.000Z</time>
      </trkpt>
      <trkpt lat="46.83332" lon="6.54287">
        <ele>1260.4000244141</ele>
        <time>2017-04-24T06:21:47.000Z</time>
      </trkpt>
      <trkpt lat="46.83334" lon="6.5429">
        <ele>1260.5999755859</ele>
        <time>2017-04-24T06:21:48.000Z</time>
      </trkpt>
      <trkpt lat="46.83345" lon="6.54301">
        <ele>1261.5999755859</ele>
        <time>2017-04-24T06:21:52.000Z</time>
      </trkpt>
      <trkpt lat="46.83347" lon="6.54304">
        <ele>1261.8000488281</ele>
        <time>2017-04-24T06:21:53.000Z</time>
      </trkpt>
      <trkpt lat="46.83356" lon="6.54312">
        <ele>1262.8000488281</ele>
        <time>2017-04-24T06:21:56.000Z</time>
      </trkpt>
      <trkpt lat="46.83366" lon="6.54323">
        <ele>1263.8000488281</ele>
        <time>2017-04-24T06:22:00.000Z</time>
      </trkpt>
      <trkpt lat="46.83376" lon="6.54336">
        <ele>1265.1999511719</ele>
        <time>2017-04-24T06:22:04.000Z</time>
      </trkpt>
      <trkpt lat="46.83378" lon="6.5434">
        <ele>1265.5999755859</ele>
        <time>2017-04-24T06:22:05.000Z</time>
      </trkpt>
      <trkpt lat="46.83393" lon="6.54356">
        <ele>1266.4000244141</ele>
        <time>2017-04-24T06:22:10.000Z</time>
      </trkpt>
      <trkpt lat="46.83403" lon="6.54366">
        <ele>1267.1999511719</ele>
        <time>2017-04-24T06:22:13.000Z</time>
      </trkpt>
      <trkpt lat="46.83405" lon="6.5437">
        <ele>1267.1999511719</ele>
        <time>2017-04-24T06:22:14.000Z</time>
      </trkpt>
      <trkpt lat="46.83408" lon="6.54374">
        <ele>1267.5999755859</ele>
        <time>2017-04-24T06:22:15.000Z</time>
      </trkpt>
      <trkpt lat="46.83419" lon="6.54388">
        <ele>1268.5999755859</ele>
        <time>2017-04-24T06:22:19.000Z</time>
      </trkpt>
      <trkpt lat="46.83422" lon="6.54391">
        <ele>1268.8000488281</ele>
        <time>2017-04-24T06:22:20.000Z</time>
      </trkpt>
      <trkpt lat="46.83437" lon="6.54409">
        <ele>1269</ele>
        <time>2017-04-24T06:22:25.000Z</time>
      </trkpt>
      <trkpt lat="46.83446" lon="6.54415">
        <ele>1270</ele>
        <time>2017-04-24T06:22:28.000Z</time>
      </trkpt>
      <trkpt lat="46.83449" lon="6.54415">
        <ele>1270.5999755859</ele>
        <time>2017-04-24T06:22:29.000Z</time>
      </trkpt>
      <trkpt lat="46.83454" lon="6.54412">
        <ele>1271.4000244141</ele>
        <time>2017-04-24T06:22:31.000Z</time>
      </trkpt>
      <trkpt lat="46.83454" lon="6.54408">
        <ele>1272</ele>
        <time>2017-04-24T06:22:32.000Z</time>
      </trkpt>
      <trkpt lat="46.83454" lon="6.54405">
        <ele>1272.4000244141</ele>
        <time>2017-04-24T06:22:33.000Z</time>
      </trkpt>
      <trkpt lat="46.83451" lon="6.54392">
        <ele>1273</ele>
        <time>2017-04-24T06:22:36.000Z</time>
      </trkpt>
      <trkpt lat="46.83447" lon="6.54375">
        <ele>1274.5999755859</ele>
        <time>2017-04-24T06:22:40.000Z</time>
      </trkpt>
      <trkpt lat="46.83445" lon="6.5437">
        <ele>1275</ele>
        <time>2017-04-24T06:22:41.000Z</time>
      </trkpt>
      <trkpt lat="46.83443" lon="6.54361">
        <ele>1275.8000488281</ele>
        <time>2017-04-24T06:22:43.000Z</time>
      </trkpt>
      <trkpt lat="46.83439" lon="6.54348">
        <ele>1276.8000488281</ele>
        <time>2017-04-24T06:22:46.000Z</time>
      </trkpt>
      <trkpt lat="46.83437" lon="6.54339">
        <ele>1277.4000244141</ele>
        <time>2017-04-24T06:22:48.000Z</time>
      </trkpt>
      <trkpt lat="46.83435" lon="6.54331">
        <ele>1278.4000244141</ele>
        <time>2017-04-24T06:22:50.000Z</time>
      </trkpt>
      <trkpt lat="46.83431" lon="6.54317">
        <ele>1279.4000244141</ele>
        <time>2017-04-24T06:22:53.000Z</time>
      </trkpt>
      <trkpt lat="46.83429" lon="6.54308">
        <ele>1280.1999511719</ele>
        <time>2017-04-24T06:22:55.000Z</time>
      </trkpt>
      <trkpt lat="46.83428" lon="6.54303">
        <ele>1280.4000244141</ele>
        <time>2017-04-24T06:22:56.000Z</time>
      </trkpt>
      <trkpt lat="46.83424" lon="6.54282">
        <ele>1281.5999755859</ele>
        <time>2017-04-24T06:23:00.000Z</time>
      </trkpt>
      <trkpt lat="46.83424" lon="6.54277">
        <ele>1282.1999511719</ele>
        <time>2017-04-24T06:23:01.000Z</time>
      </trkpt>
      <trkpt lat="46.83422" lon="6.54266">
        <ele>1282.8000488281</ele>
        <time>2017-04-24T06:23:03.000Z</time>
      </trkpt>
      <trkpt lat="46.83417" lon="6.54244">
        <ele>1283.5999755859</ele>
        <time>2017-04-24T06:23:07.000Z</time>
      </trkpt>
      <trkpt lat="46.83416" lon="6.54239">
        <ele>1284.1999511719</ele>
        <time>2017-04-24T06:23:08.000Z</time>
      </trkpt>
      <trkpt lat="46.83412" lon="6.54216">
        <ele>1285.1999511719</ele>
        <time>2017-04-24T06:23:12.000Z</time>
      </trkpt>
      <trkpt lat="46.83409" lon="6.542">
        <ele>1286.4000244141</ele>
        <time>2017-04-24T06:23:15.000Z</time>
      </trkpt>
      <trkpt lat="46.83408" lon="6.54195">
        <ele>1286.8000488281</ele>
        <time>2017-04-24T06:23:16.000Z</time>
      </trkpt>
      <trkpt lat="46.83407" lon="6.54184">
        <ele>1287.4000244141</ele>
        <time>2017-04-24T06:23:18.000Z</time>
      </trkpt>
      <trkpt lat="46.83406" lon="6.54168">
        <ele>1288.5999755859</ele>
        <time>2017-04-24T06:23:21.000Z</time>
      </trkpt>
      <trkpt lat="46.83406" lon="6.54163">
        <ele>1288.8000488281</ele>
        <time>2017-04-24T06:23:22.000Z</time>
      </trkpt>
      <trkpt lat="46.83408" lon="6.54154">
        <ele>1290</ele>
        <time>2017-04-24T06:23:24.000Z</time>
      </trkpt>
      <trkpt lat="46.83411" lon="6.54146">
        <ele>1291.1999511719</ele>
        <time>2017-04-24T06:23:26.000Z</time>
      </trkpt>
      <trkpt lat="46.83413" lon="6.54143">
        <ele>1291.5999755859</ele>
        <time>2017-04-24T06:23:27.000Z</time>
      </trkpt>
      <trkpt lat="46.83418" lon="6.54134">
        <ele>1292.8000488281</ele>
        <time>2017-04-24T06:23:30.000Z</time>
      </trkpt>
      <trkpt lat="46.83421" lon="6.54127">
        <ele>1293.8000488281</ele>
        <time>2017-04-24T06:23:32.000Z</time>
      </trkpt>
      <trkpt lat="46.83421" lon="6.54124">
        <ele>1294.4000244141</ele>
        <time>2017-04-24T06:23:33.000Z</time>
      </trkpt>
      <trkpt lat="46.8342" lon="6.54119">
        <ele>1295.1999511719</ele>
        <time>2017-04-24T06:23:35.000Z</time>
      </trkpt>
      <trkpt lat="46.83418" lon="6.54111">
        <ele>1296.4000244141</ele>
        <time>2017-04-24T06:23:38.000Z</time>
      </trkpt>
      <trkpt lat="46.83421" lon="6.54104">
        <ele>1297.5999755859</ele>
        <time>2017-04-24T06:23:41.000Z</time>
      </trkpt>
      <trkpt lat="46.83421" lon="6.54101">
        <ele>1298</ele>
        <time>2017-04-24T06:23:42.000Z</time>
      </trkpt>
      <trkpt lat="46.83415" lon="6.54093">
        <ele>1298.5999755859</ele>
        <time>2017-04-24T06:23:45.000Z</time>
      </trkpt>
      <trkpt lat="46.83415" lon="6.54085">
        <ele>1299</ele>
        <time>2017-04-24T06:23:47.000Z</time>
      </trkpt>
      <trkpt lat="46.83414" lon="6.54077">
        <ele>1299.4000244141</ele>
        <time>2017-04-24T06:23:49.000Z</time>
      </trkpt>
      <trkpt lat="46.83413" lon="6.54067">
        <ele>1300</ele>
        <time>2017-04-24T06:23:51.000Z</time>
      </trkpt>
      <trkpt lat="46.83413" lon="6.54062">
        <ele>1300</ele>
        <time>2017-04-24T06:23:52.000Z</time>
      </trkpt>
      <trkpt lat="46.83413" lon="6.54052">
        <ele>1300.4000244141</ele>
        <time>2017-04-24T06:23:54.000Z</time>
      </trkpt>
      <trkpt lat="46.83413" lon="6.54042">
        <ele>1300.8000488281</ele>
        <time>2017-04-24T06:23:56.000Z</time>
      </trkpt>
      <trkpt lat="46.83414" lon="6.54037">
        <ele>1301.4000244141</ele>
        <time>2017-04-24T06:23:57.000Z</time>
      </trkpt>
      <trkpt lat="46.83415" lon="6.54021">
        <ele>1302</ele>
        <time>2017-04-24T06:24:00.000Z</time>
      </trkpt>
      <trkpt lat="46.83412" lon="6.54001">
        <ele>1302.8000488281</ele>
        <time>2017-04-24T06:24:04.000Z</time>
      </trkpt>
      <trkpt lat="46.8341" lon="6.5399">
        <ele>1303.1999511719</ele>
        <time>2017-04-24T06:24:06.000Z</time>
      </trkpt>
      <trkpt lat="46.83403" lon="6.53969">
        <ele>1303.8000488281</ele>
        <time>2017-04-24T06:24:10.000Z</time>
      </trkpt>
      <trkpt lat="46.83398" lon="6.53958">
        <ele>1305</ele>
        <time>2017-04-24T06:24:13.000Z</time>
      </trkpt>
      <trkpt lat="46.8339" lon="6.53946">
        <ele>1306.1999511719</ele>
        <time>2017-04-24T06:24:17.000Z</time>
      </trkpt>
      <trkpt lat="46.83387" lon="6.53941">
        <ele>1307</ele>
        <time>2017-04-24T06:24:19.000Z</time>
      </trkpt>
      <trkpt lat="46.83385" lon="6.53938">
        <ele>1307.4000244141</ele>
        <time>2017-04-24T06:24:20.000Z</time>
      </trkpt>
      <trkpt lat="46.83378" lon="6.53928">
        <ele>1308.8000488281</ele>
        <time>2017-04-24T06:24:23.000Z</time>
      </trkpt>
      <trkpt lat="46.83375" lon="6.5392">
        <ele>1309</ele>
        <time>2017-04-24T06:24:25.000Z</time>
      </trkpt>
      <trkpt lat="46.83368" lon="6.53905">
        <ele>1309.4000244141</ele>
        <time>2017-04-24T06:24:28.000Z</time>
      </trkpt>
      <trkpt lat="46.8336" lon="6.5389">
        <ele>1309.4000244141</ele>
        <time>2017-04-24T06:24:31.000Z</time>
      </trkpt>
      <trkpt lat="46.83351" lon="6.53874">
        <ele>1309.4000244141</ele>
        <time>2017-04-24T06:24:34.000Z</time>
      </trkpt>
      <trkpt lat="46.83341" lon="6.53856">
        <ele>1308.8000488281</ele>
        <time>2017-04-24T06:24:37.000Z</time>
      </trkpt>
      <trkpt lat="46.83318" lon="6.53821">
        <ele>1308</ele>
        <time>2017-04-24T06:24:43.000Z</time>
      </trkpt>
      <trkpt lat="46.83309" lon="6.5381">
        <ele>1307.8000488281</ele>
        <time>2017-04-24T06:24:45.000Z</time>
      </trkpt>
      <trkpt lat="46.833" lon="6.53799">
        <ele>1307.8000488281</ele>
        <time>2017-04-24T06:24:47.000Z</time>
      </trkpt>
      <trkpt lat="46.83285" lon="6.53781">
        <ele>1309.1999511719</ele>
        <time>2017-04-24T06:24:51.000Z</time>
      </trkpt>
      <trkpt lat="46.83278" lon="6.53772">
        <ele>1310.8000488281</ele>
        <time>2017-04-24T06:24:53.000Z</time>
      </trkpt>
      <trkpt lat="46.83276" lon="6.53767">
        <ele>1311.1999511719</ele>
        <time>2017-04-24T06:24:54.000Z</time>
      </trkpt>
      <trkpt lat="46.83273" lon="6.53756">
        <ele>1311.8000488281</ele>
        <time>2017-04-24T06:24:56.000Z</time>
      </trkpt>
      <trkpt lat="46.83271" lon="6.53749">
        <ele>1312</ele>
        <time>2017-04-24T06:24:57.000Z</time>
      </trkpt>
      <trkpt lat="46.83268" lon="6.5373">
        <ele>1312.5999755859</ele>
        <time>2017-04-24T06:25:00.000Z</time>
      </trkpt>
      <trkpt lat="46.83269" lon="6.53717">
        <ele>1312.5999755859</ele>
        <time>2017-04-24T06:25:02.000Z</time>
      </trkpt>
      <trkpt lat="46.83271" lon="6.5371">
        <ele>1312.8000488281</ele>
        <time>2017-04-24T06:25:03.000Z</time>
      </trkpt>
      <trkpt lat="46.83279" lon="6.53691">
        <ele>1313</ele>
        <time>2017-04-24T06:25:06.000Z</time>
      </trkpt>
      <trkpt lat="46.83285" lon="6.53666">
        <ele>1312.5999755859</ele>
        <time>2017-04-24T06:25:10.000Z</time>
      </trkpt>
      <trkpt lat="46.83281" lon="6.53653">
        <ele>1313</ele>
        <time>2017-04-24T06:25:12.000Z</time>
      </trkpt>
      <trkpt lat="46.83279" lon="6.53647">
        <ele>1313.1999511719</ele>
        <time>2017-04-24T06:25:13.000Z</time>
      </trkpt>
      <trkpt lat="46.83278" lon="6.53641">
        <ele>1313.4000244141</ele>
        <time>2017-04-24T06:25:14.000Z</time>
      </trkpt>
      <trkpt lat="46.83274" lon="6.5363">
        <ele>1314</ele>
        <time>2017-04-24T06:25:16.000Z</time>
      </trkpt>
      <trkpt lat="46.8327" lon="6.5362">
        <ele>1314.5999755859</ele>
        <time>2017-04-24T06:25:18.000Z</time>
      </trkpt>
      <trkpt lat="46.83268" lon="6.53614">
        <ele>1314.8000488281</ele>
        <time>2017-04-24T06:25:19.000Z</time>
      </trkpt>
      <trkpt lat="46.83257" lon="6.53589">
        <ele>1314.8000488281</ele>
        <time>2017-04-24T06:25:23.000Z</time>
      </trkpt>
      <trkpt lat="46.8324" lon="6.53567">
        <ele>1314.5999755859</ele>
        <time>2017-04-24T06:25:27.000Z</time>
      </trkpt>
      <trkpt lat="46.8323" lon="6.53551">
        <ele>1315.4000244141</ele>
        <time>2017-04-24T06:25:30.000Z</time>
      </trkpt>
      <trkpt lat="46.83228" lon="6.53545">
        <ele>1315.5999755859</ele>
        <time>2017-04-24T06:25:31.000Z</time>
      </trkpt>
      <trkpt lat="46.83224" lon="6.53528">
        <ele>1316.8000488281</ele>
        <time>2017-04-24T06:25:34.000Z</time>
      </trkpt>
      <trkpt lat="46.83224" lon="6.53522">
        <ele>1317.1999511719</ele>
        <time>2017-04-24T06:25:35.000Z</time>
      </trkpt>
      <trkpt lat="46.83223" lon="6.53512">
        <ele>1317.8000488281</ele>
        <time>2017-04-24T06:25:37.000Z</time>
      </trkpt>
      <trkpt lat="46.83221" lon="6.53502">
        <ele>1319.4000244141</ele>
        <time>2017-04-24T06:25:39.000Z</time>
      </trkpt>
      <trkpt lat="46.83219" lon="6.53498">
        <ele>1319.8000488281</ele>
        <time>2017-04-24T06:25:40.000Z</time>
      </trkpt>
      <trkpt lat="46.83217" lon="6.53494">
        <ele>1320.4000244141</ele>
        <time>2017-04-24T06:25:41.000Z</time>
      </trkpt>
      <trkpt lat="46.83216" lon="6.5349">
        <ele>1320.5999755859</ele>
        <time>2017-04-24T06:25:42.000Z</time>
      </trkpt>
      <trkpt lat="46.83212" lon="6.53478">
        <ele>1321.5999755859</ele>
        <time>2017-04-24T06:25:45.000Z</time>
      </trkpt>
      <trkpt lat="46.83211" lon="6.53461">
        <ele>1322.8000488281</ele>
        <time>2017-04-24T06:25:49.000Z</time>
      </trkpt>
      <trkpt lat="46.83211" lon="6.53455">
        <ele>1324.1999511719</ele>
        <time>2017-04-24T06:25:51.000Z</time>
      </trkpt>
      <trkpt lat="46.8321" lon="6.53444">
        <ele>1325</ele>
        <time>2017-04-24T06:25:54.000Z</time>
      </trkpt>
      <trkpt lat="46.8321" lon="6.53441">
        <ele>1325.5999755859</ele>
        <time>2017-04-24T06:25:55.000Z</time>
      </trkpt>
      <trkpt lat="46.83209" lon="6.53436">
        <ele>1326.5999755859</ele>
        <time>2017-04-24T06:25:57.000Z</time>
      </trkpt>
      <trkpt lat="46.83209" lon="6.53431">
        <ele>1328</ele>
        <time>2017-04-24T06:25:59.000Z</time>
      </trkpt>
      <trkpt lat="46.83212" lon="6.53421">
        <ele>1329.1999511719</ele>
        <time>2017-04-24T06:26:02.000Z</time>
      </trkpt>
      <trkpt lat="46.83213" lon="6.53418">
        <ele>1329.4000244141</ele>
        <time>2017-04-24T06:26:03.000Z</time>
      </trkpt>
      <trkpt lat="46.83214" lon="6.53407">
        <ele>1330.4000244141</ele>
        <time>2017-04-24T06:26:06.000Z</time>
      </trkpt>
      <trkpt lat="46.83214" lon="6.53403">
        <ele>1330.5999755859</ele>
        <time>2017-04-24T06:26:07.000Z</time>
      </trkpt>
      <trkpt lat="46.8321" lon="6.53378">
        <ele>1330.1999511719</ele>
        <time>2017-04-24T06:26:12.000Z</time>
      </trkpt>
      <trkpt lat="46.8321" lon="6.53369">
        <ele>1330.4000244141</ele>
        <time>2017-04-24T06:26:14.000Z</time>
      </trkpt>
      <trkpt lat="46.8321" lon="6.53359">
        <ele>1330.5999755859</ele>
        <time>2017-04-24T06:26:16.000Z</time>
      </trkpt>
      <trkpt lat="46.8321" lon="6.53346">
        <ele>1330.5999755859</ele>
        <time>2017-04-24T06:26:18.000Z</time>
      </trkpt>
      <trkpt lat="46.83211" lon="6.53334">
        <ele>1330.4000244141</ele>
        <time>2017-04-24T06:26:20.000Z</time>
      </trkpt>
      <trkpt lat="46.83211" lon="6.53327">
        <ele>1330</ele>
        <time>2017-04-24T06:26:21.000Z</time>
      </trkpt>
      <trkpt lat="46.83211" lon="6.5332">
        <ele>1329.5999755859</ele>
        <time>2017-04-24T06:26:22.000Z</time>
      </trkpt>
      <trkpt lat="46.83213" lon="6.53306">
        <ele>1329</ele>
        <time>2017-04-24T06:26:24.000Z</time>
      </trkpt>
      <trkpt lat="46.83216" lon="6.53294">
        <ele>1329</ele>
        <time>2017-04-24T06:26:26.000Z</time>
      </trkpt>
      <trkpt lat="46.83217" lon="6.53289">
        <ele>1329.1999511719</ele>
        <time>2017-04-24T06:26:27.000Z</time>
      </trkpt>
      <trkpt lat="46.83219" lon="6.53277">
        <ele>1331.1999511719</ele>
        <time>2017-04-24T06:26:30.000Z</time>
      </trkpt>
      <trkpt lat="46.8322" lon="6.53273">
        <ele>1331.8000488281</ele>
        <time>2017-04-24T06:26:31.000Z</time>
      </trkpt>
      <trkpt lat="46.83221" lon="6.5327">
        <ele>1332.1999511719</ele>
        <time>2017-04-24T06:26:32.000Z</time>
      </trkpt>
      <trkpt lat="46.83221" lon="6.53266">
        <ele>1332.8000488281</ele>
        <time>2017-04-24T06:26:33.000Z</time>
      </trkpt>
      <trkpt lat="46.8322" lon="6.53258">
        <ele>1333.5999755859</ele>
        <time>2017-04-24T06:26:35.000Z</time>
      </trkpt>
      <trkpt lat="46.83218" lon="6.53255">
        <ele>1333.8000488281</ele>
        <time>2017-04-24T06:26:36.000Z</time>
      </trkpt>
      <trkpt lat="46.8321" lon="6.53251">
        <ele>1333</ele>
        <time>2017-04-24T06:26:40.000Z</time>
      </trkpt>
      <trkpt lat="46.83207" lon="6.53255">
        <ele>1331.1999511719</ele>
        <time>2017-04-24T06:26:41.000Z</time>
      </trkpt>
      <trkpt lat="46.83203" lon="6.53257">
        <ele>1329.8000488281</ele>
        <time>2017-04-24T06:26:42.000Z</time>
      </trkpt>
      <trkpt lat="46.83199" lon="6.53259">
        <ele>1328.5999755859</ele>
        <time>2017-04-24T06:26:44.000Z</time>
      </trkpt>
      <trkpt lat="46.83197" lon="6.53263">
        <ele>1328</ele>
        <time>2017-04-24T06:26:45.000Z</time>
      </trkpt>
      <trkpt lat="46.83195" lon="6.53269">
        <ele>1327.1999511719</ele>
        <time>2017-04-24T06:26:46.000Z</time>
      </trkpt>
      <trkpt lat="46.83191" lon="6.53272">
        <ele>1326</ele>
        <time>2017-04-24T06:26:47.000Z</time>
      </trkpt>
      <trkpt lat="46.83188" lon="6.53273">
        <ele>1325.4000244141</ele>
        <time>2017-04-24T06:26:48.000Z</time>
      </trkpt>
      <trkpt lat="46.83186" lon="6.53272">
        <ele>1324.8000488281</ele>
        <time>2017-04-24T06:26:49.000Z</time>
      </trkpt>
      <trkpt lat="46.83182" lon="6.5327">
        <ele>1323.1999511719</ele>
        <time>2017-04-24T06:26:51.000Z</time>
      </trkpt>
      <trkpt lat="46.83179" lon="6.53269">
        <ele>1322.8000488281</ele>
        <time>2017-04-24T06:26:52.000Z</time>
      </trkpt>
      <trkpt lat="46.83175" lon="6.53268">
        <ele>1322</ele>
        <time>2017-04-24T06:26:53.000Z</time>
      </trkpt>
      <trkpt lat="46.83166" lon="6.5327">
        <ele>1320</ele>
        <time>2017-04-24T06:26:55.000Z</time>
      </trkpt>
      <trkpt lat="46.8316" lon="6.53274">
        <ele>1318.5999755859</ele>
        <time>2017-04-24T06:26:57.000Z</time>
      </trkpt>
      <trkpt lat="46.83157" lon="6.53281">
        <ele>1317.5999755859</ele>
        <time>2017-04-24T06:26:59.000Z</time>
      </trkpt>
      <trkpt lat="46.83149" lon="6.53288">
        <ele>1316</ele>
        <time>2017-04-24T06:27:02.000Z</time>
      </trkpt>
      <trkpt lat="46.83146" lon="6.53289">
        <ele>1315.5999755859</ele>
        <time>2017-04-24T06:27:03.000Z</time>
      </trkpt>
      <trkpt lat="46.83142" lon="6.53291">
        <ele>1315.4000244141</ele>
        <time>2017-04-24T06:27:04.000Z</time>
      </trkpt>
      <trkpt lat="46.83139" lon="6.53292">
        <ele>1315</ele>
        <time>2017-04-24T06:27:05.000Z</time>
      </trkpt>
      <trkpt lat="46.83137" lon="6.53295">
        <ele>1314</ele>
        <time>2017-04-24T06:27:07.000Z</time>
      </trkpt>
      <trkpt lat="46.83136" lon="6.53296">
        <ele>1313.4000244141</ele>
        <time>2017-04-24T06:27:08.000Z</time>
      </trkpt>
      <trkpt lat="46.83135" lon="6.53298">
        <ele>1313</ele>
        <time>2017-04-24T06:27:09.000Z</time>
      </trkpt>
      <trkpt lat="46.83131" lon="6.53304">
        <ele>1312.4000244141</ele>
        <time>2017-04-24T06:27:11.000Z</time>
      </trkpt>
      <trkpt lat="46.83129" lon="6.53307">
        <ele>1312</ele>
        <time>2017-04-24T06:27:12.000Z</time>
      </trkpt>
      <trkpt lat="46.83129" lon="6.53311">
        <ele>1311.8000488281</ele>
        <time>2017-04-24T06:27:13.000Z</time>
      </trkpt>
      <trkpt lat="46.83132" lon="6.5332">
        <ele>1311.5999755859</ele>
        <time>2017-04-24T06:27:15.000Z</time>
      </trkpt>
      <trkpt lat="46.83136" lon="6.53333">
        <ele>1312.1999511719</ele>
        <time>2017-04-24T06:27:18.000Z</time>
      </trkpt>
      <trkpt lat="46.83136" lon="6.53339">
        <ele>1312.5999755859</ele>
        <time>2017-04-24T06:27:19.000Z</time>
      </trkpt>
      <trkpt lat="46.83137" lon="6.53354">
        <ele>1313.8000488281</ele>
        <time>2017-04-24T06:27:22.000Z</time>
      </trkpt>
      <trkpt lat="46.83138" lon="6.53359">
        <ele>1314.1999511719</ele>
        <time>2017-04-24T06:27:23.000Z</time>
      </trkpt>
      <trkpt lat="46.8314" lon="6.53364">
        <ele>1314.8000488281</ele>
        <time>2017-04-24T06:27:24.000Z</time>
      </trkpt>
      <trkpt lat="46.83148" lon="6.53385">
        <ele>1315.4000244141</ele>
        <time>2017-04-24T06:27:28.000Z</time>
      </trkpt>
      <trkpt lat="46.83152" lon="6.53396">
        <ele>1315.8000488281</ele>
        <time>2017-04-24T06:27:30.000Z</time>
      </trkpt>
      <trkpt lat="46.83154" lon="6.53402">
        <ele>1316</ele>
        <time>2017-04-24T06:27:31.000Z</time>
      </trkpt>
      <trkpt lat="46.83158" lon="6.53415">
        <ele>1316</ele>
        <time>2017-04-24T06:27:33.000Z</time>
      </trkpt>
      <trkpt lat="46.83163" lon="6.53428">
        <ele>1315.5999755859</ele>
        <time>2017-04-24T06:27:35.000Z</time>
      </trkpt>
      <trkpt lat="46.83165" lon="6.53434">
        <ele>1315.5999755859</ele>
        <time>2017-04-24T06:27:36.000Z</time>
      </trkpt>
      <trkpt lat="46.83169" lon="6.53446">
        <ele>1315.4000244141</ele>
        <time>2017-04-24T06:27:38.000Z</time>
      </trkpt>
      <trkpt lat="46.83172" lon="6.53452">
        <ele>1315.4000244141</ele>
        <time>2017-04-24T06:27:39.000Z</time>
      </trkpt>
      <trkpt lat="46.83177" lon="6.53466">
        <ele>1315.1999511719</ele>
        <time>2017-04-24T06:27:41.000Z</time>
      </trkpt>
      <trkpt lat="46.83188" lon="6.53487">
        <ele>1314</ele>
        <time>2017-04-24T06:27:44.000Z</time>
      </trkpt>
      <trkpt lat="46.83191" lon="6.53492">
        <ele>1314</ele>
        <time>2017-04-24T06:27:45.000Z</time>
      </trkpt>
      <trkpt lat="46.83202" lon="6.53508">
        <ele>1315</ele>
        <time>2017-04-24T06:27:48.000Z</time>
      </trkpt>
      <trkpt lat="46.83204" lon="6.53514">
        <ele>1315.1999511719</ele>
        <time>2017-04-24T06:27:49.000Z</time>
      </trkpt>
      <trkpt lat="46.8321" lon="6.53526">
        <ele>1315.8000488281</ele>
        <time>2017-04-24T06:27:51.000Z</time>
      </trkpt>
      <trkpt lat="46.83213" lon="6.5353">
        <ele>1316</ele>
        <time>2017-04-24T06:27:52.000Z</time>
      </trkpt>
      <trkpt lat="46.83218" lon="6.53542">
        <ele>1316.1999511719</ele>
        <time>2017-04-24T06:27:55.000Z</time>
      </trkpt>
      <trkpt lat="46.83209" lon="6.53549">
        <ele>1315</ele>
        <time>2017-04-24T06:27:58.000Z</time>
      </trkpt>
      <trkpt lat="46.83204" lon="6.5355">
        <ele>1314.1999511719</ele>
        <time>2017-04-24T06:27:59.000Z</time>
      </trkpt>
      <trkpt lat="46.83197" lon="6.53554">
        <ele>1312</ele>
        <time>2017-04-24T06:28:01.000Z</time>
      </trkpt>
      <trkpt lat="46.83194" lon="6.53557">
        <ele>1310.4000244141</ele>
        <time>2017-04-24T06:28:02.000Z</time>
      </trkpt>
      <trkpt lat="46.8319" lon="6.53562">
        <ele>1308.5999755859</ele>
        <time>2017-04-24T06:28:03.000Z</time>
      </trkpt>
      <trkpt lat="46.83187" lon="6.53565">
        <ele>1307</ele>
        <time>2017-04-24T06:28:04.000Z</time>
      </trkpt>
      <trkpt lat="46.83183" lon="6.53569">
        <ele>1305.5999755859</ele>
        <time>2017-04-24T06:28:05.000Z</time>
      </trkpt>
      <trkpt lat="46.83174" lon="6.53572">
        <ele>1303.8000488281</ele>
        <time>2017-04-24T06:28:07.000Z</time>
      </trkpt>
      <trkpt lat="46.83169" lon="6.53574">
        <ele>1302.8000488281</ele>
        <time>2017-04-24T06:28:08.000Z</time>
      </trkpt>
      <trkpt lat="46.83164" lon="6.53576">
        <ele>1301.4000244141</ele>
        <time>2017-04-24T06:28:09.000Z</time>
      </trkpt>
      <trkpt lat="46.83158" lon="6.53576">
        <ele>1299.5999755859</ele>
        <time>2017-04-24T06:28:10.000Z</time>
      </trkpt>
      <trkpt lat="46.83153" lon="6.53574">
        <ele>1298.1999511719</ele>
        <time>2017-04-24T06:28:11.000Z</time>
      </trkpt>
      <trkpt lat="46.83149" lon="6.53573">
        <ele>1297.1999511719</ele>
        <time>2017-04-24T06:28:12.000Z</time>
      </trkpt>
      <trkpt lat="46.83142" lon="6.53571">
        <ele>1296</ele>
        <time>2017-04-24T06:28:13.000Z</time>
      </trkpt>
      <trkpt lat="46.83136" lon="6.53567">
        <ele>1294.1999511719</ele>
        <time>2017-04-24T06:28:14.000Z</time>
      </trkpt>
      <trkpt lat="46.83131" lon="6.5356">
        <ele>1293</ele>
        <time>2017-04-24T06:28:15.000Z</time>
      </trkpt>
      <trkpt lat="46.83123" lon="6.53545">
        <ele>1291.5999755859</ele>
        <time>2017-04-24T06:28:17.000Z</time>
      </trkpt>
      <trkpt lat="46.83116" lon="6.5353">
        <ele>1291</ele>
        <time>2017-04-24T06:28:19.000Z</time>
      </trkpt>
      <trkpt lat="46.83114" lon="6.53522">
        <ele>1290.8000488281</ele>
        <time>2017-04-24T06:28:20.000Z</time>
      </trkpt>
      <trkpt lat="46.83112" lon="6.53514">
        <ele>1290.5999755859</ele>
        <time>2017-04-24T06:28:21.000Z</time>
      </trkpt>
      <trkpt lat="46.83106" lon="6.53495">
        <ele>1291.1999511719</ele>
        <time>2017-04-24T06:28:24.000Z</time>
      </trkpt>
      <trkpt lat="46.83104" lon="6.53489">
        <ele>1292</ele>
        <time>2017-04-24T06:28:25.000Z</time>
      </trkpt>
      <trkpt lat="46.83097" lon="6.53467">
        <ele>1292.8000488281</ele>
        <time>2017-04-24T06:28:28.000Z</time>
      </trkpt>
      <trkpt lat="46.83095" lon="6.53459">
        <ele>1292.5999755859</ele>
        <time>2017-04-24T06:28:29.000Z</time>
      </trkpt>
      <trkpt lat="46.83091" lon="6.53443">
        <ele>1291.5999755859</ele>
        <time>2017-04-24T06:28:31.000Z</time>
      </trkpt>
      <trkpt lat="46.83088" lon="6.53428">
        <ele>1290.1999511719</ele>
        <time>2017-04-24T06:28:33.000Z</time>
      </trkpt>
      <trkpt lat="46.83087" lon="6.53421">
        <ele>1289</ele>
        <time>2017-04-24T06:28:34.000Z</time>
      </trkpt>
      <trkpt lat="46.83085" lon="6.53399">
        <ele>1287.8000488281</ele>
        <time>2017-04-24T06:28:37.000Z</time>
      </trkpt>
      <trkpt lat="46.83082" lon="6.53392">
        <ele>1287.8000488281</ele>
        <time>2017-04-24T06:28:38.000Z</time>
      </trkpt>
      <trkpt lat="46.83079" lon="6.53386">
        <ele>1287.8000488281</ele>
        <time>2017-04-24T06:28:39.000Z</time>
      </trkpt>
      <trkpt lat="46.83076" lon="6.53378">
        <ele>1287.5999755859</ele>
        <time>2017-04-24T06:28:40.000Z</time>
      </trkpt>
      <trkpt lat="46.83073" lon="6.53366">
        <ele>1286.8000488281</ele>
        <time>2017-04-24T06:28:42.000Z</time>
      </trkpt>
      <trkpt lat="46.83072" lon="6.53362">
        <ele>1286.5999755859</ele>
        <time>2017-04-24T06:28:43.000Z</time>
      </trkpt>
      <trkpt lat="46.83069" lon="6.53356">
        <ele>1285</ele>
        <time>2017-04-24T06:28:45.000Z</time>
      </trkpt>
      <trkpt lat="46.83061" lon="6.53346">
        <ele>1281.5999755859</ele>
        <time>2017-04-24T06:28:47.000Z</time>
      </trkpt>
      <trkpt lat="46.83055" lon="6.53338">
        <ele>1279.4000244141</ele>
        <time>2017-04-24T06:28:48.000Z</time>
      </trkpt>
      <trkpt lat="46.8305" lon="6.53331">
        <ele>1277.8000488281</ele>
        <time>2017-04-24T06:28:49.000Z</time>
      </trkpt>
      <trkpt lat="46.83046" lon="6.53324">
        <ele>1276.1999511719</ele>
        <time>2017-04-24T06:28:50.000Z</time>
      </trkpt>
      <trkpt lat="46.83044" lon="6.53318">
        <ele>1275</ele>
        <time>2017-04-24T06:28:51.000Z</time>
      </trkpt>
      <trkpt lat="46.8304" lon="6.53312">
        <ele>1274.4000244141</ele>
        <time>2017-04-24T06:28:52.000Z</time>
      </trkpt>
      <trkpt lat="46.83034" lon="6.53307">
        <ele>1273.5999755859</ele>
        <time>2017-04-24T06:28:53.000Z</time>
      </trkpt>
      <trkpt lat="46.83027" lon="6.53301">
        <ele>1272.1999511719</ele>
        <time>2017-04-24T06:28:54.000Z</time>
      </trkpt>
      <trkpt lat="46.83021" lon="6.53296">
        <ele>1270.5999755859</ele>
        <time>2017-04-24T06:28:55.000Z</time>
      </trkpt>
      <trkpt lat="46.83016" lon="6.53289">
        <ele>1269</ele>
        <time>2017-04-24T06:28:56.000Z</time>
      </trkpt>
      <trkpt lat="46.83014" lon="6.53285">
        <ele>1268</ele>
        <time>2017-04-24T06:28:57.000Z</time>
      </trkpt>
      <trkpt lat="46.83012" lon="6.53283">
        <ele>1267.8000488281</ele>
        <time>2017-04-24T06:28:58.000Z</time>
      </trkpt>
      <trkpt lat="46.83007" lon="6.53279">
        <ele>1267.4000244141</ele>
        <time>2017-04-24T06:29:01.000Z</time>
      </trkpt>
      <trkpt lat="46.83004" lon="6.53275">
        <ele>1267.5999755859</ele>
        <time>2017-04-24T06:29:05.000Z</time>
      </trkpt>
      <trkpt lat="46.83002" lon="6.5327">
        <ele>1268</ele>
        <time>2017-04-24T06:32:02.000Z</time>
      </trkpt>
      <trkpt lat="46.83" lon="6.53267">
        <ele>1268</ele>
        <time>2017-04-24T06:32:03.000Z</time>
      </trkpt>
      <trkpt lat="46.82994" lon="6.5325">
        <ele>1267</ele>
        <time>2017-04-24T06:32:06.000Z</time>
      </trkpt>
      <trkpt lat="46.8299" lon="6.53242">
        <ele>1265.1999511719</ele>
        <time>2017-04-24T06:32:07.000Z</time>
      </trkpt>
      <trkpt lat="46.82982" lon="6.53226">
        <ele>1263</ele>
        <time>2017-04-24T06:32:09.000Z</time>
      </trkpt>
      <trkpt lat="46.82979" lon="6.53217">
        <ele>1261.1999511719</ele>
        <time>2017-04-24T06:32:10.000Z</time>
      </trkpt>
      <trkpt lat="46.82977" lon="6.53209">
        <ele>1260</ele>
        <time>2017-04-24T06:32:11.000Z</time>
      </trkpt>
      <trkpt lat="46.82975" lon="6.53201">
        <ele>1259.1999511719</ele>
        <time>2017-04-24T06:32:12.000Z</time>
      </trkpt>
      <trkpt lat="46.82974" lon="6.53194">
        <ele>1257.8000488281</ele>
        <time>2017-04-24T06:32:13.000Z</time>
      </trkpt>
      <trkpt lat="46.82971" lon="6.53188">
        <ele>1256.8000488281</ele>
        <time>2017-04-24T06:32:14.000Z</time>
      </trkpt>
      <trkpt lat="46.82967" lon="6.53184">
        <ele>1255.5999755859</ele>
        <time>2017-04-24T06:32:15.000Z</time>
      </trkpt>
      <trkpt lat="46.82963" lon="6.53184">
        <ele>1254.4000244141</ele>
        <time>2017-04-24T06:32:17.000Z</time>
      </trkpt>
      <trkpt lat="46.82959" lon="6.53205">
        <ele>1252.8000488281</ele>
        <time>2017-04-24T06:32:20.000Z</time>
      </trkpt>
      <trkpt lat="46.82959" lon="6.53216">
        <ele>1252.4000244141</ele>
        <time>2017-04-24T06:32:21.000Z</time>
      </trkpt>
      <trkpt lat="46.82957" lon="6.53228">
        <ele>1252</ele>
        <time>2017-04-24T06:32:22.000Z</time>
      </trkpt>
      <trkpt lat="46.82955" lon="6.53239">
        <ele>1250.4000244141</ele>
        <time>2017-04-24T06:32:23.000Z</time>
      </trkpt>
      <trkpt lat="46.82952" lon="6.53253">
        <ele>1248</ele>
        <time>2017-04-24T06:32:24.000Z</time>
      </trkpt>
      <trkpt lat="46.82951" lon="6.53267">
        <ele>1245</ele>
        <time>2017-04-24T06:32:25.000Z</time>
      </trkpt>
      <trkpt lat="46.8295" lon="6.53283">
        <ele>1242.5999755859</ele>
        <time>2017-04-24T06:32:26.000Z</time>
      </trkpt>
      <trkpt lat="46.8295" lon="6.53298">
        <ele>1241.4000244141</ele>
        <time>2017-04-24T06:32:27.000Z</time>
      </trkpt>
      <trkpt lat="46.82953" lon="6.5332">
        <ele>1240.8000488281</ele>
        <time>2017-04-24T06:32:29.000Z</time>
      </trkpt>
      <trkpt lat="46.82957" lon="6.5333">
        <ele>1243.4000244141</ele>
        <time>2017-04-24T06:32:31.000Z</time>
      </trkpt>
      <trkpt lat="46.82958" lon="6.53333">
        <ele>1244.8000488281</ele>
        <time>2017-04-24T06:32:32.000Z</time>
      </trkpt>
      <trkpt lat="46.82959" lon="6.53336">
        <ele>1245.8000488281</ele>
        <time>2017-04-24T06:32:33.000Z</time>
      </trkpt>
      <trkpt lat="46.82961" lon="6.53339">
        <ele>1247</ele>
        <time>2017-04-24T06:32:34.000Z</time>
      </trkpt>
      <trkpt lat="46.82962" lon="6.53343">
        <ele>1247.8000488281</ele>
        <time>2017-04-24T06:32:35.000Z</time>
      </trkpt>
      <trkpt lat="46.82963" lon="6.53347">
        <ele>1248.4000244141</ele>
        <time>2017-04-24T06:32:36.000Z</time>
      </trkpt>
      <trkpt lat="46.82968" lon="6.5336">
        <ele>1249.8000488281</ele>
        <time>2017-04-24T06:32:39.000Z</time>
      </trkpt>
      <trkpt lat="46.82977" lon="6.53373">
        <ele>1251.1999511719</ele>
        <time>2017-04-24T06:32:43.000Z</time>
      </trkpt>
      <trkpt lat="46.82981" lon="6.5338">
        <ele>1252.5999755859</ele>
        <time>2017-04-24T06:32:45.000Z</time>
      </trkpt>
      <trkpt lat="46.82986" lon="6.53388">
        <ele>1253.8000488281</ele>
        <time>2017-04-24T06:32:48.000Z</time>
      </trkpt>
      <trkpt lat="46.82988" lon="6.53393">
        <ele>1254.8000488281</ele>
        <time>2017-04-24T06:32:50.000Z</time>
      </trkpt>
      <trkpt lat="46.82989" lon="6.53396">
        <ele>1255.4000244141</ele>
        <time>2017-04-24T06:32:51.000Z</time>
      </trkpt>
      <trkpt lat="46.82991" lon="6.53399">
        <ele>1255.8000488281</ele>
        <time>2017-04-24T06:32:52.000Z</time>
      </trkpt>
      <trkpt lat="46.82997" lon="6.53408">
        <ele>1257.4000244141</ele>
        <time>2017-04-24T06:32:55.000Z</time>
      </trkpt>
      <trkpt lat="46.83002" lon="6.53426">
        <ele>1258.1999511719</ele>
        <time>2017-04-24T06:32:59.000Z</time>
      </trkpt>
      <trkpt lat="46.83004" lon="6.5343">
        <ele>1258.4000244141</ele>
        <time>2017-04-24T06:33:00.000Z</time>
      </trkpt>
      <trkpt lat="46.83009" lon="6.53446">
        <ele>1260.1999511719</ele>
        <time>2017-04-24T06:33:04.000Z</time>
      </trkpt>
      <trkpt lat="46.83011" lon="6.53465">
        <ele>1260.8000488281</ele>
        <time>2017-04-24T06:33:08.000Z</time>
      </trkpt>
      <trkpt lat="46.8301" lon="6.53494">
        <ele>1258.1999511719</ele>
        <time>2017-04-24T06:33:11.000Z</time>
      </trkpt>
      <trkpt lat="46.8301" lon="6.53506">
        <ele>1257</ele>
        <time>2017-04-24T06:33:12.000Z</time>
      </trkpt>
      <trkpt lat="46.8301" lon="6.53517">
        <ele>1255.8000488281</ele>
        <time>2017-04-24T06:33:13.000Z</time>
      </trkpt>
      <trkpt lat="46.83011" lon="6.53528">
        <ele>1254.1999511719</ele>
        <time>2017-04-24T06:33:14.000Z</time>
      </trkpt>
      <trkpt lat="46.83012" lon="6.53539">
        <ele>1252.1999511719</ele>
        <time>2017-04-24T06:33:15.000Z</time>
      </trkpt>
      <trkpt lat="46.83013" lon="6.53549">
        <ele>1251.1999511719</ele>
        <time>2017-04-24T06:33:16.000Z</time>
      </trkpt>
      <trkpt lat="46.83013" lon="6.53558">
        <ele>1250.1999511719</ele>
        <time>2017-04-24T06:33:17.000Z</time>
      </trkpt>
      <trkpt lat="46.83014" lon="6.53566">
        <ele>1249</ele>
        <time>2017-04-24T06:33:18.000Z</time>
      </trkpt>
      <trkpt lat="46.83016" lon="6.53581">
        <ele>1247.5999755859</ele>
        <time>2017-04-24T06:33:20.000Z</time>
      </trkpt>
      <trkpt lat="46.8302" lon="6.53593">
        <ele>1246.1999511719</ele>
        <time>2017-04-24T06:33:22.000Z</time>
      </trkpt>
      <trkpt lat="46.83023" lon="6.53603">
        <ele>1246.4000244141</ele>
        <time>2017-04-24T06:33:24.000Z</time>
      </trkpt>
      <trkpt lat="46.83028" lon="6.53609">
        <ele>1247.1999511719</ele>
        <time>2017-04-24T06:33:26.000Z</time>
      </trkpt>
      <trkpt lat="46.8303" lon="6.53611">
        <ele>1248</ele>
        <time>2017-04-24T06:33:27.000Z</time>
      </trkpt>
      <trkpt lat="46.83034" lon="6.53619">
        <ele>1249.1999511719</ele>
        <time>2017-04-24T06:33:29.000Z</time>
      </trkpt>
      <trkpt lat="46.83035" lon="6.53624">
        <ele>1249.5999755859</ele>
        <time>2017-04-24T06:33:30.000Z</time>
      </trkpt>
      <trkpt lat="46.83037" lon="6.53628">
        <ele>1250.1999511719</ele>
        <time>2017-04-24T06:33:31.000Z</time>
      </trkpt>
      <trkpt lat="46.83043" lon="6.53641">
        <ele>1251</ele>
        <time>2017-04-24T06:33:34.000Z</time>
      </trkpt>
      <trkpt lat="46.83043" lon="6.53645">
        <ele>1251</ele>
        <time>2017-04-24T06:33:35.000Z</time>
      </trkpt>
      <trkpt lat="46.83045" lon="6.53658">
        <ele>1251.1999511719</ele>
        <time>2017-04-24T06:33:37.000Z</time>
      </trkpt>
      <trkpt lat="46.83046" lon="6.53662">
        <ele>1251.4000244141</ele>
        <time>2017-04-24T06:33:38.000Z</time>
      </trkpt>
      <trkpt lat="46.83048" lon="6.53666">
        <ele>1251.4000244141</ele>
        <time>2017-04-24T06:33:39.000Z</time>
      </trkpt>
      <trkpt lat="46.83052" lon="6.53676">
        <ele>1251</ele>
        <time>2017-04-24T06:33:41.000Z</time>
      </trkpt>
      <trkpt lat="46.83064" lon="6.53692">
        <ele>1250.1999511719</ele>
        <time>2017-04-24T06:33:45.000Z</time>
      </trkpt>
      <trkpt lat="46.8307" lon="6.53701">
        <ele>1249</ele>
        <time>2017-04-24T06:33:47.000Z</time>
      </trkpt>
      <trkpt lat="46.8307" lon="6.53707">
        <ele>1248</ele>
        <time>2017-04-24T06:33:48.000Z</time>
      </trkpt>
      <trkpt lat="46.83065" lon="6.53714">
        <ele>1246.5999755859</ele>
        <time>2017-04-24T06:33:50.000Z</time>
      </trkpt>
      <trkpt lat="46.83063" lon="6.53713">
        <ele>1246.1999511719</ele>
        <time>2017-04-24T06:33:51.000Z</time>
      </trkpt>
      <trkpt lat="46.83057" lon="6.53716">
        <ele>1245</ele>
        <time>2017-04-24T06:33:53.000Z</time>
      </trkpt>
      <trkpt lat="46.83056" lon="6.53725">
        <ele>1244</ele>
        <time>2017-04-24T06:33:54.000Z</time>
      </trkpt>
      <trkpt lat="46.83056" lon="6.53734">
        <ele>1243</ele>
        <time>2017-04-24T06:33:55.000Z</time>
      </trkpt>
      <trkpt lat="46.83055" lon="6.53742">
        <ele>1242.1999511719</ele>
        <time>2017-04-24T06:33:56.000Z</time>
      </trkpt>
      <trkpt lat="46.83056" lon="6.53749">
        <ele>1241.1999511719</ele>
        <time>2017-04-24T06:33:57.000Z</time>
      </trkpt>
      <trkpt lat="46.8306" lon="6.53767">
        <ele>1240.5999755859</ele>
        <time>2017-04-24T06:34:00.000Z</time>
      </trkpt>
      <trkpt lat="46.83068" lon="6.53795">
        <ele>1241.5999755859</ele>
        <time>2017-04-24T06:34:05.000Z</time>
      </trkpt>
      <trkpt lat="46.83069" lon="6.53799">
        <ele>1241.5999755859</ele>
        <time>2017-04-24T06:34:06.000Z</time>
      </trkpt>
      <trkpt lat="46.83069" lon="6.53809">
        <ele>1241.5999755859</ele>
        <time>2017-04-24T06:34:08.000Z</time>
      </trkpt>
      <trkpt lat="46.83069" lon="6.53816">
        <ele>1241.8000488281</ele>
        <time>2017-04-24T06:34:09.000Z</time>
      </trkpt>
      <trkpt lat="46.83074" lon="6.53846">
        <ele>1240.5999755859</ele>
        <time>2017-04-24T06:34:13.000Z</time>
      </trkpt>
      <trkpt lat="46.83081" lon="6.53867">
        <ele>1241.4000244141</ele>
        <time>2017-04-24T06:34:17.000Z</time>
      </trkpt>
      <trkpt lat="46.83086" lon="6.53875">
        <ele>1243</ele>
        <time>2017-04-24T06:34:20.000Z</time>
      </trkpt>
      <trkpt lat="46.83092" lon="6.53881">
        <ele>1244.4000244141</ele>
        <time>2017-04-24T06:34:23.000Z</time>
      </trkpt>
      <trkpt lat="46.83097" lon="6.53886">
        <ele>1245.5999755859</ele>
        <time>2017-04-24T06:34:26.000Z</time>
      </trkpt>
      <trkpt lat="46.83101" lon="6.53889">
        <ele>1246.4000244141</ele>
        <time>2017-04-24T06:34:28.000Z</time>
      </trkpt>
      <trkpt lat="46.83103" lon="6.5389">
        <ele>1247</ele>
        <time>2017-04-24T06:34:29.000Z</time>
      </trkpt>
      <trkpt lat="46.83107" lon="6.53891">
        <ele>1248.5999755859</ele>
        <time>2017-04-24T06:34:31.000Z</time>
      </trkpt>
      <trkpt lat="46.83111" lon="6.53894">
        <ele>1249.8000488281</ele>
        <time>2017-04-24T06:34:33.000Z</time>
      </trkpt>
      <trkpt lat="46.83112" lon="6.53895">
        <ele>1250.4000244141</ele>
        <time>2017-04-24T06:34:34.000Z</time>
      </trkpt>
      <trkpt lat="46.83114" lon="6.53898">
        <ele>1251</ele>
        <time>2017-04-24T06:34:35.000Z</time>
      </trkpt>
      <trkpt lat="46.83116" lon="6.539">
        <ele>1251.4000244141</ele>
        <time>2017-04-24T06:34:36.000Z</time>
      </trkpt>
      <trkpt lat="46.8312" lon="6.53911">
        <ele>1251.5999755859</ele>
        <time>2017-04-24T06:34:39.000Z</time>
      </trkpt>
      <trkpt lat="46.8313" lon="6.53928">
        <ele>1251.1999511719</ele>
        <time>2017-04-24T06:34:44.000Z</time>
      </trkpt>
      <trkpt lat="46.83139" lon="6.53944">
        <ele>1251.4000244141</ele>
        <time>2017-04-24T06:34:48.000Z</time>
      </trkpt>
      <trkpt lat="46.83143" lon="6.53951">
        <ele>1251.1999511719</ele>
        <time>2017-04-24T06:34:50.000Z</time>
      </trkpt>
      <trkpt lat="46.83142" lon="6.53953">
        <ele>1251</ele>
        <time>2017-04-24T06:34:51.000Z</time>
      </trkpt>
      <trkpt lat="46.83134" lon="6.5395">
        <ele>1250</ele>
        <time>2017-04-24T06:34:54.000Z</time>
      </trkpt>
      <trkpt lat="46.83131" lon="6.53948">
        <ele>1249.8000488281</ele>
        <time>2017-04-24T06:34:55.000Z</time>
      </trkpt>
      <trkpt lat="46.83127" lon="6.53941">
        <ele>1249.4000244141</ele>
        <time>2017-04-24T06:34:58.000Z</time>
      </trkpt>
      <trkpt lat="46.83123" lon="6.53942">
        <ele>1248.5999755859</ele>
        <time>2017-04-24T06:35:01.000Z</time>
      </trkpt>
      <trkpt lat="46.83122" lon="6.53943">
        <ele>1247.8000488281</ele>
        <time>2017-04-24T06:35:02.000Z</time>
      </trkpt>
      <trkpt lat="46.83123" lon="6.53947">
        <ele>1246.8000488281</ele>
        <time>2017-04-24T06:35:03.000Z</time>
      </trkpt>
      <trkpt lat="46.83124" lon="6.53951">
        <ele>1246.5999755859</ele>
        <time>2017-04-24T06:35:04.000Z</time>
      </trkpt>
      <trkpt lat="46.83124" lon="6.53953">
        <ele>1246.1999511719</ele>
        <time>2017-04-24T06:35:05.000Z</time>
      </trkpt>
      <trkpt lat="46.83124" lon="6.53954">
        <ele>1246</ele>
        <time>2017-04-24T06:35:06.000Z</time>
      </trkpt>
      <trkpt lat="46.83122" lon="6.53952">
        <ele>1245</ele>
        <time>2017-04-24T06:35:09.000Z</time>
      </trkpt>
      <trkpt lat="46.83121" lon="6.53949">
        <ele>1244.8000488281</ele>
        <time>2017-04-24T06:35:10.000Z</time>
      </trkpt>
      <trkpt lat="46.83118" lon="6.53942">
        <ele>1244.1999511719</ele>
        <time>2017-04-24T06:35:12.000Z</time>
      </trkpt>
      <trkpt lat="46.83115" lon="6.53939">
        <ele>1243.8000488281</ele>
        <time>2017-04-24T06:35:14.000Z</time>
      </trkpt>
      <trkpt lat="46.83113" lon="6.5394">
        <ele>1242.8000488281</ele>
        <time>2017-04-24T06:35:16.000Z</time>
      </trkpt>
      <trkpt lat="46.83113" lon="6.53944">
        <ele>1242.5999755859</ele>
        <time>2017-04-24T06:35:17.000Z</time>
      </trkpt>
      <trkpt lat="46.83111" lon="6.53958">
        <ele>1241.1999511719</ele>
        <time>2017-04-24T06:35:19.000Z</time>
      </trkpt>
      <trkpt lat="46.83111" lon="6.53968">
        <ele>1239.8000488281</ele>
        <time>2017-04-24T06:35:21.000Z</time>
      </trkpt>
      <trkpt lat="46.83106" lon="6.53967">
        <ele>1238.8000488281</ele>
        <time>2017-04-24T06:35:24.000Z</time>
      </trkpt>
      <trkpt lat="46.83105" lon="6.53966">
        <ele>1238.8000488281</ele>
        <time>2017-04-24T06:35:25.000Z</time>
      </trkpt>
      <trkpt lat="46.83104" lon="6.53964">
        <ele>1238.4000244141</ele>
        <time>2017-04-24T06:35:26.000Z</time>
      </trkpt>
      <trkpt lat="46.83102" lon="6.53962">
        <ele>1237.4000244141</ele>
        <time>2017-04-24T06:35:28.000Z</time>
      </trkpt>
      <trkpt lat="46.83101" lon="6.53964">
        <ele>1237</ele>
        <time>2017-04-24T06:35:29.000Z</time>
      </trkpt>
      <trkpt lat="46.83099" lon="6.53966">
        <ele>1236.5999755859</ele>
        <time>2017-04-24T06:35:30.000Z</time>
      </trkpt>
      <trkpt lat="46.83097" lon="6.53966">
        <ele>1236.1999511719</ele>
        <time>2017-04-24T06:35:31.000Z</time>
      </trkpt>
      <trkpt lat="46.83093" lon="6.53966">
        <ele>1235</ele>
        <time>2017-04-24T06:35:33.000Z</time>
      </trkpt>
      <trkpt lat="46.83092" lon="6.53969">
        <ele>1233.8000488281</ele>
        <time>2017-04-24T06:35:34.000Z</time>
      </trkpt>
      <trkpt lat="46.83092" lon="6.53976">
        <ele>1232.1999511719</ele>
        <time>2017-04-24T06:35:36.000Z</time>
      </trkpt>
      <trkpt lat="46.83093" lon="6.53985">
        <ele>1231.1999511719</ele>
        <time>2017-04-24T06:35:38.000Z</time>
      </trkpt>
      <trkpt lat="46.83093" lon="6.53999">
        <ele>1229.8000488281</ele>
        <time>2017-04-24T06:35:40.000Z</time>
      </trkpt>
      <trkpt lat="46.83093" lon="6.54007">
        <ele>1228.4000244141</ele>
        <time>2017-04-24T06:35:41.000Z</time>
      </trkpt>
      <trkpt lat="46.83094" lon="6.54016">
        <ele>1227.1999511719</ele>
        <time>2017-04-24T06:35:42.000Z</time>
      </trkpt>
      <trkpt lat="46.83096" lon="6.54024">
        <ele>1226</ele>
        <time>2017-04-24T06:35:43.000Z</time>
      </trkpt>
      <trkpt lat="46.83095" lon="6.54043">
        <ele>1224.8000488281</ele>
        <time>2017-04-24T06:35:46.000Z</time>
      </trkpt>
      <trkpt lat="46.83086" lon="6.54059">
        <ele>1223.4000244141</ele>
        <time>2017-04-24T06:35:48.000Z</time>
      </trkpt>
      <trkpt lat="46.83081" lon="6.54064">
        <ele>1222.1999511719</ele>
        <time>2017-04-24T06:35:49.000Z</time>
      </trkpt>
      <trkpt lat="46.83075" lon="6.5407">
        <ele>1221.1999511719</ele>
        <time>2017-04-24T06:35:50.000Z</time>
      </trkpt>
      <trkpt lat="46.83072" lon="6.54078">
        <ele>1220</ele>
        <time>2017-04-24T06:35:51.000Z</time>
      </trkpt>
      <trkpt lat="46.83065" lon="6.5409">
        <ele>1218.1999511719</ele>
        <time>2017-04-24T06:35:53.000Z</time>
      </trkpt>
      <trkpt lat="46.83059" lon="6.54093">
        <ele>1217.1999511719</ele>
        <time>2017-04-24T06:35:54.000Z</time>
      </trkpt>
      <trkpt lat="46.83052" lon="6.54093">
        <ele>1216.4000244141</ele>
        <time>2017-04-24T06:35:55.000Z</time>
      </trkpt>
      <trkpt lat="46.83039" lon="6.54092">
        <ele>1214</ele>
        <time>2017-04-24T06:35:57.000Z</time>
      </trkpt>
      <trkpt lat="46.83032" lon="6.54091">
        <ele>1212.8000488281</ele>
        <time>2017-04-24T06:35:58.000Z</time>
      </trkpt>
      <trkpt lat="46.83021" lon="6.54079">
        <ele>1211.8000488281</ele>
        <time>2017-04-24T06:36:01.000Z</time>
      </trkpt>
      <trkpt lat="46.8301" lon="6.54055">
        <ele>1210.4000244141</ele>
        <time>2017-04-24T06:36:05.000Z</time>
      </trkpt>
      <trkpt lat="46.83008" lon="6.54047">
        <ele>1210</ele>
        <time>2017-04-24T06:36:06.000Z</time>
      </trkpt>
      <trkpt lat="46.82999" lon="6.54023">
        <ele>1209</ele>
        <time>2017-04-24T06:36:09.000Z</time>
      </trkpt>
      <trkpt lat="46.82995" lon="6.54009">
        <ele>1208.4000244141</ele>
        <time>2017-04-24T06:36:11.000Z</time>
      </trkpt>
      <trkpt lat="46.82993" lon="6.54002">
        <ele>1208.4000244141</ele>
        <time>2017-04-24T06:36:12.000Z</time>
      </trkpt>
      <trkpt lat="46.82996" lon="6.53987">
        <ele>1209.1999511719</ele>
        <time>2017-04-24T06:36:15.000Z</time>
      </trkpt>
      <trkpt lat="46.83002" lon="6.53976">
        <ele>1210.5999755859</ele>
        <time>2017-04-24T06:36:18.000Z</time>
      </trkpt>
      <trkpt lat="46.83005" lon="6.53971">
        <ele>1212</ele>
        <time>2017-04-24T06:36:20.000Z</time>
      </trkpt>
      <trkpt lat="46.83009" lon="6.53965">
        <ele>1213</ele>
        <time>2017-04-24T06:36:22.000Z</time>
      </trkpt>
      <trkpt lat="46.83011" lon="6.53958">
        <ele>1214.1999511719</ele>
        <time>2017-04-24T06:36:24.000Z</time>
      </trkpt>
      <trkpt lat="46.8301" lon="6.53948">
        <ele>1215.1999511719</ele>
        <time>2017-04-24T06:36:26.000Z</time>
      </trkpt>
      <trkpt lat="46.8301" lon="6.53943">
        <ele>1215.4000244141</ele>
        <time>2017-04-24T06:36:27.000Z</time>
      </trkpt>
      <trkpt lat="46.83005" lon="6.53916">
        <ele>1215.8000488281</ele>
        <time>2017-04-24T06:36:32.000Z</time>
      </trkpt>
      <trkpt lat="46.83004" lon="6.53903">
        <ele>1217</ele>
        <time>2017-04-24T06:36:35.000Z</time>
      </trkpt>
      <trkpt lat="46.83003" lon="6.53895">
        <ele>1217.5999755859</ele>
        <time>2017-04-24T06:36:37.000Z</time>
      </trkpt>
      <trkpt lat="46.83" lon="6.53886">
        <ele>1218</ele>
        <time>2017-04-24T06:36:39.000Z</time>
      </trkpt>
      <trkpt lat="46.82994" lon="6.53876">
        <ele>1217.8000488281</ele>
        <time>2017-04-24T06:36:41.000Z</time>
      </trkpt>
      <trkpt lat="46.82991" lon="6.53872">
        <ele>1217.5999755859</ele>
        <time>2017-04-24T06:36:42.000Z</time>
      </trkpt>
      <trkpt lat="46.8298" lon="6.53865">
        <ele>1216.5999755859</ele>
        <time>2017-04-24T06:36:44.000Z</time>
      </trkpt>
      <trkpt lat="46.82967" lon="6.53858">
        <ele>1214</ele>
        <time>2017-04-24T06:36:46.000Z</time>
      </trkpt>
      <trkpt lat="46.82957" lon="6.53847">
        <ele>1212.4000244141</ele>
        <time>2017-04-24T06:36:48.000Z</time>
      </trkpt>
      <trkpt lat="46.82951" lon="6.53828">
        <ele>1211.4000244141</ele>
        <time>2017-04-24T06:36:51.000Z</time>
      </trkpt>
      <trkpt lat="46.8295" lon="6.53822">
        <ele>1211.5999755859</ele>
        <time>2017-04-24T06:36:52.000Z</time>
      </trkpt>
      <trkpt lat="46.82943" lon="6.53803">
        <ele>1212.1999511719</ele>
        <time>2017-04-24T06:36:56.000Z</time>
      </trkpt>
      <trkpt lat="46.8294" lon="6.53798">
        <ele>1212.1999511719</ele>
        <time>2017-04-24T06:36:57.000Z</time>
      </trkpt>
      <trkpt lat="46.82931" lon="6.53774">
        <ele>1212</ele>
        <time>2017-04-24T06:37:01.000Z</time>
      </trkpt>
      <trkpt lat="46.82925" lon="6.53765">
        <ele>1211.1999511719</ele>
        <time>2017-04-24T06:37:03.000Z</time>
      </trkpt>
      <trkpt lat="46.82923" lon="6.53764">
        <ele>1210.8000488281</ele>
        <time>2017-04-24T06:37:04.000Z</time>
      </trkpt>
      <trkpt lat="46.82919" lon="6.53768">
        <ele>1210</ele>
        <time>2017-04-24T06:37:06.000Z</time>
      </trkpt>
      <trkpt lat="46.82918" lon="6.53772">
        <ele>1209.8000488281</ele>
        <time>2017-04-24T06:37:07.000Z</time>
      </trkpt>
      <trkpt lat="46.82918" lon="6.53787">
        <ele>1209.5999755859</ele>
        <time>2017-04-24T06:37:10.000Z</time>
      </trkpt>
      <trkpt lat="46.82918" lon="6.53793">
        <ele>1209.5999755859</ele>
        <time>2017-04-24T06:37:11.000Z</time>
      </trkpt>
      <trkpt lat="46.82924" lon="6.53816">
        <ele>1209.8000488281</ele>
        <time>2017-04-24T06:37:15.000Z</time>
      </trkpt>
      <trkpt lat="46.82926" lon="6.53821">
        <ele>1210</ele>
        <time>2017-04-24T06:37:16.000Z</time>
      </trkpt>
      <trkpt lat="46.82926" lon="6.53839">
        <ele>1210</ele>
        <time>2017-04-24T06:37:19.000Z</time>
      </trkpt>
      <trkpt lat="46.8293" lon="6.53861">
        <ele>1209.1999511719</ele>
        <time>2017-04-24T06:37:22.000Z</time>
      </trkpt>
      <trkpt lat="46.82932" lon="6.53868">
        <ele>1209</ele>
        <time>2017-04-24T06:37:23.000Z</time>
      </trkpt>
      <trkpt lat="46.82947" lon="6.5392">
        <ele>1208.5999755859</ele>
        <time>2017-04-24T06:37:29.000Z</time>
      </trkpt>
      <trkpt lat="46.82952" lon="6.53939">
        <ele>1208.1999511719</ele>
        <time>2017-04-24T06:37:31.000Z</time>
      </trkpt>
      <trkpt lat="46.82956" lon="6.53946">
        <ele>1208</ele>
        <time>2017-04-24T06:37:32.000Z</time>
      </trkpt>
      <trkpt lat="46.8296" lon="6.53952">
        <ele>1207.8000488281</ele>
        <time>2017-04-24T06:37:33.000Z</time>
      </trkpt>
      <trkpt lat="46.82964" lon="6.53958">
        <ele>1207.8000488281</ele>
        <time>2017-04-24T06:37:34.000Z</time>
      </trkpt>
      <trkpt lat="46.8297" lon="6.53974">
        <ele>1208.5999755859</ele>
        <time>2017-04-24T06:37:37.000Z</time>
      </trkpt>
      <trkpt lat="46.82971" lon="6.53975">
        <ele>1209</ele>
        <time>2017-04-24T06:37:38.000Z</time>
      </trkpt>
      <trkpt lat="46.82983" lon="6.53998">
        <ele>1210</ele>
        <time>2017-04-24T06:49:42.000Z</time>
      </trkpt>
      <trkpt lat="46.82986" lon="6.54021">
        <ele>1210</ele>
        <time>2017-04-24T06:49:46.000Z</time>
      </trkpt>
      <trkpt lat="46.82988" lon="6.54027">
        <ele>1210</ele>
        <time>2017-04-24T06:49:47.000Z</time>
      </trkpt>
      <trkpt lat="46.82988" lon="6.54041">
        <ele>1209.8000488281</ele>
        <time>2017-04-24T06:49:51.000Z</time>
      </trkpt>
      <trkpt lat="46.82991" lon="6.54049">
        <ele>1209.8000488281</ele>
        <time>2017-04-24T06:49:52.000Z</time>
      </trkpt>
      <trkpt lat="46.82994" lon="6.54061">
        <ele>1210</ele>
        <time>2017-04-24T06:49:54.000Z</time>
      </trkpt>
      <trkpt lat="46.82998" lon="6.54074">
        <ele>1210.8000488281</ele>
        <time>2017-04-24T06:49:56.000Z</time>
      </trkpt>
      <trkpt lat="46.83" lon="6.5408">
        <ele>1211.1999511719</ele>
        <time>2017-04-24T06:49:57.000Z</time>
      </trkpt>
      <trkpt lat="46.83005" lon="6.54098">
        <ele>1211.8000488281</ele>
        <time>2017-04-24T06:50:00.000Z</time>
      </trkpt>
      <trkpt lat="46.83008" lon="6.54109">
        <ele>1212.1999511719</ele>
        <time>2017-04-24T06:50:02.000Z</time>
      </trkpt>
      <trkpt lat="46.8301" lon="6.54116">
        <ele>1212.1999511719</ele>
        <time>2017-04-24T06:50:03.000Z</time>
      </trkpt>
      <trkpt lat="46.83024" lon="6.54162">
        <ele>1213</ele>
        <time>2017-04-24T06:50:10.000Z</time>
      </trkpt>
      <trkpt lat="46.83027" lon="6.54168">
        <ele>1213.4000244141</ele>
        <time>2017-04-24T06:50:11.000Z</time>
      </trkpt>
      <trkpt lat="46.83037" lon="6.54187">
        <ele>1214.1999511719</ele>
        <time>2017-04-24T06:50:14.000Z</time>
      </trkpt>
      <trkpt lat="46.83044" lon="6.542">
        <ele>1214.5999755859</ele>
        <time>2017-04-24T06:50:16.000Z</time>
      </trkpt>
      <trkpt lat="46.83054" lon="6.5422">
        <ele>1215.4000244141</ele>
        <time>2017-04-24T06:50:19.000Z</time>
      </trkpt>
      <trkpt lat="46.8307" lon="6.54242">
        <ele>1216.5999755859</ele>
        <time>2017-04-24T06:50:23.000Z</time>
      </trkpt>
      <trkpt lat="46.83082" lon="6.54255">
        <ele>1218</ele>
        <time>2017-04-24T06:50:26.000Z</time>
      </trkpt>
      <trkpt lat="46.83094" lon="6.54269">
        <ele>1219.1999511719</ele>
        <time>2017-04-24T06:50:29.000Z</time>
      </trkpt>
      <trkpt lat="46.83103" lon="6.54276">
        <ele>1220.1999511719</ele>
        <time>2017-04-24T06:50:31.000Z</time>
      </trkpt>
      <trkpt lat="46.83107" lon="6.5428">
        <ele>1220.5999755859</ele>
        <time>2017-04-24T06:50:32.000Z</time>
      </trkpt>
      <trkpt lat="46.83119" lon="6.54292">
        <ele>1221.8000488281</ele>
        <time>2017-04-24T06:50:35.000Z</time>
      </trkpt>
      <trkpt lat="46.8313" lon="6.54304">
        <ele>1222.8000488281</ele>
        <time>2017-04-24T06:50:38.000Z</time>
      </trkpt>
      <trkpt lat="46.83137" lon="6.54312">
        <ele>1224</ele>
        <time>2017-04-24T06:50:40.000Z</time>
      </trkpt>
      <trkpt lat="46.83141" lon="6.54315">
        <ele>1224.5999755859</ele>
        <time>2017-04-24T06:50:41.000Z</time>
      </trkpt>
      <trkpt lat="46.83145" lon="6.54317">
        <ele>1225.1999511719</ele>
        <time>2017-04-24T06:50:42.000Z</time>
      </trkpt>
      <trkpt lat="46.83155" lon="6.54322">
        <ele>1226.4000244141</ele>
        <time>2017-04-24T06:50:45.000Z</time>
      </trkpt>
      <trkpt lat="46.83159" lon="6.54324">
        <ele>1226.8000488281</ele>
        <time>2017-04-24T06:50:46.000Z</time>
      </trkpt>
      <trkpt lat="46.83166" lon="6.54327">
        <ele>1227.5999755859</ele>
        <time>2017-04-24T06:50:48.000Z</time>
      </trkpt>
      <trkpt lat="46.83173" lon="6.54332">
        <ele>1228.8000488281</ele>
        <time>2017-04-24T06:50:50.000Z</time>
      </trkpt>
      <trkpt lat="46.83183" lon="6.54338">
        <ele>1230</ele>
        <time>2017-04-24T06:50:53.000Z</time>
      </trkpt>
      <trkpt lat="46.83187" lon="6.54341">
        <ele>1230.4000244141</ele>
        <time>2017-04-24T06:50:54.000Z</time>
      </trkpt>
      <trkpt lat="46.83194" lon="6.54344">
        <ele>1231</ele>
        <time>2017-04-24T06:50:56.000Z</time>
      </trkpt>
      <trkpt lat="46.83205" lon="6.54349">
        <ele>1232.4000244141</ele>
        <time>2017-04-24T06:50:59.000Z</time>
      </trkpt>
      <trkpt lat="46.83212" lon="6.54353">
        <ele>1233.1999511719</ele>
        <time>2017-04-24T06:51:01.000Z</time>
      </trkpt>
      <trkpt lat="46.83215" lon="6.54354">
        <ele>1233.5999755859</ele>
        <time>2017-04-24T06:51:02.000Z</time>
      </trkpt>
      <trkpt lat="46.83229" lon="6.54361">
        <ele>1235.1999511719</ele>
        <time>2017-04-24T06:51:06.000Z</time>
      </trkpt>
      <trkpt lat="46.8324" lon="6.54366">
        <ele>1236.4000244141</ele>
        <time>2017-04-24T06:51:09.000Z</time>
      </trkpt>
      <trkpt lat="46.83254" lon="6.54375">
        <ele>1237.5999755859</ele>
        <time>2017-04-24T06:51:13.000Z</time>
      </trkpt>
      <trkpt lat="46.83268" lon="6.54387">
        <ele>1238.8000488281</ele>
        <time>2017-04-24T06:51:17.000Z</time>
      </trkpt>
      <trkpt lat="46.8328" lon="6.544">
        <ele>1239.8000488281</ele>
        <time>2017-04-24T06:51:21.000Z</time>
      </trkpt>
      <trkpt lat="46.83286" lon="6.54407">
        <ele>1240.8000488281</ele>
        <time>2017-04-24T06:51:23.000Z</time>
      </trkpt>
      <trkpt lat="46.83289" lon="6.54409">
        <ele>1241.4000244141</ele>
        <time>2017-04-24T06:51:24.000Z</time>
      </trkpt>
      <trkpt lat="46.83295" lon="6.54411">
        <ele>1242.1999511719</ele>
        <time>2017-04-24T06:51:26.000Z</time>
      </trkpt>
      <trkpt lat="46.83297" lon="6.5441">
        <ele>1242.5999755859</ele>
        <time>2017-04-24T06:51:27.000Z</time>
      </trkpt>
      <trkpt lat="46.833" lon="6.54403">
        <ele>1243.5999755859</ele>
        <time>2017-04-24T06:51:29.000Z</time>
      </trkpt>
      <trkpt lat="46.833" lon="6.54397">
        <ele>1244.5999755859</ele>
        <time>2017-04-24T06:51:31.000Z</time>
      </trkpt>
      <trkpt lat="46.83301" lon="6.54393">
        <ele>1245</ele>
        <time>2017-04-24T06:51:32.000Z</time>
      </trkpt>
      <trkpt lat="46.833" lon="6.54386">
        <ele>1245.8000488281</ele>
        <time>2017-04-24T06:51:34.000Z</time>
      </trkpt>
      <trkpt lat="46.83299" lon="6.54371">
        <ele>1246.8000488281</ele>
        <time>2017-04-24T06:51:38.000Z</time>
      </trkpt>
      <trkpt lat="46.83299" lon="6.54367">
        <ele>1247</ele>
        <time>2017-04-24T06:51:39.000Z</time>
      </trkpt>
      <trkpt lat="46.83298" lon="6.5434">
        <ele>1248</ele>
        <time>2017-04-24T06:51:44.000Z</time>
      </trkpt>
      <trkpt lat="46.83299" lon="6.54326">
        <ele>1249</ele>
        <time>2017-04-24T06:51:47.000Z</time>
      </trkpt>
      <trkpt lat="46.83299" lon="6.54307">
        <ele>1249.8000488281</ele>
        <time>2017-04-24T06:51:51.000Z</time>
      </trkpt>
      <trkpt lat="46.833" lon="6.54303">
        <ele>1250.4000244141</ele>
        <time>2017-04-24T06:51:52.000Z</time>
      </trkpt>
      <trkpt lat="46.833" lon="6.54294">
        <ele>1251.4000244141</ele>
        <time>2017-04-24T06:51:54.000Z</time>
      </trkpt>
      <trkpt lat="46.833" lon="6.54282">
        <ele>1252.5999755859</ele>
        <time>2017-04-24T06:51:57.000Z</time>
      </trkpt>
      <trkpt lat="46.833" lon="6.54278">
        <ele>1253.1999511719</ele>
        <time>2017-04-24T06:51:58.000Z</time>
      </trkpt>
      <trkpt lat="46.833" lon="6.54269">
        <ele>1253.8000488281</ele>
        <time>2017-04-24T06:52:00.000Z</time>
      </trkpt>
      <trkpt lat="46.833" lon="6.54251">
        <ele>1255.1999511719</ele>
        <time>2017-04-24T06:52:04.000Z</time>
      </trkpt>
      <trkpt lat="46.83303" lon="6.54242">
        <ele>1256.1999511719</ele>
        <time>2017-04-24T06:52:07.000Z</time>
      </trkpt>
      <trkpt lat="46.83306" lon="6.5424">
        <ele>1256.5999755859</ele>
        <time>2017-04-24T06:52:09.000Z</time>
      </trkpt>
      <trkpt lat="46.8331" lon="6.54243">
        <ele>1257.4000244141</ele>
        <time>2017-04-24T06:52:11.000Z</time>
      </trkpt>
      <trkpt lat="46.83313" lon="6.54248">
        <ele>1258.4000244141</ele>
        <time>2017-04-24T06:52:13.000Z</time>
      </trkpt>
      <trkpt lat="46.8332" lon="6.5427">
        <ele>1259.5999755859</ele>
        <time>2017-04-24T06:52:19.000Z</time>
      </trkpt>
      <trkpt lat="46.83326" lon="6.54279">
        <ele>1260.5999755859</ele>
        <time>2017-04-24T06:52:22.000Z</time>
      </trkpt>
      <trkpt lat="46.83331" lon="6.54285">
        <ele>1261</ele>
        <time>2017-04-24T06:52:24.000Z</time>
      </trkpt>
      <trkpt lat="46.83339" lon="6.54294">
        <ele>1261.5999755859</ele>
        <time>2017-04-24T06:52:27.000Z</time>
      </trkpt>
      <trkpt lat="46.83348" lon="6.54302">
        <ele>1262.1999511719</ele>
        <time>2017-04-24T06:52:30.000Z</time>
      </trkpt>
      <trkpt lat="46.83356" lon="6.54309">
        <ele>1262.8000488281</ele>
        <time>2017-04-24T06:52:33.000Z</time>
      </trkpt>
      <trkpt lat="46.83361" lon="6.54314">
        <ele>1264</ele>
        <time>2017-04-24T06:52:35.000Z</time>
      </trkpt>
      <trkpt lat="46.83363" lon="6.54317">
        <ele>1264.4000244141</ele>
        <time>2017-04-24T06:52:36.000Z</time>
      </trkpt>
      <trkpt lat="46.83368" lon="6.54322">
        <ele>1265.1999511719</ele>
        <time>2017-04-24T06:52:38.000Z</time>
      </trkpt>
      <trkpt lat="46.83376" lon="6.54333">
        <ele>1266</ele>
        <time>2017-04-24T06:52:41.000Z</time>
      </trkpt>
      <trkpt lat="46.83389" lon="6.5435">
        <ele>1266.4000244141</ele>
        <time>2017-04-24T06:52:46.000Z</time>
      </trkpt>
      <trkpt lat="46.83392" lon="6.54353">
        <ele>1266.5999755859</ele>
        <time>2017-04-24T06:52:47.000Z</time>
      </trkpt>
      <trkpt lat="46.83405" lon="6.5437">
        <ele>1267.5999755859</ele>
        <time>2017-04-24T06:52:52.000Z</time>
      </trkpt>
      <trkpt lat="46.83408" lon="6.54374">
        <ele>1267.8000488281</ele>
        <time>2017-04-24T06:52:53.000Z</time>
      </trkpt>
      <trkpt lat="46.83423" lon="6.54392">
        <ele>1268.8000488281</ele>
        <time>2017-04-24T06:52:58.000Z</time>
      </trkpt>
      <trkpt lat="46.83432" lon="6.54404">
        <ele>1269</ele>
        <time>2017-04-24T06:53:01.000Z</time>
      </trkpt>
      <trkpt lat="46.83438" lon="6.54411">
        <ele>1269.4000244141</ele>
        <time>2017-04-24T06:53:03.000Z</time>
      </trkpt>
      <trkpt lat="46.83442" lon="6.54415">
        <ele>1270</ele>
        <time>2017-04-24T06:53:05.000Z</time>
      </trkpt>
      <trkpt lat="46.83447" lon="6.54418">
        <ele>1270.8000488281</ele>
        <time>2017-04-24T06:53:07.000Z</time>
      </trkpt>
      <trkpt lat="46.83449" lon="6.54417">
        <ele>1271.1999511719</ele>
        <time>2017-04-24T06:53:08.000Z</time>
      </trkpt>
      <trkpt lat="46.83452" lon="6.54408">
        <ele>1272.5999755859</ele>
        <time>2017-04-24T06:53:11.000Z</time>
      </trkpt>
      <trkpt lat="46.83447" lon="6.54392">
        <ele>1273.8000488281</ele>
        <time>2017-04-24T06:53:15.000Z</time>
      </trkpt>
      <trkpt lat="46.83446" lon="6.54387">
        <ele>1274</ele>
        <time>2017-04-24T06:53:16.000Z</time>
      </trkpt>
      <trkpt lat="46.83442" lon="6.54374">
        <ele>1275</ele>
        <time>2017-04-24T06:53:19.000Z</time>
      </trkpt>
      <trkpt lat="46.8344" lon="6.54366">
        <ele>1276</ele>
        <time>2017-04-24T06:53:21.000Z</time>
      </trkpt>
      <trkpt lat="46.83438" lon="6.54352">
        <ele>1277.1999511719</ele>
        <time>2017-04-24T06:53:24.000Z</time>
      </trkpt>
      <trkpt lat="46.83434" lon="6.54336">
        <ele>1278.1999511719</ele>
        <time>2017-04-24T06:53:28.000Z</time>
      </trkpt>
      <trkpt lat="46.83433" lon="6.54331">
        <ele>1278.5999755859</ele>
        <time>2017-04-24T06:53:29.000Z</time>
      </trkpt>
      <trkpt lat="46.8343" lon="6.54322">
        <ele>1279.4000244141</ele>
        <time>2017-04-24T06:53:31.000Z</time>
      </trkpt>
      <trkpt lat="46.83428" lon="6.54313">
        <ele>1280.1999511719</ele>
        <time>2017-04-24T06:53:33.000Z</time>
      </trkpt>
      <trkpt lat="46.83427" lon="6.54308">
        <ele>1280.5999755859</ele>
        <time>2017-04-24T06:53:34.000Z</time>
      </trkpt>
      <trkpt lat="46.83426" lon="6.54304">
        <ele>1280.8000488281</ele>
        <time>2017-04-24T06:53:35.000Z</time>
      </trkpt>
      <trkpt lat="46.83425" lon="6.54296">
        <ele>1281</ele>
        <time>2017-04-24T06:53:37.000Z</time>
      </trkpt>
      <trkpt lat="46.83424" lon="6.54285">
        <ele>1281.8000488281</ele>
        <time>2017-04-24T06:53:39.000Z</time>
      </trkpt>
      <trkpt lat="46.83423" lon="6.5427">
        <ele>1283</ele>
        <time>2017-04-24T06:53:42.000Z</time>
      </trkpt>
      <trkpt lat="46.8342" lon="6.54253">
        <ele>1284.4000244141</ele>
        <time>2017-04-24T06:53:45.000Z</time>
      </trkpt>
      <trkpt lat="46.83419" lon="6.54247">
        <ele>1284.5999755859</ele>
        <time>2017-04-24T06:53:46.000Z</time>
      </trkpt>
      <trkpt lat="46.83417" lon="6.54232">
        <ele>1285.5999755859</ele>
        <time>2017-04-24T06:53:49.000Z</time>
      </trkpt>
      <trkpt lat="46.83415" lon="6.54222">
        <ele>1286.4000244141</ele>
        <time>2017-04-24T06:53:51.000Z</time>
      </trkpt>
      <trkpt lat="46.83414" lon="6.54212">
        <ele>1287</ele>
        <time>2017-04-24T06:53:53.000Z</time>
      </trkpt>
      <trkpt lat="46.83413" lon="6.54202">
        <ele>1287.5999755859</ele>
        <time>2017-04-24T06:53:55.000Z</time>
      </trkpt>
      <trkpt lat="46.83412" lon="6.54197">
        <ele>1288.1999511719</ele>
        <time>2017-04-24T06:53:56.000Z</time>
      </trkpt>
      <trkpt lat="46.83412" lon="6.54183">
        <ele>1289.4000244141</ele>
        <time>2017-04-24T06:53:59.000Z</time>
      </trkpt>
      <trkpt lat="46.83411" lon="6.54173">
        <ele>1290</ele>
        <time>2017-04-24T06:54:01.000Z</time>
      </trkpt>
      <trkpt lat="46.83411" lon="6.54168">
        <ele>1290.1999511719</ele>
        <time>2017-04-24T06:54:02.000Z</time>
      </trkpt>
      <trkpt lat="46.83411" lon="6.54162">
        <ele>1290.8000488281</ele>
        <time>2017-04-24T06:54:03.000Z</time>
      </trkpt>
      <trkpt lat="46.83412" lon="6.54154">
        <ele>1291.5999755859</ele>
        <time>2017-04-24T06:54:05.000Z</time>
      </trkpt>
      <trkpt lat="46.83414" lon="6.5415">
        <ele>1292</ele>
        <time>2017-04-24T06:54:06.000Z</time>
      </trkpt>
      <trkpt lat="46.83419" lon="6.54142">
        <ele>1293.1999511719</ele>
        <time>2017-04-24T06:54:10.000Z</time>
      </trkpt>
      <trkpt lat="46.83422" lon="6.54143">
        <ele>1294.4000244141</ele>
        <time>2017-04-24T06:54:12.000Z</time>
      </trkpt>
      <trkpt lat="46.83425" lon="6.54145">
        <ele>1295.5999755859</ele>
        <time>2017-04-24T06:54:14.000Z</time>
      </trkpt>
      <trkpt lat="46.83427" lon="6.54147">
        <ele>1296</ele>
        <time>2017-04-24T06:54:15.000Z</time>
      </trkpt>
      <trkpt lat="46.8343" lon="6.54153">
        <ele>1297</ele>
        <time>2017-04-24T06:54:18.000Z</time>
      </trkpt>
      <trkpt lat="46.83431" lon="6.54155">
        <ele>1297.4000244141</ele>
        <time>2017-04-24T06:54:19.000Z</time>
      </trkpt>
      <trkpt lat="46.83433" lon="6.54158">
        <ele>1297.5999755859</ele>
        <time>2017-04-24T06:54:20.000Z</time>
      </trkpt>
      <trkpt lat="46.83435" lon="6.5416">
        <ele>1298.1999511719</ele>
        <time>2017-04-24T06:54:21.000Z</time>
      </trkpt>
      <trkpt lat="46.83439" lon="6.54167">
        <ele>1299</ele>
        <time>2017-04-24T06:54:24.000Z</time>
      </trkpt>
      <trkpt lat="46.8344" lon="6.54169">
        <ele>1299.4000244141</ele>
        <time>2017-04-24T06:54:25.000Z</time>
      </trkpt>
      <trkpt lat="46.83441" lon="6.54171">
        <ele>1299.8000488281</ele>
        <time>2017-04-24T06:54:26.000Z</time>
      </trkpt>
      <trkpt lat="46.83446" lon="6.5418">
        <ele>1300.5999755859</ele>
        <time>2017-04-24T06:54:29.000Z</time>
      </trkpt>
      <trkpt lat="46.83451" lon="6.54186">
        <ele>1301.8000488281</ele>
        <time>2017-04-24T06:54:31.000Z</time>
      </trkpt>
      <trkpt lat="46.83461" lon="6.54206">
        <ele>1302.8000488281</ele>
        <time>2017-04-24T06:54:36.000Z</time>
      </trkpt>
      <trkpt lat="46.83466" lon="6.54215">
        <ele>1302.8000488281</ele>
        <time>2017-04-24T06:54:38.000Z</time>
      </trkpt>
      <trkpt lat="46.83473" lon="6.54231">
        <ele>1302.5999755859</ele>
        <time>2017-04-24T06:54:41.000Z</time>
      </trkpt>
      <trkpt lat="46.83475" lon="6.54236">
        <ele>1302.4000244141</ele>
        <time>2017-04-24T06:54:42.000Z</time>
      </trkpt>
      <trkpt lat="46.8348" lon="6.54247">
        <ele>1302.5999755859</ele>
        <time>2017-04-24T06:54:44.000Z</time>
      </trkpt>
      <trkpt lat="46.83482" lon="6.54253">
        <ele>1303</ele>
        <time>2017-04-24T06:54:45.000Z</time>
      </trkpt>
      <trkpt lat="46.83484" lon="6.54258">
        <ele>1303</ele>
        <time>2017-04-24T06:54:46.000Z</time>
      </trkpt>
      <trkpt lat="46.83491" lon="6.54272">
        <ele>1303.8000488281</ele>
        <time>2017-04-24T06:54:49.000Z</time>
      </trkpt>
      <trkpt lat="46.83493" lon="6.54276">
        <ele>1304.1999511719</ele>
        <time>2017-04-24T06:54:50.000Z</time>
      </trkpt>
      <trkpt lat="46.83497" lon="6.54283">
        <ele>1305.1999511719</ele>
        <time>2017-04-24T06:54:52.000Z</time>
      </trkpt>
      <trkpt lat="46.83499" lon="6.54286">
        <ele>1305.8000488281</ele>
        <time>2017-04-24T06:54:53.000Z</time>
      </trkpt>
      <trkpt lat="46.83502" lon="6.54293">
        <ele>1306.8000488281</ele>
        <time>2017-04-24T06:54:55.000Z</time>
      </trkpt>
      <trkpt lat="46.83511" lon="6.54305">
        <ele>1307.4000244141</ele>
        <time>2017-04-24T06:54:58.000Z</time>
      </trkpt>
      <trkpt lat="46.83523" lon="6.54318">
        <ele>1307.8000488281</ele>
        <time>2017-04-24T06:55:02.000Z</time>
      </trkpt>
      <trkpt lat="46.83531" lon="6.54325">
        <ele>1308</ele>
        <time>2017-04-24T06:55:04.000Z</time>
      </trkpt>
      <trkpt lat="46.83539" lon="6.54331">
        <ele>1308.8000488281</ele>
        <time>2017-04-24T06:55:06.000Z</time>
      </trkpt>
      <trkpt lat="46.83543" lon="6.54333">
        <ele>1309.1999511719</ele>
        <time>2017-04-24T06:55:07.000Z</time>
      </trkpt>
      <trkpt lat="46.83548" lon="6.54335">
        <ele>1309.4000244141</ele>
        <time>2017-04-24T06:55:08.000Z</time>
      </trkpt>
      <trkpt lat="46.83556" lon="6.54336">
        <ele>1310</ele>
        <time>2017-04-24T06:55:10.000Z</time>
      </trkpt>
      <trkpt lat="46.8356" lon="6.54336">
        <ele>1310.1999511719</ele>
        <time>2017-04-24T06:55:11.000Z</time>
      </trkpt>
      <trkpt lat="46.83565" lon="6.54336">
        <ele>1310.4000244141</ele>
        <time>2017-04-24T06:55:12.000Z</time>
      </trkpt>
      <trkpt lat="46.8358" lon="6.54339">
        <ele>1310.5999755859</ele>
        <time>2017-04-24T06:55:15.000Z</time>
      </trkpt>
      <trkpt lat="46.83585" lon="6.54341">
        <ele>1310.5999755859</ele>
        <time>2017-04-24T06:55:16.000Z</time>
      </trkpt>
      <trkpt lat="46.83594" lon="6.54345">
        <ele>1310.5999755859</ele>
        <time>2017-04-24T06:55:18.000Z</time>
      </trkpt>
      <trkpt lat="46.83603" lon="6.54352">
        <ele>1310.8000488281</ele>
        <time>2017-04-24T06:55:20.000Z</time>
      </trkpt>
      <trkpt lat="46.83611" lon="6.54358">
        <ele>1311.1999511719</ele>
        <time>2017-04-24T06:55:22.000Z</time>
      </trkpt>
      <trkpt lat="46.83619" lon="6.54366">
        <ele>1312.5999755859</ele>
        <time>2017-04-24T06:55:25.000Z</time>
      </trkpt>
      <trkpt lat="46.83631" lon="6.54383">
        <ele>1314</ele>
        <time>2017-04-24T06:55:30.000Z</time>
      </trkpt>
      <trkpt lat="46.83634" lon="6.54387">
        <ele>1314.4000244141</ele>
        <time>2017-04-24T06:55:31.000Z</time>
      </trkpt>
      <trkpt lat="46.83639" lon="6.54397">
        <ele>1315.1999511719</ele>
        <time>2017-04-24T06:55:33.000Z</time>
      </trkpt>
      <trkpt lat="46.83641" lon="6.54403">
        <ele>1315.5999755859</ele>
        <time>2017-04-24T06:55:34.000Z</time>
      </trkpt>
      <trkpt lat="46.83647" lon="6.54414">
        <ele>1316</ele>
        <time>2017-04-24T06:55:36.000Z</time>
      </trkpt>
      <trkpt lat="46.83651" lon="6.54418">
        <ele>1316.1999511719</ele>
        <time>2017-04-24T06:55:37.000Z</time>
      </trkpt>
      <trkpt lat="46.83662" lon="6.54431">
        <ele>1317</ele>
        <time>2017-04-24T06:55:40.000Z</time>
      </trkpt>
      <trkpt lat="46.83666" lon="6.54435">
        <ele>1317.1999511719</ele>
        <time>2017-04-24T06:55:41.000Z</time>
      </trkpt>
      <trkpt lat="46.83671" lon="6.54438">
        <ele>1317.5999755859</ele>
        <time>2017-04-24T06:55:42.000Z</time>
      </trkpt>
      <trkpt lat="46.83678" lon="6.54445">
        <ele>1318.1999511719</ele>
        <time>2017-04-24T06:55:44.000Z</time>
      </trkpt>
      <trkpt lat="46.83682" lon="6.54448">
        <ele>1318.8000488281</ele>
        <time>2017-04-24T06:55:45.000Z</time>
      </trkpt>
      <trkpt lat="46.83685" lon="6.54452">
        <ele>1319.1999511719</ele>
        <time>2017-04-24T06:55:46.000Z</time>
      </trkpt>
      <trkpt lat="46.83691" lon="6.54459">
        <ele>1320</ele>
        <time>2017-04-24T06:55:48.000Z</time>
      </trkpt>
      <trkpt lat="46.837" lon="6.54469">
        <ele>1321</ele>
        <time>2017-04-24T06:55:51.000Z</time>
      </trkpt>
      <trkpt lat="46.83703" lon="6.54472">
        <ele>1321.5999755859</ele>
        <time>2017-04-24T06:55:52.000Z</time>
      </trkpt>
      <trkpt lat="46.8371" lon="6.54478">
        <ele>1322.1999511719</ele>
        <time>2017-04-24T06:55:54.000Z</time>
      </trkpt>
      <trkpt lat="46.83724" lon="6.54487">
        <ele>1323</ele>
        <time>2017-04-24T06:55:58.000Z</time>
      </trkpt>
      <trkpt lat="46.8373" lon="6.54492">
        <ele>1323.4000244141</ele>
        <time>2017-04-24T06:56:00.000Z</time>
      </trkpt>
      <trkpt lat="46.83741" lon="6.54505">
        <ele>1324.5999755859</ele>
        <time>2017-04-24T06:56:04.000Z</time>
      </trkpt>
      <trkpt lat="46.83744" lon="6.54508">
        <ele>1324.8000488281</ele>
        <time>2017-04-24T06:56:05.000Z</time>
      </trkpt>
      <trkpt lat="46.83754" lon="6.54518">
        <ele>1325</ele>
        <time>2017-04-24T06:56:08.000Z</time>
      </trkpt>
      <trkpt lat="46.83763" lon="6.54523">
        <ele>1325.1999511719</ele>
        <time>2017-04-24T06:56:10.000Z</time>
      </trkpt>
      <trkpt lat="46.83787" lon="6.5453">
        <ele>1325</ele>
        <time>2017-04-24T06:56:15.000Z</time>
      </trkpt>
      <trkpt lat="46.83802" lon="6.54534">
        <ele>1325.8000488281</ele>
        <time>2017-04-24T06:56:18.000Z</time>
      </trkpt>
      <trkpt lat="46.83822" lon="6.54544">
        <ele>1326.4000244141</ele>
        <time>2017-04-24T06:56:22.000Z</time>
      </trkpt>
      <trkpt lat="46.83827" lon="6.54548">
        <ele>1326.5999755859</ele>
        <time>2017-04-24T06:56:23.000Z</time>
      </trkpt>
      <trkpt lat="46.83838" lon="6.54561">
        <ele>1326.5999755859</ele>
        <time>2017-04-24T06:56:26.000Z</time>
      </trkpt>
      <trkpt lat="46.83845" lon="6.54579">
        <ele>1327</ele>
        <time>2017-04-24T06:56:29.000Z</time>
      </trkpt>
      <trkpt lat="46.8385" lon="6.54592">
        <ele>1327</ele>
        <time>2017-04-24T06:56:31.000Z</time>
      </trkpt>
      <trkpt lat="46.83869" lon="6.54628">
        <ele>1327.1999511719</ele>
        <time>2017-04-24T06:56:37.000Z</time>
      </trkpt>
      <trkpt lat="46.83873" lon="6.54632">
        <ele>1327.1999511719</ele>
        <time>2017-04-24T06:56:38.000Z</time>
      </trkpt>
      <trkpt lat="46.8388" lon="6.54641">
        <ele>1327.1999511719</ele>
        <time>2017-04-24T06:56:40.000Z</time>
      </trkpt>
      <trkpt lat="46.83883" lon="6.54644">
        <ele>1327.4000244141</ele>
        <time>2017-04-24T06:56:41.000Z</time>
      </trkpt>
      <trkpt lat="46.8389" lon="6.54652">
        <ele>1328.1999511719</ele>
        <time>2017-04-24T06:56:43.000Z</time>
      </trkpt>
      <trkpt lat="46.83893" lon="6.54655">
        <ele>1328.8000488281</ele>
        <time>2017-04-24T06:56:44.000Z</time>
      </trkpt>
      <trkpt lat="46.83902" lon="6.54666">
        <ele>1330</ele>
        <time>2017-04-24T06:56:47.000Z</time>
      </trkpt>
      <trkpt lat="46.83905" lon="6.54669">
        <ele>1330.1999511719</ele>
        <time>2017-04-24T06:56:48.000Z</time>
      </trkpt>
      <trkpt lat="46.8391" lon="6.54675">
        <ele>1331.1999511719</ele>
        <time>2017-04-24T06:56:50.000Z</time>
      </trkpt>
      <trkpt lat="46.83917" lon="6.54684">
        <ele>1332.4000244141</ele>
        <time>2017-04-24T06:56:53.000Z</time>
      </trkpt>
      <trkpt lat="46.83927" lon="6.54696">
        <ele>1333.5999755859</ele>
        <time>2017-04-24T06:56:57.000Z</time>
      </trkpt>
      <trkpt lat="46.8393" lon="6.54699">
        <ele>1334.1999511719</ele>
        <time>2017-04-24T06:56:58.000Z</time>
      </trkpt>
      <trkpt lat="46.8394" lon="6.54708">
        <ele>1335</ele>
        <time>2017-04-24T06:57:01.000Z</time>
      </trkpt>
      <trkpt lat="46.83947" lon="6.54713">
        <ele>1335.8000488281</ele>
        <time>2017-04-24T06:57:03.000Z</time>
      </trkpt>
      <trkpt lat="46.8395" lon="6.54715">
        <ele>1336.4000244141</ele>
        <time>2017-04-24T06:57:04.000Z</time>
      </trkpt>
      <trkpt lat="46.8396" lon="6.54722">
        <ele>1337.8000488281</ele>
        <time>2017-04-24T06:57:07.000Z</time>
      </trkpt>
      <trkpt lat="46.83963" lon="6.54723">
        <ele>1338.4000244141</ele>
        <time>2017-04-24T06:57:08.000Z</time>
      </trkpt>
      <trkpt lat="46.83967" lon="6.54725">
        <ele>1339</ele>
        <time>2017-04-24T06:57:09.000Z</time>
      </trkpt>
      <trkpt lat="46.83976" lon="6.54731">
        <ele>1340.4000244141</ele>
        <time>2017-04-24T06:57:12.000Z</time>
      </trkpt>
      <trkpt lat="46.83979" lon="6.54733">
        <ele>1340.5999755859</ele>
        <time>2017-04-24T06:57:13.000Z</time>
      </trkpt>
      <trkpt lat="46.83985" lon="6.54736">
        <ele>1341.4000244141</ele>
        <time>2017-04-24T06:57:15.000Z</time>
      </trkpt>
      <trkpt lat="46.83993" lon="6.54741">
        <ele>1342.8000488281</ele>
        <time>2017-04-24T06:57:18.000Z</time>
      </trkpt>
      <trkpt lat="46.83998" lon="6.54744">
        <ele>1343.5999755859</ele>
        <time>2017-04-24T06:57:20.000Z</time>
      </trkpt>
      <trkpt lat="46.84" lon="6.54746">
        <ele>1344</ele>
        <time>2017-04-24T06:57:21.000Z</time>
      </trkpt>
      <trkpt lat="46.84009" lon="6.5475">
        <ele>1345.1999511719</ele>
        <time>2017-04-24T06:57:24.000Z</time>
      </trkpt>
      <trkpt lat="46.84017" lon="6.54753">
        <ele>1346.4000244141</ele>
        <time>2017-04-24T06:57:27.000Z</time>
      </trkpt>
      <trkpt lat="46.84021" lon="6.54754">
        <ele>1346.8000488281</ele>
        <time>2017-04-24T06:57:29.000Z</time>
      </trkpt>
      <trkpt lat="46.84027" lon="6.54757">
        <ele>1348</ele>
        <time>2017-04-24T06:57:31.000Z</time>
      </trkpt>
      <trkpt lat="46.84034" lon="6.54759">
        <ele>1349</ele>
        <time>2017-04-24T06:57:33.000Z</time>
      </trkpt>
      <trkpt lat="46.84038" lon="6.54761">
        <ele>1349.5999755859</ele>
        <time>2017-04-24T06:57:35.000Z</time>
      </trkpt>
      <trkpt lat="46.84044" lon="6.54765">
        <ele>1350.4000244141</ele>
        <time>2017-04-24T06:57:37.000Z</time>
      </trkpt>
      <trkpt lat="46.84053" lon="6.54769">
        <ele>1351.8000488281</ele>
        <time>2017-04-24T06:57:40.000Z</time>
      </trkpt>
      <trkpt lat="46.84064" lon="6.54774">
        <ele>1352.8000488281</ele>
        <time>2017-04-24T06:57:44.000Z</time>
      </trkpt>
      <trkpt lat="46.84067" lon="6.54776">
        <ele>1353</ele>
        <time>2017-04-24T06:57:45.000Z</time>
      </trkpt>
      <trkpt lat="46.84072" lon="6.54781">
        <ele>1354</ele>
        <time>2017-04-24T06:57:47.000Z</time>
      </trkpt>
      <trkpt lat="46.8408" lon="6.54787">
        <ele>1355</ele>
        <time>2017-04-24T06:57:50.000Z</time>
      </trkpt>
      <trkpt lat="46.84082" lon="6.5479">
        <ele>1355.1999511719</ele>
        <time>2017-04-24T06:57:51.000Z</time>
      </trkpt>
      <trkpt lat="46.84088" lon="6.548">
        <ele>1356.1999511719</ele>
        <time>2017-04-24T06:57:54.000Z</time>
      </trkpt>
      <trkpt lat="46.84094" lon="6.54811">
        <ele>1357.4000244141</ele>
        <time>2017-04-24T06:57:57.000Z</time>
      </trkpt>
      <trkpt lat="46.84105" lon="6.54837">
        <ele>1358.1999511719</ele>
        <time>2017-04-24T06:58:03.000Z</time>
      </trkpt>
      <trkpt lat="46.84109" lon="6.54847">
        <ele>1358.1999511719</ele>
        <time>2017-04-24T06:58:05.000Z</time>
      </trkpt>
      <trkpt lat="46.84117" lon="6.54868">
        <ele>1356.1999511719</ele>
        <time>2017-04-24T06:58:08.000Z</time>
      </trkpt>
      <trkpt lat="46.8412" lon="6.54875">
        <ele>1355.4000244141</ele>
        <time>2017-04-24T06:58:09.000Z</time>
      </trkpt>
      <trkpt lat="46.84122" lon="6.54883">
        <ele>1354.5999755859</ele>
        <time>2017-04-24T06:58:10.000Z</time>
      </trkpt>
      <trkpt lat="46.84123" lon="6.549">
        <ele>1353.5999755859</ele>
        <time>2017-04-24T06:58:12.000Z</time>
      </trkpt>
      <trkpt lat="46.84123" lon="6.54909">
        <ele>1353</ele>
        <time>2017-04-24T06:58:13.000Z</time>
      </trkpt>
      <trkpt lat="46.84124" lon="6.54918">
        <ele>1352.4000244141</ele>
        <time>2017-04-24T06:58:14.000Z</time>
      </trkpt>
      <trkpt lat="46.84124" lon="6.54926">
        <ele>1351.8000488281</ele>
        <time>2017-04-24T06:58:15.000Z</time>
      </trkpt>
      <trkpt lat="46.84123" lon="6.54933">
        <ele>1351.5999755859</ele>
        <time>2017-04-24T06:58:16.000Z</time>
      </trkpt>
      <trkpt lat="46.84122" lon="6.54939">
        <ele>1351</ele>
        <time>2017-04-24T06:58:17.000Z</time>
      </trkpt>
      <trkpt lat="46.84118" lon="6.54948">
        <ele>1350</ele>
        <time>2017-04-24T06:58:19.000Z</time>
      </trkpt>
      <trkpt lat="46.8412" lon="6.54962">
        <ele>1348.5999755859</ele>
        <time>2017-04-24T06:58:22.000Z</time>
      </trkpt>
      <trkpt lat="46.84122" lon="6.54969">
        <ele>1348.4000244141</ele>
        <time>2017-04-24T06:58:23.000Z</time>
      </trkpt>
      <trkpt lat="46.84123" lon="6.54977">
        <ele>1348.1999511719</ele>
        <time>2017-04-24T06:58:24.000Z</time>
      </trkpt>
      <trkpt lat="46.84126" lon="6.54993">
        <ele>1347.4000244141</ele>
        <time>2017-04-24T06:58:26.000Z</time>
      </trkpt>
      <trkpt lat="46.84131" lon="6.55005">
        <ele>1346.4000244141</ele>
        <time>2017-04-24T06:58:28.000Z</time>
      </trkpt>
      <trkpt lat="46.84133" lon="6.55011">
        <ele>1346.1999511719</ele>
        <time>2017-04-24T06:58:29.000Z</time>
      </trkpt>
      <trkpt lat="46.84135" lon="6.55017">
        <ele>1346</ele>
        <time>2017-04-24T06:58:30.000Z</time>
      </trkpt>
      <trkpt lat="46.84136" lon="6.55023">
        <ele>1345.1999511719</ele>
        <time>2017-04-24T06:58:31.000Z</time>
      </trkpt>
      <trkpt lat="46.8414" lon="6.55037">
        <ele>1343.5999755859</ele>
        <time>2017-04-24T06:58:33.000Z</time>
      </trkpt>
      <trkpt lat="46.84141" lon="6.55045">
        <ele>1342.8000488281</ele>
        <time>2017-04-24T06:58:34.000Z</time>
      </trkpt>
      <trkpt lat="46.84142" lon="6.55052">
        <ele>1341.4000244141</ele>
        <time>2017-04-24T06:58:35.000Z</time>
      </trkpt>
      <trkpt lat="46.84143" lon="6.55071">
        <ele>1340</ele>
        <time>2017-04-24T06:58:37.000Z</time>
      </trkpt>
      <trkpt lat="46.84145" lon="6.55079">
        <ele>1339.5999755859</ele>
        <time>2017-04-24T06:58:38.000Z</time>
      </trkpt>
      <trkpt lat="46.84147" lon="6.55088">
        <ele>1339.1999511719</ele>
        <time>2017-04-24T06:58:39.000Z</time>
      </trkpt>
      <trkpt lat="46.8415" lon="6.55095">
        <ele>1338.5999755859</ele>
        <time>2017-04-24T06:58:40.000Z</time>
      </trkpt>
      <trkpt lat="46.84153" lon="6.55101">
        <ele>1338</ele>
        <time>2017-04-24T06:58:41.000Z</time>
      </trkpt>
      <trkpt lat="46.84155" lon="6.55106">
        <ele>1337.1999511719</ele>
        <time>2017-04-24T06:58:42.000Z</time>
      </trkpt>
      <trkpt lat="46.84161" lon="6.55123">
        <ele>1336.4000244141</ele>
        <time>2017-04-24T06:58:45.000Z</time>
      </trkpt>
      <trkpt lat="46.84165" lon="6.55133">
        <ele>1335.8000488281</ele>
        <time>2017-04-24T06:58:47.000Z</time>
      </trkpt>
      <trkpt lat="46.84168" lon="6.55143">
        <ele>1335.4000244141</ele>
        <time>2017-04-24T06:58:48.000Z</time>
      </trkpt>
      <trkpt lat="46.84178" lon="6.55161">
        <ele>1335</ele>
        <time>2017-04-24T06:58:51.000Z</time>
      </trkpt>
      <trkpt lat="46.84181" lon="6.55167">
        <ele>1334.8000488281</ele>
        <time>2017-04-24T06:58:52.000Z</time>
      </trkpt>
      <trkpt lat="46.84188" lon="6.55179">
        <ele>1334.5999755859</ele>
        <time>2017-04-24T06:58:54.000Z</time>
      </trkpt>
      <trkpt lat="46.84194" lon="6.55184">
        <ele>1334.5999755859</ele>
        <time>2017-04-24T06:58:56.000Z</time>
      </trkpt>
      <trkpt lat="46.84207" lon="6.55201">
        <ele>1335</ele>
        <time>2017-04-24T06:59:01.000Z</time>
      </trkpt>
      <trkpt lat="46.8421" lon="6.55204">
        <ele>1335</ele>
        <time>2017-04-24T06:59:02.000Z</time>
      </trkpt>
      <trkpt lat="46.84217" lon="6.55207">
        <ele>1335</ele>
        <time>2017-04-24T06:59:04.000Z</time>
      </trkpt>
      <trkpt lat="46.84227" lon="6.55213">
        <ele>1334.8000488281</ele>
        <time>2017-04-24T06:59:08.000Z</time>
      </trkpt>
      <trkpt lat="46.84235" lon="6.55215">
        <ele>1335.1999511719</ele>
        <time>2017-04-24T06:59:12.000Z</time>
      </trkpt>
      <trkpt lat="46.84236" lon="6.55215">
        <ele>1335.4000244141</ele>
        <time>2017-04-24T06:59:13.000Z</time>
      </trkpt>
      <trkpt lat="46.8424" lon="6.55215">
        <ele>1336</ele>
        <time>2017-04-24T06:59:15.000Z</time>
      </trkpt>
      <trkpt lat="46.84248" lon="6.55219">
        <ele>1336</ele>
        <time>2017-04-24T06:59:18.000Z</time>
      </trkpt>
      <trkpt lat="46.84251" lon="6.55222">
        <ele>1335.8000488281</ele>
        <time>2017-04-24T06:59:19.000Z</time>
      </trkpt>
      <trkpt lat="46.84261" lon="6.55234">
        <ele>1335.1999511719</ele>
        <time>2017-04-24T06:59:22.000Z</time>
      </trkpt>
      <trkpt lat="46.84264" lon="6.55239">
        <ele>1334.4000244141</ele>
        <time>2017-04-24T06:59:23.000Z</time>
      </trkpt>
      <trkpt lat="46.84269" lon="6.55242">
        <ele>1334</ele>
        <time>2017-04-24T06:59:25.000Z</time>
      </trkpt>
      <trkpt lat="46.84283" lon="6.55248">
        <ele>1334.1999511719</ele>
        <time>2017-04-24T06:59:29.000Z</time>
      </trkpt>
      <trkpt lat="46.84295" lon="6.55256">
        <ele>1334.4000244141</ele>
        <time>2017-04-24T06:59:33.000Z</time>
      </trkpt>
      <trkpt lat="46.84308" lon="6.55266">
        <ele>1334.4000244141</ele>
        <time>2017-04-24T06:59:38.000Z</time>
      </trkpt>
      <trkpt lat="46.8431" lon="6.55266">
        <ele>1334.4000244141</ele>
        <time>2017-04-24T06:59:39.000Z</time>
      </trkpt>
      <trkpt lat="46.84319" lon="6.5527">
        <ele>1334.5999755859</ele>
        <time>2017-04-24T06:59:42.000Z</time>
      </trkpt>
      <trkpt lat="46.84333" lon="6.55283">
        <ele>1334.4000244141</ele>
        <time>2017-04-24T06:59:46.000Z</time>
      </trkpt>
      <trkpt lat="46.84341" lon="6.55289">
        <ele>1333.1999511719</ele>
        <time>2017-04-24T06:59:48.000Z</time>
      </trkpt>
      <trkpt lat="46.84346" lon="6.55292">
        <ele>1332.5999755859</ele>
        <time>2017-04-24T06:59:49.000Z</time>
      </trkpt>
      <trkpt lat="46.8435" lon="6.55295">
        <ele>1332</ele>
        <time>2017-04-24T06:59:50.000Z</time>
      </trkpt>
      <trkpt lat="46.84353" lon="6.553">
        <ele>1331.4000244141</ele>
        <time>2017-04-24T06:59:51.000Z</time>
      </trkpt>
      <trkpt lat="46.84364" lon="6.5531">
        <ele>1330.5999755859</ele>
        <time>2017-04-24T06:59:53.000Z</time>
      </trkpt>
      <trkpt lat="46.84369" lon="6.55317">
        <ele>1329.8000488281</ele>
        <time>2017-04-24T06:59:54.000Z</time>
      </trkpt>
      <trkpt lat="46.84374" lon="6.55325">
        <ele>1328.8000488281</ele>
        <time>2017-04-24T06:59:55.000Z</time>
      </trkpt>
      <trkpt lat="46.84377" lon="6.55332">
        <ele>1327.4000244141</ele>
        <time>2017-04-24T06:59:56.000Z</time>
      </trkpt>
      <trkpt lat="46.84378" lon="6.55338">
        <ele>1326.1999511719</ele>
        <time>2017-04-24T06:59:57.000Z</time>
      </trkpt>
      <trkpt lat="46.8438" lon="6.55344">
        <ele>1325.1999511719</ele>
        <time>2017-04-24T06:59:58.000Z</time>
      </trkpt>
      <trkpt lat="46.84381" lon="6.5535">
        <ele>1324.4000244141</ele>
        <time>2017-04-24T06:59:59.000Z</time>
      </trkpt>
      <trkpt lat="46.84383" lon="6.55355">
        <ele>1323.8000488281</ele>
        <time>2017-04-24T07:00:00.000Z</time>
      </trkpt>
      <trkpt lat="46.84384" lon="6.55358">
        <ele>1323.4000244141</ele>
        <time>2017-04-24T07:00:01.000Z</time>
      </trkpt>
      <trkpt lat="46.84388" lon="6.55368">
        <ele>1322.4000244141</ele>
        <time>2017-04-24T07:00:04.000Z</time>
      </trkpt>
      <trkpt lat="46.84389" lon="6.55372">
        <ele>1322.1999511719</ele>
        <time>2017-04-24T07:00:05.000Z</time>
      </trkpt>
      <trkpt lat="46.8439" lon="6.55378">
        <ele>1321.5999755859</ele>
        <time>2017-04-24T07:00:06.000Z</time>
      </trkpt>
      <trkpt lat="46.84392" lon="6.55383">
        <ele>1321.1999511719</ele>
        <time>2017-04-24T07:00:07.000Z</time>
      </trkpt>
      <trkpt lat="46.84398" lon="6.55393">
        <ele>1320.8000488281</ele>
        <time>2017-04-24T07:00:11.000Z</time>
      </trkpt>
      <trkpt lat="46.84407" lon="6.55408">
        <ele>1321.4000244141</ele>
        <time>2017-04-24T07:00:15.000Z</time>
      </trkpt>
      <trkpt lat="46.84408" lon="6.55414">
        <ele>1321.4000244141</ele>
        <time>2017-04-24T07:00:16.000Z</time>
      </trkpt>
      <trkpt lat="46.84412" lon="6.55425">
        <ele>1321.4000244141</ele>
        <time>2017-04-24T07:00:19.000Z</time>
      </trkpt>
      <trkpt lat="46.84418" lon="6.55445">
        <ele>1321.1999511719</ele>
        <time>2017-04-24T07:00:23.000Z</time>
      </trkpt>
      <trkpt lat="46.84418" lon="6.55456">
        <ele>1319.8000488281</ele>
        <time>2017-04-24T07:00:25.000Z</time>
      </trkpt>
      <trkpt lat="46.84415" lon="6.55467">
        <ele>1317.4000244141</ele>
        <time>2017-04-24T07:00:27.000Z</time>
      </trkpt>
      <trkpt lat="46.84413" lon="6.55473">
        <ele>1316.1999511719</ele>
        <time>2017-04-24T07:00:28.000Z</time>
      </trkpt>
      <trkpt lat="46.8441" lon="6.5548">
        <ele>1314.4000244141</ele>
        <time>2017-04-24T07:00:29.000Z</time>
      </trkpt>
      <trkpt lat="46.84407" lon="6.55486">
        <ele>1312.8000488281</ele>
        <time>2017-04-24T07:00:30.000Z</time>
      </trkpt>
      <trkpt lat="46.84404" lon="6.55492">
        <ele>1311.8000488281</ele>
        <time>2017-04-24T07:00:31.000Z</time>
      </trkpt>
      <trkpt lat="46.84399" lon="6.55503">
        <ele>1309.8000488281</ele>
        <time>2017-04-24T07:00:33.000Z</time>
      </trkpt>
      <trkpt lat="46.84397" lon="6.55509">
        <ele>1308.8000488281</ele>
        <time>2017-04-24T07:00:34.000Z</time>
      </trkpt>
      <trkpt lat="46.84395" lon="6.55514">
        <ele>1308.1999511719</ele>
        <time>2017-04-24T07:00:35.000Z</time>
      </trkpt>
      <trkpt lat="46.84394" lon="6.55522">
        <ele>1307.1999511719</ele>
        <time>2017-04-24T07:00:36.000Z</time>
      </trkpt>
      <trkpt lat="46.84393" lon="6.55531">
        <ele>1305.4000244141</ele>
        <time>2017-04-24T07:00:37.000Z</time>
      </trkpt>
      <trkpt lat="46.84393" lon="6.5554">
        <ele>1304.1999511719</ele>
        <time>2017-04-24T07:00:38.000Z</time>
      </trkpt>
      <trkpt lat="46.84394" lon="6.5555">
        <ele>1303</ele>
        <time>2017-04-24T07:00:39.000Z</time>
      </trkpt>
      <trkpt lat="46.84395" lon="6.55562">
        <ele>1302.1999511719</ele>
        <time>2017-04-24T07:00:40.000Z</time>
      </trkpt>
      <trkpt lat="46.84396" lon="6.55572">
        <ele>1301.4000244141</ele>
        <time>2017-04-24T07:00:41.000Z</time>
      </trkpt>
      <trkpt lat="46.84395" lon="6.55592">
        <ele>1299.5999755859</ele>
        <time>2017-04-24T07:00:43.000Z</time>
      </trkpt>
      <trkpt lat="46.84396" lon="6.55601">
        <ele>1298.4000244141</ele>
        <time>2017-04-24T07:00:44.000Z</time>
      </trkpt>
      <trkpt lat="46.84397" lon="6.5561">
        <ele>1296.4000244141</ele>
        <time>2017-04-24T07:00:45.000Z</time>
      </trkpt>
      <trkpt lat="46.84399" lon="6.55619">
        <ele>1294.4000244141</ele>
        <time>2017-04-24T07:00:46.000Z</time>
      </trkpt>
      <trkpt lat="46.844" lon="6.55628">
        <ele>1292.8000488281</ele>
        <time>2017-04-24T07:00:47.000Z</time>
      </trkpt>
      <trkpt lat="46.844" lon="6.55638">
        <ele>1291.8000488281</ele>
        <time>2017-04-24T07:00:48.000Z</time>
      </trkpt>
      <trkpt lat="46.84399" lon="6.55648">
        <ele>1290.8000488281</ele>
        <time>2017-04-24T07:00:49.000Z</time>
      </trkpt>
      <trkpt lat="46.84399" lon="6.55658">
        <ele>1289.5999755859</ele>
        <time>2017-04-24T07:00:50.000Z</time>
      </trkpt>
      <trkpt lat="46.84399" lon="6.55667">
        <ele>1288.1999511719</ele>
        <time>2017-04-24T07:00:51.000Z</time>
      </trkpt>
      <trkpt lat="46.84399" lon="6.55675">
        <ele>1287.4000244141</ele>
        <time>2017-04-24T07:00:52.000Z</time>
      </trkpt>
      <trkpt lat="46.844" lon="6.55684">
        <ele>1286.4000244141</ele>
        <time>2017-04-24T07:00:53.000Z</time>
      </trkpt>
      <trkpt lat="46.84406" lon="6.55699">
        <ele>1284</ele>
        <time>2017-04-24T07:00:55.000Z</time>
      </trkpt>
      <trkpt lat="46.84411" lon="6.55707">
        <ele>1283.1999511719</ele>
        <time>2017-04-24T07:00:56.000Z</time>
      </trkpt>
      <trkpt lat="46.84415" lon="6.55714">
        <ele>1282.4000244141</ele>
        <time>2017-04-24T07:00:57.000Z</time>
      </trkpt>
      <trkpt lat="46.84418" lon="6.55721">
        <ele>1281.8000488281</ele>
        <time>2017-04-24T07:00:58.000Z</time>
      </trkpt>
      <trkpt lat="46.8442" lon="6.55728">
        <ele>1280.8000488281</ele>
        <time>2017-04-24T07:00:59.000Z</time>
      </trkpt>
      <trkpt lat="46.8442" lon="6.55736">
        <ele>1280</ele>
        <time>2017-04-24T07:01:01.000Z</time>
      </trkpt>
      <trkpt lat="46.84418" lon="6.55739">
        <ele>1279.8000488281</ele>
        <time>2017-04-24T07:01:02.000Z</time>
      </trkpt>
      <trkpt lat="46.84416" lon="6.55741">
        <ele>1279.4000244141</ele>
        <time>2017-04-24T07:01:03.000Z</time>
      </trkpt>
      <trkpt lat="46.84415" lon="6.55744">
        <ele>1279</ele>
        <time>2017-04-24T07:01:04.000Z</time>
      </trkpt>
      <trkpt lat="46.84415" lon="6.55749">
        <ele>1278.4000244141</ele>
        <time>2017-04-24T07:01:05.000Z</time>
      </trkpt>
      <trkpt lat="46.84417" lon="6.5576">
        <ele>1276.4000244141</ele>
        <time>2017-04-24T07:01:07.000Z</time>
      </trkpt>
      <trkpt lat="46.84416" lon="6.55773">
        <ele>1275.1999511719</ele>
        <time>2017-04-24T07:01:09.000Z</time>
      </trkpt>
      <trkpt lat="46.84414" lon="6.55777">
        <ele>1274.5999755859</ele>
        <time>2017-04-24T07:01:10.000Z</time>
      </trkpt>
      <trkpt lat="46.84412" lon="6.5578">
        <ele>1273.8000488281</ele>
        <time>2017-04-24T07:01:11.000Z</time>
      </trkpt>
      <trkpt lat="46.84404" lon="6.55783">
        <ele>1271.5999755859</ele>
        <time>2017-04-24T07:01:13.000Z</time>
      </trkpt>
      <trkpt lat="46.84397" lon="6.55778">
        <ele>1270.4000244141</ele>
        <time>2017-04-24T07:01:15.000Z</time>
      </trkpt>
      <trkpt lat="46.84393" lon="6.55774">
        <ele>1270.4000244141</ele>
        <time>2017-04-24T07:01:16.000Z</time>
      </trkpt>
      <trkpt lat="46.84389" lon="6.5577">
        <ele>1270.4000244141</ele>
        <time>2017-04-24T07:01:17.000Z</time>
      </trkpt>
      <trkpt lat="46.84366" lon="6.55745">
        <ele>1270.4000244141</ele>
        <time>2017-04-24T07:01:22.000Z</time>
      </trkpt>
      <trkpt lat="46.84345" lon="6.55724">
        <ele>1269.4000244141</ele>
        <time>2017-04-24T07:01:26.000Z</time>
      </trkpt>
      <trkpt lat="46.8434" lon="6.55718">
        <ele>1269.1999511719</ele>
        <time>2017-04-24T07:01:27.000Z</time>
      </trkpt>
      <trkpt lat="46.84326" lon="6.55703">
        <ele>1269</ele>
        <time>2017-04-24T07:01:30.000Z</time>
      </trkpt>
      <trkpt lat="46.84321" lon="6.55699">
        <ele>1269.1999511719</ele>
        <time>2017-04-24T07:01:32.000Z</time>
      </trkpt>
      <trkpt lat="46.84319" lon="6.55701">
        <ele>1269.1999511719</ele>
        <time>2017-04-24T07:01:33.000Z</time>
      </trkpt>
      <trkpt lat="46.8432" lon="6.55713">
        <ele>1269</ele>
        <time>2017-04-24T07:01:36.000Z</time>
      </trkpt>
      <trkpt lat="46.8432" lon="6.55718">
        <ele>1268.5999755859</ele>
        <time>2017-04-24T07:01:37.000Z</time>
      </trkpt>
      <trkpt lat="46.84322" lon="6.55728">
        <ele>1267</ele>
        <time>2017-04-24T07:01:39.000Z</time>
      </trkpt>
      <trkpt lat="46.84324" lon="6.55734">
        <ele>1266</ele>
        <time>2017-04-24T07:01:40.000Z</time>
      </trkpt>
      <trkpt lat="46.84323" lon="6.55739">
        <ele>1265.1999511719</ele>
        <time>2017-04-24T07:01:41.000Z</time>
      </trkpt>
      <trkpt lat="46.84323" lon="6.55742">
        <ele>1264.1999511719</ele>
        <time>2017-04-24T07:01:42.000Z</time>
      </trkpt>
      <trkpt lat="46.84322" lon="6.55747">
        <ele>1263.1999511719</ele>
        <time>2017-04-24T07:01:43.000Z</time>
      </trkpt>
      <trkpt lat="46.84321" lon="6.55761">
        <ele>1262</ele>
        <time>2017-04-24T07:01:46.000Z</time>
      </trkpt>
      <trkpt lat="46.84319" lon="6.55764">
        <ele>1261.4000244141</ele>
        <time>2017-04-24T07:01:47.000Z</time>
      </trkpt>
      <trkpt lat="46.84318" lon="6.55766">
        <ele>1260.5999755859</ele>
        <time>2017-04-24T07:01:48.000Z</time>
      </trkpt>
      <trkpt lat="46.84316" lon="6.55762">
        <ele>1259.5999755859</ele>
        <time>2017-04-24T07:01:50.000Z</time>
      </trkpt>
      <trkpt lat="46.84314" lon="6.55759">
        <ele>1259.4000244141</ele>
        <time>2017-04-24T07:01:51.000Z</time>
      </trkpt>
      <trkpt lat="46.84306" lon="6.55748">
        <ele>1258.8000488281</ele>
        <time>2017-04-24T07:01:54.000Z</time>
      </trkpt>
      <trkpt lat="46.84303" lon="6.55743">
        <ele>1259</ele>
        <time>2017-04-24T07:01:55.000Z</time>
      </trkpt>
      <trkpt lat="46.84297" lon="6.55734">
        <ele>1258.5999755859</ele>
        <time>2017-04-24T07:01:57.000Z</time>
      </trkpt>
      <trkpt lat="46.84289" lon="6.55726">
        <ele>1258.4000244141</ele>
        <time>2017-04-24T07:01:59.000Z</time>
      </trkpt>
      <trkpt lat="46.8428" lon="6.55716">
        <ele>1257.8000488281</ele>
        <time>2017-04-24T07:02:01.000Z</time>
      </trkpt>
      <trkpt lat="46.84276" lon="6.5571">
        <ele>1257.1999511719</ele>
        <time>2017-04-24T07:02:02.000Z</time>
      </trkpt>
      <trkpt lat="46.84271" lon="6.55704">
        <ele>1257</ele>
        <time>2017-04-24T07:02:03.000Z</time>
      </trkpt>
      <trkpt lat="46.84259" lon="6.5569">
        <ele>1257</ele>
        <time>2017-04-24T07:02:06.000Z</time>
      </trkpt>
      <trkpt lat="46.84256" lon="6.55676">
        <ele>1258.8000488281</ele>
        <time>2017-04-24T07:02:09.000Z</time>
      </trkpt>
      <trkpt lat="46.84256" lon="6.55673">
        <ele>1259.4000244141</ele>
        <time>2017-04-24T07:02:10.000Z</time>
      </trkpt>
      <trkpt lat="46.84256" lon="6.55669">
        <ele>1260.1999511719</ele>
        <time>2017-04-24T07:02:11.000Z</time>
      </trkpt>
      <trkpt lat="46.84257" lon="6.55663">
        <ele>1261.5999755859</ele>
        <time>2017-04-24T07:02:13.000Z</time>
      </trkpt>
      <trkpt lat="46.84256" lon="6.5566">
        <ele>1262.4000244141</ele>
        <time>2017-04-24T07:02:14.000Z</time>
      </trkpt>
      <trkpt lat="46.84253" lon="6.55655">
        <ele>1263</ele>
        <time>2017-04-24T07:02:16.000Z</time>
      </trkpt>
      <trkpt lat="46.84253" lon="6.55649">
        <ele>1264</ele>
        <time>2017-04-24T07:02:18.000Z</time>
      </trkpt>
      <trkpt lat="46.84252" lon="6.55646">
        <ele>1264.4000244141</ele>
        <time>2017-04-24T07:02:19.000Z</time>
      </trkpt>
      <trkpt lat="46.84248" lon="6.55638">
        <ele>1265.1999511719</ele>
        <time>2017-04-24T07:02:22.000Z</time>
      </trkpt>
      <trkpt lat="46.84245" lon="6.55635">
        <ele>1265.4000244141</ele>
        <time>2017-04-24T07:02:23.000Z</time>
      </trkpt>
      <trkpt lat="46.84239" lon="6.55637">
        <ele>1265.5999755859</ele>
        <time>2017-04-24T07:02:25.000Z</time>
      </trkpt>
      <trkpt lat="46.84236" lon="6.55639">
        <ele>1265.1999511719</ele>
        <time>2017-04-24T07:02:26.000Z</time>
      </trkpt>
      <trkpt lat="46.84233" lon="6.55639">
        <ele>1264.8000488281</ele>
        <time>2017-04-24T07:02:27.000Z</time>
      </trkpt>
      <trkpt lat="46.8423" lon="6.55639">
        <ele>1264</ele>
        <time>2017-04-24T07:02:28.000Z</time>
      </trkpt>
      <trkpt lat="46.84225" lon="6.55639">
        <ele>1263</ele>
        <time>2017-04-24T07:02:30.000Z</time>
      </trkpt>
      <trkpt lat="46.84221" lon="6.55643">
        <ele>1262.4000244141</ele>
        <time>2017-04-24T07:02:32.000Z</time>
      </trkpt>
      <trkpt lat="46.8422" lon="6.55643">
        <ele>1262</ele>
        <time>2017-04-24T07:02:33.000Z</time>
      </trkpt>
      <trkpt lat="46.84217" lon="6.55645">
        <ele>1260.5999755859</ele>
        <time>2017-04-24T07:02:36.000Z</time>
      </trkpt>
      <trkpt lat="46.84217" lon="6.55644">
        <ele>1260.8000488281</ele>
        <time>2017-04-24T07:02:43.000Z</time>
      </trkpt>
      <trkpt lat="46.84216" lon="6.55646">
        <ele>1260.5999755859</ele>
        <time>2017-04-24T07:02:47.000Z</time>
      </trkpt>
      <trkpt lat="46.84214" lon="6.55646">
        <ele>1260</ele>
        <time>2017-04-24T07:02:49.000Z</time>
      </trkpt>
      <trkpt lat="46.84204" lon="6.55653">
        <ele>1259.4000244141</ele>
        <time>2017-04-24T07:02:52.000Z</time>
      </trkpt>
      <trkpt lat="46.84192" lon="6.55655">
        <ele>1257.5999755859</ele>
        <time>2017-04-24T07:02:54.000Z</time>
      </trkpt>
      <trkpt lat="46.84185" lon="6.55654">
        <ele>1256.4000244141</ele>
        <time>2017-04-24T07:02:55.000Z</time>
      </trkpt>
      <trkpt lat="46.84179" lon="6.55652">
        <ele>1255.1999511719</ele>
        <time>2017-04-24T07:02:56.000Z</time>
      </trkpt>
      <trkpt lat="46.84173" lon="6.5565">
        <ele>1254</ele>
        <time>2017-04-24T07:02:57.000Z</time>
      </trkpt>
      <trkpt lat="46.84166" lon="6.5565">
        <ele>1252.8000488281</ele>
        <time>2017-04-24T07:02:58.000Z</time>
      </trkpt>
      <trkpt lat="46.8416" lon="6.55651">
        <ele>1251.4000244141</ele>
        <time>2017-04-24T07:02:59.000Z</time>
      </trkpt>
      <trkpt lat="46.84153" lon="6.55653">
        <ele>1250.1999511719</ele>
        <time>2017-04-24T07:03:00.000Z</time>
      </trkpt>
      <trkpt lat="46.84146" lon="6.55656">
        <ele>1249</ele>
        <time>2017-04-24T07:03:01.000Z</time>
      </trkpt>
      <trkpt lat="46.8414" lon="6.5566">
        <ele>1248</ele>
        <time>2017-04-24T07:03:02.000Z</time>
      </trkpt>
      <trkpt lat="46.84128" lon="6.55667">
        <ele>1246.5999755859</ele>
        <time>2017-04-24T07:03:04.000Z</time>
      </trkpt>
      <trkpt lat="46.84117" lon="6.55669">
        <ele>1245.4000244141</ele>
        <time>2017-04-24T07:03:06.000Z</time>
      </trkpt>
      <trkpt lat="46.84111" lon="6.55671">
        <ele>1244.8000488281</ele>
        <time>2017-04-24T07:03:07.000Z</time>
      </trkpt>
      <trkpt lat="46.84105" lon="6.55674">
        <ele>1243.8000488281</ele>
        <time>2017-04-24T07:03:08.000Z</time>
      </trkpt>
      <trkpt lat="46.8409" lon="6.55682">
        <ele>1242.5999755859</ele>
        <time>2017-04-24T07:03:10.000Z</time>
      </trkpt>
      <trkpt lat="46.84084" lon="6.55686">
        <ele>1242</ele>
        <time>2017-04-24T07:03:11.000Z</time>
      </trkpt>
      <trkpt lat="46.84079" lon="6.5569">
        <ele>1242.8000488281</ele>
        <time>2017-04-24T07:03:12.000Z</time>
      </trkpt>
      <trkpt lat="46.84074" lon="6.55693">
        <ele>1243.8000488281</ele>
        <time>2017-04-24T07:03:14.000Z</time>
      </trkpt>
      <trkpt lat="46.84072" lon="6.55694">
        <ele>1244</ele>
        <time>2017-04-24T07:03:15.000Z</time>
      </trkpt>
      <trkpt lat="46.84066" lon="6.55706">
        <ele>1245</ele>
        <time>2017-04-24T07:03:18.000Z</time>
      </trkpt>
      <trkpt lat="46.84066" lon="6.5571">
        <ele>1245</ele>
        <time>2017-04-24T07:03:19.000Z</time>
      </trkpt>
      <trkpt lat="46.84068" lon="6.55732">
        <ele>1245</ele>
        <time>2017-04-24T07:03:23.000Z</time>
      </trkpt>
      <trkpt lat="46.84067" lon="6.55738">
        <ele>1244.4000244141</ele>
        <time>2017-04-24T07:03:24.000Z</time>
      </trkpt>
      <trkpt lat="46.84063" lon="6.55762">
        <ele>1244</ele>
        <time>2017-04-24T07:03:28.000Z</time>
      </trkpt>
      <trkpt lat="46.84064" lon="6.55768">
        <ele>1244</ele>
        <time>2017-04-24T07:03:29.000Z</time>
      </trkpt>
      <trkpt lat="46.84063" lon="6.5578">
        <ele>1242.8000488281</ele>
        <time>2017-04-24T07:03:31.000Z</time>
      </trkpt>
      <trkpt lat="46.84063" lon="6.55787">
        <ele>1241.4000244141</ele>
        <time>2017-04-24T07:03:32.000Z</time>
      </trkpt>
      <trkpt lat="46.84062" lon="6.55794">
        <ele>1240.4000244141</ele>
        <time>2017-04-24T07:03:33.000Z</time>
      </trkpt>
      <trkpt lat="46.84061" lon="6.55802">
        <ele>1239</ele>
        <time>2017-04-24T07:03:34.000Z</time>
      </trkpt>
      <trkpt lat="46.84058" lon="6.55808">
        <ele>1237.8000488281</ele>
        <time>2017-04-24T07:03:35.000Z</time>
      </trkpt>
      <trkpt lat="46.84054" lon="6.55812">
        <ele>1237</ele>
        <time>2017-04-24T07:03:36.000Z</time>
      </trkpt>
      <trkpt lat="46.84051" lon="6.55814">
        <ele>1236</ele>
        <time>2017-04-24T07:03:37.000Z</time>
      </trkpt>
      <trkpt lat="46.84045" lon="6.55824">
        <ele>1235</ele>
        <time>2017-04-24T07:03:39.000Z</time>
      </trkpt>
      <trkpt lat="46.84041" lon="6.55843">
        <ele>1233.8000488281</ele>
        <time>2017-04-24T07:03:41.000Z</time>
      </trkpt>
      <trkpt lat="46.84041" lon="6.55852">
        <ele>1232.5999755859</ele>
        <time>2017-04-24T07:03:42.000Z</time>
      </trkpt>
      <trkpt lat="46.8404" lon="6.55861">
        <ele>1232</ele>
        <time>2017-04-24T07:03:43.000Z</time>
      </trkpt>
      <trkpt lat="46.84038" lon="6.55869">
        <ele>1231</ele>
        <time>2017-04-24T07:03:44.000Z</time>
      </trkpt>
      <trkpt lat="46.84032" lon="6.55881">
        <ele>1229.5999755859</ele>
        <time>2017-04-24T07:03:46.000Z</time>
      </trkpt>
      <trkpt lat="46.84025" lon="6.55888">
        <ele>1228.4000244141</ele>
        <time>2017-04-24T07:03:48.000Z</time>
      </trkpt>
      <trkpt lat="46.84023" lon="6.55889">
        <ele>1228.4000244141</ele>
        <time>2017-04-24T07:03:49.000Z</time>
      </trkpt>
      <trkpt lat="46.84022" lon="6.5589">
        <ele>1228.4000244141</ele>
        <time>2017-04-24T07:03:53.000Z</time>
      </trkpt>
      <trkpt lat="46.84022" lon="6.55891">
        <ele>1228</ele>
        <time>2017-04-24T07:04:01.000Z</time>
      </trkpt>
      <trkpt lat="46.84022" lon="6.55892">
        <ele>1228.5999755859</ele>
        <time>2017-04-24T07:04:07.000Z</time>
      </trkpt>
      <trkpt lat="46.84021" lon="6.55892">
        <ele>1228.8000488281</ele>
        <time>2017-04-24T07:04:09.000Z</time>
      </trkpt>
      <trkpt lat="46.84018" lon="6.55893">
        <ele>1228.5999755859</ele>
        <time>2017-04-24T07:04:11.000Z</time>
      </trkpt>
      <trkpt lat="46.84004" lon="6.55886">
        <ele>1227.4000244141</ele>
        <time>2017-04-24T07:04:15.000Z</time>
      </trkpt>
      <trkpt lat="46.83985" lon="6.55879">
        <ele>1227.1999511719</ele>
        <time>2017-04-24T07:04:19.000Z</time>
      </trkpt>
      <trkpt lat="46.8398" lon="6.55879">
        <ele>1227.1999511719</ele>
        <time>2017-04-24T07:04:20.000Z</time>
      </trkpt>
      <trkpt lat="46.83938" lon="6.55872">
        <ele>1228</ele>
        <time>2017-04-24T07:04:28.000Z</time>
      </trkpt>
      <trkpt lat="46.83928" lon="6.55868">
        <ele>1228.4000244141</ele>
        <time>2017-04-24T07:04:30.000Z</time>
      </trkpt>
      <trkpt lat="46.83923" lon="6.55865">
        <ele>1228.5999755859</ele>
        <time>2017-04-24T07:04:31.000Z</time>
      </trkpt>
      <trkpt lat="46.83919" lon="6.5586">
        <ele>1228.8000488281</ele>
        <time>2017-04-24T07:04:32.000Z</time>
      </trkpt>
      <trkpt lat="46.83906" lon="6.55852">
        <ele>1229</ele>
        <time>2017-04-24T07:04:35.000Z</time>
      </trkpt>
      <trkpt lat="46.839" lon="6.55851">
        <ele>1228.8000488281</ele>
        <time>2017-04-24T07:04:36.000Z</time>
      </trkpt>
      <trkpt lat="46.83894" lon="6.55849">
        <ele>1228.5999755859</ele>
        <time>2017-04-24T07:04:37.000Z</time>
      </trkpt>
      <trkpt lat="46.83881" lon="6.55843">
        <ele>1227.5999755859</ele>
        <time>2017-04-24T07:04:39.000Z</time>
      </trkpt>
      <trkpt lat="46.83874" lon="6.55841">
        <ele>1227.1999511719</ele>
        <time>2017-04-24T07:04:40.000Z</time>
      </trkpt>
      <trkpt lat="46.83855" lon="6.55833">
        <ele>1226.1999511719</ele>
        <time>2017-04-24T07:04:43.000Z</time>
      </trkpt>
      <trkpt lat="46.83836" lon="6.55826">
        <ele>1225.4000244141</ele>
        <time>2017-04-24T07:04:46.000Z</time>
      </trkpt>
      <trkpt lat="46.83796" lon="6.55809">
        <ele>1225.1999511719</ele>
        <time>2017-04-24T07:04:52.000Z</time>
      </trkpt>
      <trkpt lat="46.83754" lon="6.55792">
        <ele>1225</ele>
        <time>2017-04-24T07:04:59.000Z</time>
      </trkpt>
      <trkpt lat="46.83742" lon="6.55788">
        <ele>1223.8000488281</ele>
        <time>2017-04-24T07:05:01.000Z</time>
      </trkpt>
      <trkpt lat="46.83717" lon="6.55778">
        <ele>1223</ele>
        <time>2017-04-24T07:05:05.000Z</time>
      </trkpt>
      <trkpt lat="46.83666" lon="6.55756">
        <ele>1223.4000244141</ele>
        <time>2017-04-24T07:05:13.000Z</time>
      </trkpt>
      <trkpt lat="46.83657" lon="6.55751">
        <ele>1224</ele>
        <time>2017-04-24T07:05:15.000Z</time>
      </trkpt>
      <trkpt lat="46.83653" lon="6.55747">
        <ele>1224.4000244141</ele>
        <time>2017-04-24T07:05:16.000Z</time>
      </trkpt>
      <trkpt lat="46.83634" lon="6.55725">
        <ele>1224.1999511719</ele>
        <time>2017-04-24T07:05:20.000Z</time>
      </trkpt>
      <trkpt lat="46.83629" lon="6.55698">
        <ele>1222.4000244141</ele>
        <time>2017-04-24T07:05:23.000Z</time>
      </trkpt>
      <trkpt lat="46.83628" lon="6.55679">
        <ele>1221.4000244141</ele>
        <time>2017-04-24T07:05:25.000Z</time>
      </trkpt>
      <trkpt lat="46.83628" lon="6.55669">
        <ele>1221</ele>
        <time>2017-04-24T07:05:26.000Z</time>
      </trkpt>
      <trkpt lat="46.83629" lon="6.55649">
        <ele>1220.5999755859</ele>
        <time>2017-04-24T07:05:28.000Z</time>
      </trkpt>
      <trkpt lat="46.83629" lon="6.5564">
        <ele>1220.4000244141</ele>
        <time>2017-04-24T07:05:29.000Z</time>
      </trkpt>
      <trkpt lat="46.83629" lon="6.55631">
        <ele>1220.1999511719</ele>
        <time>2017-04-24T07:05:30.000Z</time>
      </trkpt>
      <trkpt lat="46.83624" lon="6.55615">
        <ele>1220.1999511719</ele>
        <time>2017-04-24T07:05:32.000Z</time>
      </trkpt>
      <trkpt lat="46.8361" lon="6.55599">
        <ele>1219</ele>
        <time>2017-04-24T07:05:35.000Z</time>
      </trkpt>
      <trkpt lat="46.83604" lon="6.55592">
        <ele>1218.1999511719</ele>
        <time>2017-04-24T07:05:36.000Z</time>
      </trkpt>
      <trkpt lat="46.83599" lon="6.55586">
        <ele>1217.8000488281</ele>
        <time>2017-04-24T07:05:37.000Z</time>
      </trkpt>
      <trkpt lat="46.83575" lon="6.55558">
        <ele>1216.8000488281</ele>
        <time>2017-04-24T07:05:41.000Z</time>
      </trkpt>
      <trkpt lat="46.83554" lon="6.5554">
        <ele>1215.8000488281</ele>
        <time>2017-04-24T07:05:44.000Z</time>
      </trkpt>
      <trkpt lat="46.83541" lon="6.55529">
        <ele>1215.1999511719</ele>
        <time>2017-04-24T07:05:46.000Z</time>
      </trkpt>
      <trkpt lat="46.83504" lon="6.555">
        <ele>1215.5999755859</ele>
        <time>2017-04-24T07:05:52.000Z</time>
      </trkpt>
      <trkpt lat="46.83498" lon="6.55496">
        <ele>1215.5999755859</ele>
        <time>2017-04-24T07:05:53.000Z</time>
      </trkpt>
      <trkpt lat="46.83482" lon="6.55483">
        <ele>1217.1999511719</ele>
        <time>2017-04-24T07:05:56.000Z</time>
      </trkpt>
      <trkpt lat="46.83452" lon="6.5546">
        <ele>1215.8000488281</ele>
        <time>2017-04-24T07:06:01.000Z</time>
      </trkpt>
      <trkpt lat="46.8344" lon="6.55449">
        <ele>1213.8000488281</ele>
        <time>2017-04-24T07:06:03.000Z</time>
      </trkpt>
      <trkpt lat="46.83425" lon="6.55431">
        <ele>1212.8000488281</ele>
        <time>2017-04-24T07:06:06.000Z</time>
      </trkpt>
      <trkpt lat="46.83418" lon="6.55411">
        <ele>1213.5999755859</ele>
        <time>2017-04-24T07:06:09.000Z</time>
      </trkpt>
      <trkpt lat="46.83415" lon="6.55406">
        <ele>1214</ele>
        <time>2017-04-24T07:06:10.000Z</time>
      </trkpt>
      <trkpt lat="46.8341" lon="6.55387">
        <ele>1214.1999511719</ele>
        <time>2017-04-24T07:06:13.000Z</time>
      </trkpt>
      <trkpt lat="46.83408" lon="6.55381">
        <ele>1214.1999511719</ele>
        <time>2017-04-24T07:06:14.000Z</time>
      </trkpt>
      <trkpt lat="46.834" lon="6.5536">
        <ele>1214.4000244141</ele>
        <time>2017-04-24T07:06:17.000Z</time>
      </trkpt>
      <trkpt lat="46.83392" lon="6.55349">
        <ele>1214.8000488281</ele>
        <time>2017-04-24T07:06:19.000Z</time>
      </trkpt>
      <trkpt lat="46.83388" lon="6.55344">
        <ele>1215</ele>
        <time>2017-04-24T07:06:20.000Z</time>
      </trkpt>
      <trkpt lat="46.8338" lon="6.55323">
        <ele>1215.4000244141</ele>
        <time>2017-04-24T07:06:23.000Z</time>
      </trkpt>
      <trkpt lat="46.83377" lon="6.55308">
        <ele>1215.5999755859</ele>
        <time>2017-04-24T07:06:25.000Z</time>
      </trkpt>
      <trkpt lat="46.83374" lon="6.55294">
        <ele>1216.5999755859</ele>
        <time>2017-04-24T07:06:27.000Z</time>
      </trkpt>
      <trkpt lat="46.83373" lon="6.55286">
        <ele>1217</ele>
        <time>2017-04-24T07:06:28.000Z</time>
      </trkpt>
      <trkpt lat="46.83373" lon="6.55279">
        <ele>1217.1999511719</ele>
        <time>2017-04-24T07:06:29.000Z</time>
      </trkpt>
      <trkpt lat="46.83373" lon="6.55271">
        <ele>1217.5999755859</ele>
        <time>2017-04-24T07:06:30.000Z</time>
      </trkpt>
      <trkpt lat="46.83373" lon="6.55248">
        <ele>1218.1999511719</ele>
        <time>2017-04-24T07:06:33.000Z</time>
      </trkpt>
      <trkpt lat="46.83374" lon="6.5524">
        <ele>1218.4000244141</ele>
        <time>2017-04-24T07:06:34.000Z</time>
      </trkpt>
      <trkpt lat="46.83377" lon="6.55223">
        <ele>1218.5999755859</ele>
        <time>2017-04-24T07:06:36.000Z</time>
      </trkpt>
      <trkpt lat="46.83378" lon="6.55215">
        <ele>1218.5999755859</ele>
        <time>2017-04-24T07:06:37.000Z</time>
      </trkpt>
      <trkpt lat="46.83374" lon="6.55184">
        <ele>1219.1999511719</ele>
        <time>2017-04-24T07:06:41.000Z</time>
      </trkpt>
      <trkpt lat="46.83367" lon="6.5517">
        <ele>1219.5999755859</ele>
        <time>2017-04-24T07:06:43.000Z</time>
      </trkpt>
      <trkpt lat="46.83363" lon="6.55164">
        <ele>1220</ele>
        <time>2017-04-24T07:06:44.000Z</time>
      </trkpt>
      <trkpt lat="46.83349" lon="6.55147">
        <ele>1220.4000244141</ele>
        <time>2017-04-24T07:06:48.000Z</time>
      </trkpt>
      <trkpt lat="46.83342" lon="6.5514">
        <ele>1220.8000488281</ele>
        <time>2017-04-24T07:06:50.000Z</time>
      </trkpt>
      <trkpt lat="46.83338" lon="6.55136">
        <ele>1221.4000244141</ele>
        <time>2017-04-24T07:06:51.000Z</time>
      </trkpt>
      <trkpt lat="46.83316" lon="6.55112">
        <ele>1222</ele>
        <time>2017-04-24T07:06:56.000Z</time>
      </trkpt>
      <trkpt lat="46.83283" lon="6.55073">
        <ele>1221.1999511719</ele>
        <time>2017-04-24T07:07:03.000Z</time>
      </trkpt>
      <trkpt lat="46.83261" lon="6.55053">
        <ele>1220.8000488281</ele>
        <time>2017-04-24T07:07:07.000Z</time>
      </trkpt>
      <trkpt lat="46.83255" lon="6.5505">
        <ele>1220.5999755859</ele>
        <time>2017-04-24T07:07:08.000Z</time>
      </trkpt>
      <trkpt lat="46.83249" lon="6.55048">
        <ele>1220.1999511719</ele>
        <time>2017-04-24T07:07:09.000Z</time>
      </trkpt>
      <trkpt lat="46.83232" lon="6.55038">
        <ele>1220</ele>
        <time>2017-04-24T07:07:12.000Z</time>
      </trkpt>
      <trkpt lat="46.83226" lon="6.55033">
        <ele>1219.8000488281</ele>
        <time>2017-04-24T07:07:13.000Z</time>
      </trkpt>
      <trkpt lat="46.83216" lon="6.55021">
        <ele>1219.1999511719</ele>
        <time>2017-04-24T07:07:15.000Z</time>
      </trkpt>
      <trkpt lat="46.832" lon="6.55003">
        <ele>1218.8000488281</ele>
        <time>2017-04-24T07:07:18.000Z</time>
      </trkpt>
      <trkpt lat="46.83192" lon="6.54988">
        <ele>1218.5999755859</ele>
        <time>2017-04-24T07:07:20.000Z</time>
      </trkpt>
      <trkpt lat="46.83187" lon="6.54973">
        <ele>1218.5999755859</ele>
        <time>2017-04-24T07:07:22.000Z</time>
      </trkpt>
      <trkpt lat="46.83181" lon="6.54944">
        <ele>1218.4000244141</ele>
        <time>2017-04-24T07:07:26.000Z</time>
      </trkpt>
      <trkpt lat="46.83178" lon="6.54938">
        <ele>1218.1999511719</ele>
        <time>2017-04-24T07:07:27.000Z</time>
      </trkpt>
      <trkpt lat="46.83173" lon="6.54933">
        <ele>1217.8000488281</ele>
        <time>2017-04-24T07:07:28.000Z</time>
      </trkpt>
      <trkpt lat="46.83156" lon="6.54915">
        <ele>1217.8000488281</ele>
        <time>2017-04-24T07:07:32.000Z</time>
      </trkpt>
      <trkpt lat="46.83142" lon="6.54899">
        <ele>1218</ele>
        <time>2017-04-24T07:07:35.000Z</time>
      </trkpt>
      <trkpt lat="46.83135" lon="6.54887">
        <ele>1218</ele>
        <time>2017-04-24T07:07:37.000Z</time>
      </trkpt>
      <trkpt lat="46.83129" lon="6.54872">
        <ele>1218.1999511719</ele>
        <time>2017-04-24T07:07:39.000Z</time>
      </trkpt>
      <trkpt lat="46.83124" lon="6.54854">
        <ele>1218.1999511719</ele>
        <time>2017-04-24T07:07:41.000Z</time>
      </trkpt>
      <trkpt lat="46.83117" lon="6.54809">
        <ele>1217.8000488281</ele>
        <time>2017-04-24T07:07:46.000Z</time>
      </trkpt>
      <trkpt lat="46.8312" lon="6.54766">
        <ele>1219</ele>
        <time>2017-04-24T07:07:51.000Z</time>
      </trkpt>
      <trkpt lat="46.83119" lon="6.54751">
        <ele>1220.5999755859</ele>
        <time>2017-04-24T07:07:54.000Z</time>
      </trkpt>
      <trkpt lat="46.8311" lon="6.54726">
        <ele>1221</ele>
        <time>2017-04-24T07:07:58.000Z</time>
      </trkpt>
      <trkpt lat="46.83094" lon="6.54665">
        <ele>1220.4000244141</ele>
        <time>2017-04-24T07:08:05.000Z</time>
      </trkpt>
      <trkpt lat="46.83076" lon="6.54598">
        <ele>1220.1999511719</ele>
        <time>2017-04-24T07:08:12.000Z</time>
      </trkpt>
      <trkpt lat="46.83068" lon="6.54567">
        <ele>1219.8000488281</ele>
        <time>2017-04-24T07:08:15.000Z</time>
      </trkpt>
      <trkpt lat="46.83057" lon="6.54535">
        <ele>1219</ele>
        <time>2017-04-24T07:08:18.000Z</time>
      </trkpt>
      <trkpt lat="46.83044" lon="6.54494">
        <ele>1218.4000244141</ele>
        <time>2017-04-24T07:08:22.000Z</time>
      </trkpt>
      <trkpt lat="46.83034" lon="6.54463">
        <ele>1218.4000244141</ele>
        <time>2017-04-24T07:08:25.000Z</time>
      </trkpt>
      <trkpt lat="46.83013" lon="6.54393">
        <ele>1218.5999755859</ele>
        <time>2017-04-24T07:08:32.000Z</time>
      </trkpt>
      <trkpt lat="46.82998" lon="6.54334">
        <ele>1217.8000488281</ele>
        <time>2017-04-24T07:08:38.000Z</time>
      </trkpt>
      <trkpt lat="46.82991" lon="6.54318">
        <ele>1217.4000244141</ele>
        <time>2017-04-24T07:08:40.000Z</time>
      </trkpt>
      <trkpt lat="46.82987" lon="6.54293">
        <ele>1217</ele>
        <time>2017-04-24T07:08:43.000Z</time>
      </trkpt>
      <trkpt lat="46.82984" lon="6.54273">
        <ele>1216</ele>
        <time>2017-04-24T07:08:46.000Z</time>
      </trkpt>
      <trkpt lat="46.82984" lon="6.54267">
        <ele>1215.8000488281</ele>
        <time>2017-04-24T07:08:47.000Z</time>
      </trkpt>
      <trkpt lat="46.82985" lon="6.5426">
        <ele>1215.5999755859</ele>
        <time>2017-04-24T07:08:48.000Z</time>
      </trkpt>
      <trkpt lat="46.82993" lon="6.54238">
        <ele>1214</ele>
        <time>2017-04-24T07:08:51.000Z</time>
      </trkpt>
      <trkpt lat="46.82996" lon="6.54233">
        <ele>1213.4000244141</ele>
        <time>2017-04-24T07:08:52.000Z</time>
      </trkpt>
      <trkpt lat="46.83006" lon="6.54213">
        <ele>1213.1999511719</ele>
        <time>2017-04-24T07:08:56.000Z</time>
      </trkpt>
      <trkpt lat="46.83011" lon="6.54203">
        <ele>1214</ele>
        <time>2017-04-24T07:08:59.000Z</time>
      </trkpt>
      <trkpt lat="46.83022" lon="6.54192">
        <ele>1214.5999755859</ele>
        <time>2017-04-24T07:09:03.000Z</time>
      </trkpt>
      <trkpt lat="46.8302" lon="6.54168">
        <ele>1214.5999755859</ele>
        <time>2017-04-24T07:09:07.000Z</time>
      </trkpt>
      <trkpt lat="46.8301" lon="6.54128">
        <ele>1213.1999511719</ele>
        <time>2017-04-24T07:09:12.000Z</time>
      </trkpt>
      <trkpt lat="46.83008" lon="6.5412">
        <ele>1212.8000488281</ele>
        <time>2017-04-24T07:09:13.000Z</time>
      </trkpt>
      <trkpt lat="46.82993" lon="6.5408">
        <ele>1212.1999511719</ele>
        <time>2017-04-24T07:09:18.000Z</time>
      </trkpt>
      <trkpt lat="46.8299" lon="6.54071">
        <ele>1211.5999755859</ele>
        <time>2017-04-24T07:09:19.000Z</time>
      </trkpt>
      <trkpt lat="46.8298" lon="6.54044">
        <ele>1210.1999511719</ele>
        <time>2017-04-24T07:09:22.000Z</time>
      </trkpt>
      <trkpt lat="46.82971" lon="6.54017">
        <ele>1209.8000488281</ele>
        <time>2017-04-24T07:09:25.000Z</time>
      </trkpt>
      <trkpt lat="46.82955" lon="6.53957">
        <ele>1209.8000488281</ele>
        <time>2017-04-24T07:09:32.000Z</time>
      </trkpt>
      <trkpt lat="46.82948" lon="6.53933">
        <ele>1210</ele>
        <time>2017-04-24T07:09:35.000Z</time>
      </trkpt>
      <trkpt lat="46.82937" lon="6.53902">
        <ele>1209.8000488281</ele>
        <time>2017-04-24T07:09:39.000Z</time>
      </trkpt>
      <trkpt lat="46.82921" lon="6.5385">
        <ele>1210.1999511719</ele>
        <time>2017-04-24T07:09:46.000Z</time>
      </trkpt>
      <trkpt lat="46.82911" lon="6.53824">
        <ele>1210.1999511719</ele>
        <time>2017-04-24T07:09:50.000Z</time>
      </trkpt>
      <trkpt lat="46.82912" lon="6.53819">
        <ele>1210.1999511719</ele>
        <time>2017-04-24T07:09:51.000Z</time>
      </trkpt>
      <trkpt lat="46.82917" lon="6.53817">
        <ele>1210.4000244141</ele>
        <time>2017-04-24T07:09:53.000Z</time>
      </trkpt>
      <trkpt lat="46.8292" lon="6.53831">
        <ele>1211</ele>
        <time>2017-04-24T07:09:56.000Z</time>
      </trkpt>
      <trkpt lat="46.82919" lon="6.53838">
        <ele>1211</ele>
        <time>2017-04-24T07:09:57.000Z</time>
      </trkpt>
      <trkpt lat="46.82919" lon="6.53844">
        <ele>1211</ele>
        <time>2017-04-24T07:09:58.000Z</time>
      </trkpt>
      <trkpt lat="46.82923" lon="6.53858">
        <ele>1211</ele>
        <time>2017-04-24T07:10:00.000Z</time>
      </trkpt>
      <trkpt lat="46.82936" lon="6.53904">
        <ele>1210.1999511719</ele>
        <time>2017-04-24T07:10:06.000Z</time>
      </trkpt>
      <trkpt lat="46.82939" lon="6.53912">
        <ele>1210</ele>
        <time>2017-04-24T07:10:07.000Z</time>
      </trkpt>
      <trkpt lat="46.82948" lon="6.53926">
        <ele>1209.5999755859</ele>
        <time>2017-04-24T07:10:09.000Z</time>
      </trkpt>
      <trkpt lat="46.82957" lon="6.53939">
        <ele>1209.4000244141</ele>
        <time>2017-04-24T07:10:11.000Z</time>
      </trkpt>
      <trkpt lat="46.8296" lon="6.53946">
        <ele>1209.4000244141</ele>
        <time>2017-04-24T07:10:12.000Z</time>
      </trkpt>
      <trkpt lat="46.82966" lon="6.53962">
        <ele>1209.4000244141</ele>
        <time>2017-04-24T07:10:14.000Z</time>
      </trkpt>
      <trkpt lat="46.82981" lon="6.54025">
        <ele>1210.1999511719</ele>
        <time>2017-04-24T07:10:22.000Z</time>
      </trkpt>
      <trkpt lat="46.82992" lon="6.54067">
        <ele>1211</ele>
        <time>2017-04-24T07:10:28.000Z</time>
      </trkpt>
      <trkpt lat="46.82999" lon="6.54091">
        <ele>1211.5999755859</ele>
        <time>2017-04-24T07:10:32.000Z</time>
      </trkpt>
      <trkpt lat="46.83002" lon="6.54103">
        <ele>1213</ele>
        <time>2017-04-24T07:10:34.000Z</time>
      </trkpt>
      <trkpt lat="46.83004" lon="6.54108">
        <ele>1213.1999511719</ele>
        <time>2017-04-24T07:10:35.000Z</time>
      </trkpt>
      <trkpt lat="46.83013" lon="6.54137">
        <ele>1214</ele>
        <time>2017-04-24T07:10:40.000Z</time>
      </trkpt>
      <trkpt lat="46.83015" lon="6.54143">
        <ele>1214.1999511719</ele>
        <time>2017-04-24T07:10:41.000Z</time>
      </trkpt>
      <trkpt lat="46.83019" lon="6.54155">
        <ele>1214.5999755859</ele>
        <time>2017-04-24T07:10:43.000Z</time>
      </trkpt>
      <trkpt lat="46.8303" lon="6.54177">
        <ele>1215</ele>
        <time>2017-04-24T07:10:47.000Z</time>
      </trkpt>
      <trkpt lat="46.83033" lon="6.54183">
        <ele>1215.1999511719</ele>
        <time>2017-04-24T07:10:48.000Z</time>
      </trkpt>
      <trkpt lat="46.83051" lon="6.5422">
        <ele>1216.4000244141</ele>
        <time>2017-04-24T07:10:54.000Z</time>
      </trkpt>
      <trkpt lat="46.83055" lon="6.54225">
        <ele>1216.8000488281</ele>
        <time>2017-04-24T07:10:55.000Z</time>
      </trkpt>
      <trkpt lat="46.83061" lon="6.54236">
        <ele>1217.4000244141</ele>
        <time>2017-04-24T07:10:57.000Z</time>
      </trkpt>
      <trkpt lat="46.83065" lon="6.5424">
        <ele>1217.5999755859</ele>
        <time>2017-04-24T07:10:58.000Z</time>
      </trkpt>
      <trkpt lat="46.83065" lon="6.54247">
        <ele>1219.1999511719</ele>
        <time>2017-04-24T07:15:41.000Z</time>
      </trkpt>
      <trkpt lat="46.83068" lon="6.54246">
        <ele>1219.4000244141</ele>
        <time>2017-04-24T07:15:42.000Z</time>
      </trkpt>
      <trkpt lat="46.83075" lon="6.54251">
        <ele>1220.4000244141</ele>
        <time>2017-04-24T07:15:44.000Z</time>
      </trkpt>
      <trkpt lat="46.83079" lon="6.54255">
        <ele>1220.8000488281</ele>
        <time>2017-04-24T07:15:45.000Z</time>
      </trkpt>
      <trkpt lat="46.83082" lon="6.5426">
        <ele>1221.1999511719</ele>
        <time>2017-04-24T07:15:46.000Z</time>
      </trkpt>
      <trkpt lat="46.83086" lon="6.54265">
        <ele>1221.4000244141</ele>
        <time>2017-04-24T07:15:47.000Z</time>
      </trkpt>
      <trkpt lat="46.83097" lon="6.54277">
        <ele>1222.4000244141</ele>
        <time>2017-04-24T07:15:50.000Z</time>
      </trkpt>
      <trkpt lat="46.83101" lon="6.54281">
        <ele>1222.8000488281</ele>
        <time>2017-04-24T07:15:51.000Z</time>
      </trkpt>
      <trkpt lat="46.83104" lon="6.54286">
        <ele>1223.4000244141</ele>
        <time>2017-04-24T07:15:52.000Z</time>
      </trkpt>
      <trkpt lat="46.83108" lon="6.5429">
        <ele>1224</ele>
        <time>2017-04-24T07:15:53.000Z</time>
      </trkpt>
      <trkpt lat="46.83124" lon="6.54306">
        <ele>1225.1999511719</ele>
        <time>2017-04-24T07:15:57.000Z</time>
      </trkpt>
      <trkpt lat="46.83138" lon="6.54316">
        <ele>1226.5999755859</ele>
        <time>2017-04-24T07:16:00.000Z</time>
      </trkpt>
      <trkpt lat="46.83151" lon="6.54324">
        <ele>1227.5999755859</ele>
        <time>2017-04-24T07:16:03.000Z</time>
      </trkpt>
      <trkpt lat="46.83159" lon="6.54328">
        <ele>1229</ele>
        <time>2017-04-24T07:16:05.000Z</time>
      </trkpt>
      <trkpt lat="46.83173" lon="6.54333">
        <ele>1230.1999511719</ele>
        <time>2017-04-24T07:16:08.000Z</time>
      </trkpt>
      <trkpt lat="46.83182" lon="6.54338">
        <ele>1231.4000244141</ele>
        <time>2017-04-24T07:16:10.000Z</time>
      </trkpt>
      <trkpt lat="46.8319" lon="6.54344">
        <ele>1232.1999511719</ele>
        <time>2017-04-24T07:16:12.000Z</time>
      </trkpt>
      <trkpt lat="46.83195" lon="6.54346">
        <ele>1232.8000488281</ele>
        <time>2017-04-24T07:16:13.000Z</time>
      </trkpt>
      <trkpt lat="46.83203" lon="6.5435">
        <ele>1233.8000488281</ele>
        <time>2017-04-24T07:16:15.000Z</time>
      </trkpt>
      <trkpt lat="46.83212" lon="6.54355">
        <ele>1235</ele>
        <time>2017-04-24T07:16:17.000Z</time>
      </trkpt>
      <trkpt lat="46.83221" lon="6.54359">
        <ele>1236</ele>
        <time>2017-04-24T07:16:19.000Z</time>
      </trkpt>
      <trkpt lat="46.83225" lon="6.54362">
        <ele>1236.4000244141</ele>
        <time>2017-04-24T07:16:20.000Z</time>
      </trkpt>
      <trkpt lat="46.83238" lon="6.54368">
        <ele>1237.5999755859</ele>
        <time>2017-04-24T07:16:23.000Z</time>
      </trkpt>
      <trkpt lat="46.83251" lon="6.54376">
        <ele>1238.8000488281</ele>
        <time>2017-04-24T07:16:26.000Z</time>
      </trkpt>
      <trkpt lat="46.83259" lon="6.54382">
        <ele>1239.8000488281</ele>
        <time>2017-04-24T07:16:28.000Z</time>
      </trkpt>
      <trkpt lat="46.83263" lon="6.54386">
        <ele>1240.1999511719</ele>
        <time>2017-04-24T07:16:29.000Z</time>
      </trkpt>
      <trkpt lat="46.83277" lon="6.54402">
        <ele>1241.5999755859</ele>
        <time>2017-04-24T07:16:33.000Z</time>
      </trkpt>
      <trkpt lat="46.8328" lon="6.54407">
        <ele>1242.1999511719</ele>
        <time>2017-04-24T07:16:34.000Z</time>
      </trkpt>
      <trkpt lat="46.83287" lon="6.54415">
        <ele>1243</ele>
        <time>2017-04-24T07:16:36.000Z</time>
      </trkpt>
      <trkpt lat="46.83291" lon="6.54416">
        <ele>1243.8000488281</ele>
        <time>2017-04-24T07:16:37.000Z</time>
      </trkpt>
      <trkpt lat="46.83294" lon="6.54414">
        <ele>1244.4000244141</ele>
        <time>2017-04-24T07:16:38.000Z</time>
      </trkpt>
      <trkpt lat="46.83298" lon="6.54407">
        <ele>1245.4000244141</ele>
        <time>2017-04-24T07:16:40.000Z</time>
      </trkpt>
      <trkpt lat="46.83298" lon="6.54402">
        <ele>1245.5999755859</ele>
        <time>2017-04-24T07:16:41.000Z</time>
      </trkpt>
      <trkpt lat="46.83297" lon="6.54392">
        <ele>1246.5999755859</ele>
        <time>2017-04-24T07:16:43.000Z</time>
      </trkpt>
      <trkpt lat="46.83297" lon="6.54387">
        <ele>1247.1999511719</ele>
        <time>2017-04-24T07:16:44.000Z</time>
      </trkpt>
      <trkpt lat="46.83295" lon="6.54376">
        <ele>1248.4000244141</ele>
        <time>2017-04-24T07:16:46.000Z</time>
      </trkpt>
      <trkpt lat="46.83294" lon="6.54359">
        <ele>1249.4000244141</ele>
        <time>2017-04-24T07:16:49.000Z</time>
      </trkpt>
      <trkpt lat="46.83293" lon="6.54353">
        <ele>1249.8000488281</ele>
        <time>2017-04-24T07:16:50.000Z</time>
      </trkpt>
      <trkpt lat="46.83292" lon="6.54334">
        <ele>1250.8000488281</ele>
        <time>2017-04-24T07:16:53.000Z</time>
      </trkpt>
      <trkpt lat="46.83292" lon="6.54322">
        <ele>1251.4000244141</ele>
        <time>2017-04-24T07:16:55.000Z</time>
      </trkpt>
      <trkpt lat="46.83292" lon="6.54305">
        <ele>1252</ele>
        <time>2017-04-24T07:16:58.000Z</time>
      </trkpt>
      <trkpt lat="46.83293" lon="6.54289">
        <ele>1253</ele>
        <time>2017-04-24T07:17:01.000Z</time>
      </trkpt>
      <trkpt lat="46.83293" lon="6.54284">
        <ele>1253.1999511719</ele>
        <time>2017-04-24T07:17:02.000Z</time>
      </trkpt>
      <trkpt lat="46.83294" lon="6.54269">
        <ele>1254.4000244141</ele>
        <time>2017-04-24T07:17:05.000Z</time>
      </trkpt>
      <trkpt lat="46.83294" lon="6.5426">
        <ele>1255</ele>
        <time>2017-04-24T07:17:07.000Z</time>
      </trkpt>
      <trkpt lat="46.83294" lon="6.54255">
        <ele>1255.5999755859</ele>
        <time>2017-04-24T07:17:08.000Z</time>
      </trkpt>
      <trkpt lat="46.83296" lon="6.54247">
        <ele>1256.8000488281</ele>
        <time>2017-04-24T07:17:10.000Z</time>
      </trkpt>
      <trkpt lat="46.833" lon="6.54242">
        <ele>1257.5999755859</ele>
        <time>2017-04-24T07:17:12.000Z</time>
      </trkpt>
      <trkpt lat="46.83302" lon="6.54242">
        <ele>1258.1999511719</ele>
        <time>2017-04-24T07:17:13.000Z</time>
      </trkpt>
      <trkpt lat="46.83307" lon="6.54247">
        <ele>1259</ele>
        <time>2017-04-24T07:17:15.000Z</time>
      </trkpt>
      <trkpt lat="46.83309" lon="6.54251">
        <ele>1259.5999755859</ele>
        <time>2017-04-24T07:17:16.000Z</time>
      </trkpt>
      <trkpt lat="46.83311" lon="6.54254">
        <ele>1259.8000488281</ele>
        <time>2017-04-24T07:17:17.000Z</time>
      </trkpt>
      <trkpt lat="46.83316" lon="6.54266">
        <ele>1260.8000488281</ele>
        <time>2017-04-24T07:17:20.000Z</time>
      </trkpt>
      <trkpt lat="46.83319" lon="6.5427">
        <ele>1261</ele>
        <time>2017-04-24T07:17:21.000Z</time>
      </trkpt>
      <trkpt lat="46.83326" lon="6.54282">
        <ele>1261.8000488281</ele>
        <time>2017-04-24T07:17:24.000Z</time>
      </trkpt>
      <trkpt lat="46.83334" lon="6.54293">
        <ele>1263.1999511719</ele>
        <time>2017-04-24T07:17:27.000Z</time>
      </trkpt>
      <trkpt lat="46.83337" lon="6.54297">
        <ele>1263.4000244141</ele>
        <time>2017-04-24T07:17:28.000Z</time>
      </trkpt>
      <trkpt lat="46.83349" lon="6.54309">
        <ele>1264.1999511719</ele>
        <time>2017-04-24T07:17:32.000Z</time>
      </trkpt>
      <trkpt lat="46.83352" lon="6.54312">
        <ele>1264.5999755859</ele>
        <time>2017-04-24T07:17:33.000Z</time>
      </trkpt>
      <trkpt lat="46.83358" lon="6.54318">
        <ele>1265.4000244141</ele>
        <time>2017-04-24T07:17:35.000Z</time>
      </trkpt>
      <trkpt lat="46.83363" lon="6.54325">
        <ele>1266.4000244141</ele>
        <time>2017-04-24T07:17:37.000Z</time>
      </trkpt>
      <trkpt lat="46.83366" lon="6.54329">
        <ele>1266.8000488281</ele>
        <time>2017-04-24T07:17:38.000Z</time>
      </trkpt>
      <trkpt lat="46.83372" lon="6.54337">
        <ele>1267.1999511719</ele>
        <time>2017-04-24T07:17:40.000Z</time>
      </trkpt>
      <trkpt lat="46.83378" lon="6.54345">
        <ele>1267.5999755859</ele>
        <time>2017-04-24T07:17:42.000Z</time>
      </trkpt>
      <trkpt lat="46.83381" lon="6.54348">
        <ele>1267.5999755859</ele>
        <time>2017-04-24T07:17:43.000Z</time>
      </trkpt>
      <trkpt lat="46.83394" lon="6.54365">
        <ele>1268.8000488281</ele>
        <time>2017-04-24T07:17:47.000Z</time>
      </trkpt>
      <trkpt lat="46.83405" lon="6.54378">
        <ele>1269.4000244141</ele>
        <time>2017-04-24T07:17:50.000Z</time>
      </trkpt>
      <trkpt lat="46.83412" lon="6.54387">
        <ele>1270</ele>
        <time>2017-04-24T07:17:52.000Z</time>
      </trkpt>
      <trkpt lat="46.8342" lon="6.54397">
        <ele>1270.1999511719</ele>
        <time>2017-04-24T07:17:54.000Z</time>
      </trkpt>
      <trkpt lat="46.83429" lon="6.54411">
        <ele>1271</ele>
        <time>2017-04-24T07:17:57.000Z</time>
      </trkpt>
      <trkpt lat="46.83439" lon="6.54423">
        <ele>1272.1999511719</ele>
        <time>2017-04-24T07:18:00.000Z</time>
      </trkpt>
      <trkpt lat="46.83442" lon="6.54424">
        <ele>1272.5999755859</ele>
        <time>2017-04-24T07:18:01.000Z</time>
      </trkpt>
      <trkpt lat="46.83448" lon="6.54424">
        <ele>1273.1999511719</ele>
        <time>2017-04-24T07:18:03.000Z</time>
      </trkpt>
      <trkpt lat="46.83449" lon="6.54421">
        <ele>1273.8000488281</ele>
        <time>2017-04-24T07:18:04.000Z</time>
      </trkpt>
      <trkpt lat="46.83449" lon="6.54417">
        <ele>1274.4000244141</ele>
        <time>2017-04-24T07:18:05.000Z</time>
      </trkpt>
      <trkpt lat="46.83448" lon="6.54407">
        <ele>1275</ele>
        <time>2017-04-24T07:18:07.000Z</time>
      </trkpt>
      <trkpt lat="46.83444" lon="6.54392">
        <ele>1275.5999755859</ele>
        <time>2017-04-24T07:18:10.000Z</time>
      </trkpt>
      <trkpt lat="46.8344" lon="6.54377">
        <ele>1276.5999755859</ele>
        <time>2017-04-24T07:18:13.000Z</time>
      </trkpt>
      <trkpt lat="46.83439" lon="6.54373">
        <ele>1277</ele>
        <time>2017-04-24T07:18:14.000Z</time>
      </trkpt>
      <trkpt lat="46.83434" lon="6.54352">
        <ele>1278.1999511719</ele>
        <time>2017-04-24T07:18:18.000Z</time>
      </trkpt>
      <trkpt lat="46.83432" lon="6.54347">
        <ele>1278.8000488281</ele>
        <time>2017-04-24T07:18:19.000Z</time>
      </trkpt>
      <trkpt lat="46.83431" lon="6.54342">
        <ele>1279.1999511719</ele>
        <time>2017-04-24T07:18:20.000Z</time>
      </trkpt>
      <trkpt lat="46.83428" lon="6.54328">
        <ele>1280.8000488281</ele>
        <time>2017-04-24T07:18:23.000Z</time>
      </trkpt>
      <trkpt lat="46.83427" lon="6.54323">
        <ele>1281.1999511719</ele>
        <time>2017-04-24T07:18:24.000Z</time>
      </trkpt>
      <trkpt lat="46.83424" lon="6.54308">
        <ele>1282</ele>
        <time>2017-04-24T07:18:27.000Z</time>
      </trkpt>
      <trkpt lat="46.83423" lon="6.54298">
        <ele>1282.8000488281</ele>
        <time>2017-04-24T07:18:29.000Z</time>
      </trkpt>
      <trkpt lat="46.83422" lon="6.54293">
        <ele>1283</ele>
        <time>2017-04-24T07:18:30.000Z</time>
      </trkpt>
      <trkpt lat="46.83418" lon="6.54274">
        <ele>1284.4000244141</ele>
        <time>2017-04-24T07:18:34.000Z</time>
      </trkpt>
      <trkpt lat="46.83417" lon="6.54263">
        <ele>1285</ele>
        <time>2017-04-24T07:18:36.000Z</time>
      </trkpt>
      <trkpt lat="46.83416" lon="6.54257">
        <ele>1285.4000244141</ele>
        <time>2017-04-24T07:18:37.000Z</time>
      </trkpt>
      <trkpt lat="46.83415" lon="6.54252">
        <ele>1285.8000488281</ele>
        <time>2017-04-24T07:18:38.000Z</time>
      </trkpt>
      <trkpt lat="46.83412" lon="6.54242">
        <ele>1286.4000244141</ele>
        <time>2017-04-24T07:18:40.000Z</time>
      </trkpt>
      <trkpt lat="46.83411" lon="6.54236">
        <ele>1286.5999755859</ele>
        <time>2017-04-24T07:18:41.000Z</time>
      </trkpt>
      <trkpt lat="46.83406" lon="6.54213">
        <ele>1287.8000488281</ele>
        <time>2017-04-24T07:18:45.000Z</time>
      </trkpt>
      <trkpt lat="46.83405" lon="6.54207">
        <ele>1288.1999511719</ele>
        <time>2017-04-24T07:18:46.000Z</time>
      </trkpt>
      <trkpt lat="46.83404" lon="6.54196">
        <ele>1289</ele>
        <time>2017-04-24T07:18:48.000Z</time>
      </trkpt>
      <trkpt lat="46.83403" lon="6.54181">
        <ele>1290.4000244141</ele>
        <time>2017-04-24T07:18:51.000Z</time>
      </trkpt>
      <trkpt lat="46.83402" lon="6.54175">
        <ele>1290.8000488281</ele>
        <time>2017-04-24T07:18:52.000Z</time>
      </trkpt>
      <trkpt lat="46.83401" lon="6.54165">
        <ele>1291.5999755859</ele>
        <time>2017-04-24T07:18:54.000Z</time>
      </trkpt>
      <trkpt lat="46.83403" lon="6.54151">
        <ele>1292.5999755859</ele>
        <time>2017-04-24T07:18:57.000Z</time>
      </trkpt>
      <trkpt lat="46.83406" lon="6.54143">
        <ele>1293.5999755859</ele>
        <time>2017-04-24T07:18:59.000Z</time>
      </trkpt>
      <trkpt lat="46.83408" lon="6.5414">
        <ele>1293.8000488281</ele>
        <time>2017-04-24T07:19:00.000Z</time>
      </trkpt>
      <trkpt lat="46.83413" lon="6.5414">
        <ele>1295</ele>
        <time>2017-04-24T07:19:02.000Z</time>
      </trkpt>
      <trkpt lat="46.83418" lon="6.54143">
        <ele>1296.4000244141</ele>
        <time>2017-04-24T07:19:04.000Z</time>
      </trkpt>
      <trkpt lat="46.83422" lon="6.54148">
        <ele>1297.1999511719</ele>
        <time>2017-04-24T07:19:06.000Z</time>
      </trkpt>
      <trkpt lat="46.83424" lon="6.5415">
        <ele>1297.8000488281</ele>
        <time>2017-04-24T07:19:07.000Z</time>
      </trkpt>
      <trkpt lat="46.83428" lon="6.54157">
        <ele>1299</ele>
        <time>2017-04-24T07:19:09.000Z</time>
      </trkpt>
      <trkpt lat="46.83432" lon="6.54163">
        <ele>1299.8000488281</ele>
        <time>2017-04-24T07:19:11.000Z</time>
      </trkpt>
      <trkpt lat="46.83436" lon="6.54169">
        <ele>1300.1999511719</ele>
        <time>2017-04-24T07:19:13.000Z</time>
      </trkpt>
      <trkpt lat="46.83442" lon="6.54179">
        <ele>1301.1999511719</ele>
        <time>2017-04-24T07:19:16.000Z</time>
      </trkpt>
      <trkpt lat="46.83444" lon="6.54182">
        <ele>1301.5999755859</ele>
        <time>2017-04-24T07:19:17.000Z</time>
      </trkpt>
      <trkpt lat="46.8345" lon="6.54192">
        <ele>1303.1999511719</ele>
        <time>2017-04-24T07:19:20.000Z</time>
      </trkpt>
      <trkpt lat="46.83454" lon="6.542">
        <ele>1304</ele>
        <time>2017-04-24T07:19:22.000Z</time>
      </trkpt>
      <trkpt lat="46.83459" lon="6.54208">
        <ele>1304.4000244141</ele>
        <time>2017-04-24T07:19:24.000Z</time>
      </trkpt>
      <trkpt lat="46.83461" lon="6.54214">
        <ele>1304.4000244141</ele>
        <time>2017-04-24T07:19:25.000Z</time>
      </trkpt>
      <trkpt lat="46.83464" lon="6.54219">
        <ele>1304.4000244141</ele>
        <time>2017-04-24T07:19:26.000Z</time>
      </trkpt>
      <trkpt lat="46.83471" lon="6.54234">
        <ele>1304.5999755859</ele>
        <time>2017-04-24T07:19:29.000Z</time>
      </trkpt>
      <trkpt lat="46.83473" lon="6.54239">
        <ele>1304.5999755859</ele>
        <time>2017-04-24T07:19:30.000Z</time>
      </trkpt>
      <trkpt lat="46.83482" lon="6.54259">
        <ele>1305.4000244141</ele>
        <time>2017-04-24T07:19:34.000Z</time>
      </trkpt>
      <trkpt lat="46.83492" lon="6.54282">
        <ele>1306.5999755859</ele>
        <time>2017-04-24T07:19:39.000Z</time>
      </trkpt>
      <trkpt lat="46.83501" lon="6.54298">
        <ele>1307.8000488281</ele>
        <time>2017-04-24T07:19:43.000Z</time>
      </trkpt>
      <trkpt lat="46.83506" lon="6.54307">
        <ele>1308.8000488281</ele>
        <time>2017-04-24T07:19:45.000Z</time>
      </trkpt>
      <trkpt lat="46.83509" lon="6.54311">
        <ele>1309.1999511719</ele>
        <time>2017-04-24T07:19:46.000Z</time>
      </trkpt>
      <trkpt lat="46.83518" lon="6.54321">
        <ele>1309.8000488281</ele>
        <time>2017-04-24T07:19:49.000Z</time>
      </trkpt>
      <trkpt lat="46.83525" lon="6.54326">
        <ele>1310.1999511719</ele>
        <time>2017-04-24T07:19:51.000Z</time>
      </trkpt>
      <trkpt lat="46.83532" lon="6.54332">
        <ele>1310.8000488281</ele>
        <time>2017-04-24T07:19:53.000Z</time>
      </trkpt>
      <trkpt lat="46.83541" lon="6.5434">
        <ele>1311.4000244141</ele>
        <time>2017-04-24T07:19:56.000Z</time>
      </trkpt>
      <trkpt lat="46.83547" lon="6.54344">
        <ele>1312</ele>
        <time>2017-04-24T07:19:58.000Z</time>
      </trkpt>
      <trkpt lat="46.83557" lon="6.54344">
        <ele>1312.4000244141</ele>
        <time>2017-04-24T07:20:01.000Z</time>
      </trkpt>
      <trkpt lat="46.83561" lon="6.54345">
        <ele>1312.5999755859</ele>
        <time>2017-04-24T07:20:02.000Z</time>
      </trkpt>
      <trkpt lat="46.8358" lon="6.54346">
        <ele>1313.4000244141</ele>
        <time>2017-04-24T07:20:07.000Z</time>
      </trkpt>
      <trkpt lat="46.83584" lon="6.54347">
        <ele>1313.4000244141</ele>
        <time>2017-04-24T07:20:08.000Z</time>
      </trkpt>
      <trkpt lat="46.83597" lon="6.54354">
        <ele>1313.8000488281</ele>
        <time>2017-04-24T07:20:11.000Z</time>
      </trkpt>
      <trkpt lat="46.83608" lon="6.54362">
        <ele>1314.5999755859</ele>
        <time>2017-04-24T07:20:14.000Z</time>
      </trkpt>
      <trkpt lat="46.83618" lon="6.54372">
        <ele>1315.8000488281</ele>
        <time>2017-04-24T07:20:17.000Z</time>
      </trkpt>
      <trkpt lat="46.83628" lon="6.54379">
        <ele>1316.8000488281</ele>
        <time>2017-04-24T07:20:20.000Z</time>
      </trkpt>
      <trkpt lat="46.8363" lon="6.54377">
        <ele>1317.1999511719</ele>
        <time>2017-04-24T07:20:21.000Z</time>
      </trkpt>
      <trkpt lat="46.83629" lon="6.54362">
        <ele>1317.5999755859</ele>
        <time>2017-04-24T07:20:24.000Z</time>
      </trkpt>
      <trkpt lat="46.83625" lon="6.54343">
        <ele>1317.5999755859</ele>
        <time>2017-04-24T07:20:27.000Z</time>
      </trkpt>
      <trkpt lat="46.83619" lon="6.54331">
        <ele>1317.8000488281</ele>
        <time>2017-04-24T07:20:29.000Z</time>
      </trkpt>
      <trkpt lat="46.83616" lon="6.54326">
        <ele>1317.8000488281</ele>
        <time>2017-04-24T07:20:30.000Z</time>
      </trkpt>
      <trkpt lat="46.83612" lon="6.54322">
        <ele>1318</ele>
        <time>2017-04-24T07:20:31.000Z</time>
      </trkpt>
      <trkpt lat="46.83608" lon="6.54318">
        <ele>1318.1999511719</ele>
        <time>2017-04-24T07:20:32.000Z</time>
      </trkpt>
      <trkpt lat="46.83601" lon="6.5431">
        <ele>1318.4000244141</ele>
        <time>2017-04-24T07:20:34.000Z</time>
      </trkpt>
      <trkpt lat="46.83591" lon="6.54298">
        <ele>1319.1999511719</ele>
        <time>2017-04-24T07:20:37.000Z</time>
      </trkpt>
      <trkpt lat="46.83583" lon="6.5429">
        <ele>1319.8000488281</ele>
        <time>2017-04-24T07:20:39.000Z</time>
      </trkpt>
      <trkpt lat="46.8358" lon="6.54286">
        <ele>1320.1999511719</ele>
        <time>2017-04-24T07:20:40.000Z</time>
      </trkpt>
      <trkpt lat="46.83568" lon="6.54269">
        <ele>1320.8000488281</ele>
        <time>2017-04-24T07:20:44.000Z</time>
      </trkpt>
      <trkpt lat="46.83571" lon="6.54259">
        <ele>1320.8000488281</ele>
        <time>2017-04-24T07:20:47.000Z</time>
      </trkpt>
      <trkpt lat="46.83578" lon="6.54253">
        <ele>1321.8000488281</ele>
        <time>2017-04-24T07:20:50.000Z</time>
      </trkpt>
      <trkpt lat="46.83578" lon="6.5425">
        <ele>1322.4000244141</ele>
        <time>2017-04-24T07:20:51.000Z</time>
      </trkpt>
      <trkpt lat="46.83578" lon="6.54242">
        <ele>1323</ele>
        <time>2017-04-24T07:20:53.000Z</time>
      </trkpt>
      <trkpt lat="46.83581" lon="6.54232">
        <ele>1324.5999755859</ele>
        <time>2017-04-24T07:20:56.000Z</time>
      </trkpt>
      <trkpt lat="46.83583" lon="6.54224">
        <ele>1325.5999755859</ele>
        <time>2017-04-24T07:20:59.000Z</time>
      </trkpt>
      <trkpt lat="46.83585" lon="6.54222">
        <ele>1326</ele>
        <time>2017-04-24T07:21:00.000Z</time>
      </trkpt>
      <trkpt lat="46.83589" lon="6.54217">
        <ele>1327.1999511719</ele>
        <time>2017-04-24T07:21:02.000Z</time>
      </trkpt>
      <trkpt lat="46.83595" lon="6.5421">
        <ele>1328.1999511719</ele>
        <time>2017-04-24T07:21:05.000Z</time>
      </trkpt>
      <trkpt lat="46.83602" lon="6.54198">
        <ele>1329.4000244141</ele>
        <time>2017-04-24T07:21:09.000Z</time>
      </trkpt>
      <trkpt lat="46.83602" lon="6.54194">
        <ele>1329.4000244141</ele>
        <time>2017-04-24T07:21:10.000Z</time>
      </trkpt>
      <trkpt lat="46.83603" lon="6.54183">
        <ele>1330.8000488281</ele>
        <time>2017-04-24T07:21:13.000Z</time>
      </trkpt>
      <trkpt lat="46.83602" lon="6.54172">
        <ele>1331.8000488281</ele>
        <time>2017-04-24T07:21:16.000Z</time>
      </trkpt>
      <trkpt lat="46.83602" lon="6.54157">
        <ele>1332.8000488281</ele>
        <time>2017-04-24T07:21:20.000Z</time>
      </trkpt>
      <trkpt lat="46.83602" lon="6.54149">
        <ele>1334.1999511719</ele>
        <time>2017-04-24T07:21:22.000Z</time>
      </trkpt>
      <trkpt lat="46.83604" lon="6.54138">
        <ele>1335</ele>
        <time>2017-04-24T07:21:25.000Z</time>
      </trkpt>
      <trkpt lat="46.83608" lon="6.54131">
        <ele>1335.1999511719</ele>
        <time>2017-04-24T07:21:27.000Z</time>
      </trkpt>
      <trkpt lat="46.83611" lon="6.54127">
        <ele>1335.4000244141</ele>
        <time>2017-04-24T07:21:28.000Z</time>
      </trkpt>
      <trkpt lat="46.83615" lon="6.5412">
        <ele>1336.4000244141</ele>
        <time>2017-04-24T07:21:30.000Z</time>
      </trkpt>
      <trkpt lat="46.83619" lon="6.54111">
        <ele>1337.5999755859</ele>
        <time>2017-04-24T07:21:32.000Z</time>
      </trkpt>
      <trkpt lat="46.83622" lon="6.54101">
        <ele>1338.4000244141</ele>
        <time>2017-04-24T07:21:34.000Z</time>
      </trkpt>
      <trkpt lat="46.83624" lon="6.5409">
        <ele>1339</ele>
        <time>2017-04-24T07:21:36.000Z</time>
      </trkpt>
      <trkpt lat="46.83627" lon="6.54079">
        <ele>1339.4000244141</ele>
        <time>2017-04-24T07:21:38.000Z</time>
      </trkpt>
      <trkpt lat="46.83631" lon="6.54061">
        <ele>1340.1999511719</ele>
        <time>2017-04-24T07:21:41.000Z</time>
      </trkpt>
      <trkpt lat="46.83636" lon="6.54036">
        <ele>1341.1999511719</ele>
        <time>2017-04-24T07:21:45.000Z</time>
      </trkpt>
      <trkpt lat="46.83638" lon="6.54016">
        <ele>1342</ele>
        <time>2017-04-24T07:21:48.000Z</time>
      </trkpt>
      <trkpt lat="46.83639" lon="6.54009">
        <ele>1342.8000488281</ele>
        <time>2017-04-24T07:21:49.000Z</time>
      </trkpt>
      <trkpt lat="46.8364" lon="6.53996">
        <ele>1343.4000244141</ele>
        <time>2017-04-24T07:21:51.000Z</time>
      </trkpt>
      <trkpt lat="46.8364" lon="6.53983">
        <ele>1344.1999511719</ele>
        <time>2017-04-24T07:21:53.000Z</time>
      </trkpt>
      <trkpt lat="46.83641" lon="6.53955">
        <ele>1345.4000244141</ele>
        <time>2017-04-24T07:21:57.000Z</time>
      </trkpt>
      <trkpt lat="46.8364" lon="6.53942">
        <ele>1346.1999511719</ele>
        <time>2017-04-24T07:21:59.000Z</time>
      </trkpt>
      <trkpt lat="46.8364" lon="6.53935">
        <ele>1346.5999755859</ele>
        <time>2017-04-24T07:22:00.000Z</time>
      </trkpt>
      <trkpt lat="46.83638" lon="6.53917">
        <ele>1347.8000488281</ele>
        <time>2017-04-24T07:22:03.000Z</time>
      </trkpt>
      <trkpt lat="46.83635" lon="6.53907">
        <ele>1348.8000488281</ele>
        <time>2017-04-24T07:22:05.000Z</time>
      </trkpt>
      <trkpt lat="46.83629" lon="6.53893">
        <ele>1350</ele>
        <time>2017-04-24T07:22:08.000Z</time>
      </trkpt>
      <trkpt lat="46.83625" lon="6.53878">
        <ele>1351</ele>
        <time>2017-04-24T07:22:11.000Z</time>
      </trkpt>
      <trkpt lat="46.8362" lon="6.53864">
        <ele>1352.5999755859</ele>
        <time>2017-04-24T07:22:14.000Z</time>
      </trkpt>
      <trkpt lat="46.83617" lon="6.53859">
        <ele>1353.4000244141</ele>
        <time>2017-04-24T07:22:16.000Z</time>
      </trkpt>
      <trkpt lat="46.83609" lon="6.53848">
        <ele>1353.4000244141</ele>
        <time>2017-04-24T07:22:20.000Z</time>
      </trkpt>
      <trkpt lat="46.83597" lon="6.53831">
        <ele>1353</ele>
        <time>2017-04-24T07:22:25.000Z</time>
      </trkpt>
      <trkpt lat="46.8359" lon="6.53819">
        <ele>1352.5999755859</ele>
        <time>2017-04-24T07:22:28.000Z</time>
      </trkpt>
      <trkpt lat="46.83588" lon="6.53808">
        <ele>1352.1999511719</ele>
        <time>2017-04-24T07:22:30.000Z</time>
      </trkpt>
      <trkpt lat="46.83587" lon="6.53803">
        <ele>1352.1999511719</ele>
        <time>2017-04-24T07:22:31.000Z</time>
      </trkpt>
      <trkpt lat="46.83583" lon="6.53798">
        <ele>1352</ele>
        <time>2017-04-24T07:22:33.000Z</time>
      </trkpt>
      <trkpt lat="46.83573" lon="6.53793">
        <ele>1351.5999755859</ele>
        <time>2017-04-24T07:22:36.000Z</time>
      </trkpt>
      <trkpt lat="46.8357" lon="6.53795">
        <ele>1351.1999511719</ele>
        <time>2017-04-24T07:22:37.000Z</time>
      </trkpt>
      <trkpt lat="46.83566" lon="6.53801">
        <ele>1350</ele>
        <time>2017-04-24T07:22:39.000Z</time>
      </trkpt>
      <trkpt lat="46.83564" lon="6.53808">
        <ele>1348.5999755859</ele>
        <time>2017-04-24T07:22:41.000Z</time>
      </trkpt>
      <trkpt lat="46.83563" lon="6.5382">
        <ele>1347.4000244141</ele>
        <time>2017-04-24T07:22:44.000Z</time>
      </trkpt>
      <trkpt lat="46.8356" lon="6.53824">
        <ele>1346</ele>
        <time>2017-04-24T07:22:45.000Z</time>
      </trkpt>
      <trkpt lat="46.83556" lon="6.53831">
        <ele>1344.8000488281</ele>
        <time>2017-04-24T07:22:46.000Z</time>
      </trkpt>
      <trkpt lat="46.83552" lon="6.53836">
        <ele>1343.8000488281</ele>
        <time>2017-04-24T07:22:47.000Z</time>
      </trkpt>
      <trkpt lat="46.83548" lon="6.53838">
        <ele>1342.8000488281</ele>
        <time>2017-04-24T07:22:48.000Z</time>
      </trkpt>
      <trkpt lat="46.83545" lon="6.53839">
        <ele>1341</ele>
        <time>2017-04-24T07:22:50.000Z</time>
      </trkpt>
      <trkpt lat="46.83542" lon="6.5384">
        <ele>1339.5999755859</ele>
        <time>2017-04-24T07:22:52.000Z</time>
      </trkpt>
      <trkpt lat="46.83539" lon="6.53846">
        <ele>1338.4000244141</ele>
        <time>2017-04-24T07:22:54.000Z</time>
      </trkpt>
      <trkpt lat="46.83537" lon="6.53848">
        <ele>1338</ele>
        <time>2017-04-24T07:22:55.000Z</time>
      </trkpt>
      <trkpt lat="46.83534" lon="6.5385">
        <ele>1337.4000244141</ele>
        <time>2017-04-24T07:22:56.000Z</time>
      </trkpt>
      <trkpt lat="46.83532" lon="6.53852">
        <ele>1336.1999511719</ele>
        <time>2017-04-24T07:22:57.000Z</time>
      </trkpt>
      <trkpt lat="46.83528" lon="6.53851">
        <ele>1335.1999511719</ele>
        <time>2017-04-24T07:22:58.000Z</time>
      </trkpt>
      <trkpt lat="46.83524" lon="6.53849">
        <ele>1334.1999511719</ele>
        <time>2017-04-24T07:22:59.000Z</time>
      </trkpt>
      <trkpt lat="46.83519" lon="6.53846">
        <ele>1333.4000244141</ele>
        <time>2017-04-24T07:23:00.000Z</time>
      </trkpt>
      <trkpt lat="46.83516" lon="6.53845">
        <ele>1332.1999511719</ele>
        <time>2017-04-24T07:23:01.000Z</time>
      </trkpt>
      <trkpt lat="46.83506" lon="6.53837">
        <ele>1330.8000488281</ele>
        <time>2017-04-24T07:23:03.000Z</time>
      </trkpt>
      <trkpt lat="46.835" lon="6.53835">
        <ele>1329.8000488281</ele>
        <time>2017-04-24T07:23:04.000Z</time>
      </trkpt>
      <trkpt lat="46.83494" lon="6.53832">
        <ele>1329.1999511719</ele>
        <time>2017-04-24T07:23:05.000Z</time>
      </trkpt>
      <trkpt lat="46.83483" lon="6.53826">
        <ele>1328.5999755859</ele>
        <time>2017-04-24T07:23:07.000Z</time>
      </trkpt>
      <trkpt lat="46.83478" lon="6.53824">
        <ele>1328.5999755859</ele>
        <time>2017-04-24T07:23:08.000Z</time>
      </trkpt>
      <trkpt lat="46.83461" lon="6.53824">
        <ele>1329</ele>
        <time>2017-04-24T07:23:11.000Z</time>
      </trkpt>
      <trkpt lat="46.83455" lon="6.53825">
        <ele>1329.1999511719</ele>
        <time>2017-04-24T07:23:12.000Z</time>
      </trkpt>
      <trkpt lat="46.83426" lon="6.53831">
        <ele>1328</ele>
        <time>2017-04-24T07:23:17.000Z</time>
      </trkpt>
      <trkpt lat="46.83419" lon="6.53833">
        <ele>1327.1999511719</ele>
        <time>2017-04-24T07:23:18.000Z</time>
      </trkpt>
      <trkpt lat="46.83412" lon="6.53834">
        <ele>1326.8000488281</ele>
        <time>2017-04-24T07:23:19.000Z</time>
      </trkpt>
      <trkpt lat="46.83405" lon="6.53833">
        <ele>1326</ele>
        <time>2017-04-24T07:23:20.000Z</time>
      </trkpt>
      <trkpt lat="46.83397" lon="6.53831">
        <ele>1325.4000244141</ele>
        <time>2017-04-24T07:23:21.000Z</time>
      </trkpt>
      <trkpt lat="46.8339" lon="6.53828">
        <ele>1324.4000244141</ele>
        <time>2017-04-24T07:23:22.000Z</time>
      </trkpt>
      <trkpt lat="46.83378" lon="6.53815">
        <ele>1323.1999511719</ele>
        <time>2017-04-24T07:23:24.000Z</time>
      </trkpt>
      <trkpt lat="46.83369" lon="6.53804">
        <ele>1322.1999511719</ele>
        <time>2017-04-24T07:23:26.000Z</time>
      </trkpt>
      <trkpt lat="46.83364" lon="6.53799">
        <ele>1322.1999511719</ele>
        <time>2017-04-24T07:23:27.000Z</time>
      </trkpt>
      <trkpt lat="46.8336" lon="6.53793">
        <ele>1322.1999511719</ele>
        <time>2017-04-24T07:23:28.000Z</time>
      </trkpt>
      <trkpt lat="46.83339" lon="6.5377">
        <ele>1321.5999755859</ele>
        <time>2017-04-24T07:23:33.000Z</time>
      </trkpt>
      <trkpt lat="46.83318" lon="6.53757">
        <ele>1323</ele>
        <time>2017-04-24T07:23:38.000Z</time>
      </trkpt>
      <trkpt lat="46.83303" lon="6.53729">
        <ele>1322</ele>
        <time>2017-04-24T07:23:42.000Z</time>
      </trkpt>
      <trkpt lat="46.83299" lon="6.53723">
        <ele>1321.8000488281</ele>
        <time>2017-04-24T07:23:43.000Z</time>
      </trkpt>
      <trkpt lat="46.83295" lon="6.53717">
        <ele>1321.5999755859</ele>
        <time>2017-04-24T07:23:44.000Z</time>
      </trkpt>
      <trkpt lat="46.83285" lon="6.53707">
        <ele>1321.4000244141</ele>
        <time>2017-04-24T07:23:46.000Z</time>
      </trkpt>
      <trkpt lat="46.83281" lon="6.537">
        <ele>1321</ele>
        <time>2017-04-24T07:23:47.000Z</time>
      </trkpt>
      <trkpt lat="46.83278" lon="6.53681">
        <ele>1318.8000488281</ele>
        <time>2017-04-24T07:23:49.000Z</time>
      </trkpt>
      <trkpt lat="46.83278" lon="6.53672">
        <ele>1317.8000488281</ele>
        <time>2017-04-24T07:23:50.000Z</time>
      </trkpt>
      <trkpt lat="46.83274" lon="6.53647">
        <ele>1316.8000488281</ele>
        <time>2017-04-24T07:23:53.000Z</time>
      </trkpt>
      <trkpt lat="46.83272" lon="6.5364">
        <ele>1316.8000488281</ele>
        <time>2017-04-24T07:23:54.000Z</time>
      </trkpt>
      <trkpt lat="46.83264" lon="6.53619">
        <ele>1318.1999511719</ele>
        <time>2017-04-24T07:23:57.000Z</time>
      </trkpt>
      <trkpt lat="46.83258" lon="6.53603">
        <ele>1318.5999755859</ele>
        <time>2017-04-24T07:23:59.000Z</time>
      </trkpt>
      <trkpt lat="46.8325" lon="6.53588">
        <ele>1318.5999755859</ele>
        <time>2017-04-24T07:24:01.000Z</time>
      </trkpt>
      <trkpt lat="46.83246" lon="6.53582">
        <ele>1318.5999755859</ele>
        <time>2017-04-24T07:24:02.000Z</time>
      </trkpt>
      <trkpt lat="46.83238" lon="6.53571">
        <ele>1318.5999755859</ele>
        <time>2017-04-24T07:24:04.000Z</time>
      </trkpt>
      <trkpt lat="46.8323" lon="6.5356">
        <ele>1319</ele>
        <time>2017-04-24T07:24:06.000Z</time>
      </trkpt>
      <trkpt lat="46.83221" lon="6.53543">
        <ele>1319.4000244141</ele>
        <time>2017-04-24T07:24:09.000Z</time>
      </trkpt>
      <trkpt lat="46.83218" lon="6.5353">
        <ele>1319.5999755859</ele>
        <time>2017-04-24T07:24:11.000Z</time>
      </trkpt>
      <trkpt lat="46.83216" lon="6.53518">
        <ele>1320.1999511719</ele>
        <time>2017-04-24T07:24:13.000Z</time>
      </trkpt>
      <trkpt lat="46.83215" lon="6.53513">
        <ele>1320.5999755859</ele>
        <time>2017-04-24T07:24:14.000Z</time>
      </trkpt>
      <trkpt lat="46.83214" lon="6.53501">
        <ele>1321.5999755859</ele>
        <time>2017-04-24T07:24:16.000Z</time>
      </trkpt>
      <trkpt lat="46.83211" lon="6.5349">
        <ele>1322.5999755859</ele>
        <time>2017-04-24T07:24:18.000Z</time>
      </trkpt>
      <trkpt lat="46.83208" lon="6.53485">
        <ele>1323.1999511719</ele>
        <time>2017-04-24T07:24:19.000Z</time>
      </trkpt>
      <trkpt lat="46.83207" lon="6.53479">
        <ele>1323.8000488281</ele>
        <time>2017-04-24T07:24:20.000Z</time>
      </trkpt>
      <trkpt lat="46.83205" lon="6.53468">
        <ele>1324.5999755859</ele>
        <time>2017-04-24T07:24:22.000Z</time>
      </trkpt>
      <trkpt lat="46.83205" lon="6.53458">
        <ele>1325.4000244141</ele>
        <time>2017-04-24T07:24:24.000Z</time>
      </trkpt>
      <trkpt lat="46.83205" lon="6.53449">
        <ele>1326.4000244141</ele>
        <time>2017-04-24T07:24:26.000Z</time>
      </trkpt>
      <trkpt lat="46.83204" lon="6.53437">
        <ele>1328.1999511719</ele>
        <time>2017-04-24T07:24:29.000Z</time>
      </trkpt>
      <trkpt lat="46.83203" lon="6.53431">
        <ele>1329.4000244141</ele>
        <time>2017-04-24T07:24:31.000Z</time>
      </trkpt>
      <trkpt lat="46.83204" lon="6.53421">
        <ele>1330.4000244141</ele>
        <time>2017-04-24T07:24:34.000Z</time>
      </trkpt>
      <trkpt lat="46.83204" lon="6.53417">
        <ele>1330.8000488281</ele>
        <time>2017-04-24T07:24:35.000Z</time>
      </trkpt>
      <trkpt lat="46.83204" lon="6.53408">
        <ele>1332</ele>
        <time>2017-04-24T07:24:37.000Z</time>
      </trkpt>
      <trkpt lat="46.83203" lon="6.53391">
        <ele>1332.5999755859</ele>
        <time>2017-04-24T07:24:40.000Z</time>
      </trkpt>
      <trkpt lat="46.83201" lon="6.53372">
        <ele>1333</ele>
        <time>2017-04-24T07:24:43.000Z</time>
      </trkpt>
      <trkpt lat="46.832" lon="6.53357">
        <ele>1333.1999511719</ele>
        <time>2017-04-24T07:24:45.000Z</time>
      </trkpt>
      <trkpt lat="46.83198" lon="6.53336">
        <ele>1334</ele>
        <time>2017-04-24T07:24:48.000Z</time>
      </trkpt>
      <trkpt lat="46.83197" lon="6.53329">
        <ele>1334.1999511719</ele>
        <time>2017-04-24T07:24:49.000Z</time>
      </trkpt>
      <trkpt lat="46.83196" lon="6.53322">
        <ele>1334.1999511719</ele>
        <time>2017-04-24T07:24:50.000Z</time>
      </trkpt>
      <trkpt lat="46.83198" lon="6.53296">
        <ele>1333</ele>
        <time>2017-04-24T07:24:53.000Z</time>
      </trkpt>
      <trkpt lat="46.832" lon="6.53288">
        <ele>1332.5999755859</ele>
        <time>2017-04-24T07:24:54.000Z</time>
      </trkpt>
      <trkpt lat="46.83203" lon="6.53272">
        <ele>1333.4000244141</ele>
        <time>2017-04-24T07:24:57.000Z</time>
      </trkpt>
      <trkpt lat="46.83206" lon="6.53265">
        <ele>1334.4000244141</ele>
        <time>2017-04-24T07:24:59.000Z</time>
      </trkpt>
      <trkpt lat="46.83206" lon="6.53261">
        <ele>1335</ele>
        <time>2017-04-24T07:25:00.000Z</time>
      </trkpt>
      <trkpt lat="46.83206" lon="6.53257">
        <ele>1335.5999755859</ele>
        <time>2017-04-24T07:25:01.000Z</time>
      </trkpt>
      <trkpt lat="46.83203" lon="6.53248">
        <ele>1336.1999511719</ele>
        <time>2017-04-24T07:25:05.000Z</time>
      </trkpt>
      <trkpt lat="46.83191" lon="6.53258">
        <ele>1334.5999755859</ele>
        <time>2017-04-24T07:25:08.000Z</time>
      </trkpt>
      <trkpt lat="46.83187" lon="6.5326">
        <ele>1333.4000244141</ele>
        <time>2017-04-24T07:25:09.000Z</time>
      </trkpt>
      <trkpt lat="46.83182" lon="6.53264">
        <ele>1332.1999511719</ele>
        <time>2017-04-24T07:25:11.000Z</time>
      </trkpt>
      <trkpt lat="46.83174" lon="6.53278">
        <ele>1330.1999511719</ele>
        <time>2017-04-24T07:25:14.000Z</time>
      </trkpt>
      <trkpt lat="46.83172" lon="6.53278">
        <ele>1328.8000488281</ele>
        <time>2017-04-24T07:25:15.000Z</time>
      </trkpt>
      <trkpt lat="46.83168" lon="6.53275">
        <ele>1327.1999511719</ele>
        <time>2017-04-24T07:25:17.000Z</time>
      </trkpt>
      <trkpt lat="46.83162" lon="6.53274">
        <ele>1325.8000488281</ele>
        <time>2017-04-24T07:25:19.000Z</time>
      </trkpt>
      <trkpt lat="46.83159" lon="6.53274">
        <ele>1324.5999755859</ele>
        <time>2017-04-24T07:25:20.000Z</time>
      </trkpt>
      <trkpt lat="46.83156" lon="6.53275">
        <ele>1323.5999755859</ele>
        <time>2017-04-24T07:25:21.000Z</time>
      </trkpt>
      <trkpt lat="46.83148" lon="6.53278">
        <ele>1321.8000488281</ele>
        <time>2017-04-24T07:25:23.000Z</time>
      </trkpt>
      <trkpt lat="46.83146" lon="6.53281">
        <ele>1321.1999511719</ele>
        <time>2017-04-24T07:25:24.000Z</time>
      </trkpt>
      <trkpt lat="46.83144" lon="6.53284">
        <ele>1320.5999755859</ele>
        <time>2017-04-24T07:25:25.000Z</time>
      </trkpt>
      <trkpt lat="46.8314" lon="6.53289">
        <ele>1319.8000488281</ele>
        <time>2017-04-24T07:25:27.000Z</time>
      </trkpt>
      <trkpt lat="46.83137" lon="6.53292">
        <ele>1319.1999511719</ele>
        <time>2017-04-24T07:25:28.000Z</time>
      </trkpt>
      <trkpt lat="46.83127" lon="6.53295">
        <ele>1318</ele>
        <time>2017-04-24T07:25:31.000Z</time>
      </trkpt>
      <trkpt lat="46.83124" lon="6.53296">
        <ele>1317</ele>
        <time>2017-04-24T07:25:32.000Z</time>
      </trkpt>
      <trkpt lat="46.83121" lon="6.53296">
        <ele>1316.4000244141</ele>
        <time>2017-04-24T07:25:33.000Z</time>
      </trkpt>
      <trkpt lat="46.83119" lon="6.53299">
        <ele>1316</ele>
        <time>2017-04-24T07:25:34.000Z</time>
      </trkpt>
      <trkpt lat="46.83114" lon="6.53306">
        <ele>1315.4000244141</ele>
        <time>2017-04-24T07:25:37.000Z</time>
      </trkpt>
      <trkpt lat="46.83114" lon="6.53309">
        <ele>1315.1999511719</ele>
        <time>2017-04-24T07:25:38.000Z</time>
      </trkpt>
      <trkpt lat="46.83114" lon="6.53319">
        <ele>1314.8000488281</ele>
        <time>2017-04-24T07:25:40.000Z</time>
      </trkpt>
      <trkpt lat="46.83122" lon="6.53342">
        <ele>1314.8000488281</ele>
        <time>2017-04-24T07:25:44.000Z</time>
      </trkpt>
      <trkpt lat="46.83124" lon="6.53347">
        <ele>1315.4000244141</ele>
        <time>2017-04-24T07:25:45.000Z</time>
      </trkpt>
      <trkpt lat="46.83127" lon="6.53358">
        <ele>1316.4000244141</ele>
        <time>2017-04-24T07:25:47.000Z</time>
      </trkpt>
      <trkpt lat="46.83132" lon="6.53375">
        <ele>1317.5999755859</ele>
        <time>2017-04-24T07:25:50.000Z</time>
      </trkpt>
      <trkpt lat="46.83134" lon="6.53381">
        <ele>1317.8000488281</ele>
        <time>2017-04-24T07:25:51.000Z</time>
      </trkpt>
      <trkpt lat="46.83139" lon="6.53392">
        <ele>1318.1999511719</ele>
        <time>2017-04-24T07:25:53.000Z</time>
      </trkpt>
      <trkpt lat="46.83143" lon="6.53404">
        <ele>1318.4000244141</ele>
        <time>2017-04-24T07:25:55.000Z</time>
      </trkpt>
      <trkpt lat="46.83147" lon="6.53417">
        <ele>1318.8000488281</ele>
        <time>2017-04-24T07:25:57.000Z</time>
      </trkpt>
      <trkpt lat="46.83152" lon="6.5343">
        <ele>1319</ele>
        <time>2017-04-24T07:25:59.000Z</time>
      </trkpt>
      <trkpt lat="46.83158" lon="6.53441">
        <ele>1318.8000488281</ele>
        <time>2017-04-24T07:26:01.000Z</time>
      </trkpt>
      <trkpt lat="46.83164" lon="6.53451">
        <ele>1318.4000244141</ele>
        <time>2017-04-24T07:26:03.000Z</time>
      </trkpt>
      <trkpt lat="46.8317" lon="6.5347">
        <ele>1318.1999511719</ele>
        <time>2017-04-24T07:26:06.000Z</time>
      </trkpt>
      <trkpt lat="46.83181" lon="6.53494">
        <ele>1317.8000488281</ele>
        <time>2017-04-24T07:26:10.000Z</time>
      </trkpt>
      <trkpt lat="46.83195" lon="6.53515">
        <ele>1318.1999511719</ele>
        <time>2017-04-24T07:26:14.000Z</time>
      </trkpt>
      <trkpt lat="46.83198" lon="6.53521">
        <ele>1318.1999511719</ele>
        <time>2017-04-24T07:26:15.000Z</time>
      </trkpt>
      <trkpt lat="46.83209" lon="6.53539">
        <ele>1318.5999755859</ele>
        <time>2017-04-24T07:26:19.000Z</time>
      </trkpt>
      <trkpt lat="46.8321" lon="6.53543">
        <ele>1318.5999755859</ele>
        <time>2017-04-24T07:26:20.000Z</time>
      </trkpt>
      <trkpt lat="46.83206" lon="6.5355">
        <ele>1318.4000244141</ele>
        <time>2017-04-24T07:26:22.000Z</time>
      </trkpt>
      <trkpt lat="46.83198" lon="6.53555">
        <ele>1317.4000244141</ele>
        <time>2017-04-24T07:26:24.000Z</time>
      </trkpt>
      <trkpt lat="46.83195" lon="6.53557">
        <ele>1316.8000488281</ele>
        <time>2017-04-24T07:26:25.000Z</time>
      </trkpt>
      <trkpt lat="46.83186" lon="6.53564">
        <ele>1316.1999511719</ele>
        <time>2017-04-24T07:26:27.000Z</time>
      </trkpt>
      <trkpt lat="46.83176" lon="6.53573">
        <ele>1314.4000244141</ele>
        <time>2017-04-24T07:26:29.000Z</time>
      </trkpt>
      <trkpt lat="46.83168" lon="6.5358">
        <ele>1311.5999755859</ele>
        <time>2017-04-24T07:26:31.000Z</time>
      </trkpt>
      <trkpt lat="46.83164" lon="6.53582">
        <ele>1309.4000244141</ele>
        <time>2017-04-24T07:26:32.000Z</time>
      </trkpt>
      <trkpt lat="46.83159" lon="6.53583">
        <ele>1308.1999511719</ele>
        <time>2017-04-24T07:26:33.000Z</time>
      </trkpt>
      <trkpt lat="46.83154" lon="6.53585">
        <ele>1307</ele>
        <time>2017-04-24T07:26:34.000Z</time>
      </trkpt>
      <trkpt lat="46.8315" lon="6.53587">
        <ele>1305.5999755859</ele>
        <time>2017-04-24T07:26:35.000Z</time>
      </trkpt>
      <trkpt lat="46.83146" lon="6.53587">
        <ele>1304.1999511719</ele>
        <time>2017-04-24T07:26:36.000Z</time>
      </trkpt>
      <trkpt lat="46.83142" lon="6.53587">
        <ele>1302.5999755859</ele>
        <time>2017-04-24T07:26:37.000Z</time>
      </trkpt>
      <trkpt lat="46.83133" lon="6.53583">
        <ele>1301</ele>
        <time>2017-04-24T07:26:39.000Z</time>
      </trkpt>
      <trkpt lat="46.83128" lon="6.53578">
        <ele>1300.4000244141</ele>
        <time>2017-04-24T07:26:40.000Z</time>
      </trkpt>
      <trkpt lat="46.83123" lon="6.5357">
        <ele>1299</ele>
        <time>2017-04-24T07:26:41.000Z</time>
      </trkpt>
      <trkpt lat="46.83119" lon="6.53561">
        <ele>1297.4000244141</ele>
        <time>2017-04-24T07:26:42.000Z</time>
      </trkpt>
      <trkpt lat="46.83116" lon="6.53553">
        <ele>1296.5999755859</ele>
        <time>2017-04-24T07:26:43.000Z</time>
      </trkpt>
      <trkpt lat="46.83112" lon="6.53546">
        <ele>1295.8000488281</ele>
        <time>2017-04-24T07:26:44.000Z</time>
      </trkpt>
      <trkpt lat="46.83108" lon="6.53532">
        <ele>1295.4000244141</ele>
        <time>2017-04-24T07:26:46.000Z</time>
      </trkpt>
      <trkpt lat="46.83107" lon="6.53524">
        <ele>1295</ele>
        <time>2017-04-24T07:26:47.000Z</time>
      </trkpt>
      <trkpt lat="46.83101" lon="6.53508">
        <ele>1296</ele>
        <time>2017-04-24T07:26:50.000Z</time>
      </trkpt>
      <trkpt lat="46.83098" lon="6.53503">
        <ele>1296</ele>
        <time>2017-04-24T07:26:51.000Z</time>
      </trkpt>
      <trkpt lat="46.83096" lon="6.53498">
        <ele>1296.4000244141</ele>
        <time>2017-04-24T07:26:52.000Z</time>
      </trkpt>
      <trkpt lat="46.8309" lon="6.53477">
        <ele>1296.5999755859</ele>
        <time>2017-04-24T07:26:55.000Z</time>
      </trkpt>
      <trkpt lat="46.83085" lon="6.5346">
        <ele>1296.8000488281</ele>
        <time>2017-04-24T07:26:57.000Z</time>
      </trkpt>
      <trkpt lat="46.8308" lon="6.53444">
        <ele>1296.1999511719</ele>
        <time>2017-04-24T07:26:59.000Z</time>
      </trkpt>
      <trkpt lat="46.83077" lon="6.53437">
        <ele>1295.8000488281</ele>
        <time>2017-04-24T07:27:00.000Z</time>
      </trkpt>
      <trkpt lat="46.8307" lon="6.53422">
        <ele>1294.8000488281</ele>
        <time>2017-04-24T07:27:02.000Z</time>
      </trkpt>
      <trkpt lat="46.83068" lon="6.53415">
        <ele>1294.4000244141</ele>
        <time>2017-04-24T07:27:03.000Z</time>
      </trkpt>
      <trkpt lat="46.83064" lon="6.53394">
        <ele>1293.5999755859</ele>
        <time>2017-04-24T07:27:06.000Z</time>
      </trkpt>
      <trkpt lat="46.83064" lon="6.53388">
        <ele>1293.1999511719</ele>
        <time>2017-04-24T07:27:07.000Z</time>
      </trkpt>
      <trkpt lat="46.8306" lon="6.53375">
        <ele>1292.8000488281</ele>
        <time>2017-04-24T07:27:09.000Z</time>
      </trkpt>
      <trkpt lat="46.83058" lon="6.53368">
        <ele>1292.4000244141</ele>
        <time>2017-04-24T07:27:10.000Z</time>
      </trkpt>
      <trkpt lat="46.83056" lon="6.53363">
        <ele>1291.1999511719</ele>
        <time>2017-04-24T07:27:11.000Z</time>
      </trkpt>
      <trkpt lat="46.83055" lon="6.53361">
        <ele>1289.8000488281</ele>
        <time>2017-04-24T07:27:12.000Z</time>
      </trkpt>
      <trkpt lat="46.83052" lon="6.53358">
        <ele>1288.4000244141</ele>
        <time>2017-04-24T07:27:13.000Z</time>
      </trkpt>
      <trkpt lat="46.83045" lon="6.53352">
        <ele>1287.4000244141</ele>
        <time>2017-04-24T07:27:14.000Z</time>
      </trkpt>
      <trkpt lat="46.8304" lon="6.53345">
        <ele>1286.5999755859</ele>
        <time>2017-04-24T07:27:15.000Z</time>
      </trkpt>
      <trkpt lat="46.83035" lon="6.53338">
        <ele>1285.1999511719</ele>
        <time>2017-04-24T07:27:16.000Z</time>
      </trkpt>
      <trkpt lat="46.83031" lon="6.53331">
        <ele>1284</ele>
        <time>2017-04-24T07:27:17.000Z</time>
      </trkpt>
      <trkpt lat="46.83028" lon="6.53323">
        <ele>1282.5999755859</ele>
        <time>2017-04-24T07:27:18.000Z</time>
      </trkpt>
      <trkpt lat="46.83025" lon="6.53317">
        <ele>1280.5999755859</ele>
        <time>2017-04-24T07:27:19.000Z</time>
      </trkpt>
      <trkpt lat="46.83022" lon="6.53312">
        <ele>1279.5999755859</ele>
        <time>2017-04-24T07:27:20.000Z</time>
      </trkpt>
      <trkpt lat="46.83013" lon="6.53303">
        <ele>1278</ele>
        <time>2017-04-24T07:27:22.000Z</time>
      </trkpt>
      <trkpt lat="46.83006" lon="6.53295">
        <ele>1277.1999511719</ele>
        <time>2017-04-24T07:27:23.000Z</time>
      </trkpt>
      <trkpt lat="46.83" lon="6.53286">
        <ele>1276.4000244141</ele>
        <time>2017-04-24T07:27:24.000Z</time>
      </trkpt>
      <trkpt lat="46.82996" lon="6.53275">
        <ele>1275</ele>
        <time>2017-04-24T07:27:25.000Z</time>
      </trkpt>
      <trkpt lat="46.82991" lon="6.53264">
        <ele>1273.8000488281</ele>
        <time>2017-04-24T07:27:26.000Z</time>
      </trkpt>
      <trkpt lat="46.82986" lon="6.53253">
        <ele>1272</ele>
        <time>2017-04-24T07:27:27.000Z</time>
      </trkpt>
      <trkpt lat="46.82981" lon="6.53242">
        <ele>1269.8000488281</ele>
        <time>2017-04-24T07:27:28.000Z</time>
      </trkpt>
      <trkpt lat="46.82976" lon="6.53232">
        <ele>1268</ele>
        <time>2017-04-24T07:27:29.000Z</time>
      </trkpt>
      <trkpt lat="46.82973" lon="6.53221">
        <ele>1266.5999755859</ele>
        <time>2017-04-24T07:27:30.000Z</time>
      </trkpt>
      <trkpt lat="46.82969" lon="6.5321">
        <ele>1265.5999755859</ele>
        <time>2017-04-24T07:27:31.000Z</time>
      </trkpt>
      <trkpt lat="46.82966" lon="6.532">
        <ele>1264.4000244141</ele>
        <time>2017-04-24T07:27:32.000Z</time>
      </trkpt>
      <trkpt lat="46.82961" lon="6.53193">
        <ele>1263.1999511719</ele>
        <time>2017-04-24T07:27:33.000Z</time>
      </trkpt>
      <trkpt lat="46.82957" lon="6.53188">
        <ele>1261.8000488281</ele>
        <time>2017-04-24T07:27:34.000Z</time>
      </trkpt>
      <trkpt lat="46.82953" lon="6.53184">
        <ele>1260.4000244141</ele>
        <time>2017-04-24T07:27:35.000Z</time>
      </trkpt>
      <trkpt lat="46.8295" lon="6.53181">
        <ele>1259.5999755859</ele>
        <time>2017-04-24T07:27:36.000Z</time>
      </trkpt>
      <trkpt lat="46.82949" lon="6.53175">
        <ele>1259</ele>
        <time>2017-04-24T07:27:37.000Z</time>
      </trkpt>
      <trkpt lat="46.82947" lon="6.5316">
        <ele>1257.8000488281</ele>
        <time>2017-04-24T07:27:39.000Z</time>
      </trkpt>
      <trkpt lat="46.82945" lon="6.53123">
        <ele>1257</ele>
        <time>2017-04-24T07:27:45.000Z</time>
      </trkpt>
      <trkpt lat="46.82943" lon="6.53117">
        <ele>1257</ele>
        <time>2017-04-24T07:27:46.000Z</time>
      </trkpt>
      <trkpt lat="46.82938" lon="6.53097">
        <ele>1258.1999511719</ele>
        <time>2017-04-24T07:27:49.000Z</time>
      </trkpt>
      <trkpt lat="46.82937" lon="6.53084">
        <ele>1258</ele>
        <time>2017-04-24T07:27:52.000Z</time>
      </trkpt>
      <trkpt lat="46.82938" lon="6.53063">
        <ele>1258.1999511719</ele>
        <time>2017-04-24T07:27:57.000Z</time>
      </trkpt>
      <trkpt lat="46.82938" lon="6.53055">
        <ele>1259</ele>
        <time>2017-04-24T07:27:59.000Z</time>
      </trkpt>
      <trkpt lat="46.82938" lon="6.53045">
        <ele>1259.4000244141</ele>
        <time>2017-04-24T07:28:01.000Z</time>
      </trkpt>
      <trkpt lat="46.82937" lon="6.53035">
        <ele>1260.1999511719</ele>
        <time>2017-04-24T07:28:03.000Z</time>
      </trkpt>
      <trkpt lat="46.82937" lon="6.53027">
        <ele>1260.5999755859</ele>
        <time>2017-04-24T07:28:05.000Z</time>
      </trkpt>
      <trkpt lat="46.82936" lon="6.53021">
        <ele>1261.8000488281</ele>
        <time>2017-04-24T07:28:07.000Z</time>
      </trkpt>
      <trkpt lat="46.82935" lon="6.53012">
        <ele>1263.1999511719</ele>
        <time>2017-04-24T07:28:10.000Z</time>
      </trkpt>
      <trkpt lat="46.82936" lon="6.52996">
        <ele>1264.4000244141</ele>
        <time>2017-04-24T07:28:14.000Z</time>
      </trkpt>
      <trkpt lat="46.82935" lon="6.52989">
        <ele>1265.4000244141</ele>
        <time>2017-04-24T07:28:16.000Z</time>
      </trkpt>
      <trkpt lat="46.82934" lon="6.52986">
        <ele>1265.8000488281</ele>
        <time>2017-04-24T07:28:17.000Z</time>
      </trkpt>
      <trkpt lat="46.82926" lon="6.52968">
        <ele>1265.5999755859</ele>
        <time>2017-04-24T07:28:21.000Z</time>
      </trkpt>
      <trkpt lat="46.82923" lon="6.52954">
        <ele>1264.5999755859</ele>
        <time>2017-04-24T07:28:24.000Z</time>
      </trkpt>
      <trkpt lat="46.82924" lon="6.5295">
        <ele>1264.4000244141</ele>
        <time>2017-04-24T07:28:25.000Z</time>
      </trkpt>
      <trkpt lat="46.82918" lon="6.52932">
        <ele>1263.1999511719</ele>
        <time>2017-04-24T07:28:28.000Z</time>
      </trkpt>
      <trkpt lat="46.82913" lon="6.52917">
        <ele>1261.8000488281</ele>
        <time>2017-04-24T07:28:30.000Z</time>
      </trkpt>
      <trkpt lat="46.8291" lon="6.52903">
        <ele>1260.4000244141</ele>
        <time>2017-04-24T07:28:32.000Z</time>
      </trkpt>
      <trkpt lat="46.82908" lon="6.52897">
        <ele>1260</ele>
        <time>2017-04-24T07:28:33.000Z</time>
      </trkpt>
      <trkpt lat="46.82905" lon="6.5289">
        <ele>1259.4000244141</ele>
        <time>2017-04-24T07:28:34.000Z</time>
      </trkpt>
      <trkpt lat="46.82902" lon="6.52878">
        <ele>1257.8000488281</ele>
        <time>2017-04-24T07:28:36.000Z</time>
      </trkpt>
      <trkpt lat="46.82901" lon="6.52874">
        <ele>1257</ele>
        <time>2017-04-24T07:28:37.000Z</time>
      </trkpt>
      <trkpt lat="46.82899" lon="6.5287">
        <ele>1255.8000488281</ele>
        <time>2017-04-24T07:28:38.000Z</time>
      </trkpt>
      <trkpt lat="46.82897" lon="6.52867">
        <ele>1254.5999755859</ele>
        <time>2017-04-24T07:28:39.000Z</time>
      </trkpt>
      <trkpt lat="46.82895" lon="6.52861">
        <ele>1253.8000488281</ele>
        <time>2017-04-24T07:28:40.000Z</time>
      </trkpt>
      <trkpt lat="46.82892" lon="6.52855">
        <ele>1253</ele>
        <time>2017-04-24T07:28:41.000Z</time>
      </trkpt>
      <trkpt lat="46.8289" lon="6.52848">
        <ele>1252.1999511719</ele>
        <time>2017-04-24T07:28:42.000Z</time>
      </trkpt>
      <trkpt lat="46.82886" lon="6.52835">
        <ele>1251.8000488281</ele>
        <time>2017-04-24T07:28:44.000Z</time>
      </trkpt>
      <trkpt lat="46.82885" lon="6.52823">
        <ele>1252.8000488281</ele>
        <time>2017-04-24T07:28:47.000Z</time>
      </trkpt>
      <trkpt lat="46.82883" lon="6.52818">
        <ele>1253</ele>
        <time>2017-04-24T07:28:48.000Z</time>
      </trkpt>
      <trkpt lat="46.82882" lon="6.52802">
        <ele>1254</ele>
        <time>2017-04-24T07:28:51.000Z</time>
      </trkpt>
      <trkpt lat="46.82878" lon="6.52785">
        <ele>1255.1999511719</ele>
        <time>2017-04-24T07:28:54.000Z</time>
      </trkpt>
      <trkpt lat="46.82878" lon="6.5278">
        <ele>1255.5999755859</ele>
        <time>2017-04-24T07:28:55.000Z</time>
      </trkpt>
      <trkpt lat="46.82876" lon="6.52771">
        <ele>1256.1999511719</ele>
        <time>2017-04-24T07:28:57.000Z</time>
      </trkpt>
      <trkpt lat="46.82876" lon="6.52766">
        <ele>1256.4000244141</ele>
        <time>2017-04-24T07:28:58.000Z</time>
      </trkpt>
      <trkpt lat="46.82875" lon="6.52762">
        <ele>1256.5999755859</ele>
        <time>2017-04-24T07:28:59.000Z</time>
      </trkpt>
      <trkpt lat="46.82874" lon="6.52755">
        <ele>1257.1999511719</ele>
        <time>2017-04-24T07:29:01.000Z</time>
      </trkpt>
      <trkpt lat="46.82873" lon="6.5275">
        <ele>1257.4000244141</ele>
        <time>2017-04-24T07:29:02.000Z</time>
      </trkpt>
      <trkpt lat="46.82871" lon="6.52746">
        <ele>1257.8000488281</ele>
        <time>2017-04-24T07:29:03.000Z</time>
      </trkpt>
      <trkpt lat="46.82869" lon="6.52736">
        <ele>1258.5999755859</ele>
        <time>2017-04-24T07:29:06.000Z</time>
      </trkpt>
      <trkpt lat="46.82869" lon="6.52734">
        <ele>1259.1999511719</ele>
        <time>2017-04-24T07:29:07.000Z</time>
      </trkpt>
      <trkpt lat="46.82868" lon="6.52728">
        <ele>1259.8000488281</ele>
        <time>2017-04-24T07:29:11.000Z</time>
      </trkpt>
      <trkpt lat="46.82867" lon="6.52722">
        <ele>1259.8000488281</ele>
        <time>2017-04-24T07:29:13.000Z</time>
      </trkpt>
      <trkpt lat="46.82866" lon="6.52718">
        <ele>1259.8000488281</ele>
        <time>2017-04-24T07:29:14.000Z</time>
      </trkpt>
      <trkpt lat="46.82862" lon="6.52704">
        <ele>1260</ele>
        <time>2017-04-24T07:29:17.000Z</time>
      </trkpt>
      <trkpt lat="46.8286" lon="6.52698">
        <ele>1260.1999511719</ele>
        <time>2017-04-24T07:29:18.000Z</time>
      </trkpt>
      <trkpt lat="46.82849" lon="6.5267">
        <ele>1260.8000488281</ele>
        <time>2017-04-24T07:29:23.000Z</time>
      </trkpt>
      <trkpt lat="46.82836" lon="6.52642">
        <ele>1260</ele>
        <time>2017-04-24T07:29:27.000Z</time>
      </trkpt>
      <trkpt lat="46.82832" lon="6.52636">
        <ele>1259.4000244141</ele>
        <time>2017-04-24T07:29:28.000Z</time>
      </trkpt>
      <trkpt lat="46.8282" lon="6.52612">
        <ele>1258.8000488281</ele>
        <time>2017-04-24T07:29:31.000Z</time>
      </trkpt>
      <trkpt lat="46.82801" lon="6.52568">
        <ele>1257.8000488281</ele>
        <time>2017-04-24T07:29:36.000Z</time>
      </trkpt>
      <trkpt lat="46.82793" lon="6.52552">
        <ele>1257.4000244141</ele>
        <time>2017-04-24T07:29:38.000Z</time>
      </trkpt>
      <trkpt lat="46.82786" lon="6.52536">
        <ele>1257</ele>
        <time>2017-04-24T07:29:40.000Z</time>
      </trkpt>
      <trkpt lat="46.82778" lon="6.52515">
        <ele>1257</ele>
        <time>2017-04-24T07:29:43.000Z</time>
      </trkpt>
      <trkpt lat="46.8277" lon="6.52498">
        <ele>1257.5999755859</ele>
        <time>2017-04-24T07:29:46.000Z</time>
      </trkpt>
      <trkpt lat="46.82762" lon="6.52482">
        <ele>1258.5999755859</ele>
        <time>2017-04-24T07:29:49.000Z</time>
      </trkpt>
      <trkpt lat="46.82761" lon="6.52477">
        <ele>1259</ele>
        <time>2017-04-24T07:29:50.000Z</time>
      </trkpt>
      <trkpt lat="46.82759" lon="6.5247">
        <ele>1259.4000244141</ele>
        <time>2017-04-24T07:29:51.000Z</time>
      </trkpt>
      <trkpt lat="46.82755" lon="6.52457">
        <ele>1260</ele>
        <time>2017-04-24T07:29:53.000Z</time>
      </trkpt>
      <trkpt lat="46.82754" lon="6.5245">
        <ele>1260.1999511719</ele>
        <time>2017-04-24T07:29:54.000Z</time>
      </trkpt>
      <trkpt lat="46.82752" lon="6.52443">
        <ele>1260.1999511719</ele>
        <time>2017-04-24T07:29:55.000Z</time>
      </trkpt>
      <trkpt lat="46.82748" lon="6.52423">
        <ele>1261.1999511719</ele>
        <time>2017-04-24T07:29:58.000Z</time>
      </trkpt>
      <trkpt lat="46.82746" lon="6.52415">
        <ele>1261.4000244141</ele>
        <time>2017-04-24T07:29:59.000Z</time>
      </trkpt>
      <trkpt lat="46.82743" lon="6.52401">
        <ele>1261.8000488281</ele>
        <time>2017-04-24T07:30:01.000Z</time>
      </trkpt>
      <trkpt lat="46.82741" lon="6.52389">
        <ele>1262.4000244141</ele>
        <time>2017-04-24T07:30:03.000Z</time>
      </trkpt>
      <trkpt lat="46.82741" lon="6.52375">
        <ele>1263</ele>
        <time>2017-04-24T07:30:05.000Z</time>
      </trkpt>
      <trkpt lat="46.8274" lon="6.5236">
        <ele>1263.8000488281</ele>
        <time>2017-04-24T07:30:07.000Z</time>
      </trkpt>
      <trkpt lat="46.8274" lon="6.52352">
        <ele>1264</ele>
        <time>2017-04-24T07:30:08.000Z</time>
      </trkpt>
      <trkpt lat="46.82741" lon="6.5233">
        <ele>1265</ele>
        <time>2017-04-24T07:30:11.000Z</time>
      </trkpt>
      <trkpt lat="46.82744" lon="6.5231">
        <ele>1266</ele>
        <time>2017-04-24T07:30:14.000Z</time>
      </trkpt>
      <trkpt lat="46.82744" lon="6.52303">
        <ele>1266.1999511719</ele>
        <time>2017-04-24T07:30:15.000Z</time>
      </trkpt>
      <trkpt lat="46.82745" lon="6.52287">
        <ele>1266.8000488281</ele>
        <time>2017-04-24T07:30:17.000Z</time>
      </trkpt>
      <trkpt lat="46.82746" lon="6.52271">
        <ele>1267</ele>
        <time>2017-04-24T07:30:19.000Z</time>
      </trkpt>
      <trkpt lat="46.82746" lon="6.52264">
        <ele>1267.1999511719</ele>
        <time>2017-04-24T07:30:20.000Z</time>
      </trkpt>
      <trkpt lat="46.82747" lon="6.52258">
        <ele>1267.4000244141</ele>
        <time>2017-04-24T07:30:21.000Z</time>
      </trkpt>
      <trkpt lat="46.82748" lon="6.52246">
        <ele>1267.8000488281</ele>
        <time>2017-04-24T07:30:23.000Z</time>
      </trkpt>
      <trkpt lat="46.82747" lon="6.52234">
        <ele>1268.4000244141</ele>
        <time>2017-04-24T07:30:25.000Z</time>
      </trkpt>
      <trkpt lat="46.82748" lon="6.52211">
        <ele>1269.5999755859</ele>
        <time>2017-04-24T07:30:29.000Z</time>
      </trkpt>
      <trkpt lat="46.82748" lon="6.52204">
        <ele>1270.1999511719</ele>
        <time>2017-04-24T07:30:30.000Z</time>
      </trkpt>
      <trkpt lat="46.82751" lon="6.52186">
        <ele>1271</ele>
        <time>2017-04-24T07:30:33.000Z</time>
      </trkpt>
      <trkpt lat="46.82752" lon="6.52179">
        <ele>1271.1999511719</ele>
        <time>2017-04-24T07:30:34.000Z</time>
      </trkpt>
      <trkpt lat="46.82754" lon="6.52167">
        <ele>1272.1999511719</ele>
        <time>2017-04-24T07:30:36.000Z</time>
      </trkpt>
      <trkpt lat="46.8276" lon="6.52148">
        <ele>1272.8000488281</ele>
        <time>2017-04-24T07:30:39.000Z</time>
      </trkpt>
      <trkpt lat="46.82764" lon="6.52134">
        <ele>1273.1999511719</ele>
        <time>2017-04-24T07:30:41.000Z</time>
      </trkpt>
      <trkpt lat="46.82767" lon="6.52122">
        <ele>1274.4000244141</ele>
        <time>2017-04-24T07:30:43.000Z</time>
      </trkpt>
      <trkpt lat="46.82768" lon="6.52117">
        <ele>1274.8000488281</ele>
        <time>2017-04-24T07:30:44.000Z</time>
      </trkpt>
      <trkpt lat="46.8277" lon="6.52103">
        <ele>1275.4000244141</ele>
        <time>2017-04-24T07:30:46.000Z</time>
      </trkpt>
      <trkpt lat="46.82771" lon="6.52096">
        <ele>1275.4000244141</ele>
        <time>2017-04-24T07:30:47.000Z</time>
      </trkpt>
      <trkpt lat="46.82772" lon="6.52089">
        <ele>1275.5999755859</ele>
        <time>2017-04-24T07:30:48.000Z</time>
      </trkpt>
      <trkpt lat="46.82779" lon="6.52064">
        <ele>1276.8000488281</ele>
        <time>2017-04-24T07:30:52.000Z</time>
      </trkpt>
      <trkpt lat="46.82782" lon="6.5205">
        <ele>1277.5999755859</ele>
        <time>2017-04-24T07:30:54.000Z</time>
      </trkpt>
      <trkpt lat="46.82784" lon="6.52044">
        <ele>1277.8000488281</ele>
        <time>2017-04-24T07:30:55.000Z</time>
      </trkpt>
      <trkpt lat="46.82788" lon="6.52018">
        <ele>1278</ele>
        <time>2017-04-24T07:30:59.000Z</time>
      </trkpt>
      <trkpt lat="46.82787" lon="6.51992">
        <ele>1279.1999511719</ele>
        <time>2017-04-24T07:31:03.000Z</time>
      </trkpt>
      <trkpt lat="46.82788" lon="6.51985">
        <ele>1279.5999755859</ele>
        <time>2017-04-24T07:31:04.000Z</time>
      </trkpt>
      <trkpt lat="46.82791" lon="6.5197">
        <ele>1280</ele>
        <time>2017-04-24T07:31:06.000Z</time>
      </trkpt>
      <trkpt lat="46.82794" lon="6.51953">
        <ele>1280.1999511719</ele>
        <time>2017-04-24T07:31:08.000Z</time>
      </trkpt>
      <trkpt lat="46.82793" lon="6.51945">
        <ele>1280.1999511719</ele>
        <time>2017-04-24T07:31:09.000Z</time>
      </trkpt>
      <trkpt lat="46.82792" lon="6.51937">
        <ele>1280.4000244141</ele>
        <time>2017-04-24T07:31:10.000Z</time>
      </trkpt>
      <trkpt lat="46.8279" lon="6.51913">
        <ele>1281.4000244141</ele>
        <time>2017-04-24T07:31:13.000Z</time>
      </trkpt>
      <trkpt lat="46.82791" lon="6.51906">
        <ele>1282</ele>
        <time>2017-04-24T07:31:14.000Z</time>
      </trkpt>
      <trkpt lat="46.82793" lon="6.51891">
        <ele>1282.5999755859</ele>
        <time>2017-04-24T07:31:16.000Z</time>
      </trkpt>
      <trkpt lat="46.82794" lon="6.51882">
        <ele>1282.8000488281</ele>
        <time>2017-04-24T07:31:17.000Z</time>
      </trkpt>
      <trkpt lat="46.82794" lon="6.5187">
        <ele>1283.4000244141</ele>
        <time>2017-04-24T07:31:19.000Z</time>
      </trkpt>
      <trkpt lat="46.82795" lon="6.51848">
        <ele>1283.5999755859</ele>
        <time>2017-04-24T07:31:22.000Z</time>
      </trkpt>
      <trkpt lat="46.82795" lon="6.51841">
        <ele>1283.5999755859</ele>
        <time>2017-04-24T07:31:23.000Z</time>
      </trkpt>
      <trkpt lat="46.82794" lon="6.51788">
        <ele>1282.5999755859</ele>
        <time>2017-04-24T07:31:29.000Z</time>
      </trkpt>
      <trkpt lat="46.82792" lon="6.51757">
        <ele>1281.8000488281</ele>
        <time>2017-04-24T07:31:32.000Z</time>
      </trkpt>
      <trkpt lat="46.82792" lon="6.51748">
        <ele>1281.8000488281</ele>
        <time>2017-04-24T07:31:33.000Z</time>
      </trkpt>
      <trkpt lat="46.82788" lon="6.51729">
        <ele>1281</ele>
        <time>2017-04-24T07:31:35.000Z</time>
      </trkpt>
      <trkpt lat="46.82784" lon="6.51721">
        <ele>1280.4000244141</ele>
        <time>2017-04-24T07:31:36.000Z</time>
      </trkpt>
      <trkpt lat="46.82781" lon="6.51715">
        <ele>1279.8000488281</ele>
        <time>2017-04-24T07:31:37.000Z</time>
      </trkpt>
      <trkpt lat="46.82774" lon="6.51706">
        <ele>1277.8000488281</ele>
        <time>2017-04-24T07:31:39.000Z</time>
      </trkpt>
      <trkpt lat="46.82772" lon="6.51702">
        <ele>1276.5999755859</ele>
        <time>2017-04-24T07:31:40.000Z</time>
      </trkpt>
      <trkpt lat="46.82767" lon="6.51698">
        <ele>1275.4000244141</ele>
        <time>2017-04-24T07:31:41.000Z</time>
      </trkpt>
      <trkpt lat="46.82762" lon="6.51691">
        <ele>1274</ele>
        <time>2017-04-24T07:31:42.000Z</time>
      </trkpt>
      <trkpt lat="46.82758" lon="6.51683">
        <ele>1272.4000244141</ele>
        <time>2017-04-24T07:31:43.000Z</time>
      </trkpt>
      <trkpt lat="46.82753" lon="6.51675">
        <ele>1271</ele>
        <time>2017-04-24T07:31:44.000Z</time>
      </trkpt>
      <trkpt lat="46.82747" lon="6.51668">
        <ele>1269.1999511719</ele>
        <time>2017-04-24T07:31:45.000Z</time>
      </trkpt>
      <trkpt lat="46.82741" lon="6.51661">
        <ele>1267</ele>
        <time>2017-04-24T07:31:46.000Z</time>
      </trkpt>
      <trkpt lat="46.82734" lon="6.51653">
        <ele>1265.5999755859</ele>
        <time>2017-04-24T07:31:47.000Z</time>
      </trkpt>
      <trkpt lat="46.82729" lon="6.51644">
        <ele>1264</ele>
        <time>2017-04-24T07:31:48.000Z</time>
      </trkpt>
      <trkpt lat="46.82724" lon="6.51635">
        <ele>1262.5999755859</ele>
        <time>2017-04-24T07:31:49.000Z</time>
      </trkpt>
      <trkpt lat="46.82723" lon="6.51628">
        <ele>1261.1999511719</ele>
        <time>2017-04-24T07:31:50.000Z</time>
      </trkpt>
      <trkpt lat="46.82722" lon="6.51622">
        <ele>1260.1999511719</ele>
        <time>2017-04-24T07:31:51.000Z</time>
      </trkpt>
      <trkpt lat="46.82721" lon="6.51616">
        <ele>1259.1999511719</ele>
        <time>2017-04-24T07:31:52.000Z</time>
      </trkpt>
      <trkpt lat="46.82719" lon="6.5161">
        <ele>1258.8000488281</ele>
        <time>2017-04-24T07:31:53.000Z</time>
      </trkpt>
      <trkpt lat="46.82715" lon="6.51603">
        <ele>1257.8000488281</ele>
        <time>2017-04-24T07:31:54.000Z</time>
      </trkpt>
      <trkpt lat="46.82708" lon="6.51595">
        <ele>1257</ele>
        <time>2017-04-24T07:31:55.000Z</time>
      </trkpt>
      <trkpt lat="46.82703" lon="6.51588">
        <ele>1256.1999511719</ele>
        <time>2017-04-24T07:31:56.000Z</time>
      </trkpt>
      <trkpt lat="46.82698" lon="6.51581">
        <ele>1254.8000488281</ele>
        <time>2017-04-24T07:31:57.000Z</time>
      </trkpt>
      <trkpt lat="46.82694" lon="6.51574">
        <ele>1253</ele>
        <time>2017-04-24T07:31:58.000Z</time>
      </trkpt>
      <trkpt lat="46.82691" lon="6.51569">
        <ele>1251.8000488281</ele>
        <time>2017-04-24T07:31:59.000Z</time>
      </trkpt>
      <trkpt lat="46.82686" lon="6.51564">
        <ele>1250.5999755859</ele>
        <time>2017-04-24T07:32:00.000Z</time>
      </trkpt>
      <trkpt lat="46.82683" lon="6.5156">
        <ele>1249.5999755859</ele>
        <time>2017-04-24T07:32:01.000Z</time>
      </trkpt>
      <trkpt lat="46.82678" lon="6.51555">
        <ele>1248.4000244141</ele>
        <time>2017-04-24T07:32:02.000Z</time>
      </trkpt>
      <trkpt lat="46.82674" lon="6.51549">
        <ele>1247</ele>
        <time>2017-04-24T07:32:03.000Z</time>
      </trkpt>
      <trkpt lat="46.8267" lon="6.51543">
        <ele>1246</ele>
        <time>2017-04-24T07:32:04.000Z</time>
      </trkpt>
      <trkpt lat="46.82666" lon="6.51536">
        <ele>1244.8000488281</ele>
        <time>2017-04-24T07:32:05.000Z</time>
      </trkpt>
      <trkpt lat="46.82663" lon="6.51531">
        <ele>1243.5999755859</ele>
        <time>2017-04-24T07:32:06.000Z</time>
      </trkpt>
      <trkpt lat="46.8266" lon="6.51525">
        <ele>1242.4000244141</ele>
        <time>2017-04-24T07:32:07.000Z</time>
      </trkpt>
      <trkpt lat="46.82657" lon="6.51521">
        <ele>1240.8000488281</ele>
        <time>2017-04-24T07:32:08.000Z</time>
      </trkpt>
      <trkpt lat="46.82655" lon="6.51518">
        <ele>1239.5999755859</ele>
        <time>2017-04-24T07:32:09.000Z</time>
      </trkpt>
      <trkpt lat="46.82653" lon="6.51516">
        <ele>1238.5999755859</ele>
        <time>2017-04-24T07:32:10.000Z</time>
      </trkpt>
      <trkpt lat="46.82651" lon="6.51517">
        <ele>1236.5999755859</ele>
        <time>2017-04-24T07:32:11.000Z</time>
      </trkpt>
      <trkpt lat="46.82647" lon="6.51518">
        <ele>1234.8000488281</ele>
        <time>2017-04-24T07:32:12.000Z</time>
      </trkpt>
      <trkpt lat="46.82642" lon="6.51519">
        <ele>1233.5999755859</ele>
        <time>2017-04-24T07:32:13.000Z</time>
      </trkpt>
      <trkpt lat="46.82637" lon="6.51521">
        <ele>1232.4000244141</ele>
        <time>2017-04-24T07:32:14.000Z</time>
      </trkpt>
      <trkpt lat="46.82633" lon="6.51521">
        <ele>1231.5999755859</ele>
        <time>2017-04-24T07:32:15.000Z</time>
      </trkpt>
      <trkpt lat="46.82629" lon="6.51518">
        <ele>1230.1999511719</ele>
        <time>2017-04-24T07:32:16.000Z</time>
      </trkpt>
      <trkpt lat="46.82625" lon="6.51513">
        <ele>1229</ele>
        <time>2017-04-24T07:32:17.000Z</time>
      </trkpt>
      <trkpt lat="46.82614" lon="6.51499">
        <ele>1227.4000244141</ele>
        <time>2017-04-24T07:32:19.000Z</time>
      </trkpt>
      <trkpt lat="46.8261" lon="6.5149">
        <ele>1226.4000244141</ele>
        <time>2017-04-24T07:32:20.000Z</time>
      </trkpt>
      <trkpt lat="46.82605" lon="6.51481">
        <ele>1225.8000488281</ele>
        <time>2017-04-24T07:32:21.000Z</time>
      </trkpt>
      <trkpt lat="46.82599" lon="6.51474">
        <ele>1224.5999755859</ele>
        <time>2017-04-24T07:32:22.000Z</time>
      </trkpt>
      <trkpt lat="46.82594" lon="6.51467">
        <ele>1223.5999755859</ele>
        <time>2017-04-24T07:32:23.000Z</time>
      </trkpt>
      <trkpt lat="46.82589" lon="6.51461">
        <ele>1222.1999511719</ele>
        <time>2017-04-24T07:32:24.000Z</time>
      </trkpt>
      <trkpt lat="46.82581" lon="6.51452">
        <ele>1220.4000244141</ele>
        <time>2017-04-24T07:32:26.000Z</time>
      </trkpt>
      <trkpt lat="46.82579" lon="6.5145">
        <ele>1219</ele>
        <time>2017-04-24T07:32:27.000Z</time>
      </trkpt>
      <trkpt lat="46.82578" lon="6.51449">
        <ele>1217.8000488281</ele>
        <time>2017-04-24T07:32:28.000Z</time>
      </trkpt>
      <trkpt lat="46.82577" lon="6.51449">
        <ele>1216.8000488281</ele>
        <time>2017-04-24T07:32:29.000Z</time>
      </trkpt>
      <trkpt lat="46.82577" lon="6.51448">
        <ele>1216.4000244141</ele>
        <time>2017-04-24T07:32:30.000Z</time>
      </trkpt>
      <trkpt lat="46.82575" lon="6.51448">
        <ele>1215.8000488281</ele>
        <time>2017-04-24T07:32:34.000Z</time>
      </trkpt>
      <trkpt lat="46.82575" lon="6.51448">
        <ele>1215.8000488281</ele>
        <time>2017-04-24T07:32:36.000Z</time>
      </trkpt>
      <trkpt lat="46.82576" lon="6.51448">
        <ele>1215.8000488281</ele>
        <time>2017-04-24T07:32:37.000Z</time>
      </trkpt>
      <trkpt lat="46.82577" lon="6.51447">
        <ele>1216.8000488281</ele>
        <time>2017-04-24T07:32:42.000Z</time>
      </trkpt>
      <trkpt lat="46.82579" lon="6.51445">
        <ele>1217.4000244141</ele>
        <time>2017-04-24T07:32:50.000Z</time>
      </trkpt>
      <trkpt lat="46.82579" lon="6.51445">
        <ele>1217.4000244141</ele>
        <time>2017-04-24T07:32:51.000Z</time>
      </trkpt>
      <trkpt lat="46.82581" lon="6.5144">
        <ele>1217.8000488281</ele>
        <time>2017-04-24T07:32:57.000Z</time>
      </trkpt>
      <trkpt lat="46.8259" lon="6.51437">
        <ele>1218.1999511719</ele>
        <time>2017-04-24T07:33:02.000Z</time>
      </trkpt>
      <trkpt lat="46.82594" lon="6.51437">
        <ele>1218.4000244141</ele>
        <time>2017-04-24T07:33:04.000Z</time>
      </trkpt>
      <trkpt lat="46.82603" lon="6.51436">
        <ele>1218.5999755859</ele>
        <time>2017-04-24T07:33:07.000Z</time>
      </trkpt>
      <trkpt lat="46.82606" lon="6.51436">
        <ele>1218.5999755859</ele>
        <time>2017-04-24T07:33:08.000Z</time>
      </trkpt>
      <trkpt lat="46.82615" lon="6.5144">
        <ele>1218.4000244141</ele>
        <time>2017-04-24T07:33:10.000Z</time>
      </trkpt>
      <trkpt lat="46.8263" lon="6.51449">
        <ele>1218.1999511719</ele>
        <time>2017-04-24T07:33:15.000Z</time>
      </trkpt>
      <trkpt lat="46.82644" lon="6.51456">
        <ele>1219.5999755859</ele>
        <time>2017-04-24T07:33:19.000Z</time>
      </trkpt>
      <trkpt lat="46.82651" lon="6.51459">
        <ele>1220.4000244141</ele>
        <time>2017-04-24T07:33:21.000Z</time>
      </trkpt>
      <trkpt lat="46.82658" lon="6.5146">
        <ele>1221</ele>
        <time>2017-04-24T07:33:23.000Z</time>
      </trkpt>
      <trkpt lat="46.82668" lon="6.51464">
        <ele>1222.1999511719</ele>
        <time>2017-04-24T07:33:26.000Z</time>
      </trkpt>
      <trkpt lat="46.82681" lon="6.51467">
        <ele>1223.8000488281</ele>
        <time>2017-04-24T07:33:30.000Z</time>
      </trkpt>
      <trkpt lat="46.82687" lon="6.51471">
        <ele>1224.4000244141</ele>
        <time>2017-04-24T07:33:32.000Z</time>
      </trkpt>
      <trkpt lat="46.82693" lon="6.51474">
        <ele>1225</ele>
        <time>2017-04-24T07:33:34.000Z</time>
      </trkpt>
      <trkpt lat="46.82701" lon="6.51479">
        <ele>1225.8000488281</ele>
        <time>2017-04-24T07:33:37.000Z</time>
      </trkpt>
      <trkpt lat="46.82704" lon="6.5148">
        <ele>1226</ele>
        <time>2017-04-24T07:33:38.000Z</time>
      </trkpt>
      <trkpt lat="46.82712" lon="6.51485">
        <ele>1227.1999511719</ele>
        <time>2017-04-24T07:33:41.000Z</time>
      </trkpt>
      <trkpt lat="46.82715" lon="6.51487">
        <ele>1227.8000488281</ele>
        <time>2017-04-24T07:33:42.000Z</time>
      </trkpt>
      <trkpt lat="46.82718" lon="6.51488">
        <ele>1228.1999511719</ele>
        <time>2017-04-24T07:33:43.000Z</time>
      </trkpt>
      <trkpt lat="46.82728" lon="6.51491">
        <ele>1229.4000244141</ele>
        <time>2017-04-24T07:33:47.000Z</time>
      </trkpt>
      <trkpt lat="46.82737" lon="6.51496">
        <ele>1230.5999755859</ele>
        <time>2017-04-24T07:33:50.000Z</time>
      </trkpt>
      <trkpt lat="46.82747" lon="6.51499">
        <ele>1231.8000488281</ele>
        <time>2017-04-24T07:33:53.000Z</time>
      </trkpt>
      <trkpt lat="46.82763" lon="6.51506">
        <ele>1233</ele>
        <time>2017-04-24T07:33:58.000Z</time>
      </trkpt>
      <trkpt lat="46.82766" lon="6.51507">
        <ele>1233.5999755859</ele>
        <time>2017-04-24T07:33:59.000Z</time>
      </trkpt>
      <trkpt lat="46.82772" lon="6.51509">
        <ele>1234.4000244141</ele>
        <time>2017-04-24T07:34:01.000Z</time>
      </trkpt>
      <trkpt lat="46.82786" lon="6.51512">
        <ele>1235.4000244141</ele>
        <time>2017-04-24T07:34:05.000Z</time>
      </trkpt>
      <trkpt lat="46.82796" lon="6.51509">
        <ele>1236.4000244141</ele>
        <time>2017-04-24T07:34:08.000Z</time>
      </trkpt>
      <trkpt lat="46.82804" lon="6.51503">
        <ele>1236.8000488281</ele>
        <time>2017-04-24T07:34:10.000Z</time>
      </trkpt>
      <trkpt lat="46.82821" lon="6.51476">
        <ele>1236.8000488281</ele>
        <time>2017-04-24T07:34:15.000Z</time>
      </trkpt>
      <trkpt lat="46.82823" lon="6.51469">
        <ele>1236.5999755859</ele>
        <time>2017-04-24T07:34:16.000Z</time>
      </trkpt>
      <trkpt lat="46.82826" lon="6.51461">
        <ele>1236.5999755859</ele>
        <time>2017-04-24T07:34:17.000Z</time>
      </trkpt>
      <trkpt lat="46.82833" lon="6.51436">
        <ele>1235.8000488281</ele>
        <time>2017-04-24T07:34:20.000Z</time>
      </trkpt>
      <trkpt lat="46.82835" lon="6.51426">
        <ele>1235.1999511719</ele>
        <time>2017-04-24T07:34:21.000Z</time>
      </trkpt>
      <trkpt lat="46.82835" lon="6.51416">
        <ele>1233.8000488281</ele>
        <time>2017-04-24T07:34:22.000Z</time>
      </trkpt>
      <trkpt lat="46.82835" lon="6.51395">
        <ele>1233.1999511719</ele>
        <time>2017-04-24T07:34:24.000Z</time>
      </trkpt>
      <trkpt lat="46.82833" lon="6.51385">
        <ele>1233.1999511719</ele>
        <time>2017-04-24T07:34:25.000Z</time>
      </trkpt>
      <trkpt lat="46.82833" lon="6.51368">
        <ele>1233.1999511719</ele>
        <time>2017-04-24T07:34:27.000Z</time>
      </trkpt>
      <trkpt lat="46.82837" lon="6.51347">
        <ele>1233.1999511719</ele>
        <time>2017-04-24T07:34:30.000Z</time>
      </trkpt>
      <trkpt lat="46.82837" lon="6.5134">
        <ele>1233.4000244141</ele>
        <time>2017-04-24T07:34:31.000Z</time>
      </trkpt>
      <trkpt lat="46.82836" lon="6.51325">
        <ele>1234</ele>
        <time>2017-04-24T07:34:33.000Z</time>
      </trkpt>
      <trkpt lat="46.82835" lon="6.51311">
        <ele>1234.8000488281</ele>
        <time>2017-04-24T07:34:35.000Z</time>
      </trkpt>
      <trkpt lat="46.82831" lon="6.51287">
        <ele>1236</ele>
        <time>2017-04-24T07:34:38.000Z</time>
      </trkpt>
      <trkpt lat="46.82827" lon="6.51266">
        <ele>1237.1999511719</ele>
        <time>2017-04-24T07:34:41.000Z</time>
      </trkpt>
      <trkpt lat="46.82826" lon="6.5126">
        <ele>1237.5999755859</ele>
        <time>2017-04-24T07:34:42.000Z</time>
      </trkpt>
      <trkpt lat="46.82826" lon="6.51254">
        <ele>1238</ele>
        <time>2017-04-24T07:34:43.000Z</time>
      </trkpt>
      <trkpt lat="46.82825" lon="6.51247">
        <ele>1238.5999755859</ele>
        <time>2017-04-24T07:34:44.000Z</time>
      </trkpt>
      <trkpt lat="46.82824" lon="6.51234">
        <ele>1239.5999755859</ele>
        <time>2017-04-24T07:34:46.000Z</time>
      </trkpt>
      <trkpt lat="46.82823" lon="6.51227">
        <ele>1239.8000488281</ele>
        <time>2017-04-24T07:34:47.000Z</time>
      </trkpt>
      <trkpt lat="46.82823" lon="6.5122">
        <ele>1240</ele>
        <time>2017-04-24T07:34:48.000Z</time>
      </trkpt>
      <trkpt lat="46.82822" lon="6.51206">
        <ele>1240.4000244141</ele>
        <time>2017-04-24T07:34:50.000Z</time>
      </trkpt>
      <trkpt lat="46.82822" lon="6.51199">
        <ele>1240.8000488281</ele>
        <time>2017-04-24T07:34:51.000Z</time>
      </trkpt>
      <trkpt lat="46.82821" lon="6.51192">
        <ele>1241</ele>
        <time>2017-04-24T07:34:52.000Z</time>
      </trkpt>
      <trkpt lat="46.8282" lon="6.51184">
        <ele>1241.4000244141</ele>
        <time>2017-04-24T07:34:53.000Z</time>
      </trkpt>
      <trkpt lat="46.82818" lon="6.51169">
        <ele>1242.1999511719</ele>
        <time>2017-04-24T07:34:55.000Z</time>
      </trkpt>
      <trkpt lat="46.82817" lon="6.51162">
        <ele>1242.4000244141</ele>
        <time>2017-04-24T07:34:56.000Z</time>
      </trkpt>
      <trkpt lat="46.82813" lon="6.5114">
        <ele>1243.1999511719</ele>
        <time>2017-04-24T07:34:59.000Z</time>
      </trkpt>
      <trkpt lat="46.82811" lon="6.51133">
        <ele>1243.5999755859</ele>
        <time>2017-04-24T07:35:00.000Z</time>
      </trkpt>
      <trkpt lat="46.8281" lon="6.51119">
        <ele>1244</ele>
        <time>2017-04-24T07:35:02.000Z</time>
      </trkpt>
      <trkpt lat="46.82809" lon="6.51112">
        <ele>1244.4000244141</ele>
        <time>2017-04-24T07:35:03.000Z</time>
      </trkpt>
      <trkpt lat="46.82808" lon="6.51105">
        <ele>1245</ele>
        <time>2017-04-24T07:35:04.000Z</time>
      </trkpt>
      <trkpt lat="46.82808" lon="6.51097">
        <ele>1245.4000244141</ele>
        <time>2017-04-24T07:35:05.000Z</time>
      </trkpt>
      <trkpt lat="46.82808" lon="6.5109">
        <ele>1245.8000488281</ele>
        <time>2017-04-24T07:35:06.000Z</time>
      </trkpt>
      <trkpt lat="46.82809" lon="6.51077">
        <ele>1246.8000488281</ele>
        <time>2017-04-24T07:35:08.000Z</time>
      </trkpt>
      <trkpt lat="46.82809" lon="6.51069">
        <ele>1247</ele>
        <time>2017-04-24T07:35:09.000Z</time>
      </trkpt>
      <trkpt lat="46.82809" lon="6.51062">
        <ele>1247.1999511719</ele>
        <time>2017-04-24T07:35:10.000Z</time>
      </trkpt>
      <trkpt lat="46.82811" lon="6.51039">
        <ele>1247.5999755859</ele>
        <time>2017-04-24T07:35:13.000Z</time>
      </trkpt>
      <trkpt lat="46.82811" lon="6.5103">
        <ele>1247.5999755859</ele>
        <time>2017-04-24T07:35:14.000Z</time>
      </trkpt>
      <trkpt lat="46.82813" lon="6.51015">
        <ele>1248.1999511719</ele>
        <time>2017-04-24T07:35:16.000Z</time>
      </trkpt>
      <trkpt lat="46.82815" lon="6.51007">
        <ele>1248.4000244141</ele>
        <time>2017-04-24T07:35:17.000Z</time>
      </trkpt>
      <trkpt lat="46.82819" lon="6.50992">
        <ele>1248.8000488281</ele>
        <time>2017-04-24T07:35:19.000Z</time>
      </trkpt>
      <trkpt lat="46.82824" lon="6.50975">
        <ele>1249</ele>
        <time>2017-04-24T07:35:21.000Z</time>
      </trkpt>
      <trkpt lat="46.82834" lon="6.50946">
        <ele>1248.8000488281</ele>
        <time>2017-04-24T07:35:25.000Z</time>
      </trkpt>
      <trkpt lat="46.82838" lon="6.50938">
        <ele>1249</ele>
        <time>2017-04-24T07:35:26.000Z</time>
      </trkpt>
      <trkpt lat="46.82842" lon="6.50931">
        <ele>1249</ele>
        <time>2017-04-24T07:35:27.000Z</time>
      </trkpt>
      <trkpt lat="46.82856" lon="6.50901">
        <ele>1249.8000488281</ele>
        <time>2017-04-24T07:35:31.000Z</time>
      </trkpt>
      <trkpt lat="46.82863" lon="6.50887">
        <ele>1250.1999511719</ele>
        <time>2017-04-24T07:35:33.000Z</time>
      </trkpt>
      <trkpt lat="46.82871" lon="6.5087">
        <ele>1251</ele>
        <time>2017-04-24T07:35:36.000Z</time>
      </trkpt>
      <trkpt lat="46.82873" lon="6.50864">
        <ele>1251.4000244141</ele>
        <time>2017-04-24T07:35:37.000Z</time>
      </trkpt>
      <trkpt lat="46.82881" lon="6.50845">
        <ele>1252.1999511719</ele>
        <time>2017-04-24T07:35:40.000Z</time>
      </trkpt>
      <trkpt lat="46.82884" lon="6.5084">
        <ele>1252.5999755859</ele>
        <time>2017-04-24T07:35:41.000Z</time>
      </trkpt>
      <trkpt lat="46.82894" lon="6.50824">
        <ele>1253.5999755859</ele>
        <time>2017-04-24T07:35:44.000Z</time>
      </trkpt>
      <trkpt lat="46.82903" lon="6.50813">
        <ele>1253.8000488281</ele>
        <time>2017-04-24T07:35:46.000Z</time>
      </trkpt>
      <trkpt lat="46.82932" lon="6.50774">
        <ele>1254.5999755859</ele>
        <time>2017-04-24T07:35:53.000Z</time>
      </trkpt>
      <trkpt lat="46.82936" lon="6.50769">
        <ele>1254.8000488281</ele>
        <time>2017-04-24T07:35:54.000Z</time>
      </trkpt>
      <trkpt lat="46.8295" lon="6.50749">
        <ele>1255.8000488281</ele>
        <time>2017-04-24T07:35:58.000Z</time>
      </trkpt>
      <trkpt lat="46.82954" lon="6.50745">
        <ele>1256.4000244141</ele>
        <time>2017-04-24T07:35:59.000Z</time>
      </trkpt>
      <trkpt lat="46.82957" lon="6.50742">
        <ele>1257</ele>
        <time>2017-04-24T07:36:00.000Z</time>
      </trkpt>
      <trkpt lat="46.82965" lon="6.5074">
        <ele>1258</ele>
        <time>2017-04-24T07:36:02.000Z</time>
      </trkpt>
      <trkpt lat="46.82969" lon="6.50739">
        <ele>1258.4000244141</ele>
        <time>2017-04-24T07:36:03.000Z</time>
      </trkpt>
      <trkpt lat="46.82977" lon="6.50736">
        <ele>1259.1999511719</ele>
        <time>2017-04-24T07:36:05.000Z</time>
      </trkpt>
      <trkpt lat="46.82981" lon="6.50735">
        <ele>1259.4000244141</ele>
        <time>2017-04-24T07:36:06.000Z</time>
      </trkpt>
      <trkpt lat="46.82984" lon="6.50734">
        <ele>1260</ele>
        <time>2017-04-24T07:36:07.000Z</time>
      </trkpt>
      <trkpt lat="46.82996" lon="6.5073">
        <ele>1261.4000244141</ele>
        <time>2017-04-24T07:36:10.000Z</time>
      </trkpt>
      <trkpt lat="46.83008" lon="6.50726">
        <ele>1262.5999755859</ele>
        <time>2017-04-24T07:36:13.000Z</time>
      </trkpt>
      <trkpt lat="46.83016" lon="6.50723">
        <ele>1263.4000244141</ele>
        <time>2017-04-24T07:36:15.000Z</time>
      </trkpt>
      <trkpt lat="46.8302" lon="6.50722">
        <ele>1263.8000488281</ele>
        <time>2017-04-24T07:36:16.000Z</time>
      </trkpt>
      <trkpt lat="46.83036" lon="6.50719">
        <ele>1265.1999511719</ele>
        <time>2017-04-24T07:36:20.000Z</time>
      </trkpt>
      <trkpt lat="46.83049" lon="6.50715">
        <ele>1266.4000244141</ele>
        <time>2017-04-24T07:36:23.000Z</time>
      </trkpt>
      <trkpt lat="46.83053" lon="6.50713">
        <ele>1266.8000488281</ele>
        <time>2017-04-24T07:36:24.000Z</time>
      </trkpt>
      <trkpt lat="46.83071" lon="6.50708">
        <ele>1267.5999755859</ele>
        <time>2017-04-24T07:36:28.000Z</time>
      </trkpt>
      <trkpt lat="46.83083" lon="6.50704">
        <ele>1268.8000488281</ele>
        <time>2017-04-24T07:36:31.000Z</time>
      </trkpt>
      <trkpt lat="46.83087" lon="6.50704">
        <ele>1269.1999511719</ele>
        <time>2017-04-24T07:36:32.000Z</time>
      </trkpt>
      <trkpt lat="46.83095" lon="6.50702">
        <ele>1270.1999511719</ele>
        <time>2017-04-24T07:36:34.000Z</time>
      </trkpt>
      <trkpt lat="46.83105" lon="6.50699">
        <ele>1271.1999511719</ele>
        <time>2017-04-24T07:36:37.000Z</time>
      </trkpt>
      <trkpt lat="46.83112" lon="6.50698">
        <ele>1272.8000488281</ele>
        <time>2017-04-24T07:36:39.000Z</time>
      </trkpt>
      <trkpt lat="46.8312" lon="6.50696">
        <ele>1273.8000488281</ele>
        <time>2017-04-24T07:36:42.000Z</time>
      </trkpt>
      <trkpt lat="46.83124" lon="6.50695">
        <ele>1274.1999511719</ele>
        <time>2017-04-24T07:36:43.000Z</time>
      </trkpt>
      <trkpt lat="46.83131" lon="6.50695">
        <ele>1275</ele>
        <time>2017-04-24T07:36:45.000Z</time>
      </trkpt>
      <trkpt lat="46.83142" lon="6.50696">
        <ele>1276</ele>
        <time>2017-04-24T07:36:48.000Z</time>
      </trkpt>
      <trkpt lat="46.83151" lon="6.50698">
        <ele>1276.4000244141</ele>
        <time>2017-04-24T07:36:50.000Z</time>
      </trkpt>
      <trkpt lat="46.83172" lon="6.50699">
        <ele>1277</ele>
        <time>2017-04-24T07:36:54.000Z</time>
      </trkpt>
      <trkpt lat="46.83183" lon="6.50701">
        <ele>1277.1999511719</ele>
        <time>2017-04-24T07:36:56.000Z</time>
      </trkpt>
      <trkpt lat="46.83226" lon="6.50713">
        <ele>1276.4000244141</ele>
        <time>2017-04-24T07:37:03.000Z</time>
      </trkpt>
      <trkpt lat="46.8324" lon="6.50716">
        <ele>1276</ele>
        <time>2017-04-24T07:37:05.000Z</time>
      </trkpt>
      <trkpt lat="46.83267" lon="6.50722">
        <ele>1275.1999511719</ele>
        <time>2017-04-24T07:37:09.000Z</time>
      </trkpt>
      <trkpt lat="46.83274" lon="6.50724">
        <ele>1275</ele>
        <time>2017-04-24T07:37:10.000Z</time>
      </trkpt>
      <trkpt lat="46.83288" lon="6.50727">
        <ele>1274.8000488281</ele>
        <time>2017-04-24T07:37:12.000Z</time>
      </trkpt>
      <trkpt lat="46.83295" lon="6.50729">
        <ele>1274.8000488281</ele>
        <time>2017-04-24T07:37:13.000Z</time>
      </trkpt>
      <trkpt lat="46.83313" lon="6.50736">
        <ele>1274.5999755859</ele>
        <time>2017-04-24T07:37:16.000Z</time>
      </trkpt>
      <trkpt lat="46.83318" lon="6.50738">
        <ele>1274.8000488281</ele>
        <time>2017-04-24T07:37:17.000Z</time>
      </trkpt>
      <trkpt lat="46.83358" lon="6.50751">
        <ele>1275.4000244141</ele>
        <time>2017-04-24T07:37:24.000Z</time>
      </trkpt>
      <trkpt lat="46.83386" lon="6.50753">
        <ele>1275.8000488281</ele>
        <time>2017-04-24T07:37:29.000Z</time>
      </trkpt>
      <trkpt lat="46.83414" lon="6.50756">
        <ele>1275</ele>
        <time>2017-04-24T07:37:33.000Z</time>
      </trkpt>
      <trkpt lat="46.83434" lon="6.50761">
        <ele>1274</ele>
        <time>2017-04-24T07:37:36.000Z</time>
      </trkpt>
      <trkpt lat="46.83441" lon="6.50764">
        <ele>1274</ele>
        <time>2017-04-24T07:37:37.000Z</time>
      </trkpt>
      <trkpt lat="46.83475" lon="6.50782">
        <ele>1274.8000488281</ele>
        <time>2017-04-24T07:37:43.000Z</time>
      </trkpt>
      <trkpt lat="46.83487" lon="6.50788">
        <ele>1275</ele>
        <time>2017-04-24T07:37:45.000Z</time>
      </trkpt>
      <trkpt lat="46.83521" lon="6.50803">
        <ele>1274.4000244141</ele>
        <time>2017-04-24T07:37:51.000Z</time>
      </trkpt>
      <trkpt lat="46.83533" lon="6.50807">
        <ele>1274.4000244141</ele>
        <time>2017-04-24T07:37:53.000Z</time>
      </trkpt>
      <trkpt lat="46.83544" lon="6.50813">
        <ele>1274.5999755859</ele>
        <time>2017-04-24T07:37:55.000Z</time>
      </trkpt>
      <trkpt lat="46.8355" lon="6.50815">
        <ele>1274.8000488281</ele>
        <time>2017-04-24T07:37:56.000Z</time>
      </trkpt>
      <trkpt lat="46.83588" lon="6.50819">
        <ele>1274.8000488281</ele>
        <time>2017-04-24T07:38:02.000Z</time>
      </trkpt>
      <trkpt lat="46.83629" lon="6.50824">
        <ele>1274.4000244141</ele>
        <time>2017-04-24T07:38:09.000Z</time>
      </trkpt>
      <trkpt lat="46.83665" lon="6.50831">
        <ele>1275</ele>
        <time>2017-04-24T07:38:15.000Z</time>
      </trkpt>
      <trkpt lat="46.83695" lon="6.50839">
        <ele>1275</ele>
        <time>2017-04-24T07:38:20.000Z</time>
      </trkpt>
      <trkpt lat="46.83701" lon="6.50839">
        <ele>1275</ele>
        <time>2017-04-24T07:38:21.000Z</time>
      </trkpt>
      <trkpt lat="46.83723" lon="6.50841">
        <ele>1276.1999511719</ele>
        <time>2017-04-24T07:38:25.000Z</time>
      </trkpt>
      <trkpt lat="46.83734" lon="6.5084">
        <ele>1276.8000488281</ele>
        <time>2017-04-24T07:38:27.000Z</time>
      </trkpt>
      <trkpt lat="46.83745" lon="6.50839">
        <ele>1277.1999511719</ele>
        <time>2017-04-24T07:38:29.000Z</time>
      </trkpt>
      <trkpt lat="46.83768" lon="6.50841">
        <ele>1278</ele>
        <time>2017-04-24T07:38:33.000Z</time>
      </trkpt>
      <trkpt lat="46.83803" lon="6.5084">
        <ele>1278</ele>
        <time>2017-04-24T07:38:39.000Z</time>
      </trkpt>
      <trkpt lat="46.83814" lon="6.50842">
        <ele>1278.1999511719</ele>
        <time>2017-04-24T07:38:41.000Z</time>
      </trkpt>
      <trkpt lat="46.8382" lon="6.50843">
        <ele>1278.4000244141</ele>
        <time>2017-04-24T07:38:42.000Z</time>
      </trkpt>
      <trkpt lat="46.83829" lon="6.5085">
        <ele>1279</ele>
        <time>2017-04-24T07:38:44.000Z</time>
      </trkpt>
      <trkpt lat="46.83833" lon="6.50854">
        <ele>1279.4000244141</ele>
        <time>2017-04-24T07:38:45.000Z</time>
      </trkpt>
      <trkpt lat="46.83837" lon="6.50857">
        <ele>1280</ele>
        <time>2017-04-24T07:38:46.000Z</time>
      </trkpt>
      <trkpt lat="46.83848" lon="6.50866">
        <ele>1281.4000244141</ele>
        <time>2017-04-24T07:38:49.000Z</time>
      </trkpt>
      <trkpt lat="46.83852" lon="6.50868">
        <ele>1281.8000488281</ele>
        <time>2017-04-24T07:38:50.000Z</time>
      </trkpt>
      <trkpt lat="46.83859" lon="6.50872">
        <ele>1282.8000488281</ele>
        <time>2017-04-24T07:38:52.000Z</time>
      </trkpt>
      <trkpt lat="46.83871" lon="6.50875">
        <ele>1284.1999511719</ele>
        <time>2017-04-24T07:38:55.000Z</time>
      </trkpt>
      <trkpt lat="46.83879" lon="6.50878">
        <ele>1285.1999511719</ele>
        <time>2017-04-24T07:38:57.000Z</time>
      </trkpt>
      <trkpt lat="46.83882" lon="6.50879">
        <ele>1285.5999755859</ele>
        <time>2017-04-24T07:38:58.000Z</time>
      </trkpt>
      <trkpt lat="46.83894" lon="6.50882">
        <ele>1287</ele>
        <time>2017-04-24T07:39:01.000Z</time>
      </trkpt>
      <trkpt lat="46.83909" lon="6.50889">
        <ele>1288</ele>
        <time>2017-04-24T07:39:05.000Z</time>
      </trkpt>
      <trkpt lat="46.83913" lon="6.50891">
        <ele>1288.1999511719</ele>
        <time>2017-04-24T07:39:06.000Z</time>
      </trkpt>
      <trkpt lat="46.83925" lon="6.50897">
        <ele>1289.1999511719</ele>
        <time>2017-04-24T07:39:09.000Z</time>
      </trkpt>
      <trkpt lat="46.83933" lon="6.50901">
        <ele>1289.5999755859</ele>
        <time>2017-04-24T07:39:11.000Z</time>
      </trkpt>
      <trkpt lat="46.83937" lon="6.50902">
        <ele>1289.8000488281</ele>
        <time>2017-04-24T07:39:12.000Z</time>
      </trkpt>
      <trkpt lat="46.83949" lon="6.50904">
        <ele>1290.1999511719</ele>
        <time>2017-04-24T07:39:15.000Z</time>
      </trkpt>
      <trkpt lat="46.83953" lon="6.50905">
        <ele>1290.4000244141</ele>
        <time>2017-04-24T07:39:16.000Z</time>
      </trkpt>
      <trkpt lat="46.83964" lon="6.50904">
        <ele>1291.4000244141</ele>
        <time>2017-04-24T07:39:19.000Z</time>
      </trkpt>
      <trkpt lat="46.8398" lon="6.50902">
        <ele>1292.1999511719</ele>
        <time>2017-04-24T07:39:23.000Z</time>
      </trkpt>
      <trkpt lat="46.83993" lon="6.50899">
        <ele>1292.5999755859</ele>
        <time>2017-04-24T07:39:26.000Z</time>
      </trkpt>
      <trkpt lat="46.84021" lon="6.50892">
        <ele>1292.8000488281</ele>
        <time>2017-04-24T07:39:32.000Z</time>
      </trkpt>
      <trkpt lat="46.84025" lon="6.50892">
        <ele>1292.5999755859</ele>
        <time>2017-04-24T07:39:33.000Z</time>
      </trkpt>
      <trkpt lat="46.84045" lon="6.50898">
        <ele>1292.5999755859</ele>
        <time>2017-04-24T07:39:37.000Z</time>
      </trkpt>
      <trkpt lat="46.84079" lon="6.50911">
        <ele>1292.8000488281</ele>
        <time>2017-04-24T07:39:44.000Z</time>
      </trkpt>
      <trkpt lat="46.84092" lon="6.50917">
        <ele>1293.8000488281</ele>
        <time>2017-04-24T07:39:47.000Z</time>
      </trkpt>
      <trkpt lat="46.8411" lon="6.50925">
        <ele>1294.5999755859</ele>
        <time>2017-04-24T07:39:51.000Z</time>
      </trkpt>
      <trkpt lat="46.84114" lon="6.50927">
        <ele>1294.8000488281</ele>
        <time>2017-04-24T07:39:52.000Z</time>
      </trkpt>
      <trkpt lat="46.84118" lon="6.50931">
        <ele>1295</ele>
        <time>2017-04-24T07:39:53.000Z</time>
      </trkpt>
      <trkpt lat="46.84126" lon="6.50939">
        <ele>1295.4000244141</ele>
        <time>2017-04-24T07:39:55.000Z</time>
      </trkpt>
      <trkpt lat="46.84132" lon="6.50947">
        <ele>1296</ele>
        <time>2017-04-24T07:39:57.000Z</time>
      </trkpt>
      <trkpt lat="46.84139" lon="6.50955">
        <ele>1297.4000244141</ele>
        <time>2017-04-24T07:40:00.000Z</time>
      </trkpt>
      <trkpt lat="46.84146" lon="6.50965">
        <ele>1298.5999755859</ele>
        <time>2017-04-24T07:40:04.000Z</time>
      </trkpt>
      <trkpt lat="46.84148" lon="6.50969">
        <ele>1299</ele>
        <time>2017-04-24T07:40:05.000Z</time>
      </trkpt>
      <trkpt lat="46.84152" lon="6.50976">
        <ele>1299.5999755859</ele>
        <time>2017-04-24T07:40:07.000Z</time>
      </trkpt>
      <trkpt lat="46.8416" lon="6.50986">
        <ele>1299.8000488281</ele>
        <time>2017-04-24T07:40:10.000Z</time>
      </trkpt>
      <trkpt lat="46.8417" lon="6.51002">
        <ele>1300.1999511719</ele>
        <time>2017-04-24T07:40:14.000Z</time>
      </trkpt>
      <trkpt lat="46.84174" lon="6.51007">
        <ele>1300.4000244141</ele>
        <time>2017-04-24T07:40:15.000Z</time>
      </trkpt>
      <trkpt lat="46.8418" lon="6.51019">
        <ele>1300.8000488281</ele>
        <time>2017-04-24T07:40:18.000Z</time>
      </trkpt>
      <trkpt lat="46.84182" lon="6.51023">
        <ele>1301.4000244141</ele>
        <time>2017-04-24T07:40:19.000Z</time>
      </trkpt>
      <trkpt lat="46.84186" lon="6.51029">
        <ele>1302</ele>
        <time>2017-04-24T07:40:21.000Z</time>
      </trkpt>
      <trkpt lat="46.84189" lon="6.51035">
        <ele>1303.1999511719</ele>
        <time>2017-04-24T07:40:23.000Z</time>
      </trkpt>
      <trkpt lat="46.84192" lon="6.5104">
        <ele>1304.1999511719</ele>
        <time>2017-04-24T07:40:25.000Z</time>
      </trkpt>
      <trkpt lat="46.84194" lon="6.51043">
        <ele>1304.4000244141</ele>
        <time>2017-04-24T07:40:26.000Z</time>
      </trkpt>
      <trkpt lat="46.842" lon="6.51051">
        <ele>1305.5999755859</ele>
        <time>2017-04-24T07:40:29.000Z</time>
      </trkpt>
      <trkpt lat="46.84205" lon="6.51058">
        <ele>1305.8000488281</ele>
        <time>2017-04-24T07:40:31.000Z</time>
      </trkpt>
      <trkpt lat="46.84217" lon="6.51078">
        <ele>1304.5999755859</ele>
        <time>2017-04-24T07:40:35.000Z</time>
      </trkpt>
      <trkpt lat="46.84219" lon="6.51083">
        <ele>1304</ele>
        <time>2017-04-24T07:40:36.000Z</time>
      </trkpt>
      <trkpt lat="46.84219" lon="6.51093">
        <ele>1303</ele>
        <time>2017-04-24T07:40:38.000Z</time>
      </trkpt>
      <trkpt lat="46.84219" lon="6.51098">
        <ele>1302.1999511719</ele>
        <time>2017-04-24T07:40:39.000Z</time>
      </trkpt>
      <trkpt lat="46.8422" lon="6.51103">
        <ele>1301.1999511719</ele>
        <time>2017-04-24T07:40:40.000Z</time>
      </trkpt>
      <trkpt lat="46.84219" lon="6.51107">
        <ele>1300.1999511719</ele>
        <time>2017-04-24T07:40:41.000Z</time>
      </trkpt>
      <trkpt lat="46.84219" lon="6.51109">
        <ele>1299</ele>
        <time>2017-04-24T07:40:42.000Z</time>
      </trkpt>
      <trkpt lat="46.84216" lon="6.51116">
        <ele>1297.1999511719</ele>
        <time>2017-04-24T07:40:44.000Z</time>
      </trkpt>
      <trkpt lat="46.84212" lon="6.51119">
        <ele>1296.5999755859</ele>
        <time>2017-04-24T07:40:45.000Z</time>
      </trkpt>
      <trkpt lat="46.84208" lon="6.51122">
        <ele>1295.1999511719</ele>
        <time>2017-04-24T07:40:46.000Z</time>
      </trkpt>
      <trkpt lat="46.84204" lon="6.51125">
        <ele>1294.1999511719</ele>
        <time>2017-04-24T07:40:47.000Z</time>
      </trkpt>
      <trkpt lat="46.84195" lon="6.51134">
        <ele>1291.8000488281</ele>
        <time>2017-04-24T07:40:49.000Z</time>
      </trkpt>
      <trkpt lat="46.8419" lon="6.51138">
        <ele>1290.5999755859</ele>
        <time>2017-04-24T07:40:50.000Z</time>
      </trkpt>
      <trkpt lat="46.84187" lon="6.51145">
        <ele>1289.4000244141</ele>
        <time>2017-04-24T07:40:51.000Z</time>
      </trkpt>
      <trkpt lat="46.84184" lon="6.51151">
        <ele>1288.4000244141</ele>
        <time>2017-04-24T07:40:52.000Z</time>
      </trkpt>
      <trkpt lat="46.84181" lon="6.51157">
        <ele>1287.1999511719</ele>
        <time>2017-04-24T07:40:53.000Z</time>
      </trkpt>
      <trkpt lat="46.84178" lon="6.51164">
        <ele>1286.4000244141</ele>
        <time>2017-04-24T07:40:54.000Z</time>
      </trkpt>
      <trkpt lat="46.84175" lon="6.51169">
        <ele>1284.5999755859</ele>
        <time>2017-04-24T07:40:55.000Z</time>
      </trkpt>
      <trkpt lat="46.84173" lon="6.51174">
        <ele>1283</ele>
        <time>2017-04-24T07:40:56.000Z</time>
      </trkpt>
      <trkpt lat="46.84171" lon="6.51181">
        <ele>1282</ele>
        <time>2017-04-24T07:40:57.000Z</time>
      </trkpt>
      <trkpt lat="46.8417" lon="6.51187">
        <ele>1281.1999511719</ele>
        <time>2017-04-24T07:40:58.000Z</time>
      </trkpt>
      <trkpt lat="46.84169" lon="6.51195">
        <ele>1280.1999511719</ele>
        <time>2017-04-24T07:40:59.000Z</time>
      </trkpt>
      <trkpt lat="46.8417" lon="6.51204">
        <ele>1279.1999511719</ele>
        <time>2017-04-24T07:41:00.000Z</time>
      </trkpt>
      <trkpt lat="46.8417" lon="6.51213">
        <ele>1278.1999511719</ele>
        <time>2017-04-24T07:41:01.000Z</time>
      </trkpt>
      <trkpt lat="46.84169" lon="6.51221">
        <ele>1277.4000244141</ele>
        <time>2017-04-24T07:41:02.000Z</time>
      </trkpt>
      <trkpt lat="46.84169" lon="6.51229">
        <ele>1275.8000488281</ele>
        <time>2017-04-24T07:41:03.000Z</time>
      </trkpt>
      <trkpt lat="46.84169" lon="6.51238">
        <ele>1274.4000244141</ele>
        <time>2017-04-24T07:41:04.000Z</time>
      </trkpt>
      <trkpt lat="46.84169" lon="6.51246">
        <ele>1273.4000244141</ele>
        <time>2017-04-24T07:41:05.000Z</time>
      </trkpt>
      <trkpt lat="46.8417" lon="6.51254">
        <ele>1272.5999755859</ele>
        <time>2017-04-24T07:41:06.000Z</time>
      </trkpt>
      <trkpt lat="46.84171" lon="6.51264">
        <ele>1271.8000488281</ele>
        <time>2017-04-24T07:41:07.000Z</time>
      </trkpt>
      <trkpt lat="46.84174" lon="6.5128">
        <ele>1270</ele>
        <time>2017-04-24T07:41:09.000Z</time>
      </trkpt>
      <trkpt lat="46.84175" lon="6.513">
        <ele>1268.5999755859</ele>
        <time>2017-04-24T07:41:11.000Z</time>
      </trkpt>
      <trkpt lat="46.84174" lon="6.51315">
        <ele>1266.8000488281</ele>
        <time>2017-04-24T07:41:13.000Z</time>
      </trkpt>
      <trkpt lat="46.84175" lon="6.51323">
        <ele>1266</ele>
        <time>2017-04-24T07:41:14.000Z</time>
      </trkpt>
      <trkpt lat="46.84176" lon="6.51335">
        <ele>1264.8000488281</ele>
        <time>2017-04-24T07:41:15.000Z</time>
      </trkpt>
      <trkpt lat="46.84176" lon="6.51344">
        <ele>1263.8000488281</ele>
        <time>2017-04-24T07:41:16.000Z</time>
      </trkpt>
      <trkpt lat="46.84177" lon="6.51354">
        <ele>1262.4000244141</ele>
        <time>2017-04-24T07:41:17.000Z</time>
      </trkpt>
      <trkpt lat="46.84177" lon="6.51364">
        <ele>1261.1999511719</ele>
        <time>2017-04-24T07:41:18.000Z</time>
      </trkpt>
      <trkpt lat="46.84177" lon="6.51374">
        <ele>1260.1999511719</ele>
        <time>2017-04-24T07:41:19.000Z</time>
      </trkpt>
      <trkpt lat="46.84179" lon="6.51384">
        <ele>1259.5999755859</ele>
        <time>2017-04-24T07:41:20.000Z</time>
      </trkpt>
      <trkpt lat="46.8418" lon="6.51395">
        <ele>1258.1999511719</ele>
        <time>2017-04-24T07:41:21.000Z</time>
      </trkpt>
      <trkpt lat="46.84178" lon="6.51402">
        <ele>1257.1999511719</ele>
        <time>2017-04-24T07:41:22.000Z</time>
      </trkpt>
      <trkpt lat="46.84177" lon="6.51412">
        <ele>1255.8000488281</ele>
        <time>2017-04-24T07:41:23.000Z</time>
      </trkpt>
      <trkpt lat="46.84175" lon="6.51422">
        <ele>1254.5999755859</ele>
        <time>2017-04-24T07:41:24.000Z</time>
      </trkpt>
      <trkpt lat="46.84173" lon="6.51434">
        <ele>1253.5999755859</ele>
        <time>2017-04-24T07:41:25.000Z</time>
      </trkpt>
      <trkpt lat="46.84171" lon="6.51447">
        <ele>1253</ele>
        <time>2017-04-24T07:41:26.000Z</time>
      </trkpt>
      <trkpt lat="46.8417" lon="6.51462">
        <ele>1252.5999755859</ele>
        <time>2017-04-24T07:41:27.000Z</time>
      </trkpt>
      <trkpt lat="46.84169" lon="6.51476">
        <ele>1251.4000244141</ele>
        <time>2017-04-24T07:41:28.000Z</time>
      </trkpt>
      <trkpt lat="46.84167" lon="6.5149">
        <ele>1250.4000244141</ele>
        <time>2017-04-24T07:41:29.000Z</time>
      </trkpt>
      <trkpt lat="46.84164" lon="6.51502">
        <ele>1249.4000244141</ele>
        <time>2017-04-24T07:41:30.000Z</time>
      </trkpt>
      <trkpt lat="46.84161" lon="6.51514">
        <ele>1248.1999511719</ele>
        <time>2017-04-24T07:41:31.000Z</time>
      </trkpt>
      <trkpt lat="46.84157" lon="6.51523">
        <ele>1247</ele>
        <time>2017-04-24T07:41:32.000Z</time>
      </trkpt>
      <trkpt lat="46.84154" lon="6.51528">
        <ele>1244.5999755859</ele>
        <time>2017-04-24T07:41:33.000Z</time>
      </trkpt>
      <trkpt lat="46.84152" lon="6.51535">
        <ele>1243</ele>
        <time>2017-04-24T07:41:34.000Z</time>
      </trkpt>
      <trkpt lat="46.8415" lon="6.51542">
        <ele>1241.8000488281</ele>
        <time>2017-04-24T07:41:35.000Z</time>
      </trkpt>
      <trkpt lat="46.84146" lon="6.51568">
        <ele>1240.8000488281</ele>
        <time>2017-04-24T07:41:38.000Z</time>
      </trkpt>
      <trkpt lat="46.84148" lon="6.51576">
        <ele>1240.8000488281</ele>
        <time>2017-04-24T07:41:39.000Z</time>
      </trkpt>
      <trkpt lat="46.8415" lon="6.51583">
        <ele>1240.8000488281</ele>
        <time>2017-04-24T07:41:40.000Z</time>
      </trkpt>
      <trkpt lat="46.84153" lon="6.51612">
        <ele>1242.5999755859</ele>
        <time>2017-04-24T07:41:45.000Z</time>
      </trkpt>
      <trkpt lat="46.84153" lon="6.51618">
        <ele>1242.8000488281</ele>
        <time>2017-04-24T07:41:46.000Z</time>
      </trkpt>
      <trkpt lat="46.84156" lon="6.51634">
        <ele>1244.1999511719</ele>
        <time>2017-04-24T07:41:49.000Z</time>
      </trkpt>
      <trkpt lat="46.84158" lon="6.51638">
        <ele>1244.8000488281</ele>
        <time>2017-04-24T07:41:50.000Z</time>
      </trkpt>
      <trkpt lat="46.84159" lon="6.51642">
        <ele>1245.4000244141</ele>
        <time>2017-04-24T07:41:51.000Z</time>
      </trkpt>
      <trkpt lat="46.84161" lon="6.51651">
        <ele>1246.8000488281</ele>
        <time>2017-04-24T07:41:53.000Z</time>
      </trkpt>
      <trkpt lat="46.84163" lon="6.51656">
        <ele>1248.1999511719</ele>
        <time>2017-04-24T07:41:55.000Z</time>
      </trkpt>
      <trkpt lat="46.84164" lon="6.51658">
        <ele>1248.5999755859</ele>
        <time>2017-04-24T07:41:56.000Z</time>
      </trkpt>
      <trkpt lat="46.84166" lon="6.51668">
        <ele>1250.1999511719</ele>
        <time>2017-04-24T07:41:59.000Z</time>
      </trkpt>
      <trkpt lat="46.84165" lon="6.51671">
        <ele>1250.8000488281</ele>
        <time>2017-04-24T07:42:00.000Z</time>
      </trkpt>
      <trkpt lat="46.84163" lon="6.51674">
        <ele>1251</ele>
        <time>2017-04-24T07:42:01.000Z</time>
      </trkpt>
      <trkpt lat="46.84161" lon="6.51676">
        <ele>1251.4000244141</ele>
        <time>2017-04-24T07:42:02.000Z</time>
      </trkpt>
      <trkpt lat="46.84152" lon="6.51682">
        <ele>1252.1999511719</ele>
        <time>2017-04-24T07:42:06.000Z</time>
      </trkpt>
      <trkpt lat="46.8415" lon="6.51684">
        <ele>1252.8000488281</ele>
        <time>2017-04-24T07:42:07.000Z</time>
      </trkpt>
      <trkpt lat="46.84146" lon="6.51687">
        <ele>1253.8000488281</ele>
        <time>2017-04-24T07:42:09.000Z</time>
      </trkpt>
      <trkpt lat="46.84141" lon="6.51692">
        <ele>1254.4000244141</ele>
        <time>2017-04-24T07:42:11.000Z</time>
      </trkpt>
      <trkpt lat="46.84138" lon="6.51697">
        <ele>1255</ele>
        <time>2017-04-24T07:42:13.000Z</time>
      </trkpt>
      <trkpt lat="46.84133" lon="6.51704">
        <ele>1256</ele>
        <time>2017-04-24T07:42:16.000Z</time>
      </trkpt>
      <trkpt lat="46.84125" lon="6.51709">
        <ele>1257</ele>
        <time>2017-04-24T07:42:19.000Z</time>
      </trkpt>
      <trkpt lat="46.84117" lon="6.51712">
        <ele>1257.5999755859</ele>
        <time>2017-04-24T07:42:22.000Z</time>
      </trkpt>
      <trkpt lat="46.84112" lon="6.51713">
        <ele>1258.1999511719</ele>
        <time>2017-04-24T07:42:24.000Z</time>
      </trkpt>
      <trkpt lat="46.84102" lon="6.51716">
        <ele>1259.1999511719</ele>
        <time>2017-04-24T07:42:28.000Z</time>
      </trkpt>
      <trkpt lat="46.84093" lon="6.51718">
        <ele>1259.4000244141</ele>
        <time>2017-04-24T07:42:31.000Z</time>
      </trkpt>
      <trkpt lat="46.84088" lon="6.51718">
        <ele>1259.8000488281</ele>
        <time>2017-04-24T07:42:33.000Z</time>
      </trkpt>
      <trkpt lat="46.84077" lon="6.51721">
        <ele>1260.4000244141</ele>
        <time>2017-04-24T07:42:37.000Z</time>
      </trkpt>
      <trkpt lat="46.84074" lon="6.51721">
        <ele>1260.5999755859</ele>
        <time>2017-04-24T07:42:38.000Z</time>
      </trkpt>
      <trkpt lat="46.84065" lon="6.51723">
        <ele>1261.5999755859</ele>
        <time>2017-04-24T07:42:41.000Z</time>
      </trkpt>
      <trkpt lat="46.84057" lon="6.51726">
        <ele>1262.1999511719</ele>
        <time>2017-04-24T07:42:44.000Z</time>
      </trkpt>
      <trkpt lat="46.84051" lon="6.51729">
        <ele>1262.8000488281</ele>
        <time>2017-04-24T07:42:46.000Z</time>
      </trkpt>
      <trkpt lat="46.84041" lon="6.51733">
        <ele>1263.8000488281</ele>
        <time>2017-04-24T07:42:49.000Z</time>
      </trkpt>
      <trkpt lat="46.84038" lon="6.51734">
        <ele>1264.1999511719</ele>
        <time>2017-04-24T07:42:50.000Z</time>
      </trkpt>
      <trkpt lat="46.84032" lon="6.51735">
        <ele>1264.8000488281</ele>
        <time>2017-04-24T07:42:52.000Z</time>
      </trkpt>
      <trkpt lat="46.84023" lon="6.51736">
        <ele>1265.8000488281</ele>
        <time>2017-04-24T07:42:55.000Z</time>
      </trkpt>
      <trkpt lat="46.8402" lon="6.51737">
        <ele>1266.4000244141</ele>
        <time>2017-04-24T07:42:56.000Z</time>
      </trkpt>
      <trkpt lat="46.84009" lon="6.51739">
        <ele>1267.5999755859</ele>
        <time>2017-04-24T07:43:00.000Z</time>
      </trkpt>
      <trkpt lat="46.84006" lon="6.51739">
        <ele>1268</ele>
        <time>2017-04-24T07:43:01.000Z</time>
      </trkpt>
      <trkpt lat="46.83996" lon="6.5174">
        <ele>1268.8000488281</ele>
        <time>2017-04-24T07:43:04.000Z</time>
      </trkpt>
      <trkpt lat="46.83991" lon="6.51742">
        <ele>1269.1999511719</ele>
        <time>2017-04-24T07:43:06.000Z</time>
      </trkpt>
      <trkpt lat="46.83985" lon="6.51743">
        <ele>1270</ele>
        <time>2017-04-24T07:43:08.000Z</time>
      </trkpt>
      <trkpt lat="46.8398" lon="6.51744">
        <ele>1270.5999755859</ele>
        <time>2017-04-24T07:43:10.000Z</time>
      </trkpt>
      <trkpt lat="46.83977" lon="6.51745">
        <ele>1270.8000488281</ele>
        <time>2017-04-24T07:43:11.000Z</time>
      </trkpt>
      <trkpt lat="46.83971" lon="6.51746">
        <ele>1271.1999511719</ele>
        <time>2017-04-24T07:43:13.000Z</time>
      </trkpt>
      <trkpt lat="46.83963" lon="6.51745">
        <ele>1272.1999511719</ele>
        <time>2017-04-24T07:43:16.000Z</time>
      </trkpt>
      <trkpt lat="46.83951" lon="6.51742">
        <ele>1273.4000244141</ele>
        <time>2017-04-24T07:43:20.000Z</time>
      </trkpt>
      <trkpt lat="46.83948" lon="6.51741">
        <ele>1273.5999755859</ele>
        <time>2017-04-24T07:43:21.000Z</time>
      </trkpt>
      <trkpt lat="46.83939" lon="6.51738">
        <ele>1274.8000488281</ele>
        <time>2017-04-24T07:43:24.000Z</time>
      </trkpt>
      <trkpt lat="46.83933" lon="6.51737">
        <ele>1275.1999511719</ele>
        <time>2017-04-24T07:43:26.000Z</time>
      </trkpt>
      <trkpt lat="46.83927" lon="6.51736">
        <ele>1276.4000244141</ele>
        <time>2017-04-24T07:43:28.000Z</time>
      </trkpt>
      <trkpt lat="46.83919" lon="6.51735">
        <ele>1277.8000488281</ele>
        <time>2017-04-24T07:43:31.000Z</time>
      </trkpt>
      <trkpt lat="46.8391" lon="6.51733">
        <ele>1279</ele>
        <time>2017-04-24T07:43:35.000Z</time>
      </trkpt>
      <trkpt lat="46.83907" lon="6.51732">
        <ele>1279.4000244141</ele>
        <time>2017-04-24T07:43:36.000Z</time>
      </trkpt>
      <trkpt lat="46.83902" lon="6.51731">
        <ele>1280.1999511719</ele>
        <time>2017-04-24T07:43:38.000Z</time>
      </trkpt>
      <trkpt lat="46.8389" lon="6.5173">
        <ele>1281.1999511719</ele>
        <time>2017-04-24T07:43:42.000Z</time>
      </trkpt>
      <trkpt lat="46.83876" lon="6.51724">
        <ele>1282.8000488281</ele>
        <time>2017-04-24T07:43:47.000Z</time>
      </trkpt>
      <trkpt lat="46.83873" lon="6.51723">
        <ele>1283.1999511719</ele>
        <time>2017-04-24T07:43:48.000Z</time>
      </trkpt>
      <trkpt lat="46.83869" lon="6.51722">
        <ele>1283.8000488281</ele>
        <time>2017-04-24T07:43:50.000Z</time>
      </trkpt>
      <trkpt lat="46.83867" lon="6.51726">
        <ele>1284.5999755859</ele>
        <time>2017-04-24T07:43:52.000Z</time>
      </trkpt>
      <trkpt lat="46.83869" lon="6.51729">
        <ele>1285</ele>
        <time>2017-04-24T07:43:53.000Z</time>
      </trkpt>
      <trkpt lat="46.83874" lon="6.51736">
        <ele>1285.4000244141</ele>
        <time>2017-04-24T07:43:55.000Z</time>
      </trkpt>
      <trkpt lat="46.83877" lon="6.51739">
        <ele>1285.4000244141</ele>
        <time>2017-04-24T07:43:56.000Z</time>
      </trkpt>
      <trkpt lat="46.83883" lon="6.51745">
        <ele>1286</ele>
        <time>2017-04-24T07:43:58.000Z</time>
      </trkpt>
      <trkpt lat="46.83907" lon="6.5177">
        <ele>1286.8000488281</ele>
        <time>2017-04-24T07:44:05.000Z</time>
      </trkpt>
      <trkpt lat="46.83918" lon="6.51781">
        <ele>1287.1999511719</ele>
        <time>2017-04-24T07:44:08.000Z</time>
      </trkpt>
      <trkpt lat="46.83934" lon="6.51796">
        <ele>1287.5999755859</ele>
        <time>2017-04-24T07:44:12.000Z</time>
      </trkpt>
      <trkpt lat="46.83948" lon="6.51809">
        <ele>1288.5999755859</ele>
        <time>2017-04-24T07:44:16.000Z</time>
      </trkpt>
      <trkpt lat="46.83957" lon="6.51819">
        <ele>1289.4000244141</ele>
        <time>2017-04-24T07:44:19.000Z</time>
      </trkpt>
      <trkpt lat="46.8396" lon="6.51821">
        <ele>1289.5999755859</ele>
        <time>2017-04-24T07:44:20.000Z</time>
      </trkpt>
      <trkpt lat="46.8397" lon="6.5183">
        <ele>1290.8000488281</ele>
        <time>2017-04-24T07:44:23.000Z</time>
      </trkpt>
      <trkpt lat="46.8398" lon="6.51838">
        <ele>1291.8000488281</ele>
        <time>2017-04-24T07:44:26.000Z</time>
      </trkpt>
      <trkpt lat="46.83987" lon="6.51842">
        <ele>1292.5999755859</ele>
        <time>2017-04-24T07:44:28.000Z</time>
      </trkpt>
      <trkpt lat="46.8399" lon="6.51844">
        <ele>1293</ele>
        <time>2017-04-24T07:44:29.000Z</time>
      </trkpt>
      <trkpt lat="46.84005" lon="6.51851">
        <ele>1294.1999511719</ele>
        <time>2017-04-24T07:44:33.000Z</time>
      </trkpt>
      <trkpt lat="46.84015" lon="6.51858">
        <ele>1295</ele>
        <time>2017-04-24T07:44:36.000Z</time>
      </trkpt>
      <trkpt lat="46.84018" lon="6.5186">
        <ele>1295.4000244141</ele>
        <time>2017-04-24T07:44:37.000Z</time>
      </trkpt>
      <trkpt lat="46.84028" lon="6.51868">
        <ele>1296.4000244141</ele>
        <time>2017-04-24T07:44:40.000Z</time>
      </trkpt>
      <trkpt lat="46.84038" lon="6.51874">
        <ele>1297.1999511719</ele>
        <time>2017-04-24T07:44:43.000Z</time>
      </trkpt>
      <trkpt lat="46.84042" lon="6.51876">
        <ele>1297.5999755859</ele>
        <time>2017-04-24T07:44:44.000Z</time>
      </trkpt>
      <trkpt lat="46.84052" lon="6.51876">
        <ele>1298.5999755859</ele>
        <time>2017-04-24T07:44:47.000Z</time>
      </trkpt>
      <trkpt lat="46.84055" lon="6.51875">
        <ele>1299</ele>
        <time>2017-04-24T07:44:48.000Z</time>
      </trkpt>
      <trkpt lat="46.84061" lon="6.51874">
        <ele>1299.5999755859</ele>
        <time>2017-04-24T07:44:50.000Z</time>
      </trkpt>
      <trkpt lat="46.84069" lon="6.51872">
        <ele>1300.8000488281</ele>
        <time>2017-04-24T07:44:52.000Z</time>
      </trkpt>
      <trkpt lat="46.84076" lon="6.51871">
        <ele>1301.5999755859</ele>
        <time>2017-04-24T07:44:54.000Z</time>
      </trkpt>
      <trkpt lat="46.8408" lon="6.51871">
        <ele>1302</ele>
        <time>2017-04-24T07:44:55.000Z</time>
      </trkpt>
      <trkpt lat="46.84092" lon="6.51873">
        <ele>1303</ele>
        <time>2017-04-24T07:44:58.000Z</time>
      </trkpt>
      <trkpt lat="46.84104" lon="6.51876">
        <ele>1304.1999511719</ele>
        <time>2017-04-24T07:45:01.000Z</time>
      </trkpt>
      <trkpt lat="46.84119" lon="6.5188">
        <ele>1305.4000244141</ele>
        <time>2017-04-24T07:45:05.000Z</time>
      </trkpt>
      <trkpt lat="46.84137" lon="6.51886">
        <ele>1306.4000244141</ele>
        <time>2017-04-24T07:45:10.000Z</time>
      </trkpt>
      <trkpt lat="46.84148" lon="6.51891">
        <ele>1307.5999755859</ele>
        <time>2017-04-24T07:45:13.000Z</time>
      </trkpt>
      <trkpt lat="46.84155" lon="6.51896">
        <ele>1308.8000488281</ele>
        <time>2017-04-24T07:45:15.000Z</time>
      </trkpt>
      <trkpt lat="46.84158" lon="6.51899">
        <ele>1309.1999511719</ele>
        <time>2017-04-24T07:45:16.000Z</time>
      </trkpt>
      <trkpt lat="46.84168" lon="6.51908">
        <ele>1310</ele>
        <time>2017-04-24T07:45:19.000Z</time>
      </trkpt>
      <trkpt lat="46.84177" lon="6.51919">
        <ele>1311</ele>
        <time>2017-04-24T07:45:22.000Z</time>
      </trkpt>
      <trkpt lat="46.8418" lon="6.51923">
        <ele>1311.4000244141</ele>
        <time>2017-04-24T07:45:23.000Z</time>
      </trkpt>
      <trkpt lat="46.84187" lon="6.51935">
        <ele>1312.4000244141</ele>
        <time>2017-04-24T07:45:26.000Z</time>
      </trkpt>
      <trkpt lat="46.84194" lon="6.51949">
        <ele>1313.8000488281</ele>
        <time>2017-04-24T07:45:29.000Z</time>
      </trkpt>
      <trkpt lat="46.84197" lon="6.51959">
        <ele>1314.4000244141</ele>
        <time>2017-04-24T07:45:31.000Z</time>
      </trkpt>
      <trkpt lat="46.84199" lon="6.51974">
        <ele>1315.1999511719</ele>
        <time>2017-04-24T07:45:34.000Z</time>
      </trkpt>
      <trkpt lat="46.84201" lon="6.51983">
        <ele>1315.5999755859</ele>
        <time>2017-04-24T07:45:36.000Z</time>
      </trkpt>
      <trkpt lat="46.84204" lon="6.51993">
        <ele>1316.1999511719</ele>
        <time>2017-04-24T07:45:38.000Z</time>
      </trkpt>
      <trkpt lat="46.84206" lon="6.52003">
        <ele>1316.8000488281</ele>
        <time>2017-04-24T07:45:40.000Z</time>
      </trkpt>
      <trkpt lat="46.8421" lon="6.52011">
        <ele>1317.4000244141</ele>
        <time>2017-04-24T07:45:42.000Z</time>
      </trkpt>
      <trkpt lat="46.84218" lon="6.52016">
        <ele>1317.5999755859</ele>
        <time>2017-04-24T07:45:44.000Z</time>
      </trkpt>
      <trkpt lat="46.84242" lon="6.52022">
        <ele>1318</ele>
        <time>2017-04-24T07:45:49.000Z</time>
      </trkpt>
      <trkpt lat="46.84251" lon="6.52014">
        <ele>1318</ele>
        <time>2017-04-24T07:45:51.000Z</time>
      </trkpt>
      <trkpt lat="46.84256" lon="6.51992">
        <ele>1318</ele>
        <time>2017-04-24T07:45:54.000Z</time>
      </trkpt>
      <trkpt lat="46.84256" lon="6.51986">
        <ele>1318</ele>
        <time>2017-04-24T07:45:55.000Z</time>
      </trkpt>
      <trkpt lat="46.84259" lon="6.51974">
        <ele>1318</ele>
        <time>2017-04-24T07:45:57.000Z</time>
      </trkpt>
      <trkpt lat="46.84261" lon="6.51966">
        <ele>1318</ele>
        <time>2017-04-24T07:45:58.000Z</time>
      </trkpt>
      <trkpt lat="46.84265" lon="6.5195">
        <ele>1318</ele>
        <time>2017-04-24T07:46:00.000Z</time>
      </trkpt>
      <trkpt lat="46.84269" lon="6.51934">
        <ele>1318</ele>
        <time>2017-04-24T07:46:02.000Z</time>
      </trkpt>
      <trkpt lat="46.84272" lon="6.51927">
        <ele>1318</ele>
        <time>2017-04-24T07:46:03.000Z</time>
      </trkpt>
      <trkpt lat="46.84279" lon="6.51904">
        <ele>1318.1999511719</ele>
        <time>2017-04-24T07:46:06.000Z</time>
      </trkpt>
      <trkpt lat="46.84284" lon="6.51898">
        <ele>1318.1999511719</ele>
        <time>2017-04-24T07:46:07.000Z</time>
      </trkpt>
      <trkpt lat="46.84289" lon="6.51895">
        <ele>1318.1999511719</ele>
        <time>2017-04-24T07:46:08.000Z</time>
      </trkpt>
      <trkpt lat="46.84295" lon="6.51892">
        <ele>1318.4000244141</ele>
        <time>2017-04-24T07:46:09.000Z</time>
      </trkpt>
      <trkpt lat="46.84306" lon="6.51888">
        <ele>1318.4000244141</ele>
        <time>2017-04-24T07:46:11.000Z</time>
      </trkpt>
      <trkpt lat="46.84312" lon="6.51887">
        <ele>1318.4000244141</ele>
        <time>2017-04-24T07:46:12.000Z</time>
      </trkpt>
      <trkpt lat="46.84318" lon="6.51884">
        <ele>1318.4000244141</ele>
        <time>2017-04-24T07:46:14.000Z</time>
      </trkpt>
      <trkpt lat="46.84336" lon="6.5188">
        <ele>1318.1999511719</ele>
        <time>2017-04-24T07:46:17.000Z</time>
      </trkpt>
      <trkpt lat="46.84341" lon="6.51876">
        <ele>1318.1999511719</ele>
        <time>2017-04-24T07:46:18.000Z</time>
      </trkpt>
      <trkpt lat="46.84342" lon="6.51868">
        <ele>1318.1999511719</ele>
        <time>2017-04-24T07:46:19.000Z</time>
      </trkpt>
      <trkpt lat="46.84342" lon="6.51851">
        <ele>1318.4000244141</ele>
        <time>2017-04-24T07:46:21.000Z</time>
      </trkpt>
      <trkpt lat="46.84343" lon="6.51832">
        <ele>1318.5999755859</ele>
        <time>2017-04-24T07:46:23.000Z</time>
      </trkpt>
      <trkpt lat="46.84344" lon="6.51802">
        <ele>1318.1999511719</ele>
        <time>2017-04-24T07:46:27.000Z</time>
      </trkpt>
      <trkpt lat="46.84338" lon="6.51769">
        <ele>1318.4000244141</ele>
        <time>2017-04-24T07:46:31.000Z</time>
      </trkpt>
      <trkpt lat="46.84334" lon="6.51744">
        <ele>1318.4000244141</ele>
        <time>2017-04-24T07:46:34.000Z</time>
      </trkpt>
      <trkpt lat="46.84334" lon="6.51736">
        <ele>1318.5999755859</ele>
        <time>2017-04-24T07:46:35.000Z</time>
      </trkpt>
      <trkpt lat="46.84339" lon="6.51708">
        <ele>1318.8000488281</ele>
        <time>2017-04-24T07:46:38.000Z</time>
      </trkpt>
      <trkpt lat="46.8435" lon="6.51683">
        <ele>1318.5999755859</ele>
        <time>2017-04-24T07:46:41.000Z</time>
      </trkpt>
      <trkpt lat="46.84358" lon="6.51669">
        <ele>1318.5999755859</ele>
        <time>2017-04-24T07:46:43.000Z</time>
      </trkpt>
      <trkpt lat="46.84372" lon="6.51653">
        <ele>1318.5999755859</ele>
        <time>2017-04-24T07:46:46.000Z</time>
      </trkpt>
      <trkpt lat="46.84378" lon="6.51649">
        <ele>1318.5999755859</ele>
        <time>2017-04-24T07:46:47.000Z</time>
      </trkpt>
      <trkpt lat="46.84393" lon="6.51624">
        <ele>1318</ele>
        <time>2017-04-24T07:46:51.000Z</time>
      </trkpt>
      <trkpt lat="46.84396" lon="6.51617">
        <ele>1317.8000488281</ele>
        <time>2017-04-24T07:46:52.000Z</time>
      </trkpt>
      <trkpt lat="46.84403" lon="6.51604">
        <ele>1318</ele>
        <time>2017-04-24T07:46:54.000Z</time>
      </trkpt>
      <trkpt lat="46.84409" lon="6.51594">
        <ele>1318.5999755859</ele>
        <time>2017-04-24T07:46:56.000Z</time>
      </trkpt>
      <trkpt lat="46.84413" lon="6.51591">
        <ele>1319</ele>
        <time>2017-04-24T07:46:57.000Z</time>
      </trkpt>
      <trkpt lat="46.8442" lon="6.51582">
        <ele>1319.5999755859</ele>
        <time>2017-04-24T07:46:59.000Z</time>
      </trkpt>
      <trkpt lat="46.84424" lon="6.51577">
        <ele>1320.1999511719</ele>
        <time>2017-04-24T07:47:00.000Z</time>
      </trkpt>
      <trkpt lat="46.84437" lon="6.51558">
        <ele>1321.5999755859</ele>
        <time>2017-04-24T07:47:04.000Z</time>
      </trkpt>
      <trkpt lat="46.84444" lon="6.51549">
        <ele>1322.4000244141</ele>
        <time>2017-04-24T07:47:06.000Z</time>
      </trkpt>
      <trkpt lat="46.84447" lon="6.51545">
        <ele>1322.8000488281</ele>
        <time>2017-04-24T07:47:07.000Z</time>
      </trkpt>
      <trkpt lat="46.84459" lon="6.51535">
        <ele>1323.5999755859</ele>
        <time>2017-04-24T07:47:10.000Z</time>
      </trkpt>
      <trkpt lat="46.84463" lon="6.51532">
        <ele>1323.8000488281</ele>
        <time>2017-04-24T07:47:11.000Z</time>
      </trkpt>
      <trkpt lat="46.84466" lon="6.51528">
        <ele>1324</ele>
        <time>2017-04-24T07:47:12.000Z</time>
      </trkpt>
      <trkpt lat="46.84479" lon="6.51519">
        <ele>1324.5999755859</ele>
        <time>2017-04-24T07:47:15.000Z</time>
      </trkpt>
      <trkpt lat="46.84483" lon="6.51517">
        <ele>1324.8000488281</ele>
        <time>2017-04-24T07:47:16.000Z</time>
      </trkpt>
      <trkpt lat="46.84487" lon="6.51514">
        <ele>1325.1999511719</ele>
        <time>2017-04-24T07:47:17.000Z</time>
      </trkpt>
      <trkpt lat="46.84495" lon="6.51507">
        <ele>1326</ele>
        <time>2017-04-24T07:47:19.000Z</time>
      </trkpt>
      <trkpt lat="46.845" lon="6.51504">
        <ele>1326.4000244141</ele>
        <time>2017-04-24T07:47:20.000Z</time>
      </trkpt>
      <trkpt lat="46.84504" lon="6.51501">
        <ele>1326.8000488281</ele>
        <time>2017-04-24T07:47:21.000Z</time>
      </trkpt>
      <trkpt lat="46.84515" lon="6.51491">
        <ele>1327.8000488281</ele>
        <time>2017-04-24T07:47:24.000Z</time>
      </trkpt>
      <trkpt lat="46.84527" lon="6.5148">
        <ele>1328.5999755859</ele>
        <time>2017-04-24T07:47:27.000Z</time>
      </trkpt>
      <trkpt lat="46.8453" lon="6.51476">
        <ele>1329.1999511719</ele>
        <time>2017-04-24T07:47:28.000Z</time>
      </trkpt>
      <trkpt lat="46.84538" lon="6.51461">
        <ele>1330.1999511719</ele>
        <time>2017-04-24T07:47:31.000Z</time>
      </trkpt>
      <trkpt lat="46.8454" lon="6.51457">
        <ele>1330.4000244141</ele>
        <time>2017-04-24T07:47:32.000Z</time>
      </trkpt>
      <trkpt lat="46.84546" lon="6.51456">
        <ele>1330.8000488281</ele>
        <time>2017-04-24T07:47:34.000Z</time>
      </trkpt>
      <trkpt lat="46.84549" lon="6.51457">
        <ele>1331.4000244141</ele>
        <time>2017-04-24T07:47:35.000Z</time>
      </trkpt>
      <trkpt lat="46.84552" lon="6.51458">
        <ele>1331.8000488281</ele>
        <time>2017-04-24T07:47:36.000Z</time>
      </trkpt>
      <trkpt lat="46.84561" lon="6.51463">
        <ele>1333</ele>
        <time>2017-04-24T07:47:39.000Z</time>
      </trkpt>
      <trkpt lat="46.84565" lon="6.51465">
        <ele>1333.4000244141</ele>
        <time>2017-04-24T07:47:40.000Z</time>
      </trkpt>
      <trkpt lat="46.8457" lon="6.51469">
        <ele>1334.1999511719</ele>
        <time>2017-04-24T07:47:42.000Z</time>
      </trkpt>
      <trkpt lat="46.84583" lon="6.51478">
        <ele>1335.4000244141</ele>
        <time>2017-04-24T07:47:46.000Z</time>
      </trkpt>
      <trkpt lat="46.84589" lon="6.51483">
        <ele>1335.4000244141</ele>
        <time>2017-04-24T07:47:48.000Z</time>
      </trkpt>
      <trkpt lat="46.84607" lon="6.51494">
        <ele>1335.5999755859</ele>
        <time>2017-04-24T07:47:52.000Z</time>
      </trkpt>
      <trkpt lat="46.84612" lon="6.51496">
        <ele>1334.5999755859</ele>
        <time>2017-04-24T07:47:53.000Z</time>
      </trkpt>
      <trkpt lat="46.84617" lon="6.51499">
        <ele>1334</ele>
        <time>2017-04-24T07:47:54.000Z</time>
      </trkpt>
      <trkpt lat="46.84626" lon="6.51505">
        <ele>1332.5999755859</ele>
        <time>2017-04-24T07:47:56.000Z</time>
      </trkpt>
      <trkpt lat="46.84629" lon="6.51504">
        <ele>1332</ele>
        <time>2017-04-24T07:47:57.000Z</time>
      </trkpt>
      <trkpt lat="46.84631" lon="6.51501">
        <ele>1331.1999511719</ele>
        <time>2017-04-24T07:47:58.000Z</time>
      </trkpt>
      <trkpt lat="46.84631" lon="6.51496">
        <ele>1330.8000488281</ele>
        <time>2017-04-24T07:47:59.000Z</time>
      </trkpt>
      <trkpt lat="46.84625" lon="6.51487">
        <ele>1330</ele>
        <time>2017-04-24T07:48:01.000Z</time>
      </trkpt>
      <trkpt lat="46.84622" lon="6.51482">
        <ele>1329.5999755859</ele>
        <time>2017-04-24T07:48:02.000Z</time>
      </trkpt>
      <trkpt lat="46.84614" lon="6.5147">
        <ele>1328.8000488281</ele>
        <time>2017-04-24T07:48:04.000Z</time>
      </trkpt>
      <trkpt lat="46.84598" lon="6.51451">
        <ele>1327.4000244141</ele>
        <time>2017-04-24T07:48:07.000Z</time>
      </trkpt>
      <trkpt lat="46.84586" lon="6.51436">
        <ele>1325.5999755859</ele>
        <time>2017-04-24T07:48:09.000Z</time>
      </trkpt>
      <trkpt lat="46.84572" lon="6.51419">
        <ele>1324.1999511719</ele>
        <time>2017-04-24T07:48:11.000Z</time>
      </trkpt>
      <trkpt lat="46.84565" lon="6.5141">
        <ele>1322.8000488281</ele>
        <time>2017-04-24T07:48:12.000Z</time>
      </trkpt>
      <trkpt lat="46.84558" lon="6.51403">
        <ele>1321.5999755859</ele>
        <time>2017-04-24T07:48:13.000Z</time>
      </trkpt>
      <trkpt lat="46.84552" lon="6.51396">
        <ele>1320.4000244141</ele>
        <time>2017-04-24T07:48:14.000Z</time>
      </trkpt>
      <trkpt lat="46.84538" lon="6.51384">
        <ele>1318.1999511719</ele>
        <time>2017-04-24T07:48:16.000Z</time>
      </trkpt>
      <trkpt lat="46.84525" lon="6.51375">
        <ele>1317</ele>
        <time>2017-04-24T07:48:18.000Z</time>
      </trkpt>
      <trkpt lat="46.84517" lon="6.51368">
        <ele>1315</ele>
        <time>2017-04-24T07:48:20.000Z</time>
      </trkpt>
      <trkpt lat="46.84518" lon="6.51361">
        <ele>1313.1999511719</ele>
        <time>2017-04-24T07:48:22.000Z</time>
      </trkpt>
      <trkpt lat="46.8452" lon="6.5136">
        <ele>1313</ele>
        <time>2017-04-24T07:48:23.000Z</time>
      </trkpt>
      <trkpt lat="46.84525" lon="6.51361">
        <ele>1312.4000244141</ele>
        <time>2017-04-24T07:48:25.000Z</time>
      </trkpt>
      <trkpt lat="46.84535" lon="6.51365">
        <ele>1311.8000488281</ele>
        <time>2017-04-24T07:48:27.000Z</time>
      </trkpt>
      <trkpt lat="46.8454" lon="6.51368">
        <ele>1311.5999755859</ele>
        <time>2017-04-24T07:48:28.000Z</time>
      </trkpt>
      <trkpt lat="46.84546" lon="6.5137">
        <ele>1311.4000244141</ele>
        <time>2017-04-24T07:48:29.000Z</time>
      </trkpt>
      <trkpt lat="46.84561" lon="6.51375">
        <ele>1310.5999755859</ele>
        <time>2017-04-24T07:48:31.000Z</time>
      </trkpt>
      <trkpt lat="46.8457" lon="6.51379">
        <ele>1310</ele>
        <time>2017-04-24T07:48:32.000Z</time>
      </trkpt>
      <trkpt lat="46.84598" lon="6.51391">
        <ele>1308.8000488281</ele>
        <time>2017-04-24T07:48:35.000Z</time>
      </trkpt>
      <trkpt lat="46.84618" lon="6.51398">
        <ele>1307.8000488281</ele>
        <time>2017-04-24T07:48:37.000Z</time>
      </trkpt>
      <trkpt lat="46.84639" lon="6.51407">
        <ele>1306.4000244141</ele>
        <time>2017-04-24T07:48:39.000Z</time>
      </trkpt>
      <trkpt lat="46.8465" lon="6.51414">
        <ele>1305.1999511719</ele>
        <time>2017-04-24T07:48:40.000Z</time>
      </trkpt>
      <trkpt lat="46.8466" lon="6.51421">
        <ele>1303.5999755859</ele>
        <time>2017-04-24T07:48:41.000Z</time>
      </trkpt>
      <trkpt lat="46.84672" lon="6.51428">
        <ele>1302.5999755859</ele>
        <time>2017-04-24T07:48:42.000Z</time>
      </trkpt>
      <trkpt lat="46.84682" lon="6.51437">
        <ele>1301.4000244141</ele>
        <time>2017-04-24T07:48:43.000Z</time>
      </trkpt>
      <trkpt lat="46.84692" lon="6.51446">
        <ele>1300.5999755859</ele>
        <time>2017-04-24T07:48:44.000Z</time>
      </trkpt>
      <trkpt lat="46.84703" lon="6.51456">
        <ele>1299.5999755859</ele>
        <time>2017-04-24T07:48:45.000Z</time>
      </trkpt>
      <trkpt lat="46.84714" lon="6.51464">
        <ele>1298.5999755859</ele>
        <time>2017-04-24T07:48:46.000Z</time>
      </trkpt>
      <trkpt lat="46.84726" lon="6.51474">
        <ele>1297.4000244141</ele>
        <time>2017-04-24T07:48:47.000Z</time>
      </trkpt>
      <trkpt lat="46.84737" lon="6.51482">
        <ele>1295.8000488281</ele>
        <time>2017-04-24T07:48:48.000Z</time>
      </trkpt>
      <trkpt lat="46.84748" lon="6.51491">
        <ele>1294.5999755859</ele>
        <time>2017-04-24T07:48:49.000Z</time>
      </trkpt>
      <trkpt lat="46.84758" lon="6.51499">
        <ele>1292.8000488281</ele>
        <time>2017-04-24T07:48:50.000Z</time>
      </trkpt>
      <trkpt lat="46.84767" lon="6.51508">
        <ele>1291.5999755859</ele>
        <time>2017-04-24T07:48:51.000Z</time>
      </trkpt>
      <trkpt lat="46.84778" lon="6.51514">
        <ele>1290.5999755859</ele>
        <time>2017-04-24T07:48:52.000Z</time>
      </trkpt>
      <trkpt lat="46.848" lon="6.51524">
        <ele>1288.5999755859</ele>
        <time>2017-04-24T07:48:54.000Z</time>
      </trkpt>
      <trkpt lat="46.8481" lon="6.51528">
        <ele>1287.4000244141</ele>
        <time>2017-04-24T07:48:55.000Z</time>
      </trkpt>
      <trkpt lat="46.84821" lon="6.51534">
        <ele>1286.4000244141</ele>
        <time>2017-04-24T07:48:56.000Z</time>
      </trkpt>
      <trkpt lat="46.84833" lon="6.5154">
        <ele>1284.5999755859</ele>
        <time>2017-04-24T07:48:57.000Z</time>
      </trkpt>
      <trkpt lat="46.84845" lon="6.51547">
        <ele>1283</ele>
        <time>2017-04-24T07:48:58.000Z</time>
      </trkpt>
      <trkpt lat="46.84857" lon="6.51553">
        <ele>1281.5999755859</ele>
        <time>2017-04-24T07:48:59.000Z</time>
      </trkpt>
      <trkpt lat="46.8487" lon="6.51559">
        <ele>1280.5999755859</ele>
        <time>2017-04-24T07:49:00.000Z</time>
      </trkpt>
      <trkpt lat="46.84895" lon="6.51571">
        <ele>1278.8000488281</ele>
        <time>2017-04-24T07:49:02.000Z</time>
      </trkpt>
      <trkpt lat="46.84907" lon="6.51577">
        <ele>1277.5999755859</ele>
        <time>2017-04-24T07:49:03.000Z</time>
      </trkpt>
      <trkpt lat="46.84918" lon="6.51582">
        <ele>1276</ele>
        <time>2017-04-24T07:49:04.000Z</time>
      </trkpt>
      <trkpt lat="46.84928" lon="6.51586">
        <ele>1274.5999755859</ele>
        <time>2017-04-24T07:49:05.000Z</time>
      </trkpt>
      <trkpt lat="46.84938" lon="6.5159">
        <ele>1273.5999755859</ele>
        <time>2017-04-24T07:49:06.000Z</time>
      </trkpt>
      <trkpt lat="46.84959" lon="6.51596">
        <ele>1271</ele>
        <time>2017-04-24T07:49:08.000Z</time>
      </trkpt>
      <trkpt lat="46.84969" lon="6.51599">
        <ele>1268.8000488281</ele>
        <time>2017-04-24T07:49:09.000Z</time>
      </trkpt>
      <trkpt lat="46.84977" lon="6.51601">
        <ele>1266.1999511719</ele>
        <time>2017-04-24T07:49:10.000Z</time>
      </trkpt>
      <trkpt lat="46.84987" lon="6.51604">
        <ele>1264.5999755859</ele>
        <time>2017-04-24T07:49:11.000Z</time>
      </trkpt>
      <trkpt lat="46.84997" lon="6.51609">
        <ele>1262.8000488281</ele>
        <time>2017-04-24T07:49:12.000Z</time>
      </trkpt>
      <trkpt lat="46.85016" lon="6.5162">
        <ele>1261.1999511719</ele>
        <time>2017-04-24T07:49:14.000Z</time>
      </trkpt>
      <trkpt lat="46.85026" lon="6.51626">
        <ele>1260</ele>
        <time>2017-04-24T07:49:15.000Z</time>
      </trkpt>
      <trkpt lat="46.85036" lon="6.51632">
        <ele>1258.5999755859</ele>
        <time>2017-04-24T07:49:16.000Z</time>
      </trkpt>
      <trkpt lat="46.85047" lon="6.51638">
        <ele>1256.5999755859</ele>
        <time>2017-04-24T07:49:17.000Z</time>
      </trkpt>
      <trkpt lat="46.85056" lon="6.51645">
        <ele>1255</ele>
        <time>2017-04-24T07:49:18.000Z</time>
      </trkpt>
      <trkpt lat="46.85065" lon="6.51651">
        <ele>1254</ele>
        <time>2017-04-24T07:49:19.000Z</time>
      </trkpt>
      <trkpt lat="46.85073" lon="6.51657">
        <ele>1252.8000488281</ele>
        <time>2017-04-24T07:49:20.000Z</time>
      </trkpt>
      <trkpt lat="46.85079" lon="6.51665">
        <ele>1251.8000488281</ele>
        <time>2017-04-24T07:49:21.000Z</time>
      </trkpt>
      <trkpt lat="46.85085" lon="6.51673">
        <ele>1250.8000488281</ele>
        <time>2017-04-24T07:49:22.000Z</time>
      </trkpt>
      <trkpt lat="46.8509" lon="6.5168">
        <ele>1249.5999755859</ele>
        <time>2017-04-24T07:49:23.000Z</time>
      </trkpt>
      <trkpt lat="46.85094" lon="6.51686">
        <ele>1249</ele>
        <time>2017-04-24T07:49:24.000Z</time>
      </trkpt>
      <trkpt lat="46.85098" lon="6.5169">
        <ele>1248.5999755859</ele>
        <time>2017-04-24T07:49:25.000Z</time>
      </trkpt>
      <trkpt lat="46.85102" lon="6.51694">
        <ele>1248</ele>
        <time>2017-04-24T07:49:26.000Z</time>
      </trkpt>
      <trkpt lat="46.85107" lon="6.51707">
        <ele>1247</ele>
        <time>2017-04-24T07:49:29.000Z</time>
      </trkpt>
      <trkpt lat="46.85111" lon="6.51722">
        <ele>1245.8000488281</ele>
        <time>2017-04-24T07:49:33.000Z</time>
      </trkpt>
      <trkpt lat="46.85111" lon="6.51726">
        <ele>1244.5999755859</ele>
        <time>2017-04-24T07:49:34.000Z</time>
      </trkpt>
      <trkpt lat="46.85112" lon="6.51738">
        <ele>1241.1999511719</ele>
        <time>2017-04-24T07:49:36.000Z</time>
      </trkpt>
      <trkpt lat="46.85114" lon="6.51744">
        <ele>1239.8000488281</ele>
        <time>2017-04-24T07:49:37.000Z</time>
      </trkpt>
      <trkpt lat="46.85116" lon="6.51751">
        <ele>1239</ele>
        <time>2017-04-24T07:49:38.000Z</time>
      </trkpt>
      <trkpt lat="46.85118" lon="6.51758">
        <ele>1237.4000244141</ele>
        <time>2017-04-24T07:49:39.000Z</time>
      </trkpt>
      <trkpt lat="46.8512" lon="6.51764">
        <ele>1235.8000488281</ele>
        <time>2017-04-24T07:49:40.000Z</time>
      </trkpt>
      <trkpt lat="46.85121" lon="6.51771">
        <ele>1234.1999511719</ele>
        <time>2017-04-24T07:49:41.000Z</time>
      </trkpt>
      <trkpt lat="46.85123" lon="6.51779">
        <ele>1233.1999511719</ele>
        <time>2017-04-24T07:49:42.000Z</time>
      </trkpt>
      <trkpt lat="46.85125" lon="6.51786">
        <ele>1232.1999511719</ele>
        <time>2017-04-24T07:49:43.000Z</time>
      </trkpt>
      <trkpt lat="46.85128" lon="6.51794">
        <ele>1231.4000244141</ele>
        <time>2017-04-24T07:49:44.000Z</time>
      </trkpt>
      <trkpt lat="46.8513" lon="6.51802">
        <ele>1230.8000488281</ele>
        <time>2017-04-24T07:49:45.000Z</time>
      </trkpt>
      <trkpt lat="46.85133" lon="6.5181">
        <ele>1230</ele>
        <time>2017-04-24T07:49:46.000Z</time>
      </trkpt>
      <trkpt lat="46.85136" lon="6.51817">
        <ele>1228.8000488281</ele>
        <time>2017-04-24T07:49:47.000Z</time>
      </trkpt>
      <trkpt lat="46.85139" lon="6.51824">
        <ele>1227.4000244141</ele>
        <time>2017-04-24T07:49:48.000Z</time>
      </trkpt>
      <trkpt lat="46.85141" lon="6.5183">
        <ele>1226.4000244141</ele>
        <time>2017-04-24T07:49:49.000Z</time>
      </trkpt>
      <trkpt lat="46.85143" lon="6.51836">
        <ele>1225.4000244141</ele>
        <time>2017-04-24T07:49:50.000Z</time>
      </trkpt>
      <trkpt lat="46.85144" lon="6.51842">
        <ele>1224.5999755859</ele>
        <time>2017-04-24T07:49:51.000Z</time>
      </trkpt>
      <trkpt lat="46.85147" lon="6.51849">
        <ele>1222.5999755859</ele>
        <time>2017-04-24T07:49:52.000Z</time>
      </trkpt>
      <trkpt lat="46.85151" lon="6.51855">
        <ele>1220.4000244141</ele>
        <time>2017-04-24T07:49:53.000Z</time>
      </trkpt>
      <trkpt lat="46.85155" lon="6.51861">
        <ele>1218.8000488281</ele>
        <time>2017-04-24T07:49:54.000Z</time>
      </trkpt>
      <trkpt lat="46.85158" lon="6.51868">
        <ele>1217.4000244141</ele>
        <time>2017-04-24T07:49:55.000Z</time>
      </trkpt>
      <trkpt lat="46.85161" lon="6.51874">
        <ele>1216.1999511719</ele>
        <time>2017-04-24T07:49:56.000Z</time>
      </trkpt>
      <trkpt lat="46.85161" lon="6.51877">
        <ele>1215.1999511719</ele>
        <time>2017-04-24T07:49:57.000Z</time>
      </trkpt>
      <trkpt lat="46.85163" lon="6.5188">
        <ele>1214.4000244141</ele>
        <time>2017-04-24T07:49:58.000Z</time>
      </trkpt>
      <trkpt lat="46.85164" lon="6.51883">
        <ele>1213.4000244141</ele>
        <time>2017-04-24T07:49:59.000Z</time>
      </trkpt>
      <trkpt lat="46.85165" lon="6.5189">
        <ele>1212.1999511719</ele>
        <time>2017-04-24T07:50:01.000Z</time>
      </trkpt>
      <trkpt lat="46.85165" lon="6.51894">
        <ele>1211.4000244141</ele>
        <time>2017-04-24T07:50:02.000Z</time>
      </trkpt>
      <trkpt lat="46.85166" lon="6.51898">
        <ele>1210.8000488281</ele>
        <time>2017-04-24T07:50:03.000Z</time>
      </trkpt>
      <trkpt lat="46.85168" lon="6.51906">
        <ele>1209.1999511719</ele>
        <time>2017-04-24T07:50:05.000Z</time>
      </trkpt>
      <trkpt lat="46.85168" lon="6.5191">
        <ele>1208.1999511719</ele>
        <time>2017-04-24T07:50:06.000Z</time>
      </trkpt>
      <trkpt lat="46.85168" lon="6.51913">
        <ele>1207</ele>
        <time>2017-04-24T07:50:07.000Z</time>
      </trkpt>
      <trkpt lat="46.85169" lon="6.51916">
        <ele>1206</ele>
        <time>2017-04-24T07:50:08.000Z</time>
      </trkpt>
      <trkpt lat="46.8517" lon="6.5192">
        <ele>1204.1999511719</ele>
        <time>2017-04-24T07:50:10.000Z</time>
      </trkpt>
      <trkpt lat="46.85169" lon="6.51923">
        <ele>1203.5999755859</ele>
        <time>2017-04-24T07:50:12.000Z</time>
      </trkpt>
      <trkpt lat="46.85166" lon="6.51926">
        <ele>1203.1999511719</ele>
        <time>2017-04-24T07:50:14.000Z</time>
      </trkpt>
      <trkpt lat="46.85163" lon="6.51932">
        <ele>1202.5999755859</ele>
        <time>2017-04-24T07:50:16.000Z</time>
      </trkpt>
      <trkpt lat="46.85161" lon="6.51935">
        <ele>1202.1999511719</ele>
        <time>2017-04-24T07:50:17.000Z</time>
      </trkpt>
      <trkpt lat="46.85159" lon="6.51941">
        <ele>1200.5999755859</ele>
        <time>2017-04-24T07:50:19.000Z</time>
      </trkpt>
      <trkpt lat="46.85159" lon="6.51943">
        <ele>1200</ele>
        <time>2017-04-24T07:50:20.000Z</time>
      </trkpt>
      <trkpt lat="46.85157" lon="6.51946">
        <ele>1199.4000244141</ele>
        <time>2017-04-24T07:50:21.000Z</time>
      </trkpt>
      <trkpt lat="46.85152" lon="6.51951">
        <ele>1198</ele>
        <time>2017-04-24T07:50:23.000Z</time>
      </trkpt>
      <trkpt lat="46.85151" lon="6.51953">
        <ele>1196.5999755859</ele>
        <time>2017-04-24T07:50:24.000Z</time>
      </trkpt>
      <trkpt lat="46.8515" lon="6.51956">
        <ele>1195.5999755859</ele>
        <time>2017-04-24T07:50:25.000Z</time>
      </trkpt>
      <trkpt lat="46.85151" lon="6.51966">
        <ele>1193.8000488281</ele>
        <time>2017-04-24T07:50:27.000Z</time>
      </trkpt>
      <trkpt lat="46.85151" lon="6.5197">
        <ele>1192.4000244141</ele>
        <time>2017-04-24T07:50:28.000Z</time>
      </trkpt>
      <trkpt lat="46.85151" lon="6.51975">
        <ele>1191.1999511719</ele>
        <time>2017-04-24T07:50:29.000Z</time>
      </trkpt>
      <trkpt lat="46.8515" lon="6.51984">
        <ele>1190</ele>
        <time>2017-04-24T07:50:30.000Z</time>
      </trkpt>
      <trkpt lat="46.8515" lon="6.51992">
        <ele>1188.8000488281</ele>
        <time>2017-04-24T07:50:31.000Z</time>
      </trkpt>
      <trkpt lat="46.8515" lon="6.52">
        <ele>1187.5999755859</ele>
        <time>2017-04-24T07:50:32.000Z</time>
      </trkpt>
      <trkpt lat="46.85149" lon="6.52008">
        <ele>1187.1999511719</ele>
        <time>2017-04-24T07:50:33.000Z</time>
      </trkpt>
      <trkpt lat="46.85148" lon="6.52016">
        <ele>1186.8000488281</ele>
        <time>2017-04-24T07:50:34.000Z</time>
      </trkpt>
      <trkpt lat="46.85147" lon="6.52022">
        <ele>1186.4000244141</ele>
        <time>2017-04-24T07:50:35.000Z</time>
      </trkpt>
      <trkpt lat="46.85143" lon="6.52034">
        <ele>1185.5999755859</ele>
        <time>2017-04-24T07:50:37.000Z</time>
      </trkpt>
      <trkpt lat="46.85142" lon="6.52038">
        <ele>1185</ele>
        <time>2017-04-24T07:50:38.000Z</time>
      </trkpt>
      <trkpt lat="46.85137" lon="6.52043">
        <ele>1183.5999755859</ele>
        <time>2017-04-24T07:50:40.000Z</time>
      </trkpt>
      <trkpt lat="46.85134" lon="6.52046">
        <ele>1182.5999755859</ele>
        <time>2017-04-24T07:50:41.000Z</time>
      </trkpt>
      <trkpt lat="46.85131" lon="6.52049">
        <ele>1181.8000488281</ele>
        <time>2017-04-24T07:50:42.000Z</time>
      </trkpt>
      <trkpt lat="46.85123" lon="6.52052">
        <ele>1180.5999755859</ele>
        <time>2017-04-24T07:50:44.000Z</time>
      </trkpt>
      <trkpt lat="46.85119" lon="6.52057">
        <ele>1179.1999511719</ele>
        <time>2017-04-24T07:50:46.000Z</time>
      </trkpt>
      <trkpt lat="46.8512" lon="6.52061">
        <ele>1178.4000244141</ele>
        <time>2017-04-24T07:50:47.000Z</time>
      </trkpt>
      <trkpt lat="46.85122" lon="6.52065">
        <ele>1177.5999755859</ele>
        <time>2017-04-24T07:50:48.000Z</time>
      </trkpt>
      <trkpt lat="46.85127" lon="6.52074">
        <ele>1176.1999511719</ele>
        <time>2017-04-24T07:50:50.000Z</time>
      </trkpt>
      <trkpt lat="46.85133" lon="6.52094">
        <ele>1174.8000488281</ele>
        <time>2017-04-24T07:50:52.000Z</time>
      </trkpt>
      <trkpt lat="46.85136" lon="6.52105">
        <ele>1173.8000488281</ele>
        <time>2017-04-24T07:50:53.000Z</time>
      </trkpt>
      <trkpt lat="46.8514" lon="6.52116">
        <ele>1172.5999755859</ele>
        <time>2017-04-24T07:50:54.000Z</time>
      </trkpt>
      <trkpt lat="46.85144" lon="6.52125">
        <ele>1171.8000488281</ele>
        <time>2017-04-24T07:50:55.000Z</time>
      </trkpt>
      <trkpt lat="46.85147" lon="6.52134">
        <ele>1171.1999511719</ele>
        <time>2017-04-24T07:50:56.000Z</time>
      </trkpt>
      <trkpt lat="46.8515" lon="6.52142">
        <ele>1171</ele>
        <time>2017-04-24T07:50:57.000Z</time>
      </trkpt>
      <trkpt lat="46.85154" lon="6.5215">
        <ele>1170.1999511719</ele>
        <time>2017-04-24T07:50:58.000Z</time>
      </trkpt>
      <trkpt lat="46.85167" lon="6.52175">
        <ele>1169.8000488281</ele>
        <time>2017-04-24T07:51:02.000Z</time>
      </trkpt>
      <trkpt lat="46.85169" lon="6.52181">
        <ele>1169.8000488281</ele>
        <time>2017-04-24T07:51:03.000Z</time>
      </trkpt>
      <trkpt lat="46.85177" lon="6.52201">
        <ele>1169.8000488281</ele>
        <time>2017-04-24T07:51:06.000Z</time>
      </trkpt>
      <trkpt lat="46.85182" lon="6.52215">
        <ele>1169</ele>
        <time>2017-04-24T07:51:08.000Z</time>
      </trkpt>
      <trkpt lat="46.8519" lon="6.52236">
        <ele>1167.8000488281</ele>
        <time>2017-04-24T07:51:11.000Z</time>
      </trkpt>
      <trkpt lat="46.85193" lon="6.52244">
        <ele>1167.4000244141</ele>
        <time>2017-04-24T07:51:12.000Z</time>
      </trkpt>
      <trkpt lat="46.85193" lon="6.52261">
        <ele>1166.5999755859</ele>
        <time>2017-04-24T07:51:14.000Z</time>
      </trkpt>
      <trkpt lat="46.85192" lon="6.52269">
        <ele>1166.5999755859</ele>
        <time>2017-04-24T07:51:15.000Z</time>
      </trkpt>
      <trkpt lat="46.85186" lon="6.52286">
        <ele>1165.4000244141</ele>
        <time>2017-04-24T07:51:17.000Z</time>
      </trkpt>
      <trkpt lat="46.8518" lon="6.52304">
        <ele>1164.1999511719</ele>
        <time>2017-04-24T07:51:19.000Z</time>
      </trkpt>
      <trkpt lat="46.85174" lon="6.5232">
        <ele>1162.5999755859</ele>
        <time>2017-04-24T07:51:21.000Z</time>
      </trkpt>
      <trkpt lat="46.85168" lon="6.52334">
        <ele>1161.5999755859</ele>
        <time>2017-04-24T07:51:23.000Z</time>
      </trkpt>
      <trkpt lat="46.85165" lon="6.5234">
        <ele>1161.1999511719</ele>
        <time>2017-04-24T07:51:24.000Z</time>
      </trkpt>
      <trkpt lat="46.85163" lon="6.52353">
        <ele>1160</ele>
        <time>2017-04-24T07:51:26.000Z</time>
      </trkpt>
      <trkpt lat="46.85165" lon="6.52368">
        <ele>1158.4000244141</ele>
        <time>2017-04-24T07:51:28.000Z</time>
      </trkpt>
      <trkpt lat="46.85165" lon="6.52376">
        <ele>1157.4000244141</ele>
        <time>2017-04-24T07:51:29.000Z</time>
      </trkpt>
      <trkpt lat="46.85167" lon="6.52383">
        <ele>1157</ele>
        <time>2017-04-24T07:51:30.000Z</time>
      </trkpt>
      <trkpt lat="46.85169" lon="6.52391">
        <ele>1156.5999755859</ele>
        <time>2017-04-24T07:51:31.000Z</time>
      </trkpt>
      <trkpt lat="46.85171" lon="6.52399">
        <ele>1156.4000244141</ele>
        <time>2017-04-24T07:51:32.000Z</time>
      </trkpt>
      <trkpt lat="46.85174" lon="6.52415">
        <ele>1155.5999755859</ele>
        <time>2017-04-24T07:51:34.000Z</time>
      </trkpt>
      <trkpt lat="46.85175" lon="6.52424">
        <ele>1155.1999511719</ele>
        <time>2017-04-24T07:51:35.000Z</time>
      </trkpt>
      <trkpt lat="46.85176" lon="6.52432">
        <ele>1155</ele>
        <time>2017-04-24T07:51:36.000Z</time>
      </trkpt>
      <trkpt lat="46.85178" lon="6.52445">
        <ele>1153.8000488281</ele>
        <time>2017-04-24T07:51:38.000Z</time>
      </trkpt>
      <trkpt lat="46.85178" lon="6.52458">
        <ele>1152.1999511719</ele>
        <time>2017-04-24T07:51:40.000Z</time>
      </trkpt>
      <trkpt lat="46.85178" lon="6.52469">
        <ele>1150.5999755859</ele>
        <time>2017-04-24T07:51:42.000Z</time>
      </trkpt>
      <trkpt lat="46.85179" lon="6.5248">
        <ele>1149.1999511719</ele>
        <time>2017-04-24T07:51:44.000Z</time>
      </trkpt>
      <trkpt lat="46.85183" lon="6.52491">
        <ele>1148</ele>
        <time>2017-04-24T07:51:47.000Z</time>
      </trkpt>
      <trkpt lat="46.85186" lon="6.52495">
        <ele>1147.8000488281</ele>
        <time>2017-04-24T07:51:48.000Z</time>
      </trkpt>
      <trkpt lat="46.85193" lon="6.52509">
        <ele>1147.5999755859</ele>
        <time>2017-04-24T07:51:51.000Z</time>
      </trkpt>
      <trkpt lat="46.85189" lon="6.5252">
        <ele>1148</ele>
        <time>2017-04-24T07:51:53.000Z</time>
      </trkpt>
      <trkpt lat="46.85188" lon="6.52526">
        <ele>1148</ele>
        <time>2017-04-24T07:51:54.000Z</time>
      </trkpt>
      <trkpt lat="46.85186" lon="6.52532">
        <ele>1148</ele>
        <time>2017-04-24T07:51:55.000Z</time>
      </trkpt>
      <trkpt lat="46.85189" lon="6.52552">
        <ele>1148.5999755859</ele>
        <time>2017-04-24T07:51:58.000Z</time>
      </trkpt>
      <trkpt lat="46.85195" lon="6.52566">
        <ele>1149.1999511719</ele>
        <time>2017-04-24T07:52:00.000Z</time>
      </trkpt>
      <trkpt lat="46.85204" lon="6.52585">
        <ele>1150.5999755859</ele>
        <time>2017-04-24T07:52:03.000Z</time>
      </trkpt>
      <trkpt lat="46.85206" lon="6.52591">
        <ele>1151.4000244141</ele>
        <time>2017-04-24T07:52:04.000Z</time>
      </trkpt>
      <trkpt lat="46.85206" lon="6.52596">
        <ele>1152</ele>
        <time>2017-04-24T07:52:05.000Z</time>
      </trkpt>
      <trkpt lat="46.85204" lon="6.52606">
        <ele>1153.4000244141</ele>
        <time>2017-04-24T07:52:07.000Z</time>
      </trkpt>
      <trkpt lat="46.85202" lon="6.52613">
        <ele>1154.5999755859</ele>
        <time>2017-04-24T07:52:09.000Z</time>
      </trkpt>
      <trkpt lat="46.85202" lon="6.52626">
        <ele>1155.5999755859</ele>
        <time>2017-04-24T07:52:12.000Z</time>
      </trkpt>
      <trkpt lat="46.85208" lon="6.5264">
        <ele>1156.4000244141</ele>
        <time>2017-04-24T07:52:15.000Z</time>
      </trkpt>
      <trkpt lat="46.85211" lon="6.52645">
        <ele>1156.5999755859</ele>
        <time>2017-04-24T07:52:16.000Z</time>
      </trkpt>
      <trkpt lat="46.85227" lon="6.52678">
        <ele>1157</ele>
        <time>2017-04-24T07:52:21.000Z</time>
      </trkpt>
      <trkpt lat="46.8524" lon="6.52711">
        <ele>1155.5999755859</ele>
        <time>2017-04-24T07:52:25.000Z</time>
      </trkpt>
      <trkpt lat="46.85245" lon="6.52719">
        <ele>1155.1999511719</ele>
        <time>2017-04-24T07:52:26.000Z</time>
      </trkpt>
      <trkpt lat="46.85254" lon="6.52736">
        <ele>1154.5999755859</ele>
        <time>2017-04-24T07:52:28.000Z</time>
      </trkpt>
      <trkpt lat="46.85267" lon="6.52764">
        <ele>1153.1999511719</ele>
        <time>2017-04-24T07:52:31.000Z</time>
      </trkpt>
      <trkpt lat="46.85288" lon="6.52795">
        <ele>1152</ele>
        <time>2017-04-24T07:52:35.000Z</time>
      </trkpt>
      <trkpt lat="46.85294" lon="6.528">
        <ele>1151.5999755859</ele>
        <time>2017-04-24T07:52:36.000Z</time>
      </trkpt>
      <trkpt lat="46.85298" lon="6.52804">
        <ele>1151.5999755859</ele>
        <time>2017-04-24T07:52:37.000Z</time>
      </trkpt>
      <trkpt lat="46.85303" lon="6.52806">
        <ele>1151.5999755859</ele>
        <time>2017-04-24T07:52:38.000Z</time>
      </trkpt>
      <trkpt lat="46.85318" lon="6.52803">
        <ele>1151.1999511719</ele>
        <time>2017-04-24T07:52:41.000Z</time>
      </trkpt>
      <trkpt lat="46.85322" lon="6.52798">
        <ele>1151</ele>
        <time>2017-04-24T07:52:42.000Z</time>
      </trkpt>
      <trkpt lat="46.85326" lon="6.52786">
        <ele>1150.5999755859</ele>
        <time>2017-04-24T07:52:44.000Z</time>
      </trkpt>
      <trkpt lat="46.85323" lon="6.52764">
        <ele>1150.4000244141</ele>
        <time>2017-04-24T07:52:47.000Z</time>
      </trkpt>
      <trkpt lat="46.85322" lon="6.52756">
        <ele>1150.5999755859</ele>
        <time>2017-04-24T07:52:48.000Z</time>
      </trkpt>
      <trkpt lat="46.85318" lon="6.52742">
        <ele>1150</ele>
        <time>2017-04-24T07:52:50.000Z</time>
      </trkpt>
      <trkpt lat="46.85317" lon="6.52737">
        <ele>1149.8000488281</ele>
        <time>2017-04-24T07:52:51.000Z</time>
      </trkpt>
      <trkpt lat="46.85316" lon="6.52731">
        <ele>1149.8000488281</ele>
        <time>2017-04-24T07:52:52.000Z</time>
      </trkpt>
      <trkpt lat="46.85315" lon="6.52716">
        <ele>1148</ele>
        <time>2017-04-24T07:52:54.000Z</time>
      </trkpt>
      <trkpt lat="46.85315" lon="6.52702">
        <ele>1147.5999755859</ele>
        <time>2017-04-24T07:52:56.000Z</time>
      </trkpt>
      <trkpt lat="46.85314" lon="6.52675">
        <ele>1147.8000488281</ele>
        <time>2017-04-24T07:53:00.000Z</time>
      </trkpt>
      <trkpt lat="46.8531" lon="6.5266">
        <ele>1147.5999755859</ele>
        <time>2017-04-24T07:53:02.000Z</time>
      </trkpt>
      <trkpt lat="46.85304" lon="6.52644">
        <ele>1147.4000244141</ele>
        <time>2017-04-24T07:53:04.000Z</time>
      </trkpt>
      <trkpt lat="46.85299" lon="6.52631">
        <ele>1147</ele>
        <time>2017-04-24T07:53:06.000Z</time>
      </trkpt>
      <trkpt lat="46.85295" lon="6.52619">
        <ele>1146.4000244141</ele>
        <time>2017-04-24T07:53:08.000Z</time>
      </trkpt>
      <trkpt lat="46.85297" lon="6.52604">
        <ele>1145.8000488281</ele>
        <time>2017-04-24T07:53:11.000Z</time>
      </trkpt>
      <trkpt lat="46.85297" lon="6.52598">
        <ele>1145.8000488281</ele>
        <time>2017-04-24T07:53:12.000Z</time>
      </trkpt>
      <trkpt lat="46.85298" lon="6.52578">
        <ele>1145.1999511719</ele>
        <time>2017-04-24T07:53:16.000Z</time>
      </trkpt>
      <trkpt lat="46.853" lon="6.52567">
        <ele>1145</ele>
        <time>2017-04-24T07:53:18.000Z</time>
      </trkpt>
      <trkpt lat="46.85304" lon="6.52565">
        <ele>1144.8000488281</ele>
        <time>2017-04-24T07:53:20.000Z</time>
      </trkpt>
      <trkpt lat="46.85305" lon="6.52566">
        <ele>1144.8000488281</ele>
        <time>2017-04-24T07:53:21.000Z</time>
      </trkpt>
      <trkpt lat="46.85307" lon="6.52571">
        <ele>1144.8000488281</ele>
        <time>2017-04-24T07:53:23.000Z</time>
      </trkpt>
      <trkpt lat="46.85307" lon="6.52575">
        <ele>1145.1999511719</ele>
        <time>2017-04-24T07:53:24.000Z</time>
      </trkpt>
      <trkpt lat="46.85308" lon="6.5258">
        <ele>1145.8000488281</ele>
        <time>2017-04-24T07:53:26.000Z</time>
      </trkpt>
      <trkpt lat="46.85309" lon="6.52587">
        <ele>1146.4000244141</ele>
        <time>2017-04-24T07:53:28.000Z</time>
      </trkpt>
      <trkpt lat="46.8531" lon="6.5259">
        <ele>1146.8000488281</ele>
        <time>2017-04-24T07:53:29.000Z</time>
      </trkpt>
      <trkpt lat="46.85311" lon="6.526">
        <ele>1148.1999511719</ele>
        <time>2017-04-24T07:53:32.000Z</time>
      </trkpt>
      <trkpt lat="46.85312" lon="6.52604">
        <ele>1148.5999755859</ele>
        <time>2017-04-24T07:53:33.000Z</time>
      </trkpt>
      <trkpt lat="46.85315" lon="6.52612">
        <ele>1149.4000244141</ele>
        <time>2017-04-24T07:53:35.000Z</time>
      </trkpt>
      <trkpt lat="46.85318" lon="6.52622">
        <ele>1150.1999511719</ele>
        <time>2017-04-24T07:53:37.000Z</time>
      </trkpt>
      <trkpt lat="46.85321" lon="6.52633">
        <ele>1150.5999755859</ele>
        <time>2017-04-24T07:53:39.000Z</time>
      </trkpt>
      <trkpt lat="46.85326" lon="6.52653">
        <ele>1151.5999755859</ele>
        <time>2017-04-24T07:53:43.000Z</time>
      </trkpt>
      <trkpt lat="46.85327" lon="6.52658">
        <ele>1151.5999755859</ele>
        <time>2017-04-24T07:53:44.000Z</time>
      </trkpt>
      <trkpt lat="46.85329" lon="6.52669">
        <ele>1152.8000488281</ele>
        <time>2017-04-24T07:53:46.000Z</time>
      </trkpt>
      <trkpt lat="46.85331" lon="6.52685">
        <ele>1153.5999755859</ele>
        <time>2017-04-24T07:53:49.000Z</time>
      </trkpt>
      <trkpt lat="46.85332" lon="6.5269">
        <ele>1154</ele>
        <time>2017-04-24T07:53:50.000Z</time>
      </trkpt>
      <trkpt lat="46.85335" lon="6.5271">
        <ele>1155.1999511719</ele>
        <time>2017-04-24T07:53:54.000Z</time>
      </trkpt>
      <trkpt lat="46.85336" lon="6.52715">
        <ele>1155.5999755859</ele>
        <time>2017-04-24T07:53:55.000Z</time>
      </trkpt>
      <trkpt lat="46.85338" lon="6.52725">
        <ele>1156.4000244141</ele>
        <time>2017-04-24T07:53:57.000Z</time>
      </trkpt>
      <trkpt lat="46.85343" lon="6.52739">
        <ele>1157.5999755859</ele>
        <time>2017-04-24T07:54:00.000Z</time>
      </trkpt>
      <trkpt lat="46.85351" lon="6.52758">
        <ele>1159</ele>
        <time>2017-04-24T07:54:04.000Z</time>
      </trkpt>
      <trkpt lat="46.85356" lon="6.52766">
        <ele>1159.5999755859</ele>
        <time>2017-04-24T07:54:06.000Z</time>
      </trkpt>
      <trkpt lat="46.85359" lon="6.5277">
        <ele>1160</ele>
        <time>2017-04-24T07:54:07.000Z</time>
      </trkpt>
      <trkpt lat="46.85372" lon="6.52784">
        <ele>1161</ele>
        <time>2017-04-24T07:54:11.000Z</time>
      </trkpt>
      <trkpt lat="46.85375" lon="6.52787">
        <ele>1161.1999511719</ele>
        <time>2017-04-24T07:54:12.000Z</time>
      </trkpt>
      <trkpt lat="46.85387" lon="6.52799">
        <ele>1162.1999511719</ele>
        <time>2017-04-24T07:54:16.000Z</time>
      </trkpt>
      <trkpt lat="46.8539" lon="6.52802">
        <ele>1162.4000244141</ele>
        <time>2017-04-24T07:54:17.000Z</time>
      </trkpt>
      <trkpt lat="46.85399" lon="6.52818">
        <ele>1163.4000244141</ele>
        <time>2017-04-24T07:54:21.000Z</time>
      </trkpt>
      <trkpt lat="46.85403" lon="6.52825">
        <ele>1164</ele>
        <time>2017-04-24T07:54:23.000Z</time>
      </trkpt>
      <trkpt lat="46.85407" lon="6.52832">
        <ele>1164.5999755859</ele>
        <time>2017-04-24T07:54:25.000Z</time>
      </trkpt>
      <trkpt lat="46.8541" lon="6.52838">
        <ele>1165.1999511719</ele>
        <time>2017-04-24T07:54:27.000Z</time>
      </trkpt>
      <trkpt lat="46.85414" lon="6.52846">
        <ele>1166</ele>
        <time>2017-04-24T07:54:29.000Z</time>
      </trkpt>
      <trkpt lat="46.85418" lon="6.52852">
        <ele>1167.1999511719</ele>
        <time>2017-04-24T07:54:31.000Z</time>
      </trkpt>
      <trkpt lat="46.8542" lon="6.52855">
        <ele>1167.4000244141</ele>
        <time>2017-04-24T07:54:32.000Z</time>
      </trkpt>
      <trkpt lat="46.85424" lon="6.52861">
        <ele>1168.1999511719</ele>
        <time>2017-04-24T07:54:34.000Z</time>
      </trkpt>
      <trkpt lat="46.85435" lon="6.52875">
        <ele>1169.4000244141</ele>
        <time>2017-04-24T07:54:39.000Z</time>
      </trkpt>
      <trkpt lat="46.85441" lon="6.52885">
        <ele>1170.5999755859</ele>
        <time>2017-04-24T07:54:42.000Z</time>
      </trkpt>
      <trkpt lat="46.85448" lon="6.52894">
        <ele>1171.8000488281</ele>
        <time>2017-04-24T07:54:45.000Z</time>
      </trkpt>
      <trkpt lat="46.85455" lon="6.52907">
        <ele>1172.5999755859</ele>
        <time>2017-04-24T07:54:49.000Z</time>
      </trkpt>
      <trkpt lat="46.85457" lon="6.5291">
        <ele>1173</ele>
        <time>2017-04-24T07:54:50.000Z</time>
      </trkpt>
      <trkpt lat="46.85465" lon="6.52922">
        <ele>1174.4000244141</ele>
        <time>2017-04-24T07:54:54.000Z</time>
      </trkpt>
      <trkpt lat="46.85469" lon="6.52928">
        <ele>1175.5999755859</ele>
        <time>2017-04-24T07:54:56.000Z</time>
      </trkpt>
      <trkpt lat="46.85473" lon="6.52934">
        <ele>1176.5999755859</ele>
        <time>2017-04-24T07:54:58.000Z</time>
      </trkpt>
      <trkpt lat="46.85479" lon="6.52941">
        <ele>1177.8000488281</ele>
        <time>2017-04-24T07:55:01.000Z</time>
      </trkpt>
      <trkpt lat="46.85489" lon="6.52949">
        <ele>1179</ele>
        <time>2017-04-24T07:55:05.000Z</time>
      </trkpt>
      <trkpt lat="46.85493" lon="6.52954">
        <ele>1179.8000488281</ele>
        <time>2017-04-24T07:55:07.000Z</time>
      </trkpt>
      <trkpt lat="46.85498" lon="6.5296">
        <ele>1180.1999511719</ele>
        <time>2017-04-24T07:55:09.000Z</time>
      </trkpt>
      <trkpt lat="46.85504" lon="6.52968">
        <ele>1181</ele>
        <time>2017-04-24T07:55:12.000Z</time>
      </trkpt>
      <trkpt lat="46.85506" lon="6.52971">
        <ele>1181.4000244141</ele>
        <time>2017-04-24T07:55:13.000Z</time>
      </trkpt>
      <trkpt lat="46.85512" lon="6.5298">
        <ele>1182.5999755859</ele>
        <time>2017-04-24T07:55:16.000Z</time>
      </trkpt>
      <trkpt lat="46.85515" lon="6.52983">
        <ele>1183</ele>
        <time>2017-04-24T07:55:17.000Z</time>
      </trkpt>
      <trkpt lat="46.85519" lon="6.52988">
        <ele>1183.8000488281</ele>
        <time>2017-04-24T07:55:19.000Z</time>
      </trkpt>
      <trkpt lat="46.85523" lon="6.52995">
        <ele>1184.1999511719</ele>
        <time>2017-04-24T07:55:21.000Z</time>
      </trkpt>
      <trkpt lat="46.85528" lon="6.53002">
        <ele>1184.8000488281</ele>
        <time>2017-04-24T07:55:23.000Z</time>
      </trkpt>
      <trkpt lat="46.85537" lon="6.53015">
        <ele>1185.5999755859</ele>
        <time>2017-04-24T07:55:27.000Z</time>
      </trkpt>
      <trkpt lat="46.85539" lon="6.53019">
        <ele>1185.8000488281</ele>
        <time>2017-04-24T07:55:28.000Z</time>
      </trkpt>
      <trkpt lat="46.85545" lon="6.53029">
        <ele>1187</ele>
        <time>2017-04-24T07:55:31.000Z</time>
      </trkpt>
      <trkpt lat="46.85548" lon="6.53033">
        <ele>1187.1999511719</ele>
        <time>2017-04-24T07:55:32.000Z</time>
      </trkpt>
      <trkpt lat="46.85554" lon="6.53042">
        <ele>1188.1999511719</ele>
        <time>2017-04-24T07:55:35.000Z</time>
      </trkpt>
      <trkpt lat="46.85559" lon="6.53049">
        <ele>1189</ele>
        <time>2017-04-24T07:55:37.000Z</time>
      </trkpt>
      <trkpt lat="46.85561" lon="6.53052">
        <ele>1189.1999511719</ele>
        <time>2017-04-24T07:55:38.000Z</time>
      </trkpt>
      <trkpt lat="46.85568" lon="6.53062">
        <ele>1190.4000244141</ele>
        <time>2017-04-24T07:55:41.000Z</time>
      </trkpt>
      <trkpt lat="46.85574" lon="6.53069">
        <ele>1191.1999511719</ele>
        <time>2017-04-24T07:55:43.000Z</time>
      </trkpt>
      <trkpt lat="46.85577" lon="6.53073">
        <ele>1191.5999755859</ele>
        <time>2017-04-24T07:55:44.000Z</time>
      </trkpt>
      <trkpt lat="46.85589" lon="6.53087">
        <ele>1192.8000488281</ele>
        <time>2017-04-24T07:55:49.000Z</time>
      </trkpt>
      <trkpt lat="46.85597" lon="6.53096">
        <ele>1193.8000488281</ele>
        <time>2017-04-24T07:55:53.000Z</time>
      </trkpt>
      <trkpt lat="46.856" lon="6.53099">
        <ele>1194.1999511719</ele>
        <time>2017-04-24T07:55:54.000Z</time>
      </trkpt>
      <trkpt lat="46.85607" lon="6.53107">
        <ele>1195.1999511719</ele>
        <time>2017-04-24T07:55:57.000Z</time>
      </trkpt>
      <trkpt lat="46.85611" lon="6.53113">
        <ele>1196.1999511719</ele>
        <time>2017-04-24T07:55:59.000Z</time>
      </trkpt>
      <trkpt lat="46.85613" lon="6.53116">
        <ele>1196.4000244141</ele>
        <time>2017-04-24T07:56:00.000Z</time>
      </trkpt>
      <trkpt lat="46.85622" lon="6.53126">
        <ele>1197.1999511719</ele>
        <time>2017-04-24T07:56:04.000Z</time>
      </trkpt>
      <trkpt lat="46.85624" lon="6.53129">
        <ele>1197.5999755859</ele>
        <time>2017-04-24T07:56:05.000Z</time>
      </trkpt>
      <trkpt lat="46.85633" lon="6.53142">
        <ele>1199</ele>
        <time>2017-04-24T07:56:09.000Z</time>
      </trkpt>
      <trkpt lat="46.85637" lon="6.53148">
        <ele>1199.5999755859</ele>
        <time>2017-04-24T07:56:11.000Z</time>
      </trkpt>
      <trkpt lat="46.85641" lon="6.53155">
        <ele>1200.8000488281</ele>
        <time>2017-04-24T07:56:13.000Z</time>
      </trkpt>
      <trkpt lat="46.85647" lon="6.53165">
        <ele>1202</ele>
        <time>2017-04-24T07:56:16.000Z</time>
      </trkpt>
      <trkpt lat="46.85658" lon="6.53182">
        <ele>1203</ele>
        <time>2017-04-24T07:56:21.000Z</time>
      </trkpt>
      <trkpt lat="46.85661" lon="6.53186">
        <ele>1203.4000244141</ele>
        <time>2017-04-24T07:56:22.000Z</time>
      </trkpt>
      <trkpt lat="46.85664" lon="6.53194">
        <ele>1204</ele>
        <time>2017-04-24T07:56:24.000Z</time>
      </trkpt>
      <trkpt lat="46.85669" lon="6.53204">
        <ele>1205</ele>
        <time>2017-04-24T07:56:27.000Z</time>
      </trkpt>
      <trkpt lat="46.85671" lon="6.53208">
        <ele>1205</ele>
        <time>2017-04-24T07:56:28.000Z</time>
      </trkpt>
      <trkpt lat="46.85673" lon="6.53211">
        <ele>1205.1999511719</ele>
        <time>2017-04-24T07:56:29.000Z</time>
      </trkpt>
      <trkpt lat="46.85677" lon="6.53219">
        <ele>1205.8000488281</ele>
        <time>2017-04-24T07:56:31.000Z</time>
      </trkpt>
      <trkpt lat="46.85678" lon="6.53223">
        <ele>1206.1999511719</ele>
        <time>2017-04-24T07:56:32.000Z</time>
      </trkpt>
      <trkpt lat="46.85684" lon="6.53237">
        <ele>1207.1999511719</ele>
        <time>2017-04-24T07:56:35.000Z</time>
      </trkpt>
      <trkpt lat="46.85686" lon="6.53243">
        <ele>1207.5999755859</ele>
        <time>2017-04-24T07:56:36.000Z</time>
      </trkpt>
      <trkpt lat="46.85693" lon="6.53258">
        <ele>1208.4000244141</ele>
        <time>2017-04-24T07:56:40.000Z</time>
      </trkpt>
      <trkpt lat="46.85696" lon="6.53265">
        <ele>1209.4000244141</ele>
        <time>2017-04-24T07:56:42.000Z</time>
      </trkpt>
      <trkpt lat="46.85698" lon="6.53269">
        <ele>1209.8000488281</ele>
        <time>2017-04-24T07:56:43.000Z</time>
      </trkpt>
      <trkpt lat="46.85704" lon="6.53285">
        <ele>1210.8000488281</ele>
        <time>2017-04-24T07:56:47.000Z</time>
      </trkpt>
      <trkpt lat="46.85706" lon="6.53288">
        <ele>1211</ele>
        <time>2017-04-24T07:56:48.000Z</time>
      </trkpt>
      <trkpt lat="46.85712" lon="6.53297">
        <ele>1212</ele>
        <time>2017-04-24T07:56:51.000Z</time>
      </trkpt>
      <trkpt lat="46.85717" lon="6.53303">
        <ele>1212.1999511719</ele>
        <time>2017-04-24T07:56:53.000Z</time>
      </trkpt>
      <trkpt lat="46.85727" lon="6.53317">
        <ele>1213.1999511719</ele>
        <time>2017-04-24T07:56:57.000Z</time>
      </trkpt>
      <trkpt lat="46.8573" lon="6.5332">
        <ele>1213.8000488281</ele>
        <time>2017-04-24T07:56:58.000Z</time>
      </trkpt>
      <trkpt lat="46.85736" lon="6.53327">
        <ele>1214.4000244141</ele>
        <time>2017-04-24T07:57:00.000Z</time>
      </trkpt>
      <trkpt lat="46.85742" lon="6.53334">
        <ele>1214.8000488281</ele>
        <time>2017-04-24T07:57:02.000Z</time>
      </trkpt>
      <trkpt lat="46.85744" lon="6.53338">
        <ele>1215.4000244141</ele>
        <time>2017-04-24T07:57:03.000Z</time>
      </trkpt>
      <trkpt lat="46.85752" lon="6.53348">
        <ele>1216.4000244141</ele>
        <time>2017-04-24T07:57:06.000Z</time>
      </trkpt>
      <trkpt lat="46.85755" lon="6.53352">
        <ele>1216.4000244141</ele>
        <time>2017-04-24T07:57:07.000Z</time>
      </trkpt>
      <trkpt lat="46.85766" lon="6.53366">
        <ele>1217.4000244141</ele>
        <time>2017-04-24T07:57:11.000Z</time>
      </trkpt>
      <trkpt lat="46.85771" lon="6.53372">
        <ele>1218.8000488281</ele>
        <time>2017-04-24T07:57:13.000Z</time>
      </trkpt>
      <trkpt lat="46.8578" lon="6.53386">
        <ele>1219.8000488281</ele>
        <time>2017-04-24T07:57:17.000Z</time>
      </trkpt>
      <trkpt lat="46.85787" lon="6.53395">
        <ele>1220.4000244141</ele>
        <time>2017-04-24T07:57:20.000Z</time>
      </trkpt>
      <trkpt lat="46.85791" lon="6.53402">
        <ele>1221.1999511719</ele>
        <time>2017-04-24T07:57:22.000Z</time>
      </trkpt>
      <trkpt lat="46.85799" lon="6.53411">
        <ele>1222.1999511719</ele>
        <time>2017-04-24T07:57:25.000Z</time>
      </trkpt>
      <trkpt lat="46.85801" lon="6.53414">
        <ele>1222.4000244141</ele>
        <time>2017-04-24T07:57:26.000Z</time>
      </trkpt>
      <trkpt lat="46.85812" lon="6.5343">
        <ele>1223.4000244141</ele>
        <time>2017-04-24T07:57:31.000Z</time>
      </trkpt>
      <trkpt lat="46.85815" lon="6.53433">
        <ele>1223.5999755859</ele>
        <time>2017-04-24T07:57:32.000Z</time>
      </trkpt>
      <trkpt lat="46.85825" lon="6.53446">
        <ele>1224.4000244141</ele>
        <time>2017-04-24T07:57:36.000Z</time>
      </trkpt>
      <trkpt lat="46.85828" lon="6.53449">
        <ele>1224.4000244141</ele>
        <time>2017-04-24T07:57:37.000Z</time>
      </trkpt>
      <trkpt lat="46.85839" lon="6.53463">
        <ele>1225.4000244141</ele>
        <time>2017-04-24T07:57:41.000Z</time>
      </trkpt>
      <trkpt lat="46.85845" lon="6.5347">
        <ele>1225.5999755859</ele>
        <time>2017-04-24T07:57:43.000Z</time>
      </trkpt>
      <trkpt lat="46.85861" lon="6.5349">
        <ele>1226.5999755859</ele>
        <time>2017-04-24T07:57:49.000Z</time>
      </trkpt>
      <trkpt lat="46.85868" lon="6.53504">
        <ele>1228</ele>
        <time>2017-04-24T07:57:53.000Z</time>
      </trkpt>
      <trkpt lat="46.85873" lon="6.53511">
        <ele>1229</ele>
        <time>2017-04-24T07:57:55.000Z</time>
      </trkpt>
      <trkpt lat="46.85874" lon="6.53514">
        <ele>1229.1999511719</ele>
        <time>2017-04-24T07:57:56.000Z</time>
      </trkpt>
      <trkpt lat="46.85883" lon="6.53526">
        <ele>1230.1999511719</ele>
        <time>2017-04-24T07:58:00.000Z</time>
      </trkpt>
      <trkpt lat="46.8589" lon="6.53533">
        <ele>1231.4000244141</ele>
        <time>2017-04-24T07:58:03.000Z</time>
      </trkpt>
      <trkpt lat="46.85892" lon="6.53535">
        <ele>1231.8000488281</ele>
        <time>2017-04-24T07:58:04.000Z</time>
      </trkpt>
      <trkpt lat="46.85896" lon="6.53541">
        <ele>1232.5999755859</ele>
        <time>2017-04-24T07:58:06.000Z</time>
      </trkpt>
      <trkpt lat="46.85905" lon="6.53552">
        <ele>1233.8000488281</ele>
        <time>2017-04-24T07:58:10.000Z</time>
      </trkpt>
      <trkpt lat="46.85907" lon="6.53555">
        <ele>1234.1999511719</ele>
        <time>2017-04-24T07:58:11.000Z</time>
      </trkpt>
      <trkpt lat="46.85914" lon="6.53562">
        <ele>1235.1999511719</ele>
        <time>2017-04-24T07:58:14.000Z</time>
      </trkpt>
      <trkpt lat="46.85923" lon="6.53572">
        <ele>1236.5999755859</ele>
        <time>2017-04-24T07:58:18.000Z</time>
      </trkpt>
      <trkpt lat="46.85934" lon="6.53587">
        <ele>1237.8000488281</ele>
        <time>2017-04-24T07:58:23.000Z</time>
      </trkpt>
      <trkpt lat="46.8594" lon="6.53595">
        <ele>1238.8000488281</ele>
        <time>2017-04-24T07:58:26.000Z</time>
      </trkpt>
      <trkpt lat="46.85942" lon="6.53598">
        <ele>1239.1999511719</ele>
        <time>2017-04-24T07:58:27.000Z</time>
      </trkpt>
      <trkpt lat="46.8595" lon="6.53608">
        <ele>1240.4000244141</ele>
        <time>2017-04-24T07:58:31.000Z</time>
      </trkpt>
      <trkpt lat="46.85954" lon="6.53614">
        <ele>1241</ele>
        <time>2017-04-24T07:58:33.000Z</time>
      </trkpt>
      <trkpt lat="46.85956" lon="6.53616">
        <ele>1241.5999755859</ele>
        <time>2017-04-24T07:58:34.000Z</time>
      </trkpt>
      <trkpt lat="46.85962" lon="6.53623">
        <ele>1242.5999755859</ele>
        <time>2017-04-24T07:58:37.000Z</time>
      </trkpt>
      <trkpt lat="46.85968" lon="6.53631">
        <ele>1243.8000488281</ele>
        <time>2017-04-24T07:58:40.000Z</time>
      </trkpt>
      <trkpt lat="46.85974" lon="6.53638">
        <ele>1245</ele>
        <time>2017-04-24T07:58:43.000Z</time>
      </trkpt>
      <trkpt lat="46.85983" lon="6.53649">
        <ele>1246</ele>
        <time>2017-04-24T07:58:48.000Z</time>
      </trkpt>
      <trkpt lat="46.85985" lon="6.53652">
        <ele>1246.1999511719</ele>
        <time>2017-04-24T07:58:49.000Z</time>
      </trkpt>
      <trkpt lat="46.8599" lon="6.53659">
        <ele>1247.1999511719</ele>
        <time>2017-04-24T07:58:52.000Z</time>
      </trkpt>
      <trkpt lat="46.85996" lon="6.53666">
        <ele>1248.8000488281</ele>
        <time>2017-04-24T07:58:55.000Z</time>
      </trkpt>
      <trkpt lat="46.85999" lon="6.53671">
        <ele>1249.5999755859</ele>
        <time>2017-04-24T07:58:57.000Z</time>
      </trkpt>
      <trkpt lat="46.86001" lon="6.53673">
        <ele>1250.1999511719</ele>
        <time>2017-04-24T07:58:58.000Z</time>
      </trkpt>
      <trkpt lat="46.86006" lon="6.5368">
        <ele>1251.1999511719</ele>
        <time>2017-04-24T07:59:01.000Z</time>
      </trkpt>
      <trkpt lat="46.86011" lon="6.53688">
        <ele>1252.1999511719</ele>
        <time>2017-04-24T07:59:04.000Z</time>
      </trkpt>
      <trkpt lat="46.86012" lon="6.53691">
        <ele>1252.5999755859</ele>
        <time>2017-04-24T07:59:05.000Z</time>
      </trkpt>
      <trkpt lat="46.86016" lon="6.53695">
        <ele>1253.5999755859</ele>
        <time>2017-04-24T07:59:07.000Z</time>
      </trkpt>
      <trkpt lat="46.86021" lon="6.53703">
        <ele>1254.8000488281</ele>
        <time>2017-04-24T07:59:10.000Z</time>
      </trkpt>
      <trkpt lat="46.86024" lon="6.53707">
        <ele>1256</ele>
        <time>2017-04-24T07:59:12.000Z</time>
      </trkpt>
      <trkpt lat="46.8603" lon="6.53714">
        <ele>1257</ele>
        <time>2017-04-24T07:59:15.000Z</time>
      </trkpt>
      <trkpt lat="46.86032" lon="6.53716">
        <ele>1257.1999511719</ele>
        <time>2017-04-24T07:59:16.000Z</time>
      </trkpt>
      <trkpt lat="46.86038" lon="6.53723">
        <ele>1258.1999511719</ele>
        <time>2017-04-24T07:59:19.000Z</time>
      </trkpt>
      <trkpt lat="46.86048" lon="6.53734">
        <ele>1259.1999511719</ele>
        <time>2017-04-24T07:59:24.000Z</time>
      </trkpt>
      <trkpt lat="46.86055" lon="6.53739">
        <ele>1259.8000488281</ele>
        <time>2017-04-24T07:59:27.000Z</time>
      </trkpt>
      <trkpt lat="46.86059" lon="6.53742">
        <ele>1260.5999755859</ele>
        <time>2017-04-24T07:59:29.000Z</time>
      </trkpt>
      <trkpt lat="46.86066" lon="6.53743">
        <ele>1261.5999755859</ele>
        <time>2017-04-24T07:59:32.000Z</time>
      </trkpt>
      <trkpt lat="46.86068" lon="6.53741">
        <ele>1261.8000488281</ele>
        <time>2017-04-24T07:59:33.000Z</time>
      </trkpt>
      <trkpt lat="46.86071" lon="6.53732">
        <ele>1263</ele>
        <time>2017-04-24T07:59:36.000Z</time>
      </trkpt>
      <trkpt lat="46.86071" lon="6.53728">
        <ele>1263.4000244141</ele>
        <time>2017-04-24T07:59:37.000Z</time>
      </trkpt>
      <trkpt lat="46.8607" lon="6.53722">
        <ele>1264</ele>
        <time>2017-04-24T07:59:39.000Z</time>
      </trkpt>
      <trkpt lat="46.86069" lon="6.53719">
        <ele>1264.4000244141</ele>
        <time>2017-04-24T07:59:40.000Z</time>
      </trkpt>
      <trkpt lat="46.86066" lon="6.53713">
        <ele>1265</ele>
        <time>2017-04-24T07:59:42.000Z</time>
      </trkpt>
      <trkpt lat="46.86063" lon="6.53705">
        <ele>1266.1999511719</ele>
        <time>2017-04-24T07:59:45.000Z</time>
      </trkpt>
      <trkpt lat="46.86061" lon="6.53699">
        <ele>1266.5999755859</ele>
        <time>2017-04-24T07:59:47.000Z</time>
      </trkpt>
      <trkpt lat="46.86058" lon="6.53693">
        <ele>1267.1999511719</ele>
        <time>2017-04-24T07:59:49.000Z</time>
      </trkpt>
      <trkpt lat="46.86053" lon="6.53676">
        <ele>1268.4000244141</ele>
        <time>2017-04-24T07:59:54.000Z</time>
      </trkpt>
      <trkpt lat="46.86049" lon="6.53662">
        <ele>1269.5999755859</ele>
        <time>2017-04-24T07:59:58.000Z</time>
      </trkpt>
      <trkpt lat="46.86047" lon="6.53651">
        <ele>1270.8000488281</ele>
        <time>2017-04-24T08:00:01.000Z</time>
      </trkpt>
      <trkpt lat="46.86042" lon="6.53635">
        <ele>1272</ele>
        <time>2017-04-24T08:00:05.000Z</time>
      </trkpt>
      <trkpt lat="46.86037" lon="6.5362">
        <ele>1273.1999511719</ele>
        <time>2017-04-24T08:00:09.000Z</time>
      </trkpt>
      <trkpt lat="46.86027" lon="6.53598">
        <ele>1274.1999511719</ele>
        <time>2017-04-24T08:00:15.000Z</time>
      </trkpt>
      <trkpt lat="46.86026" lon="6.53594">
        <ele>1274.1999511719</ele>
        <time>2017-04-24T08:00:16.000Z</time>
      </trkpt>
      <trkpt lat="46.86021" lon="6.53583">
        <ele>1275.5999755859</ele>
        <time>2017-04-24T08:00:19.000Z</time>
      </trkpt>
      <trkpt lat="46.86018" lon="6.53576">
        <ele>1276.8000488281</ele>
        <time>2017-04-24T08:00:21.000Z</time>
      </trkpt>
      <trkpt lat="46.86012" lon="6.53562">
        <ele>1278</ele>
        <time>2017-04-24T08:00:25.000Z</time>
      </trkpt>
      <trkpt lat="46.86008" lon="6.53551">
        <ele>1279.4000244141</ele>
        <time>2017-04-24T08:00:28.000Z</time>
      </trkpt>
      <trkpt lat="46.86001" lon="6.53534">
        <ele>1280.5999755859</ele>
        <time>2017-04-24T08:00:33.000Z</time>
      </trkpt>
      <trkpt lat="46.85995" lon="6.5352">
        <ele>1281.8000488281</ele>
        <time>2017-04-24T08:00:37.000Z</time>
      </trkpt>
      <trkpt lat="46.85991" lon="6.5351">
        <ele>1282.8000488281</ele>
        <time>2017-04-24T08:00:40.000Z</time>
      </trkpt>
      <trkpt lat="46.85987" lon="6.535">
        <ele>1284</ele>
        <time>2017-04-24T08:00:43.000Z</time>
      </trkpt>
      <trkpt lat="46.85982" lon="6.53487">
        <ele>1285</ele>
        <time>2017-04-24T08:00:47.000Z</time>
      </trkpt>
      <trkpt lat="46.8598" lon="6.53483">
        <ele>1285.1999511719</ele>
        <time>2017-04-24T08:00:48.000Z</time>
      </trkpt>
      <trkpt lat="46.85977" lon="6.53477">
        <ele>1286.4000244141</ele>
        <time>2017-04-24T08:00:50.000Z</time>
      </trkpt>
      <trkpt lat="46.85972" lon="6.53468">
        <ele>1287.8000488281</ele>
        <time>2017-04-24T08:00:53.000Z</time>
      </trkpt>
      <trkpt lat="46.85971" lon="6.53465">
        <ele>1288</ele>
        <time>2017-04-24T08:00:54.000Z</time>
      </trkpt>
      <trkpt lat="46.85968" lon="6.53459">
        <ele>1288.4000244141</ele>
        <time>2017-04-24T08:00:56.000Z</time>
      </trkpt>
      <trkpt lat="46.85968" lon="6.53451">
        <ele>1289</ele>
        <time>2017-04-24T08:00:58.000Z</time>
      </trkpt>
      <trkpt lat="46.85975" lon="6.53449">
        <ele>1290</ele>
        <time>2017-04-24T08:01:01.000Z</time>
      </trkpt>
      <trkpt lat="46.85982" lon="6.53461">
        <ele>1290.8000488281</ele>
        <time>2017-04-24T08:01:05.000Z</time>
      </trkpt>
      <trkpt lat="46.85986" lon="6.53467">
        <ele>1291.1999511719</ele>
        <time>2017-04-24T08:01:07.000Z</time>
      </trkpt>
      <trkpt lat="46.85992" lon="6.53477">
        <ele>1292.4000244141</ele>
        <time>2017-04-24T08:01:10.000Z</time>
      </trkpt>
      <trkpt lat="46.85994" lon="6.5348">
        <ele>1292.5999755859</ele>
        <time>2017-04-24T08:01:11.000Z</time>
      </trkpt>
      <trkpt lat="46.86005" lon="6.53494">
        <ele>1293.8000488281</ele>
        <time>2017-04-24T08:01:16.000Z</time>
      </trkpt>
      <trkpt lat="46.8601" lon="6.53499">
        <ele>1294.4000244141</ele>
        <time>2017-04-24T08:01:18.000Z</time>
      </trkpt>
      <trkpt lat="46.86014" lon="6.53503">
        <ele>1295</ele>
        <time>2017-04-24T08:01:20.000Z</time>
      </trkpt>
      <trkpt lat="46.86022" lon="6.53512">
        <ele>1295.8000488281</ele>
        <time>2017-04-24T08:01:23.000Z</time>
      </trkpt>
      <trkpt lat="46.86024" lon="6.53515">
        <ele>1296.4000244141</ele>
        <time>2017-04-24T08:01:24.000Z</time>
      </trkpt>
      <trkpt lat="46.86032" lon="6.53524">
        <ele>1297.4000244141</ele>
        <time>2017-04-24T08:01:27.000Z</time>
      </trkpt>
      <trkpt lat="46.86043" lon="6.53537">
        <ele>1298.1999511719</ele>
        <time>2017-04-24T08:01:31.000Z</time>
      </trkpt>
      <trkpt lat="46.86048" lon="6.53543">
        <ele>1298.5999755859</ele>
        <time>2017-04-24T08:01:33.000Z</time>
      </trkpt>
      <trkpt lat="46.86066" lon="6.53561">
        <ele>1299.1999511719</ele>
        <time>2017-04-24T08:01:39.000Z</time>
      </trkpt>
      <trkpt lat="46.86082" lon="6.53577">
        <ele>1299.5999755859</ele>
        <time>2017-04-24T08:01:44.000Z</time>
      </trkpt>
      <trkpt lat="46.86091" lon="6.53588">
        <ele>1300.4000244141</ele>
        <time>2017-04-24T08:01:47.000Z</time>
      </trkpt>
      <trkpt lat="46.86102" lon="6.53607">
        <ele>1300.5999755859</ele>
        <time>2017-04-24T08:01:51.000Z</time>
      </trkpt>
      <trkpt lat="46.86109" lon="6.53616">
        <ele>1300.5999755859</ele>
        <time>2017-04-24T08:01:53.000Z</time>
      </trkpt>
      <trkpt lat="46.86117" lon="6.53623">
        <ele>1300.8000488281</ele>
        <time>2017-04-24T08:01:55.000Z</time>
      </trkpt>
      <trkpt lat="46.8613" lon="6.53632">
        <ele>1300.4000244141</ele>
        <time>2017-04-24T08:01:58.000Z</time>
      </trkpt>
      <trkpt lat="46.86153" lon="6.53647">
        <ele>1299.8000488281</ele>
        <time>2017-04-24T08:02:03.000Z</time>
      </trkpt>
      <trkpt lat="46.86158" lon="6.53649">
        <ele>1299.5999755859</ele>
        <time>2017-04-24T08:02:04.000Z</time>
      </trkpt>
      <trkpt lat="46.86173" lon="6.53655">
        <ele>1299.1999511719</ele>
        <time>2017-04-24T08:02:07.000Z</time>
      </trkpt>
      <trkpt lat="46.86186" lon="6.53658">
        <ele>1299.5999755859</ele>
        <time>2017-04-24T08:02:10.000Z</time>
      </trkpt>
      <trkpt lat="46.86222" lon="6.53668">
        <ele>1300.5999755859</ele>
        <time>2017-04-24T08:02:18.000Z</time>
      </trkpt>
      <trkpt lat="46.86227" lon="6.5367">
        <ele>1300.5999755859</ele>
        <time>2017-04-24T08:02:19.000Z</time>
      </trkpt>
      <trkpt lat="46.86243" lon="6.53683">
        <ele>1301</ele>
        <time>2017-04-24T08:02:23.000Z</time>
      </trkpt>
      <trkpt lat="46.86251" lon="6.5369">
        <ele>1301.4000244141</ele>
        <time>2017-04-24T08:02:25.000Z</time>
      </trkpt>
      <trkpt lat="46.86254" lon="6.53694">
        <ele>1301.8000488281</ele>
        <time>2017-04-24T08:02:26.000Z</time>
      </trkpt>
      <trkpt lat="46.86263" lon="6.53704">
        <ele>1302.8000488281</ele>
        <time>2017-04-24T08:02:29.000Z</time>
      </trkpt>
      <trkpt lat="46.86266" lon="6.53707">
        <ele>1303.1999511719</ele>
        <time>2017-04-24T08:02:30.000Z</time>
      </trkpt>
      <trkpt lat="46.86276" lon="6.53717">
        <ele>1304.4000244141</ele>
        <time>2017-04-24T08:02:33.000Z</time>
      </trkpt>
      <trkpt lat="46.86286" lon="6.53726">
        <ele>1305.1999511719</ele>
        <time>2017-04-24T08:02:36.000Z</time>
      </trkpt>
      <trkpt lat="46.86292" lon="6.53732">
        <ele>1305.8000488281</ele>
        <time>2017-04-24T08:02:38.000Z</time>
      </trkpt>
      <trkpt lat="46.86304" lon="6.53744">
        <ele>1306.8000488281</ele>
        <time>2017-04-24T08:02:42.000Z</time>
      </trkpt>
      <trkpt lat="46.86307" lon="6.53747">
        <ele>1307.1999511719</ele>
        <time>2017-04-24T08:02:43.000Z</time>
      </trkpt>
      <trkpt lat="46.86312" lon="6.53752">
        <ele>1308.4000244141</ele>
        <time>2017-04-24T08:02:45.000Z</time>
      </trkpt>
      <trkpt lat="46.86317" lon="6.53757">
        <ele>1309.5999755859</ele>
        <time>2017-04-24T08:02:47.000Z</time>
      </trkpt>
      <trkpt lat="46.86322" lon="6.53761">
        <ele>1310</ele>
        <time>2017-04-24T08:02:49.000Z</time>
      </trkpt>
      <trkpt lat="46.86333" lon="6.53772">
        <ele>1310.8000488281</ele>
        <time>2017-04-24T08:02:53.000Z</time>
      </trkpt>
      <trkpt lat="46.86342" lon="6.5378">
        <ele>1312</ele>
        <time>2017-04-24T08:02:56.000Z</time>
      </trkpt>
      <trkpt lat="46.86347" lon="6.53784">
        <ele>1312.8000488281</ele>
        <time>2017-04-24T08:02:58.000Z</time>
      </trkpt>
      <trkpt lat="46.86353" lon="6.53788">
        <ele>1313.1999511719</ele>
        <time>2017-04-24T08:03:00.000Z</time>
      </trkpt>
      <trkpt lat="46.86365" lon="6.53797">
        <ele>1314.8000488281</ele>
        <time>2017-04-24T08:03:04.000Z</time>
      </trkpt>
      <trkpt lat="46.86371" lon="6.53802">
        <ele>1315.8000488281</ele>
        <time>2017-04-24T08:03:06.000Z</time>
      </trkpt>
      <trkpt lat="46.86373" lon="6.53804">
        <ele>1316.1999511719</ele>
        <time>2017-04-24T08:03:07.000Z</time>
      </trkpt>
      <trkpt lat="46.86382" lon="6.53812">
        <ele>1317.1999511719</ele>
        <time>2017-04-24T08:03:10.000Z</time>
      </trkpt>
      <trkpt lat="46.86387" lon="6.53816">
        <ele>1318.1999511719</ele>
        <time>2017-04-24T08:03:12.000Z</time>
      </trkpt>
      <trkpt lat="46.86396" lon="6.53821">
        <ele>1319.8000488281</ele>
        <time>2017-04-24T08:03:15.000Z</time>
      </trkpt>
      <trkpt lat="46.86408" lon="6.53824">
        <ele>1321</ele>
        <time>2017-04-24T08:03:19.000Z</time>
      </trkpt>
      <trkpt lat="46.86421" lon="6.53825">
        <ele>1322.1999511719</ele>
        <time>2017-04-24T08:03:23.000Z</time>
      </trkpt>
      <trkpt lat="46.86434" lon="6.53826">
        <ele>1323.1999511719</ele>
        <time>2017-04-24T08:03:27.000Z</time>
      </trkpt>
      <trkpt lat="46.86443" lon="6.53829">
        <ele>1324</ele>
        <time>2017-04-24T08:03:30.000Z</time>
      </trkpt>
      <trkpt lat="46.86446" lon="6.5383">
        <ele>1324.4000244141</ele>
        <time>2017-04-24T08:03:31.000Z</time>
      </trkpt>
      <trkpt lat="46.86458" lon="6.53834">
        <ele>1325.5999755859</ele>
        <time>2017-04-24T08:03:35.000Z</time>
      </trkpt>
      <trkpt lat="46.86467" lon="6.53839">
        <ele>1326.5999755859</ele>
        <time>2017-04-24T08:03:38.000Z</time>
      </trkpt>
      <trkpt lat="46.8647" lon="6.5384">
        <ele>1327.1999511719</ele>
        <time>2017-04-24T08:03:39.000Z</time>
      </trkpt>
      <trkpt lat="46.86475" lon="6.53844">
        <ele>1328</ele>
        <time>2017-04-24T08:03:41.000Z</time>
      </trkpt>
      <trkpt lat="46.86488" lon="6.53856">
        <ele>1329.1999511719</ele>
        <time>2017-04-24T08:03:46.000Z</time>
      </trkpt>
      <trkpt lat="46.86496" lon="6.53864">
        <ele>1330.1999511719</ele>
        <time>2017-04-24T08:03:49.000Z</time>
      </trkpt>
      <trkpt lat="46.86502" lon="6.53872">
        <ele>1330.8000488281</ele>
        <time>2017-04-24T08:03:52.000Z</time>
      </trkpt>
      <trkpt lat="46.86507" lon="6.53878">
        <ele>1331.4000244141</ele>
        <time>2017-04-24T08:03:54.000Z</time>
      </trkpt>
      <trkpt lat="46.86511" lon="6.53883">
        <ele>1332.4000244141</ele>
        <time>2017-04-24T08:03:56.000Z</time>
      </trkpt>
      <trkpt lat="46.86516" lon="6.53893">
        <ele>1333.4000244141</ele>
        <time>2017-04-24T08:03:59.000Z</time>
      </trkpt>
      <trkpt lat="46.86518" lon="6.539">
        <ele>1334</ele>
        <time>2017-04-24T08:04:01.000Z</time>
      </trkpt>
      <trkpt lat="46.86521" lon="6.53908">
        <ele>1334.8000488281</ele>
        <time>2017-04-24T08:04:03.000Z</time>
      </trkpt>
      <trkpt lat="46.86528" lon="6.53925">
        <ele>1336</ele>
        <time>2017-04-24T08:04:08.000Z</time>
      </trkpt>
      <trkpt lat="46.86532" lon="6.53931">
        <ele>1336.4000244141</ele>
        <time>2017-04-24T08:04:10.000Z</time>
      </trkpt>
      <trkpt lat="46.86535" lon="6.53938">
        <ele>1337</ele>
        <time>2017-04-24T08:04:12.000Z</time>
      </trkpt>
      <trkpt lat="46.86542" lon="6.53955">
        <ele>1338.1999511719</ele>
        <time>2017-04-24T08:04:17.000Z</time>
      </trkpt>
      <trkpt lat="46.86544" lon="6.53958">
        <ele>1338.5999755859</ele>
        <time>2017-04-24T08:04:18.000Z</time>
      </trkpt>
      <trkpt lat="46.86545" lon="6.53962">
        <ele>1339.1999511719</ele>
        <time>2017-04-24T08:04:19.000Z</time>
      </trkpt>
      <trkpt lat="46.86549" lon="6.53973">
        <ele>1340.4000244141</ele>
        <time>2017-04-24T08:04:22.000Z</time>
      </trkpt>
      <trkpt lat="46.86553" lon="6.53991">
        <ele>1341.1999511719</ele>
        <time>2017-04-24T08:04:26.000Z</time>
      </trkpt>
      <trkpt lat="46.86555" lon="6.54">
        <ele>1341.4000244141</ele>
        <time>2017-04-24T08:04:28.000Z</time>
      </trkpt>
      <trkpt lat="46.86559" lon="6.54025">
        <ele>1342.4000244141</ele>
        <time>2017-04-24T08:04:33.000Z</time>
      </trkpt>
      <trkpt lat="46.86561" lon="6.54035">
        <ele>1343</ele>
        <time>2017-04-24T08:04:35.000Z</time>
      </trkpt>
      <trkpt lat="46.86564" lon="6.54049">
        <ele>1343.8000488281</ele>
        <time>2017-04-24T08:04:38.000Z</time>
      </trkpt>
      <trkpt lat="46.8657" lon="6.54073">
        <ele>1344.5999755859</ele>
        <time>2017-04-24T08:04:43.000Z</time>
      </trkpt>
      <trkpt lat="46.86571" lon="6.54077">
        <ele>1344.8000488281</ele>
        <time>2017-04-24T08:04:44.000Z</time>
      </trkpt>
      <trkpt lat="46.86579" lon="6.54107">
        <ele>1346.1999511719</ele>
        <time>2017-04-24T08:04:50.000Z</time>
      </trkpt>
      <trkpt lat="46.86582" lon="6.54118">
        <ele>1346.8000488281</ele>
        <time>2017-04-24T08:04:52.000Z</time>
      </trkpt>
      <trkpt lat="46.86586" lon="6.54133">
        <ele>1347.4000244141</ele>
        <time>2017-04-24T08:04:55.000Z</time>
      </trkpt>
      <trkpt lat="46.8659" lon="6.54154">
        <ele>1347.8000488281</ele>
        <time>2017-04-24T08:04:59.000Z</time>
      </trkpt>
      <trkpt lat="46.86592" lon="6.54169">
        <ele>1348.4000244141</ele>
        <time>2017-04-24T08:05:02.000Z</time>
      </trkpt>
      <trkpt lat="46.86593" lon="6.54191">
        <ele>1349.5999755859</ele>
        <time>2017-04-24T08:05:07.000Z</time>
      </trkpt>
      <trkpt lat="46.86593" lon="6.54191">
        <ele>1349.5999755859</ele>
        <time>2017-04-24T08:05:08.000Z</time>
      </trkpt>
      <trkpt lat="46.86584" lon="6.54208">
        <ele>1350.5999755859</ele>
        <time>2017-04-24T08:10:42.000Z</time>
      </trkpt>
      <trkpt lat="46.86579" lon="6.54213">
        <ele>1351</ele>
        <time>2017-04-24T08:10:45.000Z</time>
      </trkpt>
      <trkpt lat="46.86577" lon="6.54214">
        <ele>1351.1999511719</ele>
        <time>2017-04-24T08:10:46.000Z</time>
      </trkpt>
      <trkpt lat="46.86576" lon="6.54214">
        <ele>1351.5999755859</ele>
        <time>2017-04-24T08:10:47.000Z</time>
      </trkpt>
      <trkpt lat="46.86577" lon="6.5421">
        <ele>1352.8000488281</ele>
        <time>2017-04-24T08:10:50.000Z</time>
      </trkpt>
      <trkpt lat="46.86574" lon="6.54212">
        <ele>1353.1999511719</ele>
        <time>2017-04-24T08:10:51.000Z</time>
      </trkpt>
      <trkpt lat="46.86569" lon="6.54216">
        <ele>1354.1999511719</ele>
        <time>2017-04-24T08:10:53.000Z</time>
      </trkpt>
      <trkpt lat="46.86561" lon="6.54223">
        <ele>1355.4000244141</ele>
        <time>2017-04-24T08:10:57.000Z</time>
      </trkpt>
      <trkpt lat="46.86562" lon="6.54233">
        <ele>1356.5999755859</ele>
        <time>2017-04-24T08:11:01.000Z</time>
      </trkpt>
      <trkpt lat="46.86563" lon="6.54235">
        <ele>1356.8000488281</ele>
        <time>2017-04-24T08:11:02.000Z</time>
      </trkpt>
      <trkpt lat="46.86565" lon="6.54242">
        <ele>1358</ele>
        <time>2017-04-24T08:11:05.000Z</time>
      </trkpt>
      <trkpt lat="46.86566" lon="6.54247">
        <ele>1359.1999511719</ele>
        <time>2017-04-24T08:11:07.000Z</time>
      </trkpt>
      <trkpt lat="46.86567" lon="6.54251">
        <ele>1360.5999755859</ele>
        <time>2017-04-24T08:11:09.000Z</time>
      </trkpt>
      <trkpt lat="46.8657" lon="6.54257">
        <ele>1361.8000488281</ele>
        <time>2017-04-24T08:11:12.000Z</time>
      </trkpt>
      <trkpt lat="46.86572" lon="6.54262">
        <ele>1362.5999755859</ele>
        <time>2017-04-24T08:11:14.000Z</time>
      </trkpt>
      <trkpt lat="46.86572" lon="6.54264">
        <ele>1363.1999511719</ele>
        <time>2017-04-24T08:11:15.000Z</time>
      </trkpt>
      <trkpt lat="46.86574" lon="6.54267">
        <ele>1364.4000244141</ele>
        <time>2017-04-24T08:11:17.000Z</time>
      </trkpt>
      <trkpt lat="46.86578" lon="6.54272">
        <ele>1365.8000488281</ele>
        <time>2017-04-24T08:11:20.000Z</time>
      </trkpt>
      <trkpt lat="46.86579" lon="6.54274">
        <ele>1366</ele>
        <time>2017-04-24T08:11:21.000Z</time>
      </trkpt>
      <trkpt lat="46.86583" lon="6.5428">
        <ele>1367</ele>
        <time>2017-04-24T08:11:24.000Z</time>
      </trkpt>
      <trkpt lat="46.86585" lon="6.54284">
        <ele>1368.4000244141</ele>
        <time>2017-04-24T08:11:26.000Z</time>
      </trkpt>
      <trkpt lat="46.86589" lon="6.5429">
        <ele>1369.5999755859</ele>
        <time>2017-04-24T08:11:29.000Z</time>
      </trkpt>
      <trkpt lat="46.8659" lon="6.54292">
        <ele>1370</ele>
        <time>2017-04-24T08:11:30.000Z</time>
      </trkpt>
      <trkpt lat="46.86592" lon="6.54296">
        <ele>1370.5999755859</ele>
        <time>2017-04-24T08:11:32.000Z</time>
      </trkpt>
      <trkpt lat="46.86597" lon="6.54301">
        <ele>1371.8000488281</ele>
        <time>2017-04-24T08:11:35.000Z</time>
      </trkpt>
      <trkpt lat="46.866" lon="6.54307">
        <ele>1372.8000488281</ele>
        <time>2017-04-24T08:11:38.000Z</time>
      </trkpt>
      <trkpt lat="46.86603" lon="6.54312">
        <ele>1374</ele>
        <time>2017-04-24T08:11:41.000Z</time>
      </trkpt>
      <trkpt lat="46.86607" lon="6.54317">
        <ele>1375.1999511719</ele>
        <time>2017-04-24T08:11:44.000Z</time>
      </trkpt>
      <trkpt lat="46.86608" lon="6.54319">
        <ele>1375.5999755859</ele>
        <time>2017-04-24T08:11:45.000Z</time>
      </trkpt>
      <trkpt lat="46.86612" lon="6.54324">
        <ele>1376.5999755859</ele>
        <time>2017-04-24T08:11:48.000Z</time>
      </trkpt>
      <trkpt lat="46.86615" lon="6.5433">
        <ele>1378</ele>
        <time>2017-04-24T08:11:51.000Z</time>
      </trkpt>
      <trkpt lat="46.86617" lon="6.54334">
        <ele>1378.5999755859</ele>
        <time>2017-04-24T08:11:53.000Z</time>
      </trkpt>
      <trkpt lat="46.86618" lon="6.54339">
        <ele>1379.1999511719</ele>
        <time>2017-04-24T08:11:55.000Z</time>
      </trkpt>
      <trkpt lat="46.86619" lon="6.54345">
        <ele>1380.5999755859</ele>
        <time>2017-04-24T08:11:58.000Z</time>
      </trkpt>
      <trkpt lat="46.8662" lon="6.54348">
        <ele>1381.8000488281</ele>
        <time>2017-04-24T08:12:00.000Z</time>
      </trkpt>
      <trkpt lat="46.86623" lon="6.54355">
        <ele>1383</ele>
        <time>2017-04-24T08:12:03.000Z</time>
      </trkpt>
      <trkpt lat="46.86624" lon="6.54359">
        <ele>1384</ele>
        <time>2017-04-24T08:12:05.000Z</time>
      </trkpt>
      <trkpt lat="46.86625" lon="6.54362">
        <ele>1384.4000244141</ele>
        <time>2017-04-24T08:12:06.000Z</time>
      </trkpt>
      <trkpt lat="46.86627" lon="6.54366">
        <ele>1385.4000244141</ele>
        <time>2017-04-24T08:12:08.000Z</time>
      </trkpt>
      <trkpt lat="46.86631" lon="6.54371">
        <ele>1386.4000244141</ele>
        <time>2017-04-24T08:12:11.000Z</time>
      </trkpt>
      <trkpt lat="46.86632" lon="6.54373">
        <ele>1386.5999755859</ele>
        <time>2017-04-24T08:12:12.000Z</time>
      </trkpt>
      <trkpt lat="46.86636" lon="6.54378">
        <ele>1387.8000488281</ele>
        <time>2017-04-24T08:12:15.000Z</time>
      </trkpt>
      <trkpt lat="46.86639" lon="6.54382">
        <ele>1389.1999511719</ele>
        <time>2017-04-24T08:12:18.000Z</time>
      </trkpt>
      <trkpt lat="46.8664" lon="6.54384">
        <ele>1389.4000244141</ele>
        <time>2017-04-24T08:12:19.000Z</time>
      </trkpt>
      <trkpt lat="46.86644" lon="6.54388">
        <ele>1390.5999755859</ele>
        <time>2017-04-24T08:12:22.000Z</time>
      </trkpt>
      <trkpt lat="46.86647" lon="6.54393">
        <ele>1391.8000488281</ele>
        <time>2017-04-24T08:12:25.000Z</time>
      </trkpt>
      <trkpt lat="46.86651" lon="6.54397">
        <ele>1393.1999511719</ele>
        <time>2017-04-24T08:12:28.000Z</time>
      </trkpt>
      <trkpt lat="46.86656" lon="6.54403">
        <ele>1394.5999755859</ele>
        <time>2017-04-24T08:12:32.000Z</time>
      </trkpt>
      <trkpt lat="46.8666" lon="6.54407">
        <ele>1395.8000488281</ele>
        <time>2017-04-24T08:12:35.000Z</time>
      </trkpt>
      <trkpt lat="46.86666" lon="6.54415">
        <ele>1396.8000488281</ele>
        <time>2017-04-24T08:12:40.000Z</time>
      </trkpt>
      <trkpt lat="46.86667" lon="6.54417">
        <ele>1397</ele>
        <time>2017-04-24T08:12:41.000Z</time>
      </trkpt>
      <trkpt lat="46.86671" lon="6.54422">
        <ele>1398.1999511719</ele>
        <time>2017-04-24T08:12:44.000Z</time>
      </trkpt>
      <trkpt lat="46.86676" lon="6.54429">
        <ele>1399.4000244141</ele>
        <time>2017-04-24T08:12:48.000Z</time>
      </trkpt>
      <trkpt lat="46.86677" lon="6.5443">
        <ele>1399.5999755859</ele>
        <time>2017-04-24T08:12:49.000Z</time>
      </trkpt>
      <trkpt lat="46.86681" lon="6.54435">
        <ele>1400.4000244141</ele>
        <time>2017-04-24T08:12:52.000Z</time>
      </trkpt>
      <trkpt lat="46.86684" lon="6.54439">
        <ele>1401.4000244141</ele>
        <time>2017-04-24T08:12:54.000Z</time>
      </trkpt>
      <trkpt lat="46.86686" lon="6.54442">
        <ele>1402.5999755859</ele>
        <time>2017-04-24T08:12:56.000Z</time>
      </trkpt>
      <trkpt lat="46.86687" lon="6.54444">
        <ele>1403.1999511719</ele>
        <time>2017-04-24T08:12:57.000Z</time>
      </trkpt>
      <trkpt lat="46.8669" lon="6.54448">
        <ele>1404</ele>
        <time>2017-04-24T08:12:59.000Z</time>
      </trkpt>
      <trkpt lat="46.86692" lon="6.54452">
        <ele>1405.1999511719</ele>
        <time>2017-04-24T08:13:01.000Z</time>
      </trkpt>
      <trkpt lat="46.86694" lon="6.54456">
        <ele>1406.1999511719</ele>
        <time>2017-04-24T08:13:03.000Z</time>
      </trkpt>
      <trkpt lat="46.86696" lon="6.5446">
        <ele>1407.4000244141</ele>
        <time>2017-04-24T08:13:05.000Z</time>
      </trkpt>
      <trkpt lat="46.86699" lon="6.54465">
        <ele>1408.8000488281</ele>
        <time>2017-04-24T08:13:08.000Z</time>
      </trkpt>
      <trkpt lat="46.867" lon="6.54468">
        <ele>1409.4000244141</ele>
        <time>2017-04-24T08:13:09.000Z</time>
      </trkpt>
      <trkpt lat="46.867" lon="6.54471">
        <ele>1410</ele>
        <time>2017-04-24T08:13:10.000Z</time>
      </trkpt>
      <trkpt lat="46.86701" lon="6.54475">
        <ele>1411</ele>
        <time>2017-04-24T08:13:12.000Z</time>
      </trkpt>
      <trkpt lat="46.86701" lon="6.54477">
        <ele>1411.5999755859</ele>
        <time>2017-04-24T08:13:13.000Z</time>
      </trkpt>
      <trkpt lat="46.86704" lon="6.54482">
        <ele>1412.1999511719</ele>
        <time>2017-04-24T08:13:15.000Z</time>
      </trkpt>
      <trkpt lat="46.86708" lon="6.54488">
        <ele>1413.8000488281</ele>
        <time>2017-04-24T08:13:18.000Z</time>
      </trkpt>
      <trkpt lat="46.86712" lon="6.54493">
        <ele>1415.1999511719</ele>
        <time>2017-04-24T08:13:21.000Z</time>
      </trkpt>
      <trkpt lat="46.86715" lon="6.54496">
        <ele>1416.1999511719</ele>
        <time>2017-04-24T08:13:23.000Z</time>
      </trkpt>
      <trkpt lat="46.86717" lon="6.54497">
        <ele>1416.5999755859</ele>
        <time>2017-04-24T08:13:24.000Z</time>
      </trkpt>
      <trkpt lat="46.8672" lon="6.545">
        <ele>1418</ele>
        <time>2017-04-24T08:13:26.000Z</time>
      </trkpt>
      <trkpt lat="46.86723" lon="6.54505">
        <ele>1419.1999511719</ele>
        <time>2017-04-24T08:13:29.000Z</time>
      </trkpt>
      <trkpt lat="46.86725" lon="6.54507">
        <ele>1419.5999755859</ele>
        <time>2017-04-24T08:13:30.000Z</time>
      </trkpt>
      <trkpt lat="46.86727" lon="6.5451">
        <ele>1420.4000244141</ele>
        <time>2017-04-24T08:13:32.000Z</time>
      </trkpt>
      <trkpt lat="46.86729" lon="6.54514">
        <ele>1422</ele>
        <time>2017-04-24T08:13:34.000Z</time>
      </trkpt>
      <trkpt lat="46.86732" lon="6.54518">
        <ele>1424</ele>
        <time>2017-04-24T08:13:36.000Z</time>
      </trkpt>
      <trkpt lat="46.86735" lon="6.54524">
        <ele>1425.1999511719</ele>
        <time>2017-04-24T08:13:39.000Z</time>
      </trkpt>
      <trkpt lat="46.86738" lon="6.54528">
        <ele>1426.1999511719</ele>
        <time>2017-04-24T08:13:41.000Z</time>
      </trkpt>
      <trkpt lat="46.86741" lon="6.5453">
        <ele>1427.4000244141</ele>
        <time>2017-04-24T08:13:43.000Z</time>
      </trkpt>
      <trkpt lat="46.86742" lon="6.54531">
        <ele>1427.8000488281</ele>
        <time>2017-04-24T08:13:44.000Z</time>
      </trkpt>
      <trkpt lat="46.86744" lon="6.54534">
        <ele>1428.5999755859</ele>
        <time>2017-04-24T08:13:46.000Z</time>
      </trkpt>
      <trkpt lat="46.86747" lon="6.54538">
        <ele>1429.5999755859</ele>
        <time>2017-04-24T08:13:48.000Z</time>
      </trkpt>
      <trkpt lat="46.86749" lon="6.54541">
        <ele>1430.5999755859</ele>
        <time>2017-04-24T08:13:50.000Z</time>
      </trkpt>
      <trkpt lat="46.86752" lon="6.54548">
        <ele>1431.8000488281</ele>
        <time>2017-04-24T08:13:53.000Z</time>
      </trkpt>
      <trkpt lat="46.86754" lon="6.54554">
        <ele>1432.8000488281</ele>
        <time>2017-04-24T08:13:56.000Z</time>
      </trkpt>
      <trkpt lat="46.86757" lon="6.5456">
        <ele>1434.1999511719</ele>
        <time>2017-04-24T08:13:59.000Z</time>
      </trkpt>
      <trkpt lat="46.86758" lon="6.54565">
        <ele>1435.1999511719</ele>
        <time>2017-04-24T08:14:01.000Z</time>
      </trkpt>
      <trkpt lat="46.8676" lon="6.5457">
        <ele>1436</ele>
        <time>2017-04-24T08:14:03.000Z</time>
      </trkpt>
      <trkpt lat="46.8676" lon="6.54572">
        <ele>1436.4000244141</ele>
        <time>2017-04-24T08:14:04.000Z</time>
      </trkpt>
      <trkpt lat="46.86761" lon="6.54577">
        <ele>1437</ele>
        <time>2017-04-24T08:14:06.000Z</time>
      </trkpt>
      <trkpt lat="46.86763" lon="6.54581">
        <ele>1437.4000244141</ele>
        <time>2017-04-24T08:14:08.000Z</time>
      </trkpt>
      <trkpt lat="46.86764" lon="6.54583">
        <ele>1437.5999755859</ele>
        <time>2017-04-24T08:14:09.000Z</time>
      </trkpt>
      <trkpt lat="46.86769" lon="6.54588">
        <ele>1438.1999511719</ele>
        <time>2017-04-24T08:14:11.000Z</time>
      </trkpt>
      <trkpt lat="46.8677" lon="6.5459">
        <ele>1438.4000244141</ele>
        <time>2017-04-24T08:14:12.000Z</time>
      </trkpt>
      <trkpt lat="46.86773" lon="6.54602">
        <ele>1439.5999755859</ele>
        <time>2017-04-24T08:14:17.000Z</time>
      </trkpt>
      <trkpt lat="46.86775" lon="6.54611">
        <ele>1440.8000488281</ele>
        <time>2017-04-24T08:14:21.000Z</time>
      </trkpt>
      <trkpt lat="46.86776" lon="6.54613">
        <ele>1441.4000244141</ele>
        <time>2017-04-24T08:14:22.000Z</time>
      </trkpt>
      <trkpt lat="46.86779" lon="6.54621">
        <ele>1441.8000488281</ele>
        <time>2017-04-24T08:14:25.000Z</time>
      </trkpt>
      <trkpt lat="46.8678" lon="6.54633">
        <ele>1442.8000488281</ele>
        <time>2017-04-24T08:14:29.000Z</time>
      </trkpt>
      <trkpt lat="46.8678" lon="6.54636">
        <ele>1443</ele>
        <time>2017-04-24T08:14:30.000Z</time>
      </trkpt>
      <trkpt lat="46.86782" lon="6.54646">
        <ele>1444.1999511719</ele>
        <time>2017-04-24T08:14:33.000Z</time>
      </trkpt>
      <trkpt lat="46.86783" lon="6.54654">
        <ele>1445</ele>
        <time>2017-04-24T08:14:36.000Z</time>
      </trkpt>
      <trkpt lat="46.86784" lon="6.54657">
        <ele>1445.1999511719</ele>
        <time>2017-04-24T08:14:37.000Z</time>
      </trkpt>
      <trkpt lat="46.86786" lon="6.54669">
        <ele>1446.1999511719</ele>
        <time>2017-04-24T08:14:41.000Z</time>
      </trkpt>
      <trkpt lat="46.86787" lon="6.54671">
        <ele>1446.5999755859</ele>
        <time>2017-04-24T08:14:42.000Z</time>
      </trkpt>
      <trkpt lat="46.86789" lon="6.54677">
        <ele>1447.4000244141</ele>
        <time>2017-04-24T08:14:44.000Z</time>
      </trkpt>
      <trkpt lat="46.86798" lon="6.54694">
        <ele>1448.4000244141</ele>
        <time>2017-04-24T08:14:50.000Z</time>
      </trkpt>
      <trkpt lat="46.86803" lon="6.54718">
        <ele>1448.8000488281</ele>
        <time>2017-04-24T08:14:57.000Z</time>
      </trkpt>
      <trkpt lat="46.86797" lon="6.54731">
        <ele>1449</ele>
        <time>2017-04-24T08:15:01.000Z</time>
      </trkpt>
      <trkpt lat="46.86793" lon="6.54737">
        <ele>1449.5999755859</ele>
        <time>2017-04-24T08:15:03.000Z</time>
      </trkpt>
      <trkpt lat="46.86783" lon="6.54756">
        <ele>1451.1999511719</ele>
        <time>2017-04-24T08:15:09.000Z</time>
      </trkpt>
      <trkpt lat="46.8678" lon="6.54761">
        <ele>1452.4000244141</ele>
        <time>2017-04-24T08:15:11.000Z</time>
      </trkpt>
      <trkpt lat="46.86775" lon="6.54769">
        <ele>1453.4000244141</ele>
        <time>2017-04-24T08:15:14.000Z</time>
      </trkpt>
      <trkpt lat="46.86772" lon="6.54774">
        <ele>1454.4000244141</ele>
        <time>2017-04-24T08:15:16.000Z</time>
      </trkpt>
      <trkpt lat="46.8677" lon="6.54776">
        <ele>1454.8000488281</ele>
        <time>2017-04-24T08:15:17.000Z</time>
      </trkpt>
      <trkpt lat="46.86767" lon="6.54782">
        <ele>1455.5999755859</ele>
        <time>2017-04-24T08:15:19.000Z</time>
      </trkpt>
      <trkpt lat="46.86763" lon="6.54791">
        <ele>1456.8000488281</ele>
        <time>2017-04-24T08:15:22.000Z</time>
      </trkpt>
      <trkpt lat="46.86759" lon="6.54797">
        <ele>1457.5999755859</ele>
        <time>2017-04-24T08:15:24.000Z</time>
      </trkpt>
      <trkpt lat="46.86755" lon="6.54803">
        <ele>1458.1999511719</ele>
        <time>2017-04-24T08:15:26.000Z</time>
      </trkpt>
      <trkpt lat="46.8675" lon="6.54813">
        <ele>1458.8000488281</ele>
        <time>2017-04-24T08:15:29.000Z</time>
      </trkpt>
      <trkpt lat="46.86747" lon="6.54824">
        <ele>1459.4000244141</ele>
        <time>2017-04-24T08:15:32.000Z</time>
      </trkpt>
      <trkpt lat="46.86746" lon="6.54836">
        <ele>1460.4000244141</ele>
        <time>2017-04-24T08:15:35.000Z</time>
      </trkpt>
      <trkpt lat="46.86746" lon="6.5485">
        <ele>1461.8000488281</ele>
        <time>2017-04-24T08:15:39.000Z</time>
      </trkpt>
      <trkpt lat="46.86746" lon="6.54856">
        <ele>1462.8000488281</ele>
        <time>2017-04-24T08:15:41.000Z</time>
      </trkpt>
      <trkpt lat="46.86746" lon="6.54859">
        <ele>1463.4000244141</ele>
        <time>2017-04-24T08:15:42.000Z</time>
      </trkpt>
      <trkpt lat="46.86749" lon="6.54873">
        <ele>1464.5999755859</ele>
        <time>2017-04-24T08:15:46.000Z</time>
      </trkpt>
      <trkpt lat="46.86751" lon="6.54879">
        <ele>1465.1999511719</ele>
        <time>2017-04-24T08:15:48.000Z</time>
      </trkpt>
      <trkpt lat="46.86752" lon="6.54885">
        <ele>1465.5999755859</ele>
        <time>2017-04-24T08:15:50.000Z</time>
      </trkpt>
      <trkpt lat="46.8675" lon="6.54891">
        <ele>1465.8000488281</ele>
        <time>2017-04-24T08:15:52.000Z</time>
      </trkpt>
      <trkpt lat="46.86747" lon="6.54893">
        <ele>1465.8000488281</ele>
        <time>2017-04-24T08:15:53.000Z</time>
      </trkpt>
      <trkpt lat="46.86735" lon="6.54892">
        <ele>1466</ele>
        <time>2017-04-24T08:15:57.000Z</time>
      </trkpt>
      <trkpt lat="46.86726" lon="6.54885">
        <ele>1466.5999755859</ele>
        <time>2017-04-24T08:16:02.000Z</time>
      </trkpt>
      <trkpt lat="46.86724" lon="6.54883">
        <ele>1466.8000488281</ele>
        <time>2017-04-24T08:16:03.000Z</time>
      </trkpt>
      <trkpt lat="46.86716" lon="6.54879">
        <ele>1467.5999755859</ele>
        <time>2017-04-24T08:16:07.000Z</time>
      </trkpt>
      <trkpt lat="46.86713" lon="6.54878">
        <ele>1468</ele>
        <time>2017-04-24T08:16:09.000Z</time>
      </trkpt>
      <trkpt lat="46.86705" lon="6.54872">
        <ele>1468.4000244141</ele>
        <time>2017-04-24T08:16:13.000Z</time>
      </trkpt>
      <trkpt lat="46.86703" lon="6.54871">
        <ele>1468.4000244141</ele>
        <time>2017-04-24T08:16:14.000Z</time>
      </trkpt>
      <trkpt lat="46.86697" lon="6.54866">
        <ele>1469.1999511719</ele>
        <time>2017-04-24T08:16:18.000Z</time>
      </trkpt>
      <trkpt lat="46.86696" lon="6.54865">
        <ele>1469.4000244141</ele>
        <time>2017-04-24T08:16:20.000Z</time>
      </trkpt>
      <trkpt lat="46.86694" lon="6.54864">
        <ele>1469.5999755859</ele>
        <time>2017-04-24T08:16:24.000Z</time>
      </trkpt>
      <trkpt lat="46.86691" lon="6.54863">
        <ele>1469.5999755859</ele>
        <time>2017-04-24T08:16:26.000Z</time>
      </trkpt>
      <trkpt lat="46.86682" lon="6.54857">
        <ele>1469</ele>
        <time>2017-04-24T08:16:30.000Z</time>
      </trkpt>
      <trkpt lat="46.86668" lon="6.54847">
        <ele>1469.4000244141</ele>
        <time>2017-04-24T08:16:36.000Z</time>
      </trkpt>
      <trkpt lat="46.86654" lon="6.54833">
        <ele>1470.5999755859</ele>
        <time>2017-04-24T08:16:41.000Z</time>
      </trkpt>
      <trkpt lat="46.86647" lon="6.54824">
        <ele>1471.8000488281</ele>
        <time>2017-04-24T08:16:44.000Z</time>
      </trkpt>
      <trkpt lat="46.86641" lon="6.54816">
        <ele>1473</ele>
        <time>2017-04-24T08:16:47.000Z</time>
      </trkpt>
      <trkpt lat="46.86631" lon="6.54804">
        <ele>1474.1999511719</ele>
        <time>2017-04-24T08:16:51.000Z</time>
      </trkpt>
      <trkpt lat="46.86626" lon="6.54793">
        <ele>1475.1999511719</ele>
        <time>2017-04-24T08:16:54.000Z</time>
      </trkpt>
      <trkpt lat="46.8662" lon="6.54783">
        <ele>1476.1999511719</ele>
        <time>2017-04-24T08:16:57.000Z</time>
      </trkpt>
      <trkpt lat="46.86612" lon="6.54771">
        <ele>1477.5999755859</ele>
        <time>2017-04-24T08:17:01.000Z</time>
      </trkpt>
      <trkpt lat="46.86608" lon="6.54765">
        <ele>1479</ele>
        <time>2017-04-24T08:17:03.000Z</time>
      </trkpt>
      <trkpt lat="46.86599" lon="6.54753">
        <ele>1480.4000244141</ele>
        <time>2017-04-24T08:17:07.000Z</time>
      </trkpt>
      <trkpt lat="46.86595" lon="6.54747">
        <ele>1481.1999511719</ele>
        <time>2017-04-24T08:17:09.000Z</time>
      </trkpt>
      <trkpt lat="46.86592" lon="6.54745">
        <ele>1481.8000488281</ele>
        <time>2017-04-24T08:17:10.000Z</time>
      </trkpt>
      <trkpt lat="46.86577" lon="6.54725">
        <ele>1482.8000488281</ele>
        <time>2017-04-24T08:17:17.000Z</time>
      </trkpt>
      <trkpt lat="46.86575" lon="6.54722">
        <ele>1483.4000244141</ele>
        <time>2017-04-24T08:17:18.000Z</time>
      </trkpt>
      <trkpt lat="46.86562" lon="6.54707">
        <ele>1484</ele>
        <time>2017-04-24T08:17:23.000Z</time>
      </trkpt>
      <trkpt lat="46.86554" lon="6.54698">
        <ele>1484.4000244141</ele>
        <time>2017-04-24T08:17:26.000Z</time>
      </trkpt>
      <trkpt lat="46.86543" lon="6.54685">
        <ele>1484.4000244141</ele>
        <time>2017-04-24T08:17:30.000Z</time>
      </trkpt>
      <trkpt lat="46.86532" lon="6.54673">
        <ele>1485.4000244141</ele>
        <time>2017-04-24T08:17:34.000Z</time>
      </trkpt>
      <trkpt lat="46.86529" lon="6.54669">
        <ele>1485.5999755859</ele>
        <time>2017-04-24T08:17:35.000Z</time>
      </trkpt>
      <trkpt lat="46.86512" lon="6.54645">
        <ele>1484.5999755859</ele>
        <time>2017-04-24T08:17:39.000Z</time>
      </trkpt>
      <trkpt lat="46.86506" lon="6.54639">
        <ele>1484</ele>
        <time>2017-04-24T08:17:40.000Z</time>
      </trkpt>
      <trkpt lat="46.86499" lon="6.54633">
        <ele>1482.8000488281</ele>
        <time>2017-04-24T08:17:41.000Z</time>
      </trkpt>
      <trkpt lat="46.86493" lon="6.54628">
        <ele>1481.8000488281</ele>
        <time>2017-04-24T08:17:42.000Z</time>
      </trkpt>
      <trkpt lat="46.86487" lon="6.54624">
        <ele>1481.4000244141</ele>
        <time>2017-04-24T08:17:43.000Z</time>
      </trkpt>
      <trkpt lat="46.86466" lon="6.54611">
        <ele>1480.5999755859</ele>
        <time>2017-04-24T08:17:47.000Z</time>
      </trkpt>
      <trkpt lat="46.86454" lon="6.546">
        <ele>1479.8000488281</ele>
        <time>2017-04-24T08:17:51.000Z</time>
      </trkpt>
      <trkpt lat="46.8645" lon="6.54598">
        <ele>1479.8000488281</ele>
        <time>2017-04-24T08:17:52.000Z</time>
      </trkpt>
      <trkpt lat="46.86442" lon="6.54589">
        <ele>1480.8000488281</ele>
        <time>2017-04-24T08:17:56.000Z</time>
      </trkpt>
      <trkpt lat="46.86429" lon="6.54584">
        <ele>1481.4000244141</ele>
        <time>2017-04-24T08:18:00.000Z</time>
      </trkpt>
      <trkpt lat="46.86425" lon="6.54582">
        <ele>1481.5999755859</ele>
        <time>2017-04-24T08:18:01.000Z</time>
      </trkpt>
      <trkpt lat="46.86409" lon="6.54572">
        <ele>1481.8000488281</ele>
        <time>2017-04-24T08:18:06.000Z</time>
      </trkpt>
      <trkpt lat="46.86388" lon="6.54563">
        <ele>1482.1999511719</ele>
        <time>2017-04-24T08:18:12.000Z</time>
      </trkpt>
      <trkpt lat="46.86381" lon="6.54563">
        <ele>1483</ele>
        <time>2017-04-24T08:18:14.000Z</time>
      </trkpt>
      <trkpt lat="46.86372" lon="6.54562">
        <ele>1483.1999511719</ele>
        <time>2017-04-24T08:18:16.000Z</time>
      </trkpt>
      <trkpt lat="46.86368" lon="6.54561">
        <ele>1483.4000244141</ele>
        <time>2017-04-24T08:18:17.000Z</time>
      </trkpt>
      <trkpt lat="46.8635" lon="6.5456">
        <ele>1483</ele>
        <time>2017-04-24T08:18:22.000Z</time>
      </trkpt>
      <trkpt lat="46.86338" lon="6.54565">
        <ele>1483</ele>
        <time>2017-04-24T08:18:26.000Z</time>
      </trkpt>
      <trkpt lat="46.86324" lon="6.54565">
        <ele>1482.1999511719</ele>
        <time>2017-04-24T08:18:30.000Z</time>
      </trkpt>
      <trkpt lat="46.86316" lon="6.54566">
        <ele>1481.8000488281</ele>
        <time>2017-04-24T08:18:33.000Z</time>
      </trkpt>
      <trkpt lat="46.86312" lon="6.54565">
        <ele>1482</ele>
        <time>2017-04-24T08:18:35.000Z</time>
      </trkpt>
      <trkpt lat="46.86309" lon="6.54565">
        <ele>1481.8000488281</ele>
        <time>2017-04-24T08:18:36.000Z</time>
      </trkpt>
      <trkpt lat="46.86299" lon="6.54566">
        <ele>1481.8000488281</ele>
        <time>2017-04-24T08:18:39.000Z</time>
      </trkpt>
      <trkpt lat="46.86296" lon="6.54565">
        <ele>1481.8000488281</ele>
        <time>2017-04-24T08:18:40.000Z</time>
      </trkpt>
      <trkpt lat="46.86281" lon="6.54566">
        <ele>1481.1999511719</ele>
        <time>2017-04-24T08:18:44.000Z</time>
      </trkpt>
      <trkpt lat="46.8627" lon="6.54569">
        <ele>1481.8000488281</ele>
        <time>2017-04-24T08:18:48.000Z</time>
      </trkpt>
      <trkpt lat="46.86256" lon="6.54578">
        <ele>1482.8000488281</ele>
        <time>2017-04-24T08:18:53.000Z</time>
      </trkpt>
      <trkpt lat="46.86246" lon="6.54586">
        <ele>1482.1999511719</ele>
        <time>2017-04-24T08:18:57.000Z</time>
      </trkpt>
      <trkpt lat="46.86245" lon="6.54588">
        <ele>1481.5999755859</ele>
        <time>2017-04-24T08:19:01.000Z</time>
      </trkpt>
      <trkpt lat="46.86244" lon="6.54588">
        <ele>1481.4000244141</ele>
        <time>2017-04-24T08:19:08.000Z</time>
      </trkpt>
      <trkpt lat="46.86244" lon="6.54589">
        <ele>1481.1999511719</ele>
        <time>2017-04-24T08:19:16.000Z</time>
      </trkpt>
      <trkpt lat="46.86239" lon="6.54593">
        <ele>1481</ele>
        <time>2017-04-24T08:19:23.000Z</time>
      </trkpt>
      <trkpt lat="46.86237" lon="6.54596">
        <ele>1480.8000488281</ele>
        <time>2017-04-24T08:19:24.000Z</time>
      </trkpt>
      <trkpt lat="46.86235" lon="6.54597">
        <ele>1480.8000488281</ele>
        <time>2017-04-24T08:19:25.000Z</time>
      </trkpt>
      <trkpt lat="46.8623" lon="6.54602">
        <ele>1480.5999755859</ele>
        <time>2017-04-24T08:19:27.000Z</time>
      </trkpt>
      <trkpt lat="46.86212" lon="6.54617">
        <ele>1480</ele>
        <time>2017-04-24T08:19:32.000Z</time>
      </trkpt>
      <trkpt lat="46.86207" lon="6.5462">
        <ele>1479.5999755859</ele>
        <time>2017-04-24T08:19:33.000Z</time>
      </trkpt>
      <trkpt lat="46.86197" lon="6.54626">
        <ele>1478.4000244141</ele>
        <time>2017-04-24T08:19:35.000Z</time>
      </trkpt>
      <trkpt lat="46.86188" lon="6.5463">
        <ele>1477.4000244141</ele>
        <time>2017-04-24T08:19:37.000Z</time>
      </trkpt>
      <trkpt lat="46.86179" lon="6.54634">
        <ele>1476.5999755859</ele>
        <time>2017-04-24T08:19:39.000Z</time>
      </trkpt>
      <trkpt lat="46.86175" lon="6.54635">
        <ele>1476</ele>
        <time>2017-04-24T08:19:40.000Z</time>
      </trkpt>
      <trkpt lat="46.86171" lon="6.54635">
        <ele>1475</ele>
        <time>2017-04-24T08:19:41.000Z</time>
      </trkpt>
      <trkpt lat="46.86164" lon="6.54633">
        <ele>1474</ele>
        <time>2017-04-24T08:19:43.000Z</time>
      </trkpt>
      <trkpt lat="46.86149" lon="6.5463">
        <ele>1472.8000488281</ele>
        <time>2017-04-24T08:19:47.000Z</time>
      </trkpt>
      <trkpt lat="46.86136" lon="6.54629">
        <ele>1472.1999511719</ele>
        <time>2017-04-24T08:19:50.000Z</time>
      </trkpt>
      <trkpt lat="46.86123" lon="6.54632">
        <ele>1472.1999511719</ele>
        <time>2017-04-24T08:19:53.000Z</time>
      </trkpt>
      <trkpt lat="46.8612" lon="6.54633">
        <ele>1472.5999755859</ele>
        <time>2017-04-24T08:19:54.000Z</time>
      </trkpt>
      <trkpt lat="46.86111" lon="6.54639">
        <ele>1473.1999511719</ele>
        <time>2017-04-24T08:19:57.000Z</time>
      </trkpt>
      <trkpt lat="46.86108" lon="6.54638">
        <ele>1473.8000488281</ele>
        <time>2017-04-24T08:19:58.000Z</time>
      </trkpt>
      <trkpt lat="46.86106" lon="6.54637">
        <ele>1474.1999511719</ele>
        <time>2017-04-24T08:19:59.000Z</time>
      </trkpt>
      <trkpt lat="46.86094" lon="6.54636">
        <ele>1475.4000244141</ele>
        <time>2017-04-24T08:20:03.000Z</time>
      </trkpt>
      <trkpt lat="46.86092" lon="6.54637">
        <ele>1475.5999755859</ele>
        <time>2017-04-24T08:20:04.000Z</time>
      </trkpt>
      <trkpt lat="46.86086" lon="6.54637">
        <ele>1476.5999755859</ele>
        <time>2017-04-24T08:20:06.000Z</time>
      </trkpt>
      <trkpt lat="46.86076" lon="6.54637">
        <ele>1477.8000488281</ele>
        <time>2017-04-24T08:20:09.000Z</time>
      </trkpt>
      <trkpt lat="46.86064" lon="6.54634">
        <ele>1479</ele>
        <time>2017-04-24T08:20:13.000Z</time>
      </trkpt>
      <trkpt lat="46.86056" lon="6.54631">
        <ele>1480.4000244141</ele>
        <time>2017-04-24T08:20:16.000Z</time>
      </trkpt>
      <trkpt lat="46.8605" lon="6.54629">
        <ele>1481</ele>
        <time>2017-04-24T08:20:18.000Z</time>
      </trkpt>
      <trkpt lat="46.86044" lon="6.54628">
        <ele>1481.4000244141</ele>
        <time>2017-04-24T08:20:20.000Z</time>
      </trkpt>
      <trkpt lat="46.86036" lon="6.54628">
        <ele>1482.8000488281</ele>
        <time>2017-04-24T08:20:23.000Z</time>
      </trkpt>
      <trkpt lat="46.86033" lon="6.54628">
        <ele>1483.4000244141</ele>
        <time>2017-04-24T08:20:24.000Z</time>
      </trkpt>
      <trkpt lat="46.86027" lon="6.54628">
        <ele>1484</ele>
        <time>2017-04-24T08:20:26.000Z</time>
      </trkpt>
      <trkpt lat="46.86017" lon="6.54627">
        <ele>1485</ele>
        <time>2017-04-24T08:20:30.000Z</time>
      </trkpt>
      <trkpt lat="46.86008" lon="6.54625">
        <ele>1486.1999511719</ele>
        <time>2017-04-24T08:20:34.000Z</time>
      </trkpt>
      <trkpt lat="46.86001" lon="6.54624">
        <ele>1487.4000244141</ele>
        <time>2017-04-24T08:20:37.000Z</time>
      </trkpt>
      <trkpt lat="46.85994" lon="6.54627">
        <ele>1488.5999755859</ele>
        <time>2017-04-24T08:20:40.000Z</time>
      </trkpt>
      <trkpt lat="46.8599" lon="6.54627">
        <ele>1489.8000488281</ele>
        <time>2017-04-24T08:20:42.000Z</time>
      </trkpt>
      <trkpt lat="46.85986" lon="6.54627">
        <ele>1490.8000488281</ele>
        <time>2017-04-24T08:20:44.000Z</time>
      </trkpt>
      <trkpt lat="46.85984" lon="6.54626">
        <ele>1491</ele>
        <time>2017-04-24T08:20:45.000Z</time>
      </trkpt>
      <trkpt lat="46.85977" lon="6.54626">
        <ele>1492.4000244141</ele>
        <time>2017-04-24T08:20:48.000Z</time>
      </trkpt>
      <trkpt lat="46.85974" lon="6.54624">
        <ele>1493.1999511719</ele>
        <time>2017-04-24T08:20:50.000Z</time>
      </trkpt>
      <trkpt lat="46.8597" lon="6.54622">
        <ele>1493.5999755859</ele>
        <time>2017-04-24T08:20:52.000Z</time>
      </trkpt>
      <trkpt lat="46.85966" lon="6.54621">
        <ele>1494.4000244141</ele>
        <time>2017-04-24T08:20:54.000Z</time>
      </trkpt>
      <trkpt lat="46.85964" lon="6.54623">
        <ele>1494.5999755859</ele>
        <time>2017-04-24T08:20:55.000Z</time>
      </trkpt>
      <trkpt lat="46.85963" lon="6.54625">
        <ele>1495.1999511719</ele>
        <time>2017-04-24T08:20:56.000Z</time>
      </trkpt>
      <trkpt lat="46.85962" lon="6.54628">
        <ele>1495.8000488281</ele>
        <time>2017-04-24T08:20:57.000Z</time>
      </trkpt>
      <trkpt lat="46.85963" lon="6.54637">
        <ele>1497.1999511719</ele>
        <time>2017-04-24T08:21:00.000Z</time>
      </trkpt>
      <trkpt lat="46.85964" lon="6.54646">
        <ele>1498.4000244141</ele>
        <time>2017-04-24T08:21:04.000Z</time>
      </trkpt>
      <trkpt lat="46.85964" lon="6.54661">
        <ele>1499.5999755859</ele>
        <time>2017-04-24T08:21:08.000Z</time>
      </trkpt>
      <trkpt lat="46.85966" lon="6.54671">
        <ele>1500</ele>
        <time>2017-04-24T08:21:10.000Z</time>
      </trkpt>
      <trkpt lat="46.85978" lon="6.54709">
        <ele>1500.5999755859</ele>
        <time>2017-04-24T08:21:17.000Z</time>
      </trkpt>
      <trkpt lat="46.85991" lon="6.54749">
        <ele>1501.4000244141</ele>
        <time>2017-04-24T08:21:24.000Z</time>
      </trkpt>
      <trkpt lat="46.85993" lon="6.54754">
        <ele>1501.5999755859</ele>
        <time>2017-04-24T08:21:25.000Z</time>
      </trkpt>
      <trkpt lat="46.85996" lon="6.54759">
        <ele>1501.8000488281</ele>
        <time>2017-04-24T08:21:26.000Z</time>
      </trkpt>
      <trkpt lat="46.86006" lon="6.54772">
        <ele>1501.8000488281</ele>
        <time>2017-04-24T08:21:29.000Z</time>
      </trkpt>
      <trkpt lat="46.86021" lon="6.548">
        <ele>1500.8000488281</ele>
        <time>2017-04-24T08:21:34.000Z</time>
      </trkpt>
      <trkpt lat="46.86024" lon="6.54806">
        <ele>1500.5999755859</ele>
        <time>2017-04-24T08:21:35.000Z</time>
      </trkpt>
      <trkpt lat="46.86045" lon="6.54843">
        <ele>1499.5999755859</ele>
        <time>2017-04-24T08:21:41.000Z</time>
      </trkpt>
      <trkpt lat="46.86051" lon="6.54856">
        <ele>1499.1999511719</ele>
        <time>2017-04-24T08:21:43.000Z</time>
      </trkpt>
      <trkpt lat="46.86053" lon="6.54862">
        <ele>1499</ele>
        <time>2017-04-24T08:21:44.000Z</time>
      </trkpt>
      <trkpt lat="46.86056" lon="6.54882">
        <ele>1498.5999755859</ele>
        <time>2017-04-24T08:21:47.000Z</time>
      </trkpt>
      <trkpt lat="46.86059" lon="6.54905">
        <ele>1499.1999511719</ele>
        <time>2017-04-24T08:21:51.000Z</time>
      </trkpt>
      <trkpt lat="46.86059" lon="6.5491">
        <ele>1499.5999755859</ele>
        <time>2017-04-24T08:21:52.000Z</time>
      </trkpt>
      <trkpt lat="46.86058" lon="6.54916">
        <ele>1500</ele>
        <time>2017-04-24T08:21:53.000Z</time>
      </trkpt>
      <trkpt lat="46.86054" lon="6.54929">
        <ele>1500.1999511719</ele>
        <time>2017-04-24T08:21:55.000Z</time>
      </trkpt>
      <trkpt lat="46.86052" lon="6.54936">
        <ele>1500.5999755859</ele>
        <time>2017-04-24T08:21:56.000Z</time>
      </trkpt>
      <trkpt lat="46.86047" lon="6.54947">
        <ele>1500.8000488281</ele>
        <time>2017-04-24T08:21:58.000Z</time>
      </trkpt>
      <trkpt lat="46.86042" lon="6.54959">
        <ele>1501.1999511719</ele>
        <time>2017-04-24T08:22:00.000Z</time>
      </trkpt>
      <trkpt lat="46.86039" lon="6.54964">
        <ele>1501.4000244141</ele>
        <time>2017-04-24T08:22:01.000Z</time>
      </trkpt>
      <trkpt lat="46.8603" lon="6.54979">
        <ele>1501.8000488281</ele>
        <time>2017-04-24T08:22:04.000Z</time>
      </trkpt>
      <trkpt lat="46.86023" lon="6.5499">
        <ele>1502.1999511719</ele>
        <time>2017-04-24T08:22:06.000Z</time>
      </trkpt>
      <trkpt lat="46.86002" lon="6.55016">
        <ele>1502</ele>
        <time>2017-04-24T08:22:11.000Z</time>
      </trkpt>
      <trkpt lat="46.85998" lon="6.55022">
        <ele>1502</ele>
        <time>2017-04-24T08:22:12.000Z</time>
      </trkpt>
      <trkpt lat="46.85987" lon="6.5504">
        <ele>1501.8000488281</ele>
        <time>2017-04-24T08:22:15.000Z</time>
      </trkpt>
      <trkpt lat="46.85983" lon="6.55047">
        <ele>1502</ele>
        <time>2017-04-24T08:22:16.000Z</time>
      </trkpt>
      <trkpt lat="46.85976" lon="6.55059">
        <ele>1502.1999511719</ele>
        <time>2017-04-24T08:22:18.000Z</time>
      </trkpt>
      <trkpt lat="46.85968" lon="6.55069">
        <ele>1503</ele>
        <time>2017-04-24T08:22:20.000Z</time>
      </trkpt>
      <trkpt lat="46.85964" lon="6.55074">
        <ele>1503</ele>
        <time>2017-04-24T08:22:21.000Z</time>
      </trkpt>
      <trkpt lat="46.85947" lon="6.55096">
        <ele>1503.4000244141</ele>
        <time>2017-04-24T08:22:26.000Z</time>
      </trkpt>
      <trkpt lat="46.8594" lon="6.55113">
        <ele>1504.1999511719</ele>
        <time>2017-04-24T08:22:30.000Z</time>
      </trkpt>
      <trkpt lat="46.85936" lon="6.55122">
        <ele>1505.4000244141</ele>
        <time>2017-04-24T08:22:32.000Z</time>
      </trkpt>
      <trkpt lat="46.85935" lon="6.55126">
        <ele>1506</ele>
        <time>2017-04-24T08:22:33.000Z</time>
      </trkpt>
      <trkpt lat="46.85934" lon="6.5513">
        <ele>1506.5999755859</ele>
        <time>2017-04-24T08:22:34.000Z</time>
      </trkpt>
      <trkpt lat="46.85933" lon="6.55145">
        <ele>1507.8000488281</ele>
        <time>2017-04-24T08:22:37.000Z</time>
      </trkpt>
      <trkpt lat="46.85931" lon="6.55155">
        <ele>1508.1999511719</ele>
        <time>2017-04-24T08:22:39.000Z</time>
      </trkpt>
      <trkpt lat="46.85927" lon="6.55163">
        <ele>1508.8000488281</ele>
        <time>2017-04-24T08:22:43.000Z</time>
      </trkpt>
      <trkpt lat="46.85926" lon="6.55163">
        <ele>1509</ele>
        <time>2017-04-24T08:22:44.000Z</time>
      </trkpt>
      <trkpt lat="46.85927" lon="6.55163">
        <ele>1509.1999511719</ele>
        <time>2017-04-24T08:22:55.000Z</time>
      </trkpt>
      <trkpt lat="46.85927" lon="6.55163">
        <ele>1509.4000244141</ele>
        <time>2017-04-24T08:23:06.000Z</time>
      </trkpt>
      <trkpt lat="46.85927" lon="6.55162">
        <ele>1509.4000244141</ele>
        <time>2017-04-24T08:23:19.000Z</time>
      </trkpt>
      <trkpt lat="46.85927" lon="6.55162">
        <ele>1509.1999511719</ele>
        <time>2017-04-24T08:23:42.000Z</time>
      </trkpt>
      <trkpt lat="46.85925" lon="6.55162">
        <ele>1509.1999511719</ele>
        <time>2017-04-24T08:23:45.000Z</time>
      </trkpt>
      <trkpt lat="46.85924" lon="6.55161">
        <ele>1509</ele>
        <time>2017-04-24T08:23:46.000Z</time>
      </trkpt>
      <trkpt lat="46.85912" lon="6.55156">
        <ele>1509</ele>
        <time>2017-04-24T08:23:50.000Z</time>
      </trkpt>
      <trkpt lat="46.8591" lon="6.55154">
        <ele>1509.4000244141</ele>
        <time>2017-04-24T08:23:51.000Z</time>
      </trkpt>
      <trkpt lat="46.85906" lon="6.55148">
        <ele>1510</ele>
        <time>2017-04-24T08:23:53.000Z</time>
      </trkpt>
      <trkpt lat="46.85901" lon="6.55141">
        <ele>1511.1999511719</ele>
        <time>2017-04-24T08:23:56.000Z</time>
      </trkpt>
      <trkpt lat="46.85896" lon="6.55135">
        <ele>1512.5999755859</ele>
        <time>2017-04-24T08:23:59.000Z</time>
      </trkpt>
      <trkpt lat="46.85893" lon="6.55131">
        <ele>1513.8000488281</ele>
        <time>2017-04-24T08:24:01.000Z</time>
      </trkpt>
      <trkpt lat="46.85892" lon="6.55129">
        <ele>1514.1999511719</ele>
        <time>2017-04-24T08:24:02.000Z</time>
      </trkpt>
      <trkpt lat="46.8589" lon="6.55126">
        <ele>1514.8000488281</ele>
        <time>2017-04-24T08:24:03.000Z</time>
      </trkpt>
      <trkpt lat="46.85884" lon="6.55115">
        <ele>1515.8000488281</ele>
        <time>2017-04-24T08:24:07.000Z</time>
      </trkpt>
      <trkpt lat="46.85881" lon="6.55109">
        <ele>1516.4000244141</ele>
        <time>2017-04-24T08:24:09.000Z</time>
      </trkpt>
      <trkpt lat="46.85876" lon="6.55099">
        <ele>1517</ele>
        <time>2017-04-24T08:24:12.000Z</time>
      </trkpt>
      <trkpt lat="46.85871" lon="6.5509">
        <ele>1517.1999511719</ele>
        <time>2017-04-24T08:24:16.000Z</time>
      </trkpt>
      <trkpt lat="46.85872" lon="6.5509">
        <ele>1517.1999511719</ele>
        <time>2017-04-24T08:24:33.000Z</time>
      </trkpt>
      <trkpt lat="46.85869" lon="6.55086">
        <ele>1517.4000244141</ele>
        <time>2017-04-24T08:24:37.000Z</time>
      </trkpt>
      <trkpt lat="46.85861" lon="6.55069">
        <ele>1518</ele>
        <time>2017-04-24T08:24:42.000Z</time>
      </trkpt>
      <trkpt lat="46.85855" lon="6.55058">
        <ele>1519.4000244141</ele>
        <time>2017-04-24T08:24:47.000Z</time>
      </trkpt>
      <trkpt lat="46.85854" lon="6.55055">
        <ele>1520.1999511719</ele>
        <time>2017-04-24T08:24:48.000Z</time>
      </trkpt>
      <trkpt lat="46.85853" lon="6.55053">
        <ele>1520.8000488281</ele>
        <time>2017-04-24T08:24:49.000Z</time>
      </trkpt>
      <trkpt lat="46.85851" lon="6.55049">
        <ele>1522</ele>
        <time>2017-04-24T08:24:51.000Z</time>
      </trkpt>
      <trkpt lat="46.8585" lon="6.55046">
        <ele>1522.4000244141</ele>
        <time>2017-04-24T08:24:52.000Z</time>
      </trkpt>
      <trkpt lat="46.85848" lon="6.55042">
        <ele>1523.4000244141</ele>
        <time>2017-04-24T08:24:54.000Z</time>
      </trkpt>
      <trkpt lat="46.85846" lon="6.55038">
        <ele>1524.4000244141</ele>
        <time>2017-04-24T08:24:56.000Z</time>
      </trkpt>
      <trkpt lat="46.85842" lon="6.55034">
        <ele>1525.5999755859</ele>
        <time>2017-04-24T08:24:59.000Z</time>
      </trkpt>
      <trkpt lat="46.8584" lon="6.55032">
        <ele>1526</ele>
        <time>2017-04-24T08:25:00.000Z</time>
      </trkpt>
      <trkpt lat="46.85838" lon="6.55027">
        <ele>1527</ele>
        <time>2017-04-24T08:25:02.000Z</time>
      </trkpt>
      <trkpt lat="46.8583" lon="6.55014">
        <ele>1528.1999511719</ele>
        <time>2017-04-24T08:25:07.000Z</time>
      </trkpt>
      <trkpt lat="46.85827" lon="6.55011">
        <ele>1528.8000488281</ele>
        <time>2017-04-24T08:25:10.000Z</time>
      </trkpt>
      <trkpt lat="46.85826" lon="6.55009">
        <ele>1529.5999755859</ele>
        <time>2017-04-24T08:25:30.000Z</time>
      </trkpt>
      <trkpt lat="46.85826" lon="6.55009">
        <ele>1529.5999755859</ele>
        <time>2017-04-24T08:25:31.000Z</time>
      </trkpt>
      <trkpt lat="46.85826" lon="6.55008">
        <ele>1529.5999755859</ele>
        <time>2017-04-24T08:25:36.000Z</time>
      </trkpt>
      <trkpt lat="46.85825" lon="6.55007">
        <ele>1529.5999755859</ele>
        <time>2017-04-24T08:25:39.000Z</time>
      </trkpt>
      <trkpt lat="46.85794" lon="6.54952">
        <ele>1538</ele>
        <time>2017-04-24T08:26:30.000Z</time>
      </trkpt>
      <trkpt lat="46.85794" lon="6.54951">
        <ele>1537.8000488281</ele>
        <time>2017-04-24T08:26:33.000Z</time>
      </trkpt>
      <trkpt lat="46.85788" lon="6.54939">
        <ele>1538.8000488281</ele>
        <time>2017-04-24T08:26:38.000Z</time>
      </trkpt>
      <trkpt lat="46.85787" lon="6.54936">
        <ele>1539.1999511719</ele>
        <time>2017-04-24T08:26:39.000Z</time>
      </trkpt>
      <trkpt lat="46.85782" lon="6.54923">
        <ele>1540.1999511719</ele>
        <time>2017-04-24T08:26:43.000Z</time>
      </trkpt>
      <trkpt lat="46.8578" lon="6.54917">
        <ele>1540.8000488281</ele>
        <time>2017-04-24T08:26:45.000Z</time>
      </trkpt>
      <trkpt lat="46.85777" lon="6.54911">
        <ele>1541.4000244141</ele>
        <time>2017-04-24T08:26:47.000Z</time>
      </trkpt>
      <trkpt lat="46.85771" lon="6.54899">
        <ele>1542.4000244141</ele>
        <time>2017-04-24T08:26:51.000Z</time>
      </trkpt>
      <trkpt lat="46.85767" lon="6.54891">
        <ele>1543</ele>
        <time>2017-04-24T08:26:54.000Z</time>
      </trkpt>
      <trkpt lat="46.85764" lon="6.54884">
        <ele>1543.5999755859</ele>
        <time>2017-04-24T08:26:56.000Z</time>
      </trkpt>
      <trkpt lat="46.85757" lon="6.54866">
        <ele>1543</ele>
        <time>2017-04-24T08:27:01.000Z</time>
      </trkpt>
      <trkpt lat="46.85753" lon="6.54856">
        <ele>1542.5999755859</ele>
        <time>2017-04-24T08:27:04.000Z</time>
      </trkpt>
      <trkpt lat="46.85748" lon="6.54845">
        <ele>1542</ele>
        <time>2017-04-24T08:27:07.000Z</time>
      </trkpt>
      <trkpt lat="46.85738" lon="6.54826">
        <ele>1541.4000244141</ele>
        <time>2017-04-24T08:27:13.000Z</time>
      </trkpt>
      <trkpt lat="46.85734" lon="6.54823">
        <ele>1541</ele>
        <time>2017-04-24T08:27:15.000Z</time>
      </trkpt>
      <trkpt lat="46.85731" lon="6.54821">
        <ele>1540.8000488281</ele>
        <time>2017-04-24T08:27:17.000Z</time>
      </trkpt>
      <trkpt lat="46.8573" lon="6.54815">
        <ele>1540.5999755859</ele>
        <time>2017-04-24T08:27:19.000Z</time>
      </trkpt>
      <trkpt lat="46.85728" lon="6.54807">
        <ele>1540.8000488281</ele>
        <time>2017-04-24T08:27:21.000Z</time>
      </trkpt>
      <trkpt lat="46.85726" lon="6.54801">
        <ele>1540.5999755859</ele>
        <time>2017-04-24T08:27:23.000Z</time>
      </trkpt>
      <trkpt lat="46.85724" lon="6.54799">
        <ele>1540.4000244141</ele>
        <time>2017-04-24T08:27:24.000Z</time>
      </trkpt>
      <trkpt lat="46.85722" lon="6.54798">
        <ele>1540.1999511719</ele>
        <time>2017-04-24T08:27:25.000Z</time>
      </trkpt>
      <trkpt lat="46.85715" lon="6.54794">
        <ele>1539.8000488281</ele>
        <time>2017-04-24T08:27:29.000Z</time>
      </trkpt>
      <trkpt lat="46.85715" lon="6.54793">
        <ele>1539.8000488281</ele>
        <time>2017-04-24T08:27:32.000Z</time>
      </trkpt>
      <trkpt lat="46.85715" lon="6.54793">
        <ele>1539.4000244141</ele>
        <time>2017-04-24T08:28:03.000Z</time>
      </trkpt>
      <trkpt lat="46.85715" lon="6.54793">
        <ele>1539.4000244141</ele>
        <time>2017-04-24T08:28:04.000Z</time>
      </trkpt>
      <trkpt lat="46.85715" lon="6.54793">
        <ele>1539.4000244141</ele>
        <time>2017-04-24T08:28:05.000Z</time>
      </trkpt>
      <trkpt lat="46.85711" lon="6.54791">
        <ele>1539.5999755859</ele>
        <time>2017-04-24T08:28:08.000Z</time>
      </trkpt>
      <trkpt lat="46.85703" lon="6.54789">
        <ele>1540.4000244141</ele>
        <time>2017-04-24T08:28:12.000Z</time>
      </trkpt>
      <trkpt lat="46.85701" lon="6.54789">
        <ele>1540.8000488281</ele>
        <time>2017-04-24T08:28:13.000Z</time>
      </trkpt>
      <trkpt lat="46.85695" lon="6.54786">
        <ele>1541.8000488281</ele>
        <time>2017-04-24T08:28:16.000Z</time>
      </trkpt>
      <trkpt lat="46.8569" lon="6.54785">
        <ele>1543.1999511719</ele>
        <time>2017-04-24T08:28:19.000Z</time>
      </trkpt>
      <trkpt lat="46.85687" lon="6.54784">
        <ele>1544.4000244141</ele>
        <time>2017-04-24T08:28:21.000Z</time>
      </trkpt>
      <trkpt lat="46.8568" lon="6.54781">
        <ele>1545.5999755859</ele>
        <time>2017-04-24T08:28:25.000Z</time>
      </trkpt>
      <trkpt lat="46.85678" lon="6.54782">
        <ele>1546.1999511719</ele>
        <time>2017-04-24T08:28:26.000Z</time>
      </trkpt>
      <trkpt lat="46.85677" lon="6.54783">
        <ele>1546.5999755859</ele>
        <time>2017-04-24T08:28:27.000Z</time>
      </trkpt>
      <trkpt lat="46.85676" lon="6.54788">
        <ele>1547.1999511719</ele>
        <time>2017-04-24T08:28:30.000Z</time>
      </trkpt>
      <trkpt lat="46.85676" lon="6.5479">
        <ele>1547.1999511719</ele>
        <time>2017-04-24T08:28:48.000Z</time>
      </trkpt>
      <trkpt lat="46.85676" lon="6.54795">
        <ele>1547.4000244141</ele>
        <time>2017-04-24T08:28:50.000Z</time>
      </trkpt>
      <trkpt lat="46.85675" lon="6.54799">
        <ele>1547.8000488281</ele>
        <time>2017-04-24T08:28:52.000Z</time>
      </trkpt>
      <trkpt lat="46.85669" lon="6.54807">
        <ele>1549</ele>
        <time>2017-04-24T08:28:56.000Z</time>
      </trkpt>
      <trkpt lat="46.85666" lon="6.54809">
        <ele>1550.1999511719</ele>
        <time>2017-04-24T08:28:58.000Z</time>
      </trkpt>
      <trkpt lat="46.85665" lon="6.54811">
        <ele>1551.1999511719</ele>
        <time>2017-04-24T08:29:01.000Z</time>
      </trkpt>
      <trkpt lat="46.85662" lon="6.54812">
        <ele>1552</ele>
        <time>2017-04-24T08:29:07.000Z</time>
      </trkpt>
      <trkpt lat="46.85661" lon="6.54812">
        <ele>1552.4000244141</ele>
        <time>2017-04-24T08:29:09.000Z</time>
      </trkpt>
      <trkpt lat="46.85659" lon="6.54812">
        <ele>1553.4000244141</ele>
        <time>2017-04-24T08:29:14.000Z</time>
      </trkpt>
      <trkpt lat="46.85659" lon="6.54812">
        <ele>1553.4000244141</ele>
        <time>2017-04-24T08:29:15.000Z</time>
      </trkpt>
      <trkpt lat="46.85653" lon="6.54817">
        <ele>1554.4000244141</ele>
        <time>2017-04-24T08:29:52.000Z</time>
      </trkpt>
      <trkpt lat="46.85649" lon="6.54815">
        <ele>1554.4000244141</ele>
        <time>2017-04-24T08:29:55.000Z</time>
      </trkpt>
      <trkpt lat="46.85645" lon="6.54817">
        <ele>1554.5999755859</ele>
        <time>2017-04-24T08:29:57.000Z</time>
      </trkpt>
      <trkpt lat="46.85635" lon="6.54823">
        <ele>1554.8000488281</ele>
        <time>2017-04-24T08:30:02.000Z</time>
      </trkpt>
      <trkpt lat="46.85628" lon="6.54826">
        <ele>1555</ele>
        <time>2017-04-24T08:30:06.000Z</time>
      </trkpt>
      <trkpt lat="46.85626" lon="6.54825">
        <ele>1555.4000244141</ele>
        <time>2017-04-24T08:30:07.000Z</time>
      </trkpt>
      <trkpt lat="46.85624" lon="6.54824">
        <ele>1555.5999755859</ele>
        <time>2017-04-24T08:30:08.000Z</time>
      </trkpt>
      <trkpt lat="46.85617" lon="6.54815">
        <ele>1556.1999511719</ele>
        <time>2017-04-24T08:30:14.000Z</time>
      </trkpt>
      <trkpt lat="46.85616" lon="6.54809">
        <ele>1556.5999755859</ele>
        <time>2017-04-24T08:30:16.000Z</time>
      </trkpt>
      <trkpt lat="46.85616" lon="6.54803">
        <ele>1557</ele>
        <time>2017-04-24T08:30:18.000Z</time>
      </trkpt>
      <trkpt lat="46.85619" lon="6.54791">
        <ele>1557.5999755859</ele>
        <time>2017-04-24T08:30:22.000Z</time>
      </trkpt>
      <trkpt lat="46.85622" lon="6.54781">
        <ele>1558.4000244141</ele>
        <time>2017-04-24T08:30:25.000Z</time>
      </trkpt>
      <trkpt lat="46.85621" lon="6.54779">
        <ele>1558.5999755859</ele>
        <time>2017-04-24T08:30:26.000Z</time>
      </trkpt>
      <trkpt lat="46.85621" lon="6.54778">
        <ele>1558.8000488281</ele>
        <time>2017-04-24T08:30:27.000Z</time>
      </trkpt>
      <trkpt lat="46.85621" lon="6.54778">
        <ele>1559</ele>
        <time>2017-04-24T08:30:28.000Z</time>
      </trkpt>
      <trkpt lat="46.85618" lon="6.54769">
        <ele>1558.5999755859</ele>
        <time>2017-04-24T08:30:45.000Z</time>
      </trkpt>
      <trkpt lat="46.85614" lon="6.54764">
        <ele>1559</ele>
        <time>2017-04-24T08:30:47.000Z</time>
      </trkpt>
      <trkpt lat="46.85605" lon="6.54742">
        <ele>1559.8000488281</ele>
        <time>2017-04-24T08:30:54.000Z</time>
      </trkpt>
      <trkpt lat="46.85604" lon="6.54739">
        <ele>1560</ele>
        <time>2017-04-24T08:30:55.000Z</time>
      </trkpt>
      <trkpt lat="46.85599" lon="6.5473">
        <ele>1561</ele>
        <time>2017-04-24T08:30:58.000Z</time>
      </trkpt>
      <trkpt lat="46.85597" lon="6.54727">
        <ele>1561</ele>
        <time>2017-04-24T08:30:59.000Z</time>
      </trkpt>
      <trkpt lat="46.85584" lon="6.54714">
        <ele>1561.5999755859</ele>
        <time>2017-04-24T08:31:05.000Z</time>
      </trkpt>
      <trkpt lat="46.85575" lon="6.54704">
        <ele>1562.4000244141</ele>
        <time>2017-04-24T08:31:09.000Z</time>
      </trkpt>
      <trkpt lat="46.85572" lon="6.54702">
        <ele>1562.5999755859</ele>
        <time>2017-04-24T08:31:10.000Z</time>
      </trkpt>
      <trkpt lat="46.85563" lon="6.54691">
        <ele>1563.8000488281</ele>
        <time>2017-04-24T08:31:14.000Z</time>
      </trkpt>
      <trkpt lat="46.85557" lon="6.54682">
        <ele>1564.1999511719</ele>
        <time>2017-04-24T08:31:17.000Z</time>
      </trkpt>
      <trkpt lat="46.85551" lon="6.54673">
        <ele>1565</ele>
        <time>2017-04-24T08:31:20.000Z</time>
      </trkpt>
      <trkpt lat="46.85547" lon="6.54667">
        <ele>1565</ele>
        <time>2017-04-24T08:31:22.000Z</time>
      </trkpt>
      <trkpt lat="46.85535" lon="6.54651">
        <ele>1564</ele>
        <time>2017-04-24T08:31:27.000Z</time>
      </trkpt>
      <trkpt lat="46.85533" lon="6.54648">
        <ele>1563.8000488281</ele>
        <time>2017-04-24T08:31:28.000Z</time>
      </trkpt>
      <trkpt lat="46.85521" lon="6.54634">
        <ele>1564</ele>
        <time>2017-04-24T08:31:33.000Z</time>
      </trkpt>
      <trkpt lat="46.85504" lon="6.54625">
        <ele>1564.1999511719</ele>
        <time>2017-04-24T08:31:39.000Z</time>
      </trkpt>
      <trkpt lat="46.85493" lon="6.54623">
        <ele>1564.8000488281</ele>
        <time>2017-04-24T08:31:43.000Z</time>
      </trkpt>
      <trkpt lat="46.8549" lon="6.54622">
        <ele>1565</ele>
        <time>2017-04-24T08:31:44.000Z</time>
      </trkpt>
      <trkpt lat="46.85482" lon="6.54616">
        <ele>1565.5999755859</ele>
        <time>2017-04-24T08:31:47.000Z</time>
      </trkpt>
      <trkpt lat="46.85474" lon="6.5461">
        <ele>1566.1999511719</ele>
        <time>2017-04-24T08:31:50.000Z</time>
      </trkpt>
      <trkpt lat="46.85466" lon="6.54604">
        <ele>1567</ele>
        <time>2017-04-24T08:31:53.000Z</time>
      </trkpt>
      <trkpt lat="46.85461" lon="6.54602">
        <ele>1567.4000244141</ele>
        <time>2017-04-24T08:31:55.000Z</time>
      </trkpt>
      <trkpt lat="46.85455" lon="6.546">
        <ele>1567.5999755859</ele>
        <time>2017-04-24T08:31:58.000Z</time>
      </trkpt>
      <trkpt lat="46.85442" lon="6.54585">
        <ele>1567.5999755859</ele>
        <time>2017-04-24T08:32:03.000Z</time>
      </trkpt>
      <trkpt lat="46.85435" lon="6.5457">
        <ele>1568.1999511719</ele>
        <time>2017-04-24T08:32:07.000Z</time>
      </trkpt>
      <trkpt lat="46.85433" lon="6.54566">
        <ele>1568.4000244141</ele>
        <time>2017-04-24T08:32:08.000Z</time>
      </trkpt>
      <trkpt lat="46.85423" lon="6.5455">
        <ele>1569.5999755859</ele>
        <time>2017-04-24T08:32:13.000Z</time>
      </trkpt>
      <trkpt lat="46.85422" lon="6.54547">
        <ele>1569.8000488281</ele>
        <time>2017-04-24T08:32:14.000Z</time>
      </trkpt>
      <trkpt lat="46.85417" lon="6.54537">
        <ele>1570.5999755859</ele>
        <time>2017-04-24T08:32:17.000Z</time>
      </trkpt>
      <trkpt lat="46.85407" lon="6.54526">
        <ele>1571</ele>
        <time>2017-04-24T08:32:21.000Z</time>
      </trkpt>
      <trkpt lat="46.85397" lon="6.54509">
        <ele>1570.4000244141</ele>
        <time>2017-04-24T08:32:27.000Z</time>
      </trkpt>
      <trkpt lat="46.85392" lon="6.54495">
        <ele>1571.1999511719</ele>
        <time>2017-04-24T08:32:32.000Z</time>
      </trkpt>
      <trkpt lat="46.85392" lon="6.54486">
        <ele>1571.4000244141</ele>
        <time>2017-04-24T08:32:35.000Z</time>
      </trkpt>
      <trkpt lat="46.85393" lon="6.54482">
        <ele>1571.8000488281</ele>
        <time>2017-04-24T08:32:37.000Z</time>
      </trkpt>
      <trkpt lat="46.85393" lon="6.5448">
        <ele>1572.1999511719</ele>
        <time>2017-04-24T08:32:38.000Z</time>
      </trkpt>
      <trkpt lat="46.85392" lon="6.54475">
        <ele>1573</ele>
        <time>2017-04-24T08:32:40.000Z</time>
      </trkpt>
      <trkpt lat="46.85391" lon="6.54469">
        <ele>1573.5999755859</ele>
        <time>2017-04-24T08:32:42.000Z</time>
      </trkpt>
      <trkpt lat="46.85391" lon="6.54457">
        <ele>1574.4000244141</ele>
        <time>2017-04-24T08:32:46.000Z</time>
      </trkpt>
      <trkpt lat="46.8539" lon="6.54453">
        <ele>1574.8000488281</ele>
        <time>2017-04-24T08:32:48.000Z</time>
      </trkpt>
      <trkpt lat="46.8539" lon="6.54451">
        <ele>1575</ele>
        <time>2017-04-24T08:32:50.000Z</time>
      </trkpt>
      <trkpt lat="46.85348" lon="6.54194">
        <ele>1574</ele>
        <time>2017-04-24T08:34:31.000Z</time>
      </trkpt>
      <trkpt lat="46.85348" lon="6.54194">
        <ele>1574</ele>
        <time>2017-04-24T08:34:32.000Z</time>
      </trkpt>
      <trkpt lat="46.85348" lon="6.54194">
        <ele>1573.8000488281</ele>
        <time>2017-04-24T08:34:33.000Z</time>
      </trkpt>
      <trkpt lat="46.85346" lon="6.54188">
        <ele>1573.8000488281</ele>
        <time>2017-04-24T08:34:36.000Z</time>
      </trkpt>
      <trkpt lat="46.85345" lon="6.54184">
        <ele>1573.8000488281</ele>
        <time>2017-04-24T08:34:37.000Z</time>
      </trkpt>
      <trkpt lat="46.85342" lon="6.54171">
        <ele>1573.8000488281</ele>
        <time>2017-04-24T08:34:40.000Z</time>
      </trkpt>
      <trkpt lat="46.85339" lon="6.54158">
        <ele>1574.8000488281</ele>
        <time>2017-04-24T08:34:44.000Z</time>
      </trkpt>
      <trkpt lat="46.85339" lon="6.54155">
        <ele>1575</ele>
        <time>2017-04-24T08:34:45.000Z</time>
      </trkpt>
      <trkpt lat="46.85336" lon="6.54146">
        <ele>1576</ele>
        <time>2017-04-24T08:34:49.000Z</time>
      </trkpt>
      <trkpt lat="46.85332" lon="6.54141">
        <ele>1577.4000244141</ele>
        <time>2017-04-24T08:34:52.000Z</time>
      </trkpt>
      <trkpt lat="46.85328" lon="6.54135">
        <ele>1578.5999755859</ele>
        <time>2017-04-24T08:34:55.000Z</time>
      </trkpt>
      <trkpt lat="46.85323" lon="6.5413">
        <ele>1579.5999755859</ele>
        <time>2017-04-24T08:34:58.000Z</time>
      </trkpt>
      <trkpt lat="46.85319" lon="6.54129">
        <ele>1580.5999755859</ele>
        <time>2017-04-24T08:35:01.000Z</time>
      </trkpt>
      <trkpt lat="46.85318" lon="6.54128">
        <ele>1581.8000488281</ele>
        <time>2017-04-24T08:35:04.000Z</time>
      </trkpt>
      <trkpt lat="46.85317" lon="6.54124">
        <ele>1582.4000244141</ele>
        <time>2017-04-24T08:35:12.000Z</time>
      </trkpt>
      <trkpt lat="46.85315" lon="6.5412">
        <ele>1583</ele>
        <time>2017-04-24T08:35:16.000Z</time>
      </trkpt>
      <trkpt lat="46.85314" lon="6.5412">
        <ele>1583.1999511719</ele>
        <time>2017-04-24T08:35:18.000Z</time>
      </trkpt>
      <trkpt lat="46.85312" lon="6.54116">
        <ele>1584</ele>
        <time>2017-04-24T08:35:23.000Z</time>
      </trkpt>
      <trkpt lat="46.85312" lon="6.54116">
        <ele>1584</ele>
        <time>2017-04-24T08:35:24.000Z</time>
      </trkpt>
      <trkpt lat="46.85312" lon="6.54116">
        <ele>1584.4000244141</ele>
        <time>2017-04-24T08:35:29.000Z</time>
      </trkpt>
      <trkpt lat="46.85306" lon="6.54105">
        <ele>1586.8000488281</ele>
        <time>2017-04-24T08:36:29.000Z</time>
      </trkpt>
      <trkpt lat="46.85307" lon="6.54104">
        <ele>1587</ele>
        <time>2017-04-24T08:36:32.000Z</time>
      </trkpt>
      <trkpt lat="46.85307" lon="6.54102">
        <ele>1587</ele>
        <time>2017-04-24T08:36:33.000Z</time>
      </trkpt>
      <trkpt lat="46.85304" lon="6.54099">
        <ele>1587.1999511719</ele>
        <time>2017-04-24T08:36:36.000Z</time>
      </trkpt>
      <trkpt lat="46.85302" lon="6.54099">
        <ele>1587.5999755859</ele>
        <time>2017-04-24T08:36:37.000Z</time>
      </trkpt>
      <trkpt lat="46.853" lon="6.54097">
        <ele>1587.8000488281</ele>
        <time>2017-04-24T08:36:38.000Z</time>
      </trkpt>
      <trkpt lat="46.85296" lon="6.54093">
        <ele>1589.1999511719</ele>
        <time>2017-04-24T08:36:41.000Z</time>
      </trkpt>
      <trkpt lat="46.85295" lon="6.54091">
        <ele>1590</ele>
        <time>2017-04-24T08:36:43.000Z</time>
      </trkpt>
      <trkpt lat="46.85294" lon="6.5409">
        <ele>1590.4000244141</ele>
        <time>2017-04-24T08:36:44.000Z</time>
      </trkpt>
      <trkpt lat="46.85292" lon="6.54087">
        <ele>1591</ele>
        <time>2017-04-24T08:36:46.000Z</time>
      </trkpt>
      <trkpt lat="46.8529" lon="6.54079">
        <ele>1592</ele>
        <time>2017-04-24T08:36:49.000Z</time>
      </trkpt>
      <trkpt lat="46.85289" lon="6.54077">
        <ele>1592.4000244141</ele>
        <time>2017-04-24T08:36:50.000Z</time>
      </trkpt>
      <trkpt lat="46.85286" lon="6.5407">
        <ele>1593.1999511719</ele>
        <time>2017-04-24T08:36:53.000Z</time>
      </trkpt>
      <trkpt lat="46.85283" lon="6.54065">
        <ele>1594.4000244141</ele>
        <time>2017-04-24T08:36:56.000Z</time>
      </trkpt>
      <trkpt lat="46.85279" lon="6.54057">
        <ele>1595.5999755859</ele>
        <time>2017-04-24T08:36:59.000Z</time>
      </trkpt>
      <trkpt lat="46.85274" lon="6.54045">
        <ele>1596.4000244141</ele>
        <time>2017-04-24T08:37:04.000Z</time>
      </trkpt>
      <trkpt lat="46.85273" lon="6.54039">
        <ele>1596.5999755859</ele>
        <time>2017-04-24T08:37:06.000Z</time>
      </trkpt>
      <trkpt lat="46.85269" lon="6.54023">
        <ele>1597.5999755859</ele>
        <time>2017-04-24T08:37:11.000Z</time>
      </trkpt>
      <trkpt lat="46.85263" lon="6.54003">
        <ele>1598.5999755859</ele>
        <time>2017-04-24T08:37:18.000Z</time>
      </trkpt>
      <trkpt lat="46.85262" lon="6.54001">
        <ele>1599</ele>
        <time>2017-04-24T08:37:19.000Z</time>
      </trkpt>
      <trkpt lat="46.85261" lon="6.53994">
        <ele>1600</ele>
        <time>2017-04-24T08:37:22.000Z</time>
      </trkpt>
      <trkpt lat="46.85259" lon="6.53989">
        <ele>1601</ele>
        <time>2017-04-24T08:37:24.000Z</time>
      </trkpt>
      <trkpt lat="46.85258" lon="6.53986">
        <ele>1601.4000244141</ele>
        <time>2017-04-24T08:37:25.000Z</time>
      </trkpt>
      <trkpt lat="46.85254" lon="6.5398">
        <ele>1602.5999755859</ele>
        <time>2017-04-24T08:37:28.000Z</time>
      </trkpt>
      <trkpt lat="46.85252" lon="6.53975">
        <ele>1603</ele>
        <time>2017-04-24T08:37:30.000Z</time>
      </trkpt>
      <trkpt lat="46.85249" lon="6.53965">
        <ele>1603.8000488281</ele>
        <time>2017-04-24T08:37:34.000Z</time>
      </trkpt>
      <trkpt lat="46.85248" lon="6.53964">
        <ele>1604.4000244141</ele>
        <time>2017-04-24T08:37:35.000Z</time>
      </trkpt>
      <trkpt lat="46.85246" lon="6.53962">
        <ele>1604.8000488281</ele>
        <time>2017-04-24T08:37:36.000Z</time>
      </trkpt>
      <trkpt lat="46.85238" lon="6.53957">
        <ele>1606</ele>
        <time>2017-04-24T08:37:41.000Z</time>
      </trkpt>
      <trkpt lat="46.85237" lon="6.53955">
        <ele>1606.5999755859</ele>
        <time>2017-04-24T08:37:42.000Z</time>
      </trkpt>
      <trkpt lat="46.85236" lon="6.53953">
        <ele>1607.1999511719</ele>
        <time>2017-04-24T08:37:43.000Z</time>
      </trkpt>
      <trkpt lat="46.85232" lon="6.53943">
        <ele>1608</ele>
        <time>2017-04-24T08:37:48.000Z</time>
      </trkpt>
      <trkpt lat="46.85232" lon="6.53943">
        <ele>1608</ele>
        <time>2017-04-24T08:37:49.000Z</time>
      </trkpt>
      <trkpt lat="46.8523" lon="6.5394">
        <ele>1608.4000244141</ele>
        <time>2017-04-24T08:38:27.000Z</time>
      </trkpt>
      <trkpt lat="46.85227" lon="6.53936">
        <ele>1608.4000244141</ele>
        <time>2017-04-24T08:38:29.000Z</time>
      </trkpt>
      <trkpt lat="46.8522" lon="6.53922">
        <ele>1609</ele>
        <time>2017-04-24T08:38:34.000Z</time>
      </trkpt>
      <trkpt lat="46.85211" lon="6.53906">
        <ele>1609.5999755859</ele>
        <time>2017-04-24T08:38:39.000Z</time>
      </trkpt>
      <trkpt lat="46.85206" lon="6.53895">
        <ele>1610</ele>
        <time>2017-04-24T08:38:42.000Z</time>
      </trkpt>
      <trkpt lat="46.85203" lon="6.53891">
        <ele>1611.1999511719</ele>
        <time>2017-04-24T08:38:44.000Z</time>
      </trkpt>
      <trkpt lat="46.85202" lon="6.53889">
        <ele>1612.1999511719</ele>
        <time>2017-04-24T08:38:45.000Z</time>
      </trkpt>
      <trkpt lat="46.852" lon="6.53886">
        <ele>1613.4000244141</ele>
        <time>2017-04-24T08:38:47.000Z</time>
      </trkpt>
      <trkpt lat="46.85196" lon="6.53885">
        <ele>1614.4000244141</ele>
        <time>2017-04-24T08:38:50.000Z</time>
      </trkpt>
      <trkpt lat="46.85193" lon="6.53885">
        <ele>1615.4000244141</ele>
        <time>2017-04-24T08:38:52.000Z</time>
      </trkpt>
      <trkpt lat="46.85192" lon="6.53885">
        <ele>1616</ele>
        <time>2017-04-24T08:38:53.000Z</time>
      </trkpt>
      <trkpt lat="46.8519" lon="6.53885">
        <ele>1616.5999755859</ele>
        <time>2017-04-24T08:38:55.000Z</time>
      </trkpt>
      <trkpt lat="46.8519" lon="6.53884">
        <ele>1616.8000488281</ele>
        <time>2017-04-24T08:38:57.000Z</time>
      </trkpt>
      <trkpt lat="46.8519" lon="6.5388">
        <ele>1617.5999755859</ele>
        <time>2017-04-24T08:39:01.000Z</time>
      </trkpt>
      <trkpt lat="46.8519" lon="6.53879">
        <ele>1617.8000488281</ele>
        <time>2017-04-24T08:39:02.000Z</time>
      </trkpt>
      <trkpt lat="46.85189" lon="6.53874">
        <ele>1618.8000488281</ele>
        <time>2017-04-24T08:39:09.000Z</time>
      </trkpt>
      <trkpt lat="46.85187" lon="6.53872">
        <ele>1619.4000244141</ele>
        <time>2017-04-24T08:39:15.000Z</time>
      </trkpt>
      <trkpt lat="46.85187" lon="6.53872">
        <ele>1619.4000244141</ele>
        <time>2017-04-24T08:39:17.000Z</time>
      </trkpt>
      <trkpt lat="46.85177" lon="6.53869">
        <ele>1620</ele>
        <time>2017-04-24T08:40:03.000Z</time>
      </trkpt>
      <trkpt lat="46.85174" lon="6.53866">
        <ele>1620.8000488281</ele>
        <time>2017-04-24T08:40:05.000Z</time>
      </trkpt>
      <trkpt lat="46.85172" lon="6.53865">
        <ele>1621.4000244141</ele>
        <time>2017-04-24T08:40:07.000Z</time>
      </trkpt>
      <trkpt lat="46.85167" lon="6.53861">
        <ele>1622.1999511719</ele>
        <time>2017-04-24T08:40:10.000Z</time>
      </trkpt>
      <trkpt lat="46.85166" lon="6.5386">
        <ele>1622.5999755859</ele>
        <time>2017-04-24T08:40:11.000Z</time>
      </trkpt>
      <trkpt lat="46.85153" lon="6.53862">
        <ele>1623.1999511719</ele>
        <time>2017-04-24T08:40:16.000Z</time>
      </trkpt>
      <trkpt lat="46.85145" lon="6.53865">
        <ele>1623</ele>
        <time>2017-04-24T08:40:18.000Z</time>
      </trkpt>
      <trkpt lat="46.85135" lon="6.53869">
        <ele>1621.8000488281</ele>
        <time>2017-04-24T08:40:20.000Z</time>
      </trkpt>
      <trkpt lat="46.8513" lon="6.5387">
        <ele>1621</ele>
        <time>2017-04-24T08:40:21.000Z</time>
      </trkpt>
      <trkpt lat="46.85126" lon="6.5387">
        <ele>1620</ele>
        <time>2017-04-24T08:40:22.000Z</time>
      </trkpt>
      <trkpt lat="46.85124" lon="6.5387">
        <ele>1619.4000244141</ele>
        <time>2017-04-24T08:40:23.000Z</time>
      </trkpt>
      <trkpt lat="46.85123" lon="6.5387">
        <ele>1619.1999511719</ele>
        <time>2017-04-24T08:40:24.000Z</time>
      </trkpt>
      <trkpt lat="46.85123" lon="6.5387">
        <ele>1618.4000244141</ele>
        <time>2017-04-24T08:40:45.000Z</time>
      </trkpt>
      <trkpt lat="46.85123" lon="6.5387">
        <ele>1618</ele>
        <time>2017-04-24T08:40:47.000Z</time>
      </trkpt>
      <trkpt lat="46.85123" lon="6.5387">
        <ele>1618</ele>
        <time>2017-04-24T08:40:55.000Z</time>
      </trkpt>
      <trkpt lat="46.85123" lon="6.5387">
        <ele>1617.8000488281</ele>
        <time>2017-04-24T08:41:20.000Z</time>
      </trkpt>
      <trkpt lat="46.85123" lon="6.5387">
        <ele>1617.8000488281</ele>
        <time>2017-04-24T08:41:42.000Z</time>
      </trkpt>
      <trkpt lat="46.85063" lon="6.53918">
        <ele>1606.8000488281</ele>
        <time>2017-04-24T08:42:20.000Z</time>
      </trkpt>
      <trkpt lat="46.85063" lon="6.53921">
        <ele>1606.5999755859</ele>
        <time>2017-04-24T08:42:21.000Z</time>
      </trkpt>
      <trkpt lat="46.85063" lon="6.5393">
        <ele>1605.4000244141</ele>
        <time>2017-04-24T08:42:23.000Z</time>
      </trkpt>
      <trkpt lat="46.85059" lon="6.53934">
        <ele>1604</ele>
        <time>2017-04-24T08:42:25.000Z</time>
      </trkpt>
      <trkpt lat="46.85048" lon="6.53931">
        <ele>1603.5999755859</ele>
        <time>2017-04-24T08:42:28.000Z</time>
      </trkpt>
      <trkpt lat="46.85043" lon="6.53929">
        <ele>1603.4000244141</ele>
        <time>2017-04-24T08:42:29.000Z</time>
      </trkpt>
      <trkpt lat="46.85035" lon="6.53925">
        <ele>1602.5999755859</ele>
        <time>2017-04-24T08:42:31.000Z</time>
      </trkpt>
      <trkpt lat="46.85028" lon="6.53923">
        <ele>1601.4000244141</ele>
        <time>2017-04-24T08:42:33.000Z</time>
      </trkpt>
      <trkpt lat="46.85019" lon="6.53921">
        <ele>1600.4000244141</ele>
        <time>2017-04-24T08:42:35.000Z</time>
      </trkpt>
      <trkpt lat="46.85014" lon="6.5392">
        <ele>1600</ele>
        <time>2017-04-24T08:42:36.000Z</time>
      </trkpt>
      <trkpt lat="46.85008" lon="6.53919">
        <ele>1599.5999755859</ele>
        <time>2017-04-24T08:42:37.000Z</time>
      </trkpt>
      <trkpt lat="46.85002" lon="6.53917">
        <ele>1598.8000488281</ele>
        <time>2017-04-24T08:42:38.000Z</time>
      </trkpt>
      <trkpt lat="46.84996" lon="6.53915">
        <ele>1597.8000488281</ele>
        <time>2017-04-24T08:42:39.000Z</time>
      </trkpt>
      <trkpt lat="46.84989" lon="6.53912">
        <ele>1596.5999755859</ele>
        <time>2017-04-24T08:42:40.000Z</time>
      </trkpt>
      <trkpt lat="46.84982" lon="6.5391">
        <ele>1595.4000244141</ele>
        <time>2017-04-24T08:42:41.000Z</time>
      </trkpt>
      <trkpt lat="46.84976" lon="6.53908">
        <ele>1593.8000488281</ele>
        <time>2017-04-24T08:42:42.000Z</time>
      </trkpt>
      <trkpt lat="46.84969" lon="6.53906">
        <ele>1592.4000244141</ele>
        <time>2017-04-24T08:42:43.000Z</time>
      </trkpt>
      <trkpt lat="46.84962" lon="6.53903">
        <ele>1591.1999511719</ele>
        <time>2017-04-24T08:42:44.000Z</time>
      </trkpt>
      <trkpt lat="46.84957" lon="6.53898">
        <ele>1589</ele>
        <time>2017-04-24T08:42:45.000Z</time>
      </trkpt>
      <trkpt lat="46.84952" lon="6.53892">
        <ele>1587.8000488281</ele>
        <time>2017-04-24T08:42:46.000Z</time>
      </trkpt>
      <trkpt lat="46.84949" lon="6.53885">
        <ele>1587.4000244141</ele>
        <time>2017-04-24T08:42:47.000Z</time>
      </trkpt>
      <trkpt lat="46.84946" lon="6.53879">
        <ele>1587.1999511719</ele>
        <time>2017-04-24T08:42:48.000Z</time>
      </trkpt>
      <trkpt lat="46.84943" lon="6.53872">
        <ele>1586.8000488281</ele>
        <time>2017-04-24T08:42:49.000Z</time>
      </trkpt>
      <trkpt lat="46.84937" lon="6.53851">
        <ele>1586.4000244141</ele>
        <time>2017-04-24T08:42:52.000Z</time>
      </trkpt>
      <trkpt lat="46.84936" lon="6.53844">
        <ele>1586.1999511719</ele>
        <time>2017-04-24T08:42:53.000Z</time>
      </trkpt>
      <trkpt lat="46.84931" lon="6.53803">
        <ele>1586.5999755859</ele>
        <time>2017-04-24T08:42:58.000Z</time>
      </trkpt>
      <trkpt lat="46.84929" lon="6.53771">
        <ele>1586.5999755859</ele>
        <time>2017-04-24T08:43:02.000Z</time>
      </trkpt>
      <trkpt lat="46.8493" lon="6.53747">
        <ele>1587</ele>
        <time>2017-04-24T08:43:05.000Z</time>
      </trkpt>
      <trkpt lat="46.84933" lon="6.53728">
        <ele>1587.5999755859</ele>
        <time>2017-04-24T08:43:08.000Z</time>
      </trkpt>
      <trkpt lat="46.84931" lon="6.53724">
        <ele>1587.5999755859</ele>
        <time>2017-04-24T08:43:09.000Z</time>
      </trkpt>
      <trkpt lat="46.84922" lon="6.53713">
        <ele>1587.5999755859</ele>
        <time>2017-04-24T08:43:12.000Z</time>
      </trkpt>
      <trkpt lat="46.84918" lon="6.53708">
        <ele>1586.8000488281</ele>
        <time>2017-04-24T08:43:13.000Z</time>
      </trkpt>
      <trkpt lat="46.84906" lon="6.53694">
        <ele>1585.8000488281</ele>
        <time>2017-04-24T08:43:16.000Z</time>
      </trkpt>
      <trkpt lat="46.84896" lon="6.53686">
        <ele>1584.1999511719</ele>
        <time>2017-04-24T08:43:18.000Z</time>
      </trkpt>
      <trkpt lat="46.84885" lon="6.53681">
        <ele>1582.8000488281</ele>
        <time>2017-04-24T08:43:20.000Z</time>
      </trkpt>
      <trkpt lat="46.8488" lon="6.53678">
        <ele>1582</ele>
        <time>2017-04-24T08:43:21.000Z</time>
      </trkpt>
      <trkpt lat="46.84874" lon="6.53674">
        <ele>1581</ele>
        <time>2017-04-24T08:43:22.000Z</time>
      </trkpt>
      <trkpt lat="46.84868" lon="6.5367">
        <ele>1580</ele>
        <time>2017-04-24T08:43:23.000Z</time>
      </trkpt>
      <trkpt lat="46.84863" lon="6.53665">
        <ele>1578.4000244141</ele>
        <time>2017-04-24T08:43:24.000Z</time>
      </trkpt>
      <trkpt lat="46.84858" lon="6.5366">
        <ele>1577</ele>
        <time>2017-04-24T08:43:25.000Z</time>
      </trkpt>
      <trkpt lat="46.84849" lon="6.53651">
        <ele>1575.8000488281</ele>
        <time>2017-04-24T08:43:27.000Z</time>
      </trkpt>
      <trkpt lat="46.84841" lon="6.53643">
        <ele>1575.4000244141</ele>
        <time>2017-04-24T08:43:29.000Z</time>
      </trkpt>
      <trkpt lat="46.84827" lon="6.53629">
        <ele>1574.1999511719</ele>
        <time>2017-04-24T08:43:32.000Z</time>
      </trkpt>
      <trkpt lat="46.84817" lon="6.5362">
        <ele>1572.5999755859</ele>
        <time>2017-04-24T08:43:34.000Z</time>
      </trkpt>
      <trkpt lat="46.84812" lon="6.53615">
        <ele>1572</ele>
        <time>2017-04-24T08:43:35.000Z</time>
      </trkpt>
      <trkpt lat="46.84807" lon="6.5361">
        <ele>1571.4000244141</ele>
        <time>2017-04-24T08:43:36.000Z</time>
      </trkpt>
      <trkpt lat="46.84793" lon="6.53593">
        <ele>1569.8000488281</ele>
        <time>2017-04-24T08:43:39.000Z</time>
      </trkpt>
      <trkpt lat="46.84789" lon="6.53588">
        <ele>1568.8000488281</ele>
        <time>2017-04-24T08:43:40.000Z</time>
      </trkpt>
      <trkpt lat="46.84782" lon="6.53578">
        <ele>1566.5999755859</ele>
        <time>2017-04-24T08:43:42.000Z</time>
      </trkpt>
      <trkpt lat="46.84773" lon="6.53568">
        <ele>1565.4000244141</ele>
        <time>2017-04-24T08:43:44.000Z</time>
      </trkpt>
      <trkpt lat="46.84769" lon="6.53563">
        <ele>1564.5999755859</ele>
        <time>2017-04-24T08:43:45.000Z</time>
      </trkpt>
      <trkpt lat="46.84764" lon="6.53559">
        <ele>1563.8000488281</ele>
        <time>2017-04-24T08:43:46.000Z</time>
      </trkpt>
      <trkpt lat="46.8476" lon="6.53554">
        <ele>1562.1999511719</ele>
        <time>2017-04-24T08:43:47.000Z</time>
      </trkpt>
      <trkpt lat="46.84755" lon="6.53549">
        <ele>1560.5999755859</ele>
        <time>2017-04-24T08:43:48.000Z</time>
      </trkpt>
      <trkpt lat="46.84751" lon="6.53544">
        <ele>1560</ele>
        <time>2017-04-24T08:43:49.000Z</time>
      </trkpt>
      <trkpt lat="46.84747" lon="6.53538">
        <ele>1559.1999511719</ele>
        <time>2017-04-24T08:43:50.000Z</time>
      </trkpt>
      <trkpt lat="46.84743" lon="6.53531">
        <ele>1558.1999511719</ele>
        <time>2017-04-24T08:43:51.000Z</time>
      </trkpt>
      <trkpt lat="46.84737" lon="6.53525">
        <ele>1557</ele>
        <time>2017-04-24T08:43:52.000Z</time>
      </trkpt>
      <trkpt lat="46.84731" lon="6.53519">
        <ele>1556.4000244141</ele>
        <time>2017-04-24T08:43:53.000Z</time>
      </trkpt>
      <trkpt lat="46.84725" lon="6.53513">
        <ele>1555.4000244141</ele>
        <time>2017-04-24T08:43:54.000Z</time>
      </trkpt>
      <trkpt lat="46.84714" lon="6.53501">
        <ele>1554</ele>
        <time>2017-04-24T08:43:56.000Z</time>
      </trkpt>
      <trkpt lat="46.84706" lon="6.5349">
        <ele>1553.4000244141</ele>
        <time>2017-04-24T08:43:58.000Z</time>
      </trkpt>
      <trkpt lat="46.8469" lon="6.53469">
        <ele>1553.1999511719</ele>
        <time>2017-04-24T08:44:02.000Z</time>
      </trkpt>
      <trkpt lat="46.84685" lon="6.5346">
        <ele>1553</ele>
        <time>2017-04-24T08:44:04.000Z</time>
      </trkpt>
      <trkpt lat="46.84678" lon="6.53451">
        <ele>1552.8000488281</ele>
        <time>2017-04-24T08:44:06.000Z</time>
      </trkpt>
      <trkpt lat="46.84671" lon="6.53438">
        <ele>1552.4000244141</ele>
        <time>2017-04-24T08:44:09.000Z</time>
      </trkpt>
      <trkpt lat="46.84665" lon="6.53428">
        <ele>1551.8000488281</ele>
        <time>2017-04-24T08:44:11.000Z</time>
      </trkpt>
      <trkpt lat="46.84658" lon="6.53417">
        <ele>1550.4000244141</ele>
        <time>2017-04-24T08:44:13.000Z</time>
      </trkpt>
      <trkpt lat="46.84649" lon="6.53406">
        <ele>1549</ele>
        <time>2017-04-24T08:44:15.000Z</time>
      </trkpt>
      <trkpt lat="46.84632" lon="6.53381">
        <ele>1548</ele>
        <time>2017-04-24T08:44:19.000Z</time>
      </trkpt>
      <trkpt lat="46.84628" lon="6.53375">
        <ele>1547.8000488281</ele>
        <time>2017-04-24T08:44:20.000Z</time>
      </trkpt>
      <trkpt lat="46.84619" lon="6.53364">
        <ele>1547.4000244141</ele>
        <time>2017-04-24T08:44:23.000Z</time>
      </trkpt>
      <trkpt lat="46.84612" lon="6.5335">
        <ele>1547.5999755859</ele>
        <time>2017-04-24T08:44:27.000Z</time>
      </trkpt>
      <trkpt lat="46.84601" lon="6.53331">
        <ele>1548.1999511719</ele>
        <time>2017-04-24T08:44:32.000Z</time>
      </trkpt>
      <trkpt lat="46.84581" lon="6.53308">
        <ele>1548.4000244141</ele>
        <time>2017-04-24T08:44:39.000Z</time>
      </trkpt>
      <trkpt lat="46.84575" lon="6.53301">
        <ele>1548.8000488281</ele>
        <time>2017-04-24T08:44:41.000Z</time>
      </trkpt>
      <trkpt lat="46.84565" lon="6.53289">
        <ele>1548.8000488281</ele>
        <time>2017-04-24T08:44:44.000Z</time>
      </trkpt>
      <trkpt lat="46.84561" lon="6.53286">
        <ele>1548.8000488281</ele>
        <time>2017-04-24T08:44:45.000Z</time>
      </trkpt>
      <trkpt lat="46.84554" lon="6.53277">
        <ele>1549</ele>
        <time>2017-04-24T08:44:48.000Z</time>
      </trkpt>
      <trkpt lat="46.84552" lon="6.53273">
        <ele>1549</ele>
        <time>2017-04-24T08:44:49.000Z</time>
      </trkpt>
      <trkpt lat="46.84548" lon="6.53267">
        <ele>1549</ele>
        <time>2017-04-24T08:44:53.000Z</time>
      </trkpt>
      <trkpt lat="46.84548" lon="6.53267">
        <ele>1548.4000244141</ele>
        <time>2017-04-24T08:45:06.000Z</time>
      </trkpt>
      <trkpt lat="46.84546" lon="6.53266">
        <ele>1548.4000244141</ele>
        <time>2017-04-24T08:45:12.000Z</time>
      </trkpt>
      <trkpt lat="46.84545" lon="6.53264">
        <ele>1548.4000244141</ele>
        <time>2017-04-24T08:45:13.000Z</time>
      </trkpt>
      <trkpt lat="46.84538" lon="6.53252">
        <ele>1548.5999755859</ele>
        <time>2017-04-24T08:45:17.000Z</time>
      </trkpt>
      <trkpt lat="46.84535" lon="6.53246">
        <ele>1549</ele>
        <time>2017-04-24T08:45:19.000Z</time>
      </trkpt>
      <trkpt lat="46.84534" lon="6.53243">
        <ele>1549.1999511719</ele>
        <time>2017-04-24T08:45:20.000Z</time>
      </trkpt>
      <trkpt lat="46.84532" lon="6.53242">
        <ele>1549.8000488281</ele>
        <time>2017-04-24T08:45:21.000Z</time>
      </trkpt>
      <trkpt lat="46.84527" lon="6.53237">
        <ele>1551.1999511719</ele>
        <time>2017-04-24T08:45:24.000Z</time>
      </trkpt>
      <trkpt lat="46.84523" lon="6.53235">
        <ele>1552.1999511719</ele>
        <time>2017-04-24T08:45:26.000Z</time>
      </trkpt>
      <trkpt lat="46.84519" lon="6.53231">
        <ele>1553.1999511719</ele>
        <time>2017-04-24T08:45:28.000Z</time>
      </trkpt>
      <trkpt lat="46.84518" lon="6.53229">
        <ele>1553.4000244141</ele>
        <time>2017-04-24T08:45:29.000Z</time>
      </trkpt>
      <trkpt lat="46.84515" lon="6.53226">
        <ele>1554</ele>
        <time>2017-04-24T08:45:31.000Z</time>
      </trkpt>
      <trkpt lat="46.84514" lon="6.53226">
        <ele>1554.4000244141</ele>
        <time>2017-04-24T08:45:32.000Z</time>
      </trkpt>
      <trkpt lat="46.84514" lon="6.53226">
        <ele>1554.8000488281</ele>
        <time>2017-04-24T08:45:33.000Z</time>
      </trkpt>
      <trkpt lat="46.84512" lon="6.53226">
        <ele>1555.4000244141</ele>
        <time>2017-04-24T08:45:36.000Z</time>
      </trkpt>
      <trkpt lat="46.8451" lon="6.53226">
        <ele>1555.4000244141</ele>
        <time>2017-04-24T08:45:37.000Z</time>
      </trkpt>
      <trkpt lat="46.84508" lon="6.53225">
        <ele>1555.5999755859</ele>
        <time>2017-04-24T08:45:38.000Z</time>
      </trkpt>
      <trkpt lat="46.84502" lon="6.53218">
        <ele>1556.4000244141</ele>
        <time>2017-04-24T08:45:42.000Z</time>
      </trkpt>
      <trkpt lat="46.845" lon="6.53216">
        <ele>1557</ele>
        <time>2017-04-24T08:45:43.000Z</time>
      </trkpt>
      <trkpt lat="46.84498" lon="6.53213">
        <ele>1557.4000244141</ele>
        <time>2017-04-24T08:45:45.000Z</time>
      </trkpt>
      <trkpt lat="46.84492" lon="6.53206">
        <ele>1558.8000488281</ele>
        <time>2017-04-24T08:45:49.000Z</time>
      </trkpt>
      <trkpt lat="46.84491" lon="6.53203">
        <ele>1559</ele>
        <time>2017-04-24T08:45:50.000Z</time>
      </trkpt>
      <trkpt lat="46.84488" lon="6.53198">
        <ele>1559.8000488281</ele>
        <time>2017-04-24T08:45:52.000Z</time>
      </trkpt>
      <trkpt lat="46.84483" lon="6.53185">
        <ele>1561.1999511719</ele>
        <time>2017-04-24T08:45:57.000Z</time>
      </trkpt>
      <trkpt lat="46.84482" lon="6.53183">
        <ele>1561.8000488281</ele>
        <time>2017-04-24T08:45:58.000Z</time>
      </trkpt>
      <trkpt lat="46.84479" lon="6.53179">
        <ele>1562.4000244141</ele>
        <time>2017-04-24T08:46:00.000Z</time>
      </trkpt>
      <trkpt lat="46.84474" lon="6.53171">
        <ele>1563.4000244141</ele>
        <time>2017-04-24T08:46:04.000Z</time>
      </trkpt>
      <trkpt lat="46.84471" lon="6.53167">
        <ele>1564</ele>
        <time>2017-04-24T08:46:06.000Z</time>
      </trkpt>
      <trkpt lat="46.84469" lon="6.53163">
        <ele>1564.5999755859</ele>
        <time>2017-04-24T08:46:08.000Z</time>
      </trkpt>
      <trkpt lat="46.84461" lon="6.53154">
        <ele>1565.5999755859</ele>
        <time>2017-04-24T08:46:13.000Z</time>
      </trkpt>
      <trkpt lat="46.8446" lon="6.53153">
        <ele>1566</ele>
        <time>2017-04-24T08:46:14.000Z</time>
      </trkpt>
      <trkpt lat="46.84454" lon="6.53147">
        <ele>1567</ele>
        <time>2017-04-24T08:46:18.000Z</time>
      </trkpt>
      <trkpt lat="46.84453" lon="6.53146">
        <ele>1567.1999511719</ele>
        <time>2017-04-24T08:46:19.000Z</time>
      </trkpt>
      <trkpt lat="46.84445" lon="6.53146">
        <ele>1567.4000244141</ele>
        <time>2017-04-24T08:46:24.000Z</time>
      </trkpt>
      <trkpt lat="46.84443" lon="6.53153">
        <ele>1568</ele>
        <time>2017-04-24T08:46:27.000Z</time>
      </trkpt>
      <trkpt lat="46.84442" lon="6.53159">
        <ele>1568</ele>
        <time>2017-04-24T08:46:29.000Z</time>
      </trkpt>
      <trkpt lat="46.84439" lon="6.53174">
        <ele>1566.8000488281</ele>
        <time>2017-04-24T08:46:33.000Z</time>
      </trkpt>
      <trkpt lat="46.84439" lon="6.53178">
        <ele>1566.4000244141</ele>
        <time>2017-04-24T08:46:34.000Z</time>
      </trkpt>
      <trkpt lat="46.84439" lon="6.53182">
        <ele>1565.8000488281</ele>
        <time>2017-04-24T08:46:35.000Z</time>
      </trkpt>
      <trkpt lat="46.84438" lon="6.53196">
        <ele>1564</ele>
        <time>2017-04-24T08:46:38.000Z</time>
      </trkpt>
      <trkpt lat="46.84437" lon="6.53201">
        <ele>1563</ele>
        <time>2017-04-24T08:46:39.000Z</time>
      </trkpt>
      <trkpt lat="46.84436" lon="6.53207">
        <ele>1562</ele>
        <time>2017-04-24T08:46:40.000Z</time>
      </trkpt>
      <trkpt lat="46.84434" lon="6.53218">
        <ele>1560.1999511719</ele>
        <time>2017-04-24T08:46:42.000Z</time>
      </trkpt>
      <trkpt lat="46.84433" lon="6.53223">
        <ele>1559</ele>
        <time>2017-04-24T08:46:43.000Z</time>
      </trkpt>
      <trkpt lat="46.84431" lon="6.53228">
        <ele>1557.8000488281</ele>
        <time>2017-04-24T08:46:44.000Z</time>
      </trkpt>
      <trkpt lat="46.84429" lon="6.53232">
        <ele>1556.5999755859</ele>
        <time>2017-04-24T08:46:45.000Z</time>
      </trkpt>
      <trkpt lat="46.84423" lon="6.53238">
        <ele>1554.5999755859</ele>
        <time>2017-04-24T08:46:47.000Z</time>
      </trkpt>
      <trkpt lat="46.84419" lon="6.53247">
        <ele>1553.4000244141</ele>
        <time>2017-04-24T08:46:49.000Z</time>
      </trkpt>
      <trkpt lat="46.84417" lon="6.5325">
        <ele>1552.8000488281</ele>
        <time>2017-04-24T08:46:50.000Z</time>
      </trkpt>
      <trkpt lat="46.84416" lon="6.53253">
        <ele>1552.1999511719</ele>
        <time>2017-04-24T08:46:51.000Z</time>
      </trkpt>
      <trkpt lat="46.84408" lon="6.5326">
        <ele>1551</ele>
        <time>2017-04-24T08:46:55.000Z</time>
      </trkpt>
      <trkpt lat="46.84398" lon="6.53268">
        <ele>1550</ele>
        <time>2017-04-24T08:46:58.000Z</time>
      </trkpt>
      <trkpt lat="46.84394" lon="6.5327">
        <ele>1549.4000244141</ele>
        <time>2017-04-24T08:46:59.000Z</time>
      </trkpt>
      <trkpt lat="46.84387" lon="6.53271">
        <ele>1547.8000488281</ele>
        <time>2017-04-24T08:47:01.000Z</time>
      </trkpt>
      <trkpt lat="46.84379" lon="6.53269">
        <ele>1546.8000488281</ele>
        <time>2017-04-24T08:47:03.000Z</time>
      </trkpt>
      <trkpt lat="46.84375" lon="6.53268">
        <ele>1546.5999755859</ele>
        <time>2017-04-24T08:47:04.000Z</time>
      </trkpt>
      <trkpt lat="46.84364" lon="6.5326">
        <ele>1545.8000488281</ele>
        <time>2017-04-24T08:47:08.000Z</time>
      </trkpt>
      <trkpt lat="46.84359" lon="6.53257">
        <ele>1545.4000244141</ele>
        <time>2017-04-24T08:47:09.000Z</time>
      </trkpt>
      <trkpt lat="46.84355" lon="6.53254">
        <ele>1544.5999755859</ele>
        <time>2017-04-24T08:47:10.000Z</time>
      </trkpt>
      <trkpt lat="46.84346" lon="6.53253">
        <ele>1543.4000244141</ele>
        <time>2017-04-24T08:47:12.000Z</time>
      </trkpt>
      <trkpt lat="46.84343" lon="6.53255">
        <ele>1542.5999755859</ele>
        <time>2017-04-24T08:47:13.000Z</time>
      </trkpt>
      <trkpt lat="46.84342" lon="6.53259">
        <ele>1541.8000488281</ele>
        <time>2017-04-24T08:47:14.000Z</time>
      </trkpt>
      <trkpt lat="46.84344" lon="6.53272">
        <ele>1540.8000488281</ele>
        <time>2017-04-24T08:47:16.000Z</time>
      </trkpt>
      <trkpt lat="46.84345" lon="6.53291">
        <ele>1538.8000488281</ele>
        <time>2017-04-24T08:47:18.000Z</time>
      </trkpt>
      <trkpt lat="46.84345" lon="6.53303">
        <ele>1537.4000244141</ele>
        <time>2017-04-24T08:47:19.000Z</time>
      </trkpt>
      <trkpt lat="46.84346" lon="6.53329">
        <ele>1535.1999511719</ele>
        <time>2017-04-24T08:47:21.000Z</time>
      </trkpt>
      <trkpt lat="46.84346" lon="6.53342">
        <ele>1533.5999755859</ele>
        <time>2017-04-24T08:47:22.000Z</time>
      </trkpt>
      <trkpt lat="46.84347" lon="6.53354">
        <ele>1532.4000244141</ele>
        <time>2017-04-24T08:47:23.000Z</time>
      </trkpt>
      <trkpt lat="46.84348" lon="6.53365">
        <ele>1530.8000488281</ele>
        <time>2017-04-24T08:47:24.000Z</time>
      </trkpt>
      <trkpt lat="46.8435" lon="6.53388">
        <ele>1529.1999511719</ele>
        <time>2017-04-24T08:47:26.000Z</time>
      </trkpt>
      <trkpt lat="46.84353" lon="6.53399">
        <ele>1527.8000488281</ele>
        <time>2017-04-24T08:47:27.000Z</time>
      </trkpt>
      <trkpt lat="46.84355" lon="6.53411">
        <ele>1527</ele>
        <time>2017-04-24T08:47:28.000Z</time>
      </trkpt>
      <trkpt lat="46.84358" lon="6.53422">
        <ele>1526.1999511719</ele>
        <time>2017-04-24T08:47:29.000Z</time>
      </trkpt>
      <trkpt lat="46.84364" lon="6.53442">
        <ele>1524.4000244141</ele>
        <time>2017-04-24T08:47:31.000Z</time>
      </trkpt>
      <trkpt lat="46.84369" lon="6.5346">
        <ele>1523.1999511719</ele>
        <time>2017-04-24T08:47:33.000Z</time>
      </trkpt>
      <trkpt lat="46.84375" lon="6.53476">
        <ele>1521.4000244141</ele>
        <time>2017-04-24T08:47:35.000Z</time>
      </trkpt>
      <trkpt lat="46.84376" lon="6.53483">
        <ele>1521</ele>
        <time>2017-04-24T08:47:36.000Z</time>
      </trkpt>
      <trkpt lat="46.84377" lon="6.53491">
        <ele>1521.4000244141</ele>
        <time>2017-04-24T08:47:37.000Z</time>
      </trkpt>
      <trkpt lat="46.84378" lon="6.53528">
        <ele>1520.5999755859</ele>
        <time>2017-04-24T08:47:41.000Z</time>
      </trkpt>
      <trkpt lat="46.84378" lon="6.53539">
        <ele>1520</ele>
        <time>2017-04-24T08:47:42.000Z</time>
      </trkpt>
      <trkpt lat="46.84378" lon="6.53551">
        <ele>1518.5999755859</ele>
        <time>2017-04-24T08:47:43.000Z</time>
      </trkpt>
      <trkpt lat="46.84378" lon="6.53579">
        <ele>1517</ele>
        <time>2017-04-24T08:47:45.000Z</time>
      </trkpt>
      <trkpt lat="46.84377" lon="6.53593">
        <ele>1514.5999755859</ele>
        <time>2017-04-24T08:47:46.000Z</time>
      </trkpt>
      <trkpt lat="46.84377" lon="6.53607">
        <ele>1511.5999755859</ele>
        <time>2017-04-24T08:47:47.000Z</time>
      </trkpt>
      <trkpt lat="46.84375" lon="6.53621">
        <ele>1509.4000244141</ele>
        <time>2017-04-24T08:47:48.000Z</time>
      </trkpt>
      <trkpt lat="46.84372" lon="6.53633">
        <ele>1507.5999755859</ele>
        <time>2017-04-24T08:47:49.000Z</time>
      </trkpt>
      <trkpt lat="46.84368" lon="6.53643">
        <ele>1506</ele>
        <time>2017-04-24T08:47:50.000Z</time>
      </trkpt>
      <trkpt lat="46.84361" lon="6.53651">
        <ele>1504.4000244141</ele>
        <time>2017-04-24T08:47:51.000Z</time>
      </trkpt>
      <trkpt lat="46.84354" lon="6.53659">
        <ele>1503</ele>
        <time>2017-04-24T08:47:52.000Z</time>
      </trkpt>
      <trkpt lat="46.84347" lon="6.53665">
        <ele>1502</ele>
        <time>2017-04-24T08:47:53.000Z</time>
      </trkpt>
      <trkpt lat="46.84339" lon="6.53671">
        <ele>1501</ele>
        <time>2017-04-24T08:47:54.000Z</time>
      </trkpt>
      <trkpt lat="46.84332" lon="6.53677">
        <ele>1500</ele>
        <time>2017-04-24T08:47:55.000Z</time>
      </trkpt>
      <trkpt lat="46.84319" lon="6.5369">
        <ele>1498.1999511719</ele>
        <time>2017-04-24T08:47:57.000Z</time>
      </trkpt>
      <trkpt lat="46.84313" lon="6.53697">
        <ele>1496.5999755859</ele>
        <time>2017-04-24T08:47:58.000Z</time>
      </trkpt>
      <trkpt lat="46.84307" lon="6.53702">
        <ele>1493.8000488281</ele>
        <time>2017-04-24T08:47:59.000Z</time>
      </trkpt>
      <trkpt lat="46.84303" lon="6.53709">
        <ele>1491.1999511719</ele>
        <time>2017-04-24T08:48:00.000Z</time>
      </trkpt>
      <trkpt lat="46.84299" lon="6.53718">
        <ele>1489</ele>
        <time>2017-04-24T08:48:01.000Z</time>
      </trkpt>
      <trkpt lat="46.84298" lon="6.53728">
        <ele>1488</ele>
        <time>2017-04-24T08:48:02.000Z</time>
      </trkpt>
      <trkpt lat="46.84297" lon="6.53739">
        <ele>1486.8000488281</ele>
        <time>2017-04-24T08:48:03.000Z</time>
      </trkpt>
      <trkpt lat="46.84295" lon="6.5375">
        <ele>1485.8000488281</ele>
        <time>2017-04-24T08:48:04.000Z</time>
      </trkpt>
      <trkpt lat="46.84294" lon="6.53772">
        <ele>1484.1999511719</ele>
        <time>2017-04-24T08:48:06.000Z</time>
      </trkpt>
      <trkpt lat="46.84293" lon="6.53783">
        <ele>1483.1999511719</ele>
        <time>2017-04-24T08:48:07.000Z</time>
      </trkpt>
      <trkpt lat="46.84292" lon="6.53793">
        <ele>1482.1999511719</ele>
        <time>2017-04-24T08:48:08.000Z</time>
      </trkpt>
      <trkpt lat="46.84291" lon="6.53802">
        <ele>1481.1999511719</ele>
        <time>2017-04-24T08:48:09.000Z</time>
      </trkpt>
      <trkpt lat="46.84283" lon="6.53813">
        <ele>1480</ele>
        <time>2017-04-24T08:48:11.000Z</time>
      </trkpt>
      <trkpt lat="46.84277" lon="6.53814">
        <ele>1479.5999755859</ele>
        <time>2017-04-24T08:48:12.000Z</time>
      </trkpt>
      <trkpt lat="46.84272" lon="6.53812">
        <ele>1478.8000488281</ele>
        <time>2017-04-24T08:48:13.000Z</time>
      </trkpt>
      <trkpt lat="46.84261" lon="6.53801">
        <ele>1477.1999511719</ele>
        <time>2017-04-24T08:48:15.000Z</time>
      </trkpt>
      <trkpt lat="46.84257" lon="6.53795">
        <ele>1477</ele>
        <time>2017-04-24T08:48:16.000Z</time>
      </trkpt>
      <trkpt lat="46.8425" lon="6.53785">
        <ele>1476.1999511719</ele>
        <time>2017-04-24T08:48:18.000Z</time>
      </trkpt>
      <trkpt lat="46.84242" lon="6.53775">
        <ele>1476.1999511719</ele>
        <time>2017-04-24T08:48:20.000Z</time>
      </trkpt>
      <trkpt lat="46.84221" lon="6.53747">
        <ele>1476.4000244141</ele>
        <time>2017-04-24T08:48:26.000Z</time>
      </trkpt>
      <trkpt lat="46.84211" lon="6.53734">
        <ele>1476</ele>
        <time>2017-04-24T08:48:29.000Z</time>
      </trkpt>
      <trkpt lat="46.84207" lon="6.53722">
        <ele>1476</ele>
        <time>2017-04-24T08:48:31.000Z</time>
      </trkpt>
      <trkpt lat="46.84204" lon="6.5371">
        <ele>1476</ele>
        <time>2017-04-24T08:48:33.000Z</time>
      </trkpt>
      <trkpt lat="46.84202" lon="6.53691">
        <ele>1477.1999511719</ele>
        <time>2017-04-24T08:48:36.000Z</time>
      </trkpt>
      <trkpt lat="46.84201" lon="6.53684">
        <ele>1477.1999511719</ele>
        <time>2017-04-24T08:48:37.000Z</time>
      </trkpt>
      <trkpt lat="46.84192" lon="6.53646">
        <ele>1476.1999511719</ele>
        <time>2017-04-24T08:48:42.000Z</time>
      </trkpt>
      <trkpt lat="46.84191" lon="6.53639">
        <ele>1475.8000488281</ele>
        <time>2017-04-24T08:48:43.000Z</time>
      </trkpt>
      <trkpt lat="46.84189" lon="6.5362">
        <ele>1475.4000244141</ele>
        <time>2017-04-24T08:48:47.000Z</time>
      </trkpt>
      <trkpt lat="46.84183" lon="6.53605">
        <ele>1475.4000244141</ele>
        <time>2017-04-24T08:48:51.000Z</time>
      </trkpt>
      <trkpt lat="46.84172" lon="6.53597">
        <ele>1474.8000488281</ele>
        <time>2017-04-24T08:48:54.000Z</time>
      </trkpt>
      <trkpt lat="46.84168" lon="6.53592">
        <ele>1474.5999755859</ele>
        <time>2017-04-24T08:48:55.000Z</time>
      </trkpt>
      <trkpt lat="46.84158" lon="6.5357">
        <ele>1473.5999755859</ele>
        <time>2017-04-24T08:48:59.000Z</time>
      </trkpt>
      <trkpt lat="46.84147" lon="6.53552">
        <ele>1473</ele>
        <time>2017-04-24T08:49:02.000Z</time>
      </trkpt>
      <trkpt lat="46.84141" lon="6.53538">
        <ele>1472.1999511719</ele>
        <time>2017-04-24T08:49:04.000Z</time>
      </trkpt>
      <trkpt lat="46.84135" lon="6.53525">
        <ele>1471.4000244141</ele>
        <time>2017-04-24T08:49:06.000Z</time>
      </trkpt>
      <trkpt lat="46.84133" lon="6.53519">
        <ele>1470.5999755859</ele>
        <time>2017-04-24T08:49:07.000Z</time>
      </trkpt>
      <trkpt lat="46.84131" lon="6.53512">
        <ele>1470.4000244141</ele>
        <time>2017-04-24T08:49:08.000Z</time>
      </trkpt>
      <trkpt lat="46.84128" lon="6.53505">
        <ele>1470.1999511719</ele>
        <time>2017-04-24T08:49:09.000Z</time>
      </trkpt>
      <trkpt lat="46.8412" lon="6.53495">
        <ele>1469.5999755859</ele>
        <time>2017-04-24T08:49:11.000Z</time>
      </trkpt>
      <trkpt lat="46.84116" lon="6.5349">
        <ele>1469.4000244141</ele>
        <time>2017-04-24T08:49:12.000Z</time>
      </trkpt>
      <trkpt lat="46.84112" lon="6.53485">
        <ele>1469.4000244141</ele>
        <time>2017-04-24T08:49:13.000Z</time>
      </trkpt>
      <trkpt lat="46.84099" lon="6.53458">
        <ele>1470</ele>
        <time>2017-04-24T08:49:18.000Z</time>
      </trkpt>
      <trkpt lat="46.84094" lon="6.53449">
        <ele>1470</ele>
        <time>2017-04-24T08:49:20.000Z</time>
      </trkpt>
      <trkpt lat="46.84084" lon="6.5344">
        <ele>1468.5999755859</ele>
        <time>2017-04-24T08:49:23.000Z</time>
      </trkpt>
      <trkpt lat="46.84075" lon="6.5343">
        <ele>1467.8000488281</ele>
        <time>2017-04-24T08:49:26.000Z</time>
      </trkpt>
      <trkpt lat="46.84072" lon="6.53428">
        <ele>1467.5999755859</ele>
        <time>2017-04-24T08:49:27.000Z</time>
      </trkpt>
      <trkpt lat="46.84061" lon="6.5342">
        <ele>1467.1999511719</ele>
        <time>2017-04-24T08:49:31.000Z</time>
      </trkpt>
      <trkpt lat="46.84055" lon="6.53405">
        <ele>1466.1999511719</ele>
        <time>2017-04-24T08:49:35.000Z</time>
      </trkpt>
      <trkpt lat="46.8405" lon="6.53379">
        <ele>1466.1999511719</ele>
        <time>2017-04-24T08:49:40.000Z</time>
      </trkpt>
      <trkpt lat="46.84047" lon="6.53363">
        <ele>1467.4000244141</ele>
        <time>2017-04-24T08:49:43.000Z</time>
      </trkpt>
      <trkpt lat="46.84046" lon="6.53358">
        <ele>1467.8000488281</ele>
        <time>2017-04-24T08:49:44.000Z</time>
      </trkpt>
      <trkpt lat="46.84041" lon="6.53347">
        <ele>1468</ele>
        <time>2017-04-24T08:49:46.000Z</time>
      </trkpt>
      <trkpt lat="46.84031" lon="6.53335">
        <ele>1467.5999755859</ele>
        <time>2017-04-24T08:49:49.000Z</time>
      </trkpt>
      <trkpt lat="46.84024" lon="6.53327">
        <ele>1467.1999511719</ele>
        <time>2017-04-24T08:49:51.000Z</time>
      </trkpt>
      <trkpt lat="46.84017" lon="6.53311">
        <ele>1466.8000488281</ele>
        <time>2017-04-24T08:49:54.000Z</time>
      </trkpt>
      <trkpt lat="46.84012" lon="6.53293">
        <ele>1467</ele>
        <time>2017-04-24T08:49:57.000Z</time>
      </trkpt>
      <trkpt lat="46.84005" lon="6.53277">
        <ele>1467.1999511719</ele>
        <time>2017-04-24T08:50:00.000Z</time>
      </trkpt>
      <trkpt lat="46.83999" lon="6.53258">
        <ele>1467.4000244141</ele>
        <time>2017-04-24T08:50:03.000Z</time>
      </trkpt>
      <trkpt lat="46.83999" lon="6.53245">
        <ele>1467.4000244141</ele>
        <time>2017-04-24T08:50:05.000Z</time>
      </trkpt>
      <trkpt lat="46.83999" lon="6.53222">
        <ele>1468.4000244141</ele>
        <time>2017-04-24T08:50:09.000Z</time>
      </trkpt>
      <trkpt lat="46.83998" lon="6.53216">
        <ele>1468.8000488281</ele>
        <time>2017-04-24T08:50:10.000Z</time>
      </trkpt>
      <trkpt lat="46.83997" lon="6.5321">
        <ele>1469.1999511719</ele>
        <time>2017-04-24T08:50:11.000Z</time>
      </trkpt>
      <trkpt lat="46.83995" lon="6.53199">
        <ele>1470</ele>
        <time>2017-04-24T08:50:13.000Z</time>
      </trkpt>
      <trkpt lat="46.83992" lon="6.53183">
        <ele>1471.1999511719</ele>
        <time>2017-04-24T08:50:16.000Z</time>
      </trkpt>
      <trkpt lat="46.83987" lon="6.53167">
        <ele>1472.5999755859</ele>
        <time>2017-04-24T08:50:19.000Z</time>
      </trkpt>
      <trkpt lat="46.83983" lon="6.53152">
        <ele>1473.8000488281</ele>
        <time>2017-04-24T08:50:22.000Z</time>
      </trkpt>
      <trkpt lat="46.8398" lon="6.53142">
        <ele>1475</ele>
        <time>2017-04-24T08:50:24.000Z</time>
      </trkpt>
      <trkpt lat="46.83978" lon="6.53132">
        <ele>1476</ele>
        <time>2017-04-24T08:50:26.000Z</time>
      </trkpt>
      <trkpt lat="46.83977" lon="6.53127">
        <ele>1476.1999511719</ele>
        <time>2017-04-24T08:50:27.000Z</time>
      </trkpt>
      <trkpt lat="46.83974" lon="6.53118">
        <ele>1477.1999511719</ele>
        <time>2017-04-24T08:50:29.000Z</time>
      </trkpt>
      <trkpt lat="46.83968" lon="6.53111">
        <ele>1478</ele>
        <time>2017-04-24T08:50:31.000Z</time>
      </trkpt>
      <trkpt lat="46.83964" lon="6.53107">
        <ele>1478.4000244141</ele>
        <time>2017-04-24T08:50:32.000Z</time>
      </trkpt>
      <trkpt lat="46.83954" lon="6.5309">
        <ele>1479</ele>
        <time>2017-04-24T08:50:35.000Z</time>
      </trkpt>
      <trkpt lat="46.83951" lon="6.53084">
        <ele>1479</ele>
        <time>2017-04-24T08:50:36.000Z</time>
      </trkpt>
      <trkpt lat="46.83939" lon="6.53056">
        <ele>1479</ele>
        <time>2017-04-24T08:50:40.000Z</time>
      </trkpt>
      <trkpt lat="46.83937" lon="6.53049">
        <ele>1479</ele>
        <time>2017-04-24T08:50:41.000Z</time>
      </trkpt>
      <trkpt lat="46.83928" lon="6.53022">
        <ele>1479.4000244141</ele>
        <time>2017-04-24T08:50:45.000Z</time>
      </trkpt>
      <trkpt lat="46.83924" lon="6.53009">
        <ele>1479.8000488281</ele>
        <time>2017-04-24T08:50:47.000Z</time>
      </trkpt>
      <trkpt lat="46.83913" lon="6.5298">
        <ele>1480.4000244141</ele>
        <time>2017-04-24T08:50:51.000Z</time>
      </trkpt>
      <trkpt lat="46.8391" lon="6.52973">
        <ele>1480.5999755859</ele>
        <time>2017-04-24T08:50:52.000Z</time>
      </trkpt>
      <trkpt lat="46.83907" lon="6.52967">
        <ele>1480.5999755859</ele>
        <time>2017-04-24T08:50:53.000Z</time>
      </trkpt>
      <trkpt lat="46.83898" lon="6.52955">
        <ele>1480.4000244141</ele>
        <time>2017-04-24T08:50:55.000Z</time>
      </trkpt>
      <trkpt lat="46.83894" lon="6.5295">
        <ele>1480.4000244141</ele>
        <time>2017-04-24T08:50:56.000Z</time>
      </trkpt>
      <trkpt lat="46.83863" lon="6.52908">
        <ele>1480.1999511719</ele>
        <time>2017-04-24T08:51:03.000Z</time>
      </trkpt>
      <trkpt lat="46.83839" lon="6.52876">
        <ele>1480.8000488281</ele>
        <time>2017-04-24T08:51:09.000Z</time>
      </trkpt>
      <trkpt lat="46.83834" lon="6.52871">
        <ele>1481.1999511719</ele>
        <time>2017-04-24T08:51:10.000Z</time>
      </trkpt>
      <trkpt lat="46.83828" lon="6.52867">
        <ele>1481.5999755859</ele>
        <time>2017-04-24T08:51:11.000Z</time>
      </trkpt>
      <trkpt lat="46.83809" lon="6.52852">
        <ele>1481.8000488281</ele>
        <time>2017-04-24T08:51:14.000Z</time>
      </trkpt>
      <trkpt lat="46.83793" lon="6.52825">
        <ele>1480.5999755859</ele>
        <time>2017-04-24T08:51:18.000Z</time>
      </trkpt>
      <trkpt lat="46.83766" lon="6.52789">
        <ele>1480.4000244141</ele>
        <time>2017-04-24T08:51:24.000Z</time>
      </trkpt>
      <trkpt lat="46.83761" lon="6.52784">
        <ele>1480.1999511719</ele>
        <time>2017-04-24T08:51:25.000Z</time>
      </trkpt>
      <trkpt lat="46.83738" lon="6.52759">
        <ele>1479.1999511719</ele>
        <time>2017-04-24T08:51:29.000Z</time>
      </trkpt>
      <trkpt lat="46.83733" lon="6.52751">
        <ele>1479</ele>
        <time>2017-04-24T08:51:30.000Z</time>
      </trkpt>
      <trkpt lat="46.83723" lon="6.52724">
        <ele>1478.4000244141</ele>
        <time>2017-04-24T08:51:33.000Z</time>
      </trkpt>
      <trkpt lat="46.83721" lon="6.52716">
        <ele>1478.4000244141</ele>
        <time>2017-04-24T08:51:34.000Z</time>
      </trkpt>
      <trkpt lat="46.83718" lon="6.52708">
        <ele>1478.1999511719</ele>
        <time>2017-04-24T08:51:35.000Z</time>
      </trkpt>
      <trkpt lat="46.83715" lon="6.52701">
        <ele>1478.1999511719</ele>
        <time>2017-04-24T08:51:36.000Z</time>
      </trkpt>
      <trkpt lat="46.83708" lon="6.52687">
        <ele>1478.1999511719</ele>
        <time>2017-04-24T08:51:38.000Z</time>
      </trkpt>
      <trkpt lat="46.83705" lon="6.52679">
        <ele>1478</ele>
        <time>2017-04-24T08:51:39.000Z</time>
      </trkpt>
      <trkpt lat="46.83702" lon="6.52672">
        <ele>1477.8000488281</ele>
        <time>2017-04-24T08:51:40.000Z</time>
      </trkpt>
      <trkpt lat="46.83691" lon="6.52651">
        <ele>1477.4000244141</ele>
        <time>2017-04-24T08:51:43.000Z</time>
      </trkpt>
      <trkpt lat="46.83688" lon="6.52644">
        <ele>1477.1999511719</ele>
        <time>2017-04-24T08:51:44.000Z</time>
      </trkpt>
      <trkpt lat="46.83685" lon="6.52637">
        <ele>1477.1999511719</ele>
        <time>2017-04-24T08:51:45.000Z</time>
      </trkpt>
      <trkpt lat="46.83673" lon="6.52618">
        <ele>1476</ele>
        <time>2017-04-24T08:51:48.000Z</time>
      </trkpt>
      <trkpt lat="46.83669" lon="6.52616">
        <ele>1475.8000488281</ele>
        <time>2017-04-24T08:51:49.000Z</time>
      </trkpt>
      <trkpt lat="46.83655" lon="6.52627">
        <ele>1475.4000244141</ele>
        <time>2017-04-24T08:51:52.000Z</time>
      </trkpt>
      <trkpt lat="46.83648" lon="6.52641">
        <ele>1474.1999511719</ele>
        <time>2017-04-24T08:51:54.000Z</time>
      </trkpt>
      <trkpt lat="46.83644" lon="6.52648">
        <ele>1473.4000244141</ele>
        <time>2017-04-24T08:51:55.000Z</time>
      </trkpt>
      <trkpt lat="46.8364" lon="6.52657">
        <ele>1473</ele>
        <time>2017-04-24T08:51:56.000Z</time>
      </trkpt>
      <trkpt lat="46.83633" lon="6.52678">
        <ele>1471.8000488281</ele>
        <time>2017-04-24T08:51:58.000Z</time>
      </trkpt>
      <trkpt lat="46.83631" lon="6.5269">
        <ele>1470.4000244141</ele>
        <time>2017-04-24T08:51:59.000Z</time>
      </trkpt>
      <trkpt lat="46.83627" lon="6.52705">
        <ele>1469</ele>
        <time>2017-04-24T08:52:00.000Z</time>
      </trkpt>
      <trkpt lat="46.83623" lon="6.5272">
        <ele>1467.4000244141</ele>
        <time>2017-04-24T08:52:01.000Z</time>
      </trkpt>
      <trkpt lat="46.83618" lon="6.52736">
        <ele>1465.8000488281</ele>
        <time>2017-04-24T08:52:02.000Z</time>
      </trkpt>
      <trkpt lat="46.83614" lon="6.52752">
        <ele>1464.1999511719</ele>
        <time>2017-04-24T08:52:03.000Z</time>
      </trkpt>
      <trkpt lat="46.8361" lon="6.52767">
        <ele>1462.1999511719</ele>
        <time>2017-04-24T08:52:04.000Z</time>
      </trkpt>
      <trkpt lat="46.83607" lon="6.52781">
        <ele>1460.5999755859</ele>
        <time>2017-04-24T08:52:05.000Z</time>
      </trkpt>
      <trkpt lat="46.83604" lon="6.52794">
        <ele>1459.1999511719</ele>
        <time>2017-04-24T08:52:06.000Z</time>
      </trkpt>
      <trkpt lat="46.83601" lon="6.52807">
        <ele>1457.4000244141</ele>
        <time>2017-04-24T08:52:07.000Z</time>
      </trkpt>
      <trkpt lat="46.83599" lon="6.52819">
        <ele>1456.1999511719</ele>
        <time>2017-04-24T08:52:08.000Z</time>
      </trkpt>
      <trkpt lat="46.83601" lon="6.52839">
        <ele>1454.5999755859</ele>
        <time>2017-04-24T08:52:10.000Z</time>
      </trkpt>
      <trkpt lat="46.83609" lon="6.52853">
        <ele>1453.4000244141</ele>
        <time>2017-04-24T08:52:12.000Z</time>
      </trkpt>
      <trkpt lat="46.83613" lon="6.52857">
        <ele>1452.8000488281</ele>
        <time>2017-04-24T08:52:13.000Z</time>
      </trkpt>
      <trkpt lat="46.83616" lon="6.5286">
        <ele>1452.5999755859</ele>
        <time>2017-04-24T08:52:14.000Z</time>
      </trkpt>
      <trkpt lat="46.83619" lon="6.52866">
        <ele>1452.5999755859</ele>
        <time>2017-04-24T08:52:16.000Z</time>
      </trkpt>
      <trkpt lat="46.83619" lon="6.52869">
        <ele>1452.1999511719</ele>
        <time>2017-04-24T08:52:18.000Z</time>
      </trkpt>
      <trkpt lat="46.83619" lon="6.5287">
        <ele>1452</ele>
        <time>2017-04-24T08:52:19.000Z</time>
      </trkpt>
      <trkpt lat="46.8361" lon="6.52883">
        <ele>1448.4000244141</ele>
        <time>2017-04-24T08:53:15.000Z</time>
      </trkpt>
      <trkpt lat="46.83616" lon="6.52897">
        <ele>1446.8000488281</ele>
        <time>2017-04-24T08:53:19.000Z</time>
      </trkpt>
      <trkpt lat="46.83624" lon="6.52909">
        <ele>1445.8000488281</ele>
        <time>2017-04-24T08:53:23.000Z</time>
      </trkpt>
      <trkpt lat="46.83624" lon="6.52914">
        <ele>1445.8000488281</ele>
        <time>2017-04-24T08:53:24.000Z</time>
      </trkpt>
      <trkpt lat="46.83624" lon="6.5293">
        <ele>1445.1999511719</ele>
        <time>2017-04-24T08:53:26.000Z</time>
      </trkpt>
      <trkpt lat="46.83626" lon="6.52939">
        <ele>1443.4000244141</ele>
        <time>2017-04-24T08:53:27.000Z</time>
      </trkpt>
      <trkpt lat="46.83628" lon="6.52949">
        <ele>1442.4000244141</ele>
        <time>2017-04-24T08:53:28.000Z</time>
      </trkpt>
      <trkpt lat="46.8363" lon="6.52958">
        <ele>1441.1999511719</ele>
        <time>2017-04-24T08:53:29.000Z</time>
      </trkpt>
      <trkpt lat="46.83632" lon="6.52965">
        <ele>1440</ele>
        <time>2017-04-24T08:53:30.000Z</time>
      </trkpt>
      <trkpt lat="46.83635" lon="6.52972">
        <ele>1438.8000488281</ele>
        <time>2017-04-24T08:53:31.000Z</time>
      </trkpt>
      <trkpt lat="46.83636" lon="6.52978">
        <ele>1437.8000488281</ele>
        <time>2017-04-24T08:53:32.000Z</time>
      </trkpt>
      <trkpt lat="46.83636" lon="6.52983">
        <ele>1437.1999511719</ele>
        <time>2017-04-24T08:53:33.000Z</time>
      </trkpt>
      <trkpt lat="46.83636" lon="6.52986">
        <ele>1436.5999755859</ele>
        <time>2017-04-24T08:53:34.000Z</time>
      </trkpt>
      <trkpt lat="46.83635" lon="6.52989">
        <ele>1435.5999755859</ele>
        <time>2017-04-24T08:53:35.000Z</time>
      </trkpt>
      <trkpt lat="46.83634" lon="6.52994">
        <ele>1433.8000488281</ele>
        <time>2017-04-24T08:53:37.000Z</time>
      </trkpt>
      <trkpt lat="46.83631" lon="6.52997">
        <ele>1432.4000244141</ele>
        <time>2017-04-24T08:53:39.000Z</time>
      </trkpt>
      <trkpt lat="46.83631" lon="6.53">
        <ele>1432</ele>
        <time>2017-04-24T08:53:40.000Z</time>
      </trkpt>
      <trkpt lat="46.83632" lon="6.53006">
        <ele>1431.1999511719</ele>
        <time>2017-04-24T08:53:42.000Z</time>
      </trkpt>
      <trkpt lat="46.83634" lon="6.53009">
        <ele>1430.8000488281</ele>
        <time>2017-04-24T08:53:43.000Z</time>
      </trkpt>
      <trkpt lat="46.83635" lon="6.53013">
        <ele>1430.5999755859</ele>
        <time>2017-04-24T08:53:44.000Z</time>
      </trkpt>
      <trkpt lat="46.8364" lon="6.53023">
        <ele>1430.4000244141</ele>
        <time>2017-04-24T08:53:46.000Z</time>
      </trkpt>
      <trkpt lat="46.83646" lon="6.53036">
        <ele>1430.1999511719</ele>
        <time>2017-04-24T08:53:48.000Z</time>
      </trkpt>
      <trkpt lat="46.83648" lon="6.53044">
        <ele>1430</ele>
        <time>2017-04-24T08:53:49.000Z</time>
      </trkpt>
      <trkpt lat="46.83652" lon="6.53065">
        <ele>1429</ele>
        <time>2017-04-24T08:53:51.000Z</time>
      </trkpt>
      <trkpt lat="46.83656" lon="6.53099">
        <ele>1427.5999755859</ele>
        <time>2017-04-24T08:53:54.000Z</time>
      </trkpt>
      <trkpt lat="46.83658" lon="6.5311">
        <ele>1426.1999511719</ele>
        <time>2017-04-24T08:53:55.000Z</time>
      </trkpt>
      <trkpt lat="46.83659" lon="6.5312">
        <ele>1424</ele>
        <time>2017-04-24T08:53:56.000Z</time>
      </trkpt>
      <trkpt lat="46.83659" lon="6.53128">
        <ele>1422.5999755859</ele>
        <time>2017-04-24T08:53:57.000Z</time>
      </trkpt>
      <trkpt lat="46.83658" lon="6.53136">
        <ele>1421.5999755859</ele>
        <time>2017-04-24T08:53:58.000Z</time>
      </trkpt>
      <trkpt lat="46.83655" lon="6.53142">
        <ele>1419.4000244141</ele>
        <time>2017-04-24T08:53:59.000Z</time>
      </trkpt>
      <trkpt lat="46.83653" lon="6.53148">
        <ele>1417.8000488281</ele>
        <time>2017-04-24T08:54:00.000Z</time>
      </trkpt>
      <trkpt lat="46.83654" lon="6.53153">
        <ele>1416.8000488281</ele>
        <time>2017-04-24T08:54:01.000Z</time>
      </trkpt>
      <trkpt lat="46.83657" lon="6.53158">
        <ele>1415.8000488281</ele>
        <time>2017-04-24T08:54:02.000Z</time>
      </trkpt>
      <trkpt lat="46.83665" lon="6.53167">
        <ele>1414</ele>
        <time>2017-04-24T08:54:04.000Z</time>
      </trkpt>
      <trkpt lat="46.83673" lon="6.53176">
        <ele>1413</ele>
        <time>2017-04-24T08:54:06.000Z</time>
      </trkpt>
      <trkpt lat="46.83676" lon="6.53181">
        <ele>1412.4000244141</ele>
        <time>2017-04-24T08:54:07.000Z</time>
      </trkpt>
      <trkpt lat="46.83679" lon="6.53193">
        <ele>1410.8000488281</ele>
        <time>2017-04-24T08:54:09.000Z</time>
      </trkpt>
      <trkpt lat="46.83676" lon="6.53205">
        <ele>1409</ele>
        <time>2017-04-24T08:54:11.000Z</time>
      </trkpt>
      <trkpt lat="46.83672" lon="6.53212">
        <ele>1407.8000488281</ele>
        <time>2017-04-24T08:54:12.000Z</time>
      </trkpt>
      <trkpt lat="46.83669" lon="6.5322">
        <ele>1406.5999755859</ele>
        <time>2017-04-24T08:54:13.000Z</time>
      </trkpt>
      <trkpt lat="46.83666" lon="6.5323">
        <ele>1405.4000244141</ele>
        <time>2017-04-24T08:54:14.000Z</time>
      </trkpt>
      <trkpt lat="46.83663" lon="6.5324">
        <ele>1404.1999511719</ele>
        <time>2017-04-24T08:54:15.000Z</time>
      </trkpt>
      <trkpt lat="46.8366" lon="6.5325">
        <ele>1403.1999511719</ele>
        <time>2017-04-24T08:54:16.000Z</time>
      </trkpt>
      <trkpt lat="46.83659" lon="6.53261">
        <ele>1402.1999511719</ele>
        <time>2017-04-24T08:54:17.000Z</time>
      </trkpt>
      <trkpt lat="46.83659" lon="6.53271">
        <ele>1401</ele>
        <time>2017-04-24T08:54:18.000Z</time>
      </trkpt>
      <trkpt lat="46.8366" lon="6.53282">
        <ele>1400.1999511719</ele>
        <time>2017-04-24T08:54:19.000Z</time>
      </trkpt>
      <trkpt lat="46.83658" lon="6.53293">
        <ele>1399.1999511719</ele>
        <time>2017-04-24T08:54:20.000Z</time>
      </trkpt>
      <trkpt lat="46.83654" lon="6.53304">
        <ele>1398</ele>
        <time>2017-04-24T08:54:21.000Z</time>
      </trkpt>
      <trkpt lat="46.83649" lon="6.53314">
        <ele>1397.4000244141</ele>
        <time>2017-04-24T08:54:22.000Z</time>
      </trkpt>
      <trkpt lat="46.83644" lon="6.53325">
        <ele>1396.1999511719</ele>
        <time>2017-04-24T08:54:23.000Z</time>
      </trkpt>
      <trkpt lat="46.8364" lon="6.53334">
        <ele>1395.4000244141</ele>
        <time>2017-04-24T08:54:24.000Z</time>
      </trkpt>
      <trkpt lat="46.83637" lon="6.53343">
        <ele>1394.5999755859</ele>
        <time>2017-04-24T08:54:25.000Z</time>
      </trkpt>
      <trkpt lat="46.83632" lon="6.53354">
        <ele>1393.5999755859</ele>
        <time>2017-04-24T08:54:26.000Z</time>
      </trkpt>
      <trkpt lat="46.83629" lon="6.53364">
        <ele>1392.4000244141</ele>
        <time>2017-04-24T08:54:27.000Z</time>
      </trkpt>
      <trkpt lat="46.83627" lon="6.53386">
        <ele>1391</ele>
        <time>2017-04-24T08:54:29.000Z</time>
      </trkpt>
      <trkpt lat="46.83622" lon="6.53406">
        <ele>1389</ele>
        <time>2017-04-24T08:54:31.000Z</time>
      </trkpt>
      <trkpt lat="46.83618" lon="6.53424">
        <ele>1387</ele>
        <time>2017-04-24T08:54:33.000Z</time>
      </trkpt>
      <trkpt lat="46.83617" lon="6.53433">
        <ele>1386</ele>
        <time>2017-04-24T08:54:34.000Z</time>
      </trkpt>
      <trkpt lat="46.83615" lon="6.53443">
        <ele>1385.4000244141</ele>
        <time>2017-04-24T08:54:35.000Z</time>
      </trkpt>
      <trkpt lat="46.83611" lon="6.53466">
        <ele>1383.8000488281</ele>
        <time>2017-04-24T08:54:37.000Z</time>
      </trkpt>
      <trkpt lat="46.8361" lon="6.53476">
        <ele>1382.5999755859</ele>
        <time>2017-04-24T08:54:38.000Z</time>
      </trkpt>
      <trkpt lat="46.83606" lon="6.53497">
        <ele>1380.8000488281</ele>
        <time>2017-04-24T08:54:40.000Z</time>
      </trkpt>
      <trkpt lat="46.83603" lon="6.53514">
        <ele>1380.1999511719</ele>
        <time>2017-04-24T08:54:42.000Z</time>
      </trkpt>
      <trkpt lat="46.83593" lon="6.53535">
        <ele>1380</ele>
        <time>2017-04-24T08:54:45.000Z</time>
      </trkpt>
      <trkpt lat="46.83583" lon="6.53547">
        <ele>1379.5999755859</ele>
        <time>2017-04-24T08:54:47.000Z</time>
      </trkpt>
      <trkpt lat="46.83579" lon="6.53555">
        <ele>1378.5999755859</ele>
        <time>2017-04-24T08:54:48.000Z</time>
      </trkpt>
      <trkpt lat="46.83576" lon="6.53574">
        <ele>1377.1999511719</ele>
        <time>2017-04-24T08:54:50.000Z</time>
      </trkpt>
      <trkpt lat="46.83577" lon="6.53584">
        <ele>1376.8000488281</ele>
        <time>2017-04-24T08:54:51.000Z</time>
      </trkpt>
      <trkpt lat="46.83579" lon="6.53594">
        <ele>1376</ele>
        <time>2017-04-24T08:54:52.000Z</time>
      </trkpt>
      <trkpt lat="46.8358" lon="6.53605">
        <ele>1375.4000244141</ele>
        <time>2017-04-24T08:54:53.000Z</time>
      </trkpt>
      <trkpt lat="46.83582" lon="6.53616">
        <ele>1374.8000488281</ele>
        <time>2017-04-24T08:54:54.000Z</time>
      </trkpt>
      <trkpt lat="46.83583" lon="6.53629">
        <ele>1374.1999511719</ele>
        <time>2017-04-24T08:54:55.000Z</time>
      </trkpt>
      <trkpt lat="46.83586" lon="6.53641">
        <ele>1373.5999755859</ele>
        <time>2017-04-24T08:54:56.000Z</time>
      </trkpt>
      <trkpt lat="46.83593" lon="6.53664">
        <ele>1372</ele>
        <time>2017-04-24T08:54:58.000Z</time>
      </trkpt>
      <trkpt lat="46.83597" lon="6.53676">
        <ele>1371.4000244141</ele>
        <time>2017-04-24T08:54:59.000Z</time>
      </trkpt>
      <trkpt lat="46.83605" lon="6.537">
        <ele>1370.8000488281</ele>
        <time>2017-04-24T08:55:01.000Z</time>
      </trkpt>
      <trkpt lat="46.83613" lon="6.53726">
        <ele>1370</ele>
        <time>2017-04-24T08:55:03.000Z</time>
      </trkpt>
      <trkpt lat="46.83616" lon="6.53739">
        <ele>1369.8000488281</ele>
        <time>2017-04-24T08:55:04.000Z</time>
      </trkpt>
      <trkpt lat="46.8362" lon="6.53764">
        <ele>1367.5999755859</ele>
        <time>2017-04-24T08:55:06.000Z</time>
      </trkpt>
      <trkpt lat="46.83621" lon="6.53776">
        <ele>1365.4000244141</ele>
        <time>2017-04-24T08:55:07.000Z</time>
      </trkpt>
      <trkpt lat="46.83622" lon="6.53786">
        <ele>1363.5999755859</ele>
        <time>2017-04-24T08:55:08.000Z</time>
      </trkpt>
      <trkpt lat="46.83622" lon="6.53793">
        <ele>1362</ele>
        <time>2017-04-24T08:55:09.000Z</time>
      </trkpt>
      <trkpt lat="46.8362" lon="6.53798">
        <ele>1360.8000488281</ele>
        <time>2017-04-24T08:55:10.000Z</time>
      </trkpt>
      <trkpt lat="46.83618" lon="6.538">
        <ele>1359.8000488281</ele>
        <time>2017-04-24T08:55:11.000Z</time>
      </trkpt>
      <trkpt lat="46.83613" lon="6.53799">
        <ele>1359.1999511719</ele>
        <time>2017-04-24T08:55:12.000Z</time>
      </trkpt>
      <trkpt lat="46.83602" lon="6.53796">
        <ele>1358.4000244141</ele>
        <time>2017-04-24T08:55:14.000Z</time>
      </trkpt>
      <trkpt lat="46.83595" lon="6.53793">
        <ele>1357.8000488281</ele>
        <time>2017-04-24T08:55:15.000Z</time>
      </trkpt>
      <trkpt lat="46.8359" lon="6.5379">
        <ele>1357</ele>
        <time>2017-04-24T08:55:16.000Z</time>
      </trkpt>
      <trkpt lat="46.83584" lon="6.53788">
        <ele>1356.1999511719</ele>
        <time>2017-04-24T08:55:17.000Z</time>
      </trkpt>
      <trkpt lat="46.83579" lon="6.53787">
        <ele>1355.5999755859</ele>
        <time>2017-04-24T08:55:18.000Z</time>
      </trkpt>
      <trkpt lat="46.83575" lon="6.53787">
        <ele>1354.5999755859</ele>
        <time>2017-04-24T08:55:19.000Z</time>
      </trkpt>
      <trkpt lat="46.83572" lon="6.53788">
        <ele>1353.4000244141</ele>
        <time>2017-04-24T08:55:20.000Z</time>
      </trkpt>
      <trkpt lat="46.83567" lon="6.53796">
        <ele>1352</ele>
        <time>2017-04-24T08:55:22.000Z</time>
      </trkpt>
      <trkpt lat="46.83566" lon="6.53802">
        <ele>1351.1999511719</ele>
        <time>2017-04-24T08:55:23.000Z</time>
      </trkpt>
      <trkpt lat="46.83565" lon="6.53807">
        <ele>1350.5999755859</ele>
        <time>2017-04-24T08:55:24.000Z</time>
      </trkpt>
      <trkpt lat="46.83565" lon="6.53811">
        <ele>1349.5999755859</ele>
        <time>2017-04-24T08:55:25.000Z</time>
      </trkpt>
      <trkpt lat="46.83565" lon="6.53814">
        <ele>1349</ele>
        <time>2017-04-24T08:55:26.000Z</time>
      </trkpt>
      <trkpt lat="46.83566" lon="6.53823">
        <ele>1347.5999755859</ele>
        <time>2017-04-24T08:55:28.000Z</time>
      </trkpt>
      <trkpt lat="46.83565" lon="6.53828">
        <ele>1346.5999755859</ele>
        <time>2017-04-24T08:55:29.000Z</time>
      </trkpt>
      <trkpt lat="46.83562" lon="6.53833">
        <ele>1346</ele>
        <time>2017-04-24T08:55:30.000Z</time>
      </trkpt>
      <trkpt lat="46.8356" lon="6.53835">
        <ele>1344.4000244141</ele>
        <time>2017-04-24T08:55:31.000Z</time>
      </trkpt>
      <trkpt lat="46.83557" lon="6.53837">
        <ele>1343.4000244141</ele>
        <time>2017-04-24T08:55:32.000Z</time>
      </trkpt>
      <trkpt lat="46.83553" lon="6.53838">
        <ele>1341.5999755859</ele>
        <time>2017-04-24T08:55:34.000Z</time>
      </trkpt>
      <trkpt lat="46.8355" lon="6.53842">
        <ele>1340.5999755859</ele>
        <time>2017-04-24T08:55:36.000Z</time>
      </trkpt>
      <trkpt lat="46.83547" lon="6.53847">
        <ele>1339</ele>
        <time>2017-04-24T08:55:38.000Z</time>
      </trkpt>
      <trkpt lat="46.83539" lon="6.53851">
        <ele>1337.4000244141</ele>
        <time>2017-04-24T08:55:40.000Z</time>
      </trkpt>
      <trkpt lat="46.83532" lon="6.5385">
        <ele>1335.5999755859</ele>
        <time>2017-04-24T08:55:42.000Z</time>
      </trkpt>
      <trkpt lat="46.83528" lon="6.53848">
        <ele>1334.1999511719</ele>
        <time>2017-04-24T08:55:43.000Z</time>
      </trkpt>
      <trkpt lat="46.83518" lon="6.5384">
        <ele>1333</ele>
        <time>2017-04-24T08:55:45.000Z</time>
      </trkpt>
      <trkpt lat="46.83506" lon="6.53832">
        <ele>1331.4000244141</ele>
        <time>2017-04-24T08:55:47.000Z</time>
      </trkpt>
      <trkpt lat="46.83494" lon="6.53825">
        <ele>1330.1999511719</ele>
        <time>2017-04-24T08:55:49.000Z</time>
      </trkpt>
      <trkpt lat="46.83484" lon="6.5382">
        <ele>1329.5999755859</ele>
        <time>2017-04-24T08:55:51.000Z</time>
      </trkpt>
      <trkpt lat="46.83467" lon="6.5382">
        <ele>1329.1999511719</ele>
        <time>2017-04-24T08:55:54.000Z</time>
      </trkpt>
      <trkpt lat="46.83461" lon="6.5382">
        <ele>1329</ele>
        <time>2017-04-24T08:55:55.000Z</time>
      </trkpt>
      <trkpt lat="46.83439" lon="6.53825">
        <ele>1328</ele>
        <time>2017-04-24T08:55:59.000Z</time>
      </trkpt>
      <trkpt lat="46.83425" lon="6.53827">
        <ele>1327.1999511719</ele>
        <time>2017-04-24T08:56:01.000Z</time>
      </trkpt>
      <trkpt lat="46.83417" lon="6.53826">
        <ele>1326.8000488281</ele>
        <time>2017-04-24T08:56:02.000Z</time>
      </trkpt>
      <trkpt lat="46.83409" lon="6.53824">
        <ele>1326.5999755859</ele>
        <time>2017-04-24T08:56:03.000Z</time>
      </trkpt>
      <trkpt lat="46.83401" lon="6.53822">
        <ele>1325.8000488281</ele>
        <time>2017-04-24T08:56:04.000Z</time>
      </trkpt>
      <trkpt lat="46.83386" lon="6.53813">
        <ele>1324.4000244141</ele>
        <time>2017-04-24T08:56:06.000Z</time>
      </trkpt>
      <trkpt lat="46.8338" lon="6.53808">
        <ele>1323.4000244141</ele>
        <time>2017-04-24T08:56:07.000Z</time>
      </trkpt>
      <trkpt lat="46.83366" lon="6.53792">
        <ele>1322.5999755859</ele>
        <time>2017-04-24T08:56:10.000Z</time>
      </trkpt>
      <trkpt lat="46.83358" lon="6.53785">
        <ele>1322.4000244141</ele>
        <time>2017-04-24T08:56:12.000Z</time>
      </trkpt>
      <trkpt lat="46.83354" lon="6.53781">
        <ele>1322.1999511719</ele>
        <time>2017-04-24T08:56:13.000Z</time>
      </trkpt>
      <trkpt lat="46.83349" lon="6.53777">
        <ele>1322.4000244141</ele>
        <time>2017-04-24T08:56:14.000Z</time>
      </trkpt>
      <trkpt lat="46.83339" lon="6.53771">
        <ele>1322.8000488281</ele>
        <time>2017-04-24T08:56:16.000Z</time>
      </trkpt>
      <trkpt lat="46.8333" lon="6.53766">
        <ele>1323.4000244141</ele>
        <time>2017-04-24T08:56:18.000Z</time>
      </trkpt>
      <trkpt lat="46.83325" lon="6.53763">
        <ele>1323.5999755859</ele>
        <time>2017-04-24T08:56:19.000Z</time>
      </trkpt>
      <trkpt lat="46.8332" lon="6.53759">
        <ele>1323.8000488281</ele>
        <time>2017-04-24T08:56:20.000Z</time>
      </trkpt>
      <trkpt lat="46.83308" lon="6.5374">
        <ele>1324.4000244141</ele>
        <time>2017-04-24T08:56:23.000Z</time>
      </trkpt>
      <trkpt lat="46.83299" lon="6.53726">
        <ele>1324</ele>
        <time>2017-04-24T08:56:25.000Z</time>
      </trkpt>
      <trkpt lat="46.83291" lon="6.53713">
        <ele>1322.8000488281</ele>
        <time>2017-04-24T08:56:27.000Z</time>
      </trkpt>
      <trkpt lat="46.83285" lon="6.53708">
        <ele>1322.4000244141</ele>
        <time>2017-04-24T08:56:28.000Z</time>
      </trkpt>
      <trkpt lat="46.83279" lon="6.53693">
        <ele>1321.4000244141</ele>
        <time>2017-04-24T08:56:30.000Z</time>
      </trkpt>
      <trkpt lat="46.83278" lon="6.53684">
        <ele>1320.4000244141</ele>
        <time>2017-04-24T08:56:31.000Z</time>
      </trkpt>
      <trkpt lat="46.83278" lon="6.53666">
        <ele>1318.8000488281</ele>
        <time>2017-04-24T08:56:33.000Z</time>
      </trkpt>
      <trkpt lat="46.83278" lon="6.53658">
        <ele>1318.4000244141</ele>
        <time>2017-04-24T08:56:34.000Z</time>
      </trkpt>
      <trkpt lat="46.83274" lon="6.53644">
        <ele>1318.1999511719</ele>
        <time>2017-04-24T08:56:36.000Z</time>
      </trkpt>
      <trkpt lat="46.8327" lon="6.5363">
        <ele>1318.4000244141</ele>
        <time>2017-04-24T08:56:38.000Z</time>
      </trkpt>
      <trkpt lat="46.83268" lon="6.53623">
        <ele>1318.8000488281</ele>
        <time>2017-04-24T08:56:39.000Z</time>
      </trkpt>
      <trkpt lat="46.83263" lon="6.53609">
        <ele>1319.5999755859</ele>
        <time>2017-04-24T08:56:41.000Z</time>
      </trkpt>
      <trkpt lat="46.8326" lon="6.53602">
        <ele>1320</ele>
        <time>2017-04-24T08:56:42.000Z</time>
      </trkpt>
      <trkpt lat="46.83256" lon="6.53594">
        <ele>1320.1999511719</ele>
        <time>2017-04-24T08:56:43.000Z</time>
      </trkpt>
      <trkpt lat="46.83248" lon="6.53581">
        <ele>1320.4000244141</ele>
        <time>2017-04-24T08:56:45.000Z</time>
      </trkpt>
      <trkpt lat="46.83244" lon="6.53576">
        <ele>1320.4000244141</ele>
        <time>2017-04-24T08:56:46.000Z</time>
      </trkpt>
      <trkpt lat="46.83231" lon="6.53556">
        <ele>1320.5999755859</ele>
        <time>2017-04-24T08:56:50.000Z</time>
      </trkpt>
      <trkpt lat="46.83226" lon="6.53544">
        <ele>1320.8000488281</ele>
        <time>2017-04-24T08:56:52.000Z</time>
      </trkpt>
      <trkpt lat="46.83224" lon="6.53531">
        <ele>1321.1999511719</ele>
        <time>2017-04-24T08:56:54.000Z</time>
      </trkpt>
      <trkpt lat="46.83223" lon="6.53525">
        <ele>1321.8000488281</ele>
        <time>2017-04-24T08:56:55.000Z</time>
      </trkpt>
      <trkpt lat="46.83222" lon="6.53514">
        <ele>1322.4000244141</ele>
        <time>2017-04-24T08:56:57.000Z</time>
      </trkpt>
      <trkpt lat="46.8322" lon="6.53504">
        <ele>1323.5999755859</ele>
        <time>2017-04-24T08:56:59.000Z</time>
      </trkpt>
      <trkpt lat="46.83218" lon="6.53499">
        <ele>1324</ele>
        <time>2017-04-24T08:57:00.000Z</time>
      </trkpt>
      <trkpt lat="46.83216" lon="6.53484">
        <ele>1325</ele>
        <time>2017-04-24T08:57:03.000Z</time>
      </trkpt>
      <trkpt lat="46.83214" lon="6.53473">
        <ele>1325.1999511719</ele>
        <time>2017-04-24T08:57:05.000Z</time>
      </trkpt>
      <trkpt lat="46.83214" lon="6.53464">
        <ele>1326.1999511719</ele>
        <time>2017-04-24T08:57:07.000Z</time>
      </trkpt>
      <trkpt lat="46.83214" lon="6.53457">
        <ele>1327</ele>
        <time>2017-04-24T08:57:09.000Z</time>
      </trkpt>
      <trkpt lat="46.83214" lon="6.53453">
        <ele>1327.4000244141</ele>
        <time>2017-04-24T08:57:10.000Z</time>
      </trkpt>
      <trkpt lat="46.83211" lon="6.53445">
        <ele>1328.4000244141</ele>
        <time>2017-04-24T08:57:12.000Z</time>
      </trkpt>
      <trkpt lat="46.8321" lon="6.53436">
        <ele>1330</ele>
        <time>2017-04-24T08:57:15.000Z</time>
      </trkpt>
      <trkpt lat="46.8321" lon="6.5343">
        <ele>1331</ele>
        <time>2017-04-24T08:57:17.000Z</time>
      </trkpt>
      <trkpt lat="46.83212" lon="6.5342">
        <ele>1332.4000244141</ele>
        <time>2017-04-24T08:57:20.000Z</time>
      </trkpt>
      <trkpt lat="46.83212" lon="6.53404">
        <ele>1333.5999755859</ele>
        <time>2017-04-24T08:57:24.000Z</time>
      </trkpt>
      <trkpt lat="46.83211" lon="6.53399">
        <ele>1334</ele>
        <time>2017-04-24T08:57:25.000Z</time>
      </trkpt>
      <trkpt lat="46.83207" lon="6.53375">
        <ele>1334.4000244141</ele>
        <time>2017-04-24T08:57:29.000Z</time>
      </trkpt>
      <trkpt lat="46.83206" lon="6.53369">
        <ele>1334.4000244141</ele>
        <time>2017-04-24T08:57:30.000Z</time>
      </trkpt>
      <trkpt lat="46.83206" lon="6.53357">
        <ele>1334.5999755859</ele>
        <time>2017-04-24T08:57:32.000Z</time>
      </trkpt>
      <trkpt lat="46.83205" lon="6.53344">
        <ele>1334.5999755859</ele>
        <time>2017-04-24T08:57:34.000Z</time>
      </trkpt>
      <trkpt lat="46.83205" lon="6.53324">
        <ele>1334.8000488281</ele>
        <time>2017-04-24T08:57:37.000Z</time>
      </trkpt>
      <trkpt lat="46.83205" lon="6.53316">
        <ele>1334.5999755859</ele>
        <time>2017-04-24T08:57:38.000Z</time>
      </trkpt>
      <trkpt lat="46.83207" lon="6.5329">
        <ele>1333.5999755859</ele>
        <time>2017-04-24T08:57:42.000Z</time>
      </trkpt>
      <trkpt lat="46.83208" lon="6.53286">
        <ele>1333.5999755859</ele>
        <time>2017-04-24T08:57:43.000Z</time>
      </trkpt>
      <trkpt lat="46.8321" lon="6.53282">
        <ele>1333.8000488281</ele>
        <time>2017-04-24T08:57:44.000Z</time>
      </trkpt>
      <trkpt lat="46.83213" lon="6.53274">
        <ele>1334.4000244141</ele>
        <time>2017-04-24T08:57:46.000Z</time>
      </trkpt>
      <trkpt lat="46.83214" lon="6.53271">
        <ele>1334.8000488281</ele>
        <time>2017-04-24T08:57:47.000Z</time>
      </trkpt>
      <trkpt lat="46.83214" lon="6.53259">
        <ele>1336.1999511719</ele>
        <time>2017-04-24T08:57:50.000Z</time>
      </trkpt>
      <trkpt lat="46.83212" lon="6.53257">
        <ele>1337</ele>
        <time>2017-04-24T08:57:51.000Z</time>
      </trkpt>
      <trkpt lat="46.8321" lon="6.53254">
        <ele>1337.4000244141</ele>
        <time>2017-04-24T08:57:52.000Z</time>
      </trkpt>
      <trkpt lat="46.83203" lon="6.53256">
        <ele>1337.5999755859</ele>
        <time>2017-04-24T08:57:54.000Z</time>
      </trkpt>
      <trkpt lat="46.83193" lon="6.53263">
        <ele>1335.4000244141</ele>
        <time>2017-04-24T08:57:57.000Z</time>
      </trkpt>
      <trkpt lat="46.83191" lon="6.53263">
        <ele>1334.1999511719</ele>
        <time>2017-04-24T08:57:58.000Z</time>
      </trkpt>
      <trkpt lat="46.83188" lon="6.53268">
        <ele>1333</ele>
        <time>2017-04-24T08:58:00.000Z</time>
      </trkpt>
      <trkpt lat="46.83186" lon="6.53274">
        <ele>1332.4000244141</ele>
        <time>2017-04-24T08:58:01.000Z</time>
      </trkpt>
      <trkpt lat="46.83183" lon="6.53279">
        <ele>1331.4000244141</ele>
        <time>2017-04-24T08:58:02.000Z</time>
      </trkpt>
      <trkpt lat="46.83177" lon="6.5328">
        <ele>1329.5999755859</ele>
        <time>2017-04-24T08:58:04.000Z</time>
      </trkpt>
      <trkpt lat="46.83171" lon="6.53276">
        <ele>1328.5999755859</ele>
        <time>2017-04-24T08:58:06.000Z</time>
      </trkpt>
      <trkpt lat="46.83165" lon="6.53275">
        <ele>1327.1999511719</ele>
        <time>2017-04-24T08:58:08.000Z</time>
      </trkpt>
      <trkpt lat="46.83161" lon="6.53276">
        <ele>1326.4000244141</ele>
        <time>2017-04-24T08:58:09.000Z</time>
      </trkpt>
      <trkpt lat="46.83157" lon="6.53276">
        <ele>1325.1999511719</ele>
        <time>2017-04-24T08:58:10.000Z</time>
      </trkpt>
      <trkpt lat="46.83151" lon="6.5328">
        <ele>1323.5999755859</ele>
        <time>2017-04-24T08:58:12.000Z</time>
      </trkpt>
      <trkpt lat="46.83149" lon="6.53283">
        <ele>1323</ele>
        <time>2017-04-24T08:58:13.000Z</time>
      </trkpt>
      <trkpt lat="46.83148" lon="6.53287">
        <ele>1322.4000244141</ele>
        <time>2017-04-24T08:58:14.000Z</time>
      </trkpt>
      <trkpt lat="46.83142" lon="6.53295">
        <ele>1321.1999511719</ele>
        <time>2017-04-24T08:58:17.000Z</time>
      </trkpt>
      <trkpt lat="46.83136" lon="6.53298">
        <ele>1320.1999511719</ele>
        <time>2017-04-24T08:58:19.000Z</time>
      </trkpt>
      <trkpt lat="46.83133" lon="6.53298">
        <ele>1319.5999755859</ele>
        <time>2017-04-24T08:58:20.000Z</time>
      </trkpt>
      <trkpt lat="46.83131" lon="6.53298">
        <ele>1319</ele>
        <time>2017-04-24T08:58:21.000Z</time>
      </trkpt>
      <trkpt lat="46.83128" lon="6.53299">
        <ele>1318.4000244141</ele>
        <time>2017-04-24T08:58:22.000Z</time>
      </trkpt>
      <trkpt lat="46.83127" lon="6.53301">
        <ele>1317.8000488281</ele>
        <time>2017-04-24T08:58:23.000Z</time>
      </trkpt>
      <trkpt lat="46.83127" lon="6.53303">
        <ele>1317.5999755859</ele>
        <time>2017-04-24T08:58:24.000Z</time>
      </trkpt>
      <trkpt lat="46.83125" lon="6.53306">
        <ele>1316.8000488281</ele>
        <time>2017-04-24T08:58:26.000Z</time>
      </trkpt>
      <trkpt lat="46.83124" lon="6.53315">
        <ele>1316</ele>
        <time>2017-04-24T08:58:29.000Z</time>
      </trkpt>
      <trkpt lat="46.83124" lon="6.53322">
        <ele>1315.8000488281</ele>
        <time>2017-04-24T08:58:31.000Z</time>
      </trkpt>
      <trkpt lat="46.83125" lon="6.53334">
        <ele>1316.1999511719</ele>
        <time>2017-04-24T08:58:34.000Z</time>
      </trkpt>
      <trkpt lat="46.83127" lon="6.53349">
        <ele>1317</ele>
        <time>2017-04-24T08:58:37.000Z</time>
      </trkpt>
      <trkpt lat="46.8313" lon="6.53358">
        <ele>1317.4000244141</ele>
        <time>2017-04-24T08:58:39.000Z</time>
      </trkpt>
      <trkpt lat="46.83133" lon="6.53374">
        <ele>1318</ele>
        <time>2017-04-24T08:58:42.000Z</time>
      </trkpt>
      <trkpt lat="46.83137" lon="6.53389">
        <ele>1319</ele>
        <time>2017-04-24T08:58:45.000Z</time>
      </trkpt>
      <trkpt lat="46.83146" lon="6.53412">
        <ele>1320.1999511719</ele>
        <time>2017-04-24T08:58:49.000Z</time>
      </trkpt>
      <trkpt lat="46.83148" lon="6.53419">
        <ele>1320.1999511719</ele>
        <time>2017-04-24T08:58:50.000Z</time>
      </trkpt>
      <trkpt lat="46.8315" lon="6.53426">
        <ele>1320.1999511719</ele>
        <time>2017-04-24T08:58:51.000Z</time>
      </trkpt>
      <trkpt lat="46.83153" lon="6.53432">
        <ele>1320.1999511719</ele>
        <time>2017-04-24T08:58:52.000Z</time>
      </trkpt>
      <trkpt lat="46.83161" lon="6.53443">
        <ele>1320.1999511719</ele>
        <time>2017-04-24T08:58:54.000Z</time>
      </trkpt>
      <trkpt lat="46.83169" lon="6.53463">
        <ele>1319.8000488281</ele>
        <time>2017-04-24T08:58:57.000Z</time>
      </trkpt>
      <trkpt lat="46.83175" lon="6.53478">
        <ele>1319.1999511719</ele>
        <time>2017-04-24T08:58:59.000Z</time>
      </trkpt>
      <trkpt lat="46.83179" lon="6.53485">
        <ele>1319</ele>
        <time>2017-04-24T08:59:00.000Z</time>
      </trkpt>
      <trkpt lat="46.83182" lon="6.5349">
        <ele>1319.4000244141</ele>
        <time>2017-04-24T08:59:01.000Z</time>
      </trkpt>
      <trkpt lat="46.83186" lon="6.53495">
        <ele>1319</ele>
        <time>2017-04-24T08:59:02.000Z</time>
      </trkpt>
      <trkpt lat="46.83194" lon="6.53509">
        <ele>1319.4000244141</ele>
        <time>2017-04-24T08:59:05.000Z</time>
      </trkpt>
      <trkpt lat="46.832" lon="6.53528">
        <ele>1320</ele>
        <time>2017-04-24T08:59:09.000Z</time>
      </trkpt>
      <trkpt lat="46.83205" lon="6.53537">
        <ele>1320</ele>
        <time>2017-04-24T08:59:12.000Z</time>
      </trkpt>
      <trkpt lat="46.83205" lon="6.5354">
        <ele>1319.8000488281</ele>
        <time>2017-04-24T08:59:13.000Z</time>
      </trkpt>
      <trkpt lat="46.83202" lon="6.53547">
        <ele>1319.8000488281</ele>
        <time>2017-04-24T08:59:16.000Z</time>
      </trkpt>
      <trkpt lat="46.83199" lon="6.5355">
        <ele>1319.5999755859</ele>
        <time>2017-04-24T08:59:17.000Z</time>
      </trkpt>
      <trkpt lat="46.83192" lon="6.53556">
        <ele>1318.1999511719</ele>
        <time>2017-04-24T08:59:19.000Z</time>
      </trkpt>
      <trkpt lat="46.83185" lon="6.53564">
        <ele>1316.5999755859</ele>
        <time>2017-04-24T08:59:21.000Z</time>
      </trkpt>
      <trkpt lat="46.83179" lon="6.53572">
        <ele>1314.4000244141</ele>
        <time>2017-04-24T08:59:23.000Z</time>
      </trkpt>
      <trkpt lat="46.83173" lon="6.53577">
        <ele>1312.4000244141</ele>
        <time>2017-04-24T08:59:25.000Z</time>
      </trkpt>
      <trkpt lat="46.8317" lon="6.53579">
        <ele>1311.4000244141</ele>
        <time>2017-04-24T08:59:26.000Z</time>
      </trkpt>
      <trkpt lat="46.83166" lon="6.53582">
        <ele>1309.8000488281</ele>
        <time>2017-04-24T08:59:27.000Z</time>
      </trkpt>
      <trkpt lat="46.83162" lon="6.53585">
        <ele>1309.1999511719</ele>
        <time>2017-04-24T08:59:28.000Z</time>
      </trkpt>
      <trkpt lat="46.83158" lon="6.53588">
        <ele>1308.5999755859</ele>
        <time>2017-04-24T08:59:29.000Z</time>
      </trkpt>
      <trkpt lat="46.83155" lon="6.53588">
        <ele>1307.8000488281</ele>
        <time>2017-04-24T08:59:30.000Z</time>
      </trkpt>
      <trkpt lat="46.8315" lon="6.53587">
        <ele>1306.4000244141</ele>
        <time>2017-04-24T08:59:31.000Z</time>
      </trkpt>
      <trkpt lat="46.83145" lon="6.53586">
        <ele>1305.1999511719</ele>
        <time>2017-04-24T08:59:32.000Z</time>
      </trkpt>
      <trkpt lat="46.83138" lon="6.53586">
        <ele>1304</ele>
        <time>2017-04-24T08:59:33.000Z</time>
      </trkpt>
      <trkpt lat="46.83131" lon="6.53584">
        <ele>1302.8000488281</ele>
        <time>2017-04-24T08:59:34.000Z</time>
      </trkpt>
      <trkpt lat="46.83125" lon="6.53578">
        <ele>1301.1999511719</ele>
        <time>2017-04-24T08:59:35.000Z</time>
      </trkpt>
      <trkpt lat="46.83121" lon="6.53571">
        <ele>1300.1999511719</ele>
        <time>2017-04-24T08:59:36.000Z</time>
      </trkpt>
      <trkpt lat="46.83117" lon="6.53563">
        <ele>1299.5999755859</ele>
        <time>2017-04-24T08:59:37.000Z</time>
      </trkpt>
      <trkpt lat="46.83114" lon="6.53555">
        <ele>1299</ele>
        <time>2017-04-24T08:59:38.000Z</time>
      </trkpt>
      <trkpt lat="46.83111" lon="6.53547">
        <ele>1298</ele>
        <time>2017-04-24T08:59:39.000Z</time>
      </trkpt>
      <trkpt lat="46.8311" lon="6.53539">
        <ele>1297.4000244141</ele>
        <time>2017-04-24T08:59:40.000Z</time>
      </trkpt>
      <trkpt lat="46.83108" lon="6.53532">
        <ele>1297</ele>
        <time>2017-04-24T08:59:41.000Z</time>
      </trkpt>
      <trkpt lat="46.83107" lon="6.53525">
        <ele>1296.8000488281</ele>
        <time>2017-04-24T08:59:42.000Z</time>
      </trkpt>
      <trkpt lat="46.83104" lon="6.53516">
        <ele>1296.4000244141</ele>
        <time>2017-04-24T08:59:44.000Z</time>
      </trkpt>
      <trkpt lat="46.831" lon="6.53505">
        <ele>1297</ele>
        <time>2017-04-24T08:59:47.000Z</time>
      </trkpt>
      <trkpt lat="46.83098" lon="6.53497">
        <ele>1297.5999755859</ele>
        <time>2017-04-24T08:59:49.000Z</time>
      </trkpt>
      <trkpt lat="46.83095" lon="6.53486">
        <ele>1298</ele>
        <time>2017-04-24T08:59:51.000Z</time>
      </trkpt>
      <trkpt lat="46.8309" lon="6.53472">
        <ele>1298.1999511719</ele>
        <time>2017-04-24T08:59:53.000Z</time>
      </trkpt>
      <trkpt lat="46.83084" lon="6.53447">
        <ele>1298</ele>
        <time>2017-04-24T08:59:56.000Z</time>
      </trkpt>
      <trkpt lat="46.83082" lon="6.5344">
        <ele>1297.4000244141</ele>
        <time>2017-04-24T08:59:57.000Z</time>
      </trkpt>
      <trkpt lat="46.8308" lon="6.53431">
        <ele>1296.8000488281</ele>
        <time>2017-04-24T08:59:58.000Z</time>
      </trkpt>
      <trkpt lat="46.83077" lon="6.53415">
        <ele>1296</ele>
        <time>2017-04-24T09:00:00.000Z</time>
      </trkpt>
      <trkpt lat="46.83076" lon="6.53408">
        <ele>1295.5999755859</ele>
        <time>2017-04-24T09:00:01.000Z</time>
      </trkpt>
      <trkpt lat="46.83074" lon="6.53401">
        <ele>1294.5999755859</ele>
        <time>2017-04-24T09:00:02.000Z</time>
      </trkpt>
      <trkpt lat="46.83072" lon="6.53396">
        <ele>1294.1999511719</ele>
        <time>2017-04-24T09:00:03.000Z</time>
      </trkpt>
      <trkpt lat="46.83066" lon="6.53376">
        <ele>1293.4000244141</ele>
        <time>2017-04-24T09:00:06.000Z</time>
      </trkpt>
      <trkpt lat="46.83064" lon="6.53369">
        <ele>1292.8000488281</ele>
        <time>2017-04-24T09:00:07.000Z</time>
      </trkpt>
      <trkpt lat="46.83062" lon="6.53363">
        <ele>1292</ele>
        <time>2017-04-24T09:00:08.000Z</time>
      </trkpt>
      <trkpt lat="46.8306" lon="6.53359">
        <ele>1291.4000244141</ele>
        <time>2017-04-24T09:00:09.000Z</time>
      </trkpt>
      <trkpt lat="46.83058" lon="6.53354">
        <ele>1290.1999511719</ele>
        <time>2017-04-24T09:00:10.000Z</time>
      </trkpt>
      <trkpt lat="46.83053" lon="6.53352">
        <ele>1289.1999511719</ele>
        <time>2017-04-24T09:00:11.000Z</time>
      </trkpt>
      <trkpt lat="46.83048" lon="6.53349">
        <ele>1288.1999511719</ele>
        <time>2017-04-24T09:00:12.000Z</time>
      </trkpt>
      <trkpt lat="46.83044" lon="6.53343">
        <ele>1286.8000488281</ele>
        <time>2017-04-24T09:00:13.000Z</time>
      </trkpt>
      <trkpt lat="46.83041" lon="6.53337">
        <ele>1285.8000488281</ele>
        <time>2017-04-24T09:00:14.000Z</time>
      </trkpt>
      <trkpt lat="46.83036" lon="6.53331">
        <ele>1284.1999511719</ele>
        <time>2017-04-24T09:00:15.000Z</time>
      </trkpt>
      <trkpt lat="46.83032" lon="6.53323">
        <ele>1282.8000488281</ele>
        <time>2017-04-24T09:00:16.000Z</time>
      </trkpt>
      <trkpt lat="46.83029" lon="6.53318">
        <ele>1281.5999755859</ele>
        <time>2017-04-24T09:00:17.000Z</time>
      </trkpt>
      <trkpt lat="46.83024" lon="6.53313">
        <ele>1280.4000244141</ele>
        <time>2017-04-24T09:00:18.000Z</time>
      </trkpt>
      <trkpt lat="46.83013" lon="6.53302">
        <ele>1278.5999755859</ele>
        <time>2017-04-24T09:00:20.000Z</time>
      </trkpt>
      <trkpt lat="46.83007" lon="6.53296">
        <ele>1277.4000244141</ele>
        <time>2017-04-24T09:00:21.000Z</time>
      </trkpt>
      <trkpt lat="46.83001" lon="6.53288">
        <ele>1276.4000244141</ele>
        <time>2017-04-24T09:00:22.000Z</time>
      </trkpt>
      <trkpt lat="46.82997" lon="6.5328">
        <ele>1275</ele>
        <time>2017-04-24T09:00:23.000Z</time>
      </trkpt>
      <trkpt lat="46.82993" lon="6.5327">
        <ele>1273.8000488281</ele>
        <time>2017-04-24T09:00:24.000Z</time>
      </trkpt>
      <trkpt lat="46.82988" lon="6.5326">
        <ele>1272.5999755859</ele>
        <time>2017-04-24T09:00:25.000Z</time>
      </trkpt>
      <trkpt lat="46.82984" lon="6.53251">
        <ele>1271.1999511719</ele>
        <time>2017-04-24T09:00:26.000Z</time>
      </trkpt>
      <trkpt lat="46.82979" lon="6.53242">
        <ele>1270</ele>
        <time>2017-04-24T09:00:27.000Z</time>
      </trkpt>
      <trkpt lat="46.82976" lon="6.53233">
        <ele>1269.1999511719</ele>
        <time>2017-04-24T09:00:28.000Z</time>
      </trkpt>
      <trkpt lat="46.82973" lon="6.53224">
        <ele>1268.4000244141</ele>
        <time>2017-04-24T09:00:29.000Z</time>
      </trkpt>
      <trkpt lat="46.8297" lon="6.53215">
        <ele>1266.5999755859</ele>
        <time>2017-04-24T09:00:30.000Z</time>
      </trkpt>
      <trkpt lat="46.82968" lon="6.53207">
        <ele>1265</ele>
        <time>2017-04-24T09:00:31.000Z</time>
      </trkpt>
      <trkpt lat="46.82964" lon="6.532">
        <ele>1263.4000244141</ele>
        <time>2017-04-24T09:00:32.000Z</time>
      </trkpt>
      <trkpt lat="46.8296" lon="6.53195">
        <ele>1262.4000244141</ele>
        <time>2017-04-24T09:00:33.000Z</time>
      </trkpt>
      <trkpt lat="46.82957" lon="6.53194">
        <ele>1261</ele>
        <time>2017-04-24T09:00:34.000Z</time>
      </trkpt>
      <trkpt lat="46.82955" lon="6.53196">
        <ele>1260</ele>
        <time>2017-04-24T09:00:35.000Z</time>
      </trkpt>
      <trkpt lat="46.82952" lon="6.53205">
        <ele>1258.8000488281</ele>
        <time>2017-04-24T09:00:37.000Z</time>
      </trkpt>
      <trkpt lat="46.82951" lon="6.53212">
        <ele>1258.5999755859</ele>
        <time>2017-04-24T09:00:38.000Z</time>
      </trkpt>
      <trkpt lat="46.8295" lon="6.5323">
        <ele>1257.1999511719</ele>
        <time>2017-04-24T09:00:40.000Z</time>
      </trkpt>
      <trkpt lat="46.82948" lon="6.53241">
        <ele>1256.1999511719</ele>
        <time>2017-04-24T09:00:41.000Z</time>
      </trkpt>
      <trkpt lat="46.82946" lon="6.53252">
        <ele>1255</ele>
        <time>2017-04-24T09:00:42.000Z</time>
      </trkpt>
      <trkpt lat="46.82941" lon="6.53272">
        <ele>1252.8000488281</ele>
        <time>2017-04-24T09:00:44.000Z</time>
      </trkpt>
      <trkpt lat="46.82942" lon="6.5328">
        <ele>1251.4000244141</ele>
        <time>2017-04-24T09:00:45.000Z</time>
      </trkpt>
      <trkpt lat="46.82943" lon="6.53288">
        <ele>1250.1999511719</ele>
        <time>2017-04-24T09:00:46.000Z</time>
      </trkpt>
      <trkpt lat="46.82944" lon="6.53303">
        <ele>1248.8000488281</ele>
        <time>2017-04-24T09:00:48.000Z</time>
      </trkpt>
      <trkpt lat="46.82945" lon="6.53314">
        <ele>1248.5999755859</ele>
        <time>2017-04-24T09:00:50.000Z</time>
      </trkpt>
      <trkpt lat="46.82946" lon="6.53329">
        <ele>1250</ele>
        <time>2017-04-24T09:00:54.000Z</time>
      </trkpt>
      <trkpt lat="46.82948" lon="6.53342">
        <ele>1251.1999511719</ele>
        <time>2017-04-24T09:00:57.000Z</time>
      </trkpt>
      <trkpt lat="46.8295" lon="6.53352">
        <ele>1251.5999755859</ele>
        <time>2017-04-24T09:00:59.000Z</time>
      </trkpt>
      <trkpt lat="46.82952" lon="6.53356">
        <ele>1252</ele>
        <time>2017-04-24T09:01:00.000Z</time>
      </trkpt>
      <trkpt lat="46.82954" lon="6.53361">
        <ele>1252.4000244141</ele>
        <time>2017-04-24T09:01:01.000Z</time>
      </trkpt>
      <trkpt lat="46.82958" lon="6.53369">
        <ele>1253.4000244141</ele>
        <time>2017-04-24T09:01:03.000Z</time>
      </trkpt>
      <trkpt lat="46.8296" lon="6.53373">
        <ele>1253.8000488281</ele>
        <time>2017-04-24T09:01:04.000Z</time>
      </trkpt>
      <trkpt lat="46.82966" lon="6.53384">
        <ele>1255.1999511719</ele>
        <time>2017-04-24T09:01:08.000Z</time>
      </trkpt>
      <trkpt lat="46.82969" lon="6.53387">
        <ele>1255.8000488281</ele>
        <time>2017-04-24T09:01:09.000Z</time>
      </trkpt>
      <trkpt lat="46.82971" lon="6.53389">
        <ele>1256.5999755859</ele>
        <time>2017-04-24T09:01:10.000Z</time>
      </trkpt>
      <trkpt lat="46.82974" lon="6.53392">
        <ele>1257.1999511719</ele>
        <time>2017-04-24T09:01:11.000Z</time>
      </trkpt>
      <trkpt lat="46.82976" lon="6.53395">
        <ele>1258</ele>
        <time>2017-04-24T09:01:12.000Z</time>
      </trkpt>
      <trkpt lat="46.82978" lon="6.53399">
        <ele>1258.4000244141</ele>
        <time>2017-04-24T09:01:13.000Z</time>
      </trkpt>
      <trkpt lat="46.82981" lon="6.53406">
        <ele>1258.8000488281</ele>
        <time>2017-04-24T09:01:15.000Z</time>
      </trkpt>
      <trkpt lat="46.82982" lon="6.53409">
        <ele>1259.1999511719</ele>
        <time>2017-04-24T09:01:16.000Z</time>
      </trkpt>
      <trkpt lat="46.82986" lon="6.53415">
        <ele>1259.5999755859</ele>
        <time>2017-04-24T09:01:18.000Z</time>
      </trkpt>
      <trkpt lat="46.82989" lon="6.53421">
        <ele>1260.8000488281</ele>
        <time>2017-04-24T09:01:20.000Z</time>
      </trkpt>
      <trkpt lat="46.82991" lon="6.5343">
        <ele>1261.5999755859</ele>
        <time>2017-04-24T09:01:23.000Z</time>
      </trkpt>
      <trkpt lat="46.82995" lon="6.53437">
        <ele>1262</ele>
        <time>2017-04-24T09:01:25.000Z</time>
      </trkpt>
      <trkpt lat="46.82998" lon="6.53447">
        <ele>1262.4000244141</ele>
        <time>2017-04-24T09:01:28.000Z</time>
      </trkpt>
      <trkpt lat="46.83" lon="6.53456">
        <ele>1263.1999511719</ele>
        <time>2017-04-24T09:01:30.000Z</time>
      </trkpt>
      <trkpt lat="46.83001" lon="6.53461">
        <ele>1264</ele>
        <time>2017-04-24T09:01:32.000Z</time>
      </trkpt>
      <trkpt lat="46.83001" lon="6.53478">
        <ele>1264</ele>
        <time>2017-04-24T09:01:35.000Z</time>
      </trkpt>
      <trkpt lat="46.83004" lon="6.53497">
        <ele>1262.4000244141</ele>
        <time>2017-04-24T09:01:38.000Z</time>
      </trkpt>
      <trkpt lat="46.83004" lon="6.53506">
        <ele>1261.8000488281</ele>
        <time>2017-04-24T09:01:39.000Z</time>
      </trkpt>
      <trkpt lat="46.83004" lon="6.53524">
        <ele>1260.4000244141</ele>
        <time>2017-04-24T09:01:41.000Z</time>
      </trkpt>
      <trkpt lat="46.83005" lon="6.53534">
        <ele>1259.8000488281</ele>
        <time>2017-04-24T09:01:42.000Z</time>
      </trkpt>
      <trkpt lat="46.83006" lon="6.53543">
        <ele>1259.1999511719</ele>
        <time>2017-04-24T09:01:43.000Z</time>
      </trkpt>
      <trkpt lat="46.83007" lon="6.53552">
        <ele>1258.1999511719</ele>
        <time>2017-04-24T09:01:44.000Z</time>
      </trkpt>
      <trkpt lat="46.83008" lon="6.53559">
        <ele>1257</ele>
        <time>2017-04-24T09:01:45.000Z</time>
      </trkpt>
      <trkpt lat="46.83008" lon="6.53566">
        <ele>1255.8000488281</ele>
        <time>2017-04-24T09:01:46.000Z</time>
      </trkpt>
      <trkpt lat="46.83009" lon="6.53579">
        <ele>1254.1999511719</ele>
        <time>2017-04-24T09:01:48.000Z</time>
      </trkpt>
      <trkpt lat="46.8301" lon="6.53584">
        <ele>1253.5999755859</ele>
        <time>2017-04-24T09:01:49.000Z</time>
      </trkpt>
      <trkpt lat="46.83012" lon="6.53589">
        <ele>1252.5999755859</ele>
        <time>2017-04-24T09:01:50.000Z</time>
      </trkpt>
      <trkpt lat="46.83017" lon="6.53604">
        <ele>1251.5999755859</ele>
        <time>2017-04-24T09:01:53.000Z</time>
      </trkpt>
      <trkpt lat="46.83019" lon="6.53608">
        <ele>1251.4000244141</ele>
        <time>2017-04-24T09:01:54.000Z</time>
      </trkpt>
      <trkpt lat="46.83022" lon="6.53611">
        <ele>1251.4000244141</ele>
        <time>2017-04-24T09:01:55.000Z</time>
      </trkpt>
      <trkpt lat="46.83026" lon="6.53621">
        <ele>1252.4000244141</ele>
        <time>2017-04-24T09:01:58.000Z</time>
      </trkpt>
      <trkpt lat="46.83027" lon="6.53625">
        <ele>1253</ele>
        <time>2017-04-24T09:01:59.000Z</time>
      </trkpt>
      <trkpt lat="46.8303" lon="6.53634">
        <ele>1254</ele>
        <time>2017-04-24T09:02:01.000Z</time>
      </trkpt>
      <trkpt lat="46.83031" lon="6.53637">
        <ele>1254.1999511719</ele>
        <time>2017-04-24T09:02:02.000Z</time>
      </trkpt>
      <trkpt lat="46.83033" lon="6.53645">
        <ele>1254.5999755859</ele>
        <time>2017-04-24T09:02:04.000Z</time>
      </trkpt>
      <trkpt lat="46.83036" lon="6.53652">
        <ele>1255.4000244141</ele>
        <time>2017-04-24T09:02:06.000Z</time>
      </trkpt>
      <trkpt lat="46.83041" lon="6.53669">
        <ele>1256</ele>
        <time>2017-04-24T09:02:10.000Z</time>
      </trkpt>
      <trkpt lat="46.83049" lon="6.53688">
        <ele>1255.5999755859</ele>
        <time>2017-04-24T09:02:14.000Z</time>
      </trkpt>
      <trkpt lat="46.83057" lon="6.53706">
        <ele>1254.4000244141</ele>
        <time>2017-04-24T09:02:18.000Z</time>
      </trkpt>
      <trkpt lat="46.83058" lon="6.53714">
        <ele>1254.1999511719</ele>
        <time>2017-04-24T09:02:19.000Z</time>
      </trkpt>
      <trkpt lat="46.83061" lon="6.53727">
        <ele>1252.8000488281</ele>
        <time>2017-04-24T09:02:21.000Z</time>
      </trkpt>
      <trkpt lat="46.83059" lon="6.53729">
        <ele>1252</ele>
        <time>2017-04-24T09:02:22.000Z</time>
      </trkpt>
      <trkpt lat="46.83058" lon="6.5373">
        <ele>1251.1999511719</ele>
        <time>2017-04-24T09:02:23.000Z</time>
      </trkpt>
      <trkpt lat="46.83052" lon="6.53739">
        <ele>1249.5999755859</ele>
        <time>2017-04-24T09:02:26.000Z</time>
      </trkpt>
      <trkpt lat="46.83051" lon="6.53755">
        <ele>1248.1999511719</ele>
        <time>2017-04-24T09:02:28.000Z</time>
      </trkpt>
      <trkpt lat="46.83052" lon="6.53761">
        <ele>1247.1999511719</ele>
        <time>2017-04-24T09:02:29.000Z</time>
      </trkpt>
      <trkpt lat="46.83053" lon="6.53772">
        <ele>1245.8000488281</ele>
        <time>2017-04-24T09:02:31.000Z</time>
      </trkpt>
      <trkpt lat="46.83055" lon="6.53777">
        <ele>1245.5999755859</ele>
        <time>2017-04-24T09:02:32.000Z</time>
      </trkpt>
      <trkpt lat="46.83061" lon="6.538">
        <ele>1245.5999755859</ele>
        <time>2017-04-24T09:02:37.000Z</time>
      </trkpt>
      <trkpt lat="46.83062" lon="6.5381">
        <ele>1245.8000488281</ele>
        <time>2017-04-24T09:02:40.000Z</time>
      </trkpt>
      <trkpt lat="46.83062" lon="6.53815">
        <ele>1245.8000488281</ele>
        <time>2017-04-24T09:02:41.000Z</time>
      </trkpt>
      <trkpt lat="46.83064" lon="6.53845">
        <ele>1245.1999511719</ele>
        <time>2017-04-24T09:02:46.000Z</time>
      </trkpt>
      <trkpt lat="46.83066" lon="6.53856">
        <ele>1244.5999755859</ele>
        <time>2017-04-24T09:02:48.000Z</time>
      </trkpt>
      <trkpt lat="46.83072" lon="6.53871">
        <ele>1244.5999755859</ele>
        <time>2017-04-24T09:02:51.000Z</time>
      </trkpt>
      <trkpt lat="46.83077" lon="6.53878">
        <ele>1245.8000488281</ele>
        <time>2017-04-24T09:02:54.000Z</time>
      </trkpt>
      <trkpt lat="46.83078" lon="6.53881">
        <ele>1246.1999511719</ele>
        <time>2017-04-24T09:02:55.000Z</time>
      </trkpt>
      <trkpt lat="46.83082" lon="6.53887">
        <ele>1247</ele>
        <time>2017-04-24T09:02:57.000Z</time>
      </trkpt>
      <trkpt lat="46.83087" lon="6.53891">
        <ele>1247.4000244141</ele>
        <time>2017-04-24T09:02:59.000Z</time>
      </trkpt>
      <trkpt lat="46.83089" lon="6.53893">
        <ele>1248</ele>
        <time>2017-04-24T09:03:00.000Z</time>
      </trkpt>
      <trkpt lat="46.83093" lon="6.53897">
        <ele>1249.1999511719</ele>
        <time>2017-04-24T09:03:02.000Z</time>
      </trkpt>
      <trkpt lat="46.83096" lon="6.53899">
        <ele>1250.8000488281</ele>
        <time>2017-04-24T09:03:04.000Z</time>
      </trkpt>
      <trkpt lat="46.83097" lon="6.53899">
        <ele>1251.4000244141</ele>
        <time>2017-04-24T09:03:05.000Z</time>
      </trkpt>
      <trkpt lat="46.831" lon="6.53903">
        <ele>1252.1999511719</ele>
        <time>2017-04-24T09:03:07.000Z</time>
      </trkpt>
      <trkpt lat="46.83103" lon="6.53905">
        <ele>1253.5999755859</ele>
        <time>2017-04-24T09:03:09.000Z</time>
      </trkpt>
      <trkpt lat="46.83104" lon="6.53906">
        <ele>1253.8000488281</ele>
        <time>2017-04-24T09:03:10.000Z</time>
      </trkpt>
      <trkpt lat="46.83107" lon="6.5391">
        <ele>1254.8000488281</ele>
        <time>2017-04-24T09:03:12.000Z</time>
      </trkpt>
      <trkpt lat="46.8311" lon="6.53916">
        <ele>1255.1999511719</ele>
        <time>2017-04-24T09:03:14.000Z</time>
      </trkpt>
      <trkpt lat="46.83116" lon="6.53928">
        <ele>1254.8000488281</ele>
        <time>2017-04-24T09:03:18.000Z</time>
      </trkpt>
      <trkpt lat="46.83117" lon="6.53931">
        <ele>1254.8000488281</ele>
        <time>2017-04-24T09:03:19.000Z</time>
      </trkpt>
      <trkpt lat="46.83127" lon="6.53949">
        <ele>1255.1999511719</ele>
        <time>2017-04-24T09:03:23.000Z</time>
      </trkpt>
      <trkpt lat="46.83131" lon="6.53959">
        <ele>1255</ele>
        <time>2017-04-24T09:03:26.000Z</time>
      </trkpt>
      <trkpt lat="46.83125" lon="6.53961">
        <ele>1254</ele>
        <time>2017-04-24T09:03:29.000Z</time>
      </trkpt>
      <trkpt lat="46.83125" lon="6.53959">
        <ele>1253.8000488281</ele>
        <time>2017-04-24T09:03:30.000Z</time>
      </trkpt>
      <trkpt lat="46.83124" lon="6.53956">
        <ele>1253.1999511719</ele>
        <time>2017-04-24T09:03:32.000Z</time>
      </trkpt>
      <trkpt lat="46.8312" lon="6.53951">
        <ele>1253</ele>
        <time>2017-04-24T09:03:35.000Z</time>
      </trkpt>
      <trkpt lat="46.83118" lon="6.5395">
        <ele>1252.8000488281</ele>
        <time>2017-04-24T09:03:36.000Z</time>
      </trkpt>
      <trkpt lat="46.83117" lon="6.5395">
        <ele>1252.5999755859</ele>
        <time>2017-04-24T09:03:37.000Z</time>
      </trkpt>
      <trkpt lat="46.83117" lon="6.53952">
        <ele>1252</ele>
        <time>2017-04-24T09:03:39.000Z</time>
      </trkpt>
      <trkpt lat="46.83118" lon="6.53954">
        <ele>1251.5999755859</ele>
        <time>2017-04-24T09:03:40.000Z</time>
      </trkpt>
      <trkpt lat="46.83119" lon="6.53958">
        <ele>1250.1999511719</ele>
        <time>2017-04-24T09:03:43.000Z</time>
      </trkpt>
      <trkpt lat="46.83116" lon="6.53957">
        <ele>1249</ele>
        <time>2017-04-24T09:03:47.000Z</time>
      </trkpt>
      <trkpt lat="46.83115" lon="6.53955">
        <ele>1248.8000488281</ele>
        <time>2017-04-24T09:03:48.000Z</time>
      </trkpt>
      <trkpt lat="46.83114" lon="6.53949">
        <ele>1248.4000244141</ele>
        <time>2017-04-24T09:03:50.000Z</time>
      </trkpt>
      <trkpt lat="46.8311" lon="6.53945">
        <ele>1247.8000488281</ele>
        <time>2017-04-24T09:03:52.000Z</time>
      </trkpt>
      <trkpt lat="46.83108" lon="6.53954">
        <ele>1247.1999511719</ele>
        <time>2017-04-24T09:03:55.000Z</time>
      </trkpt>
      <trkpt lat="46.83107" lon="6.53959">
        <ele>1247</ele>
        <time>2017-04-24T09:03:56.000Z</time>
      </trkpt>
      <trkpt lat="46.83108" lon="6.53965">
        <ele>1246.4000244141</ele>
        <time>2017-04-24T09:03:57.000Z</time>
      </trkpt>
      <trkpt lat="46.83108" lon="6.53969">
        <ele>1245.5999755859</ele>
        <time>2017-04-24T09:03:58.000Z</time>
      </trkpt>
      <trkpt lat="46.83108" lon="6.53971">
        <ele>1244.5999755859</ele>
        <time>2017-04-24T09:03:59.000Z</time>
      </trkpt>
      <trkpt lat="46.83107" lon="6.53971">
        <ele>1243.1999511719</ele>
        <time>2017-04-24T09:04:00.000Z</time>
      </trkpt>
      <trkpt lat="46.83105" lon="6.53972">
        <ele>1242.8000488281</ele>
        <time>2017-04-24T09:04:01.000Z</time>
      </trkpt>
      <trkpt lat="46.83104" lon="6.53972">
        <ele>1242.5999755859</ele>
        <time>2017-04-24T09:04:02.000Z</time>
      </trkpt>
      <trkpt lat="46.831" lon="6.53969">
        <ele>1242</ele>
        <time>2017-04-24T09:04:04.000Z</time>
      </trkpt>
      <trkpt lat="46.83099" lon="6.53967">
        <ele>1241.5999755859</ele>
        <time>2017-04-24T09:04:05.000Z</time>
      </trkpt>
      <trkpt lat="46.83097" lon="6.53966">
        <ele>1241.4000244141</ele>
        <time>2017-04-24T09:04:06.000Z</time>
      </trkpt>
      <trkpt lat="46.83095" lon="6.53968">
        <ele>1240.8000488281</ele>
        <time>2017-04-24T09:04:08.000Z</time>
      </trkpt>
      <trkpt lat="46.83094" lon="6.53969">
        <ele>1240.5999755859</ele>
        <time>2017-04-24T09:04:09.000Z</time>
      </trkpt>
      <trkpt lat="46.83092" lon="6.53969">
        <ele>1239.5999755859</ele>
        <time>2017-04-24T09:04:10.000Z</time>
      </trkpt>
      <trkpt lat="46.83089" lon="6.5397">
        <ele>1238.8000488281</ele>
        <time>2017-04-24T09:04:12.000Z</time>
      </trkpt>
      <trkpt lat="46.83087" lon="6.5397">
        <ele>1238.1999511719</ele>
        <time>2017-04-24T09:04:13.000Z</time>
      </trkpt>
      <trkpt lat="46.83087" lon="6.53975">
        <ele>1237</ele>
        <time>2017-04-24T09:04:15.000Z</time>
      </trkpt>
      <trkpt lat="46.83088" lon="6.53986">
        <ele>1236</ele>
        <time>2017-04-24T09:04:18.000Z</time>
      </trkpt>
      <trkpt lat="46.83088" lon="6.53989">
        <ele>1235.5999755859</ele>
        <time>2017-04-24T09:04:19.000Z</time>
      </trkpt>
      <trkpt lat="46.83088" lon="6.53994">
        <ele>1235.1999511719</ele>
        <time>2017-04-24T09:04:20.000Z</time>
      </trkpt>
      <trkpt lat="46.83088" lon="6.54001">
        <ele>1234.8000488281</ele>
        <time>2017-04-24T09:04:21.000Z</time>
      </trkpt>
      <trkpt lat="46.8309" lon="6.54009">
        <ele>1234</ele>
        <time>2017-04-24T09:04:22.000Z</time>
      </trkpt>
      <trkpt lat="46.83092" lon="6.54017">
        <ele>1233</ele>
        <time>2017-04-24T09:04:23.000Z</time>
      </trkpt>
      <trkpt lat="46.83094" lon="6.54033">
        <ele>1231.5999755859</ele>
        <time>2017-04-24T09:04:25.000Z</time>
      </trkpt>
      <trkpt lat="46.83092" lon="6.54051">
        <ele>1230.4000244141</ele>
        <time>2017-04-24T09:04:28.000Z</time>
      </trkpt>
      <trkpt lat="46.83078" lon="6.5407">
        <ele>1229.8000488281</ele>
        <time>2017-04-24T09:04:31.000Z</time>
      </trkpt>
      <trkpt lat="46.83073" lon="6.54076">
        <ele>1229</ele>
        <time>2017-04-24T09:04:32.000Z</time>
      </trkpt>
      <trkpt lat="46.8307" lon="6.54084">
        <ele>1227.8000488281</ele>
        <time>2017-04-24T09:04:33.000Z</time>
      </trkpt>
      <trkpt lat="46.83067" lon="6.5409">
        <ele>1226.8000488281</ele>
        <time>2017-04-24T09:04:34.000Z</time>
      </trkpt>
      <trkpt lat="46.83062" lon="6.54094">
        <ele>1226.1999511719</ele>
        <time>2017-04-24T09:04:35.000Z</time>
      </trkpt>
      <trkpt lat="46.83051" lon="6.54098">
        <ele>1224.4000244141</ele>
        <time>2017-04-24T09:04:37.000Z</time>
      </trkpt>
      <trkpt lat="46.83039" lon="6.54093">
        <ele>1222.5999755859</ele>
        <time>2017-04-24T09:04:39.000Z</time>
      </trkpt>
      <trkpt lat="46.83032" lon="6.54092">
        <ele>1221.4000244141</ele>
        <time>2017-04-24T09:04:40.000Z</time>
      </trkpt>
      <trkpt lat="46.83022" lon="6.54094">
        <ele>1220.1999511719</ele>
        <time>2017-04-24T09:04:42.000Z</time>
      </trkpt>
      <trkpt lat="46.83018" lon="6.54092">
        <ele>1219.5999755859</ele>
        <time>2017-04-24T09:04:43.000Z</time>
      </trkpt>
      <trkpt lat="46.83016" lon="6.54089">
        <ele>1219</ele>
        <time>2017-04-24T09:04:44.000Z</time>
      </trkpt>
      <trkpt lat="46.8301" lon="6.5408">
        <ele>1217.8000488281</ele>
        <time>2017-04-24T09:04:46.000Z</time>
      </trkpt>
      <trkpt lat="46.83006" lon="6.54066">
        <ele>1216.8000488281</ele>
        <time>2017-04-24T09:04:48.000Z</time>
      </trkpt>
      <trkpt lat="46.83" lon="6.54051">
        <ele>1216.4000244141</ele>
        <time>2017-04-24T09:04:50.000Z</time>
      </trkpt>
      <trkpt lat="46.82994" lon="6.54036">
        <ele>1216.1999511719</ele>
        <time>2017-04-24T09:04:52.000Z</time>
      </trkpt>
      <trkpt lat="46.82989" lon="6.54022">
        <ele>1215.5999755859</ele>
        <time>2017-04-24T09:04:54.000Z</time>
      </trkpt>
      <trkpt lat="46.82987" lon="6.54015">
        <ele>1215.4000244141</ele>
        <time>2017-04-24T09:04:55.000Z</time>
      </trkpt>
      <trkpt lat="46.82989" lon="6.53997">
        <ele>1215</ele>
        <time>2017-04-24T09:04:58.000Z</time>
      </trkpt>
      <trkpt lat="46.82999" lon="6.53979">
        <ele>1216.1999511719</ele>
        <time>2017-04-24T09:05:03.000Z</time>
      </trkpt>
      <trkpt lat="46.83001" lon="6.53976">
        <ele>1216.5999755859</ele>
        <time>2017-04-24T09:05:04.000Z</time>
      </trkpt>
      <trkpt lat="46.83005" lon="6.53967">
        <ele>1217.8000488281</ele>
        <time>2017-04-24T09:05:07.000Z</time>
      </trkpt>
      <trkpt lat="46.83006" lon="6.53963">
        <ele>1218.1999511719</ele>
        <time>2017-04-24T09:05:08.000Z</time>
      </trkpt>
      <trkpt lat="46.83005" lon="6.53954">
        <ele>1218.8000488281</ele>
        <time>2017-04-24T09:05:10.000Z</time>
      </trkpt>
      <trkpt lat="46.83002" lon="6.53936">
        <ele>1219.8000488281</ele>
        <time>2017-04-24T09:05:14.000Z</time>
      </trkpt>
      <trkpt lat="46.83" lon="6.53931">
        <ele>1220</ele>
        <time>2017-04-24T09:05:15.000Z</time>
      </trkpt>
      <trkpt lat="46.82999" lon="6.53925">
        <ele>1220</ele>
        <time>2017-04-24T09:05:16.000Z</time>
      </trkpt>
      <trkpt lat="46.82999" lon="6.53911">
        <ele>1221.1999511719</ele>
        <time>2017-04-24T09:05:19.000Z</time>
      </trkpt>
      <trkpt lat="46.82995" lon="6.53897">
        <ele>1222.4000244141</ele>
        <time>2017-04-24T09:05:22.000Z</time>
      </trkpt>
      <trkpt lat="46.82994" lon="6.53893">
        <ele>1222.5999755859</ele>
        <time>2017-04-24T09:05:23.000Z</time>
      </trkpt>
      <trkpt lat="46.82985" lon="6.53875">
        <ele>1223</ele>
        <time>2017-04-24T09:05:27.000Z</time>
      </trkpt>
      <trkpt lat="46.82981" lon="6.53872">
        <ele>1222.8000488281</ele>
        <time>2017-04-24T09:05:28.000Z</time>
      </trkpt>
      <trkpt lat="46.82963" lon="6.53864">
        <ele>1221.1999511719</ele>
        <time>2017-04-24T09:05:31.000Z</time>
      </trkpt>
      <trkpt lat="46.82952" lon="6.53852">
        <ele>1219.4000244141</ele>
        <time>2017-04-24T09:05:33.000Z</time>
      </trkpt>
      <trkpt lat="46.82949" lon="6.53845">
        <ele>1218.5999755859</ele>
        <time>2017-04-24T09:05:34.000Z</time>
      </trkpt>
      <trkpt lat="46.82947" lon="6.53839">
        <ele>1218</ele>
        <time>2017-04-24T09:05:35.000Z</time>
      </trkpt>
      <trkpt lat="46.82944" lon="6.53826">
        <ele>1217.1999511719</ele>
        <time>2017-04-24T09:05:37.000Z</time>
      </trkpt>
      <trkpt lat="46.82943" lon="6.53821">
        <ele>1217</ele>
        <time>2017-04-24T09:05:38.000Z</time>
      </trkpt>
      <trkpt lat="46.8294" lon="6.53809">
        <ele>1217.5999755859</ele>
        <time>2017-04-24T09:05:41.000Z</time>
      </trkpt>
      <trkpt lat="46.82938" lon="6.53806">
        <ele>1217.5999755859</ele>
        <time>2017-04-24T09:05:42.000Z</time>
      </trkpt>
      <trkpt lat="46.82933" lon="6.53798">
        <ele>1217.5999755859</ele>
        <time>2017-04-24T09:05:44.000Z</time>
      </trkpt>
      <trkpt lat="46.82929" lon="6.53786">
        <ele>1217.4000244141</ele>
        <time>2017-04-24T09:05:46.000Z</time>
      </trkpt>
      <trkpt lat="46.82922" lon="6.53769">
        <ele>1216.5999755859</ele>
        <time>2017-04-24T09:05:49.000Z</time>
      </trkpt>
      <trkpt lat="46.82919" lon="6.53767">
        <ele>1216</ele>
        <time>2017-04-24T09:05:50.000Z</time>
      </trkpt>
      <trkpt lat="46.82914" lon="6.53772">
        <ele>1215.1999511719</ele>
        <time>2017-04-24T09:05:52.000Z</time>
      </trkpt>
      <trkpt lat="46.82913" lon="6.53777">
        <ele>1214.8000488281</ele>
        <time>2017-04-24T09:05:53.000Z</time>
      </trkpt>
      <trkpt lat="46.82914" lon="6.53786">
        <ele>1214.1999511719</ele>
        <time>2017-04-24T09:05:55.000Z</time>
      </trkpt>
      <trkpt lat="46.82915" lon="6.53796">
        <ele>1214</ele>
        <time>2017-04-24T09:05:57.000Z</time>
      </trkpt>
      <trkpt lat="46.8292" lon="6.53818">
        <ele>1215</ele>
        <time>2017-04-24T09:06:01.000Z</time>
      </trkpt>
      <trkpt lat="46.82921" lon="6.53824">
        <ele>1214.8000488281</ele>
        <time>2017-04-24T09:06:02.000Z</time>
      </trkpt>
      <trkpt lat="46.82922" lon="6.53844">
        <ele>1214.4000244141</ele>
        <time>2017-04-24T09:06:06.000Z</time>
      </trkpt>
      <trkpt lat="46.82922" lon="6.5385">
        <ele>1214.1999511719</ele>
        <time>2017-04-24T09:06:07.000Z</time>
      </trkpt>
      <trkpt lat="46.82928" lon="6.53869">
        <ele>1214.1999511719</ele>
        <time>2017-04-24T09:06:10.000Z</time>
      </trkpt>
      <trkpt lat="46.82935" lon="6.53895">
        <ele>1214.1999511719</ele>
        <time>2017-04-24T09:06:15.000Z</time>
      </trkpt>
      <trkpt lat="46.82935" lon="6.53895">
        <ele>1214</ele>
        <time>2017-04-24T09:06:16.000Z</time>
      </trkpt>
    </trkseg>
  </trk>
</gpx>